<?xml version="1.0" encoding="UTF-8" standalone="no" ?>
<gpx xmlns="http://www.topografix.com/GPX/1/1" xmlns:xsi="http://www.w3.org/2001/XMLSchema-instance" xsi:schemaLocation="http://www.topografix.com/GPX/1/1 http://www.topografix.com/GPX/1/1/gpx.xsd" version="1.1" creator="VisuGPX - https://www.visugpx.com">
  <metadata>
    <name>SE-NE-St Aignan Le Bignon Chateau Thébaud St Fiacre Vertou Basse Goulaine Chemin des Vallées Thouaré Nantes</name>
    <desc><![CDATA[SE-NE-St Aignan Le Bignon Chateau Thébaud St Fiacre Vertou Basse Goulaine Chemin des Vallées Thouaré Nantes]]></desc>
  </metadata>
  <trk>
    <name><![CDATA[2021-04-26 14:02 +02:00]]></name>
    <trkseg>
      <trkpt lat="47.16776" lon="-1.62669">
        <ele>75</ele>
        <time>2021-04-26T12:02:03.426Z</time>
      </trkpt>
      <trkpt lat="47.16786" lon="-1.62675">
        <ele>83</ele>
        <time>2021-04-26T12:02:07.004Z</time>
      </trkpt>
      <trkpt lat="47.16775" lon="-1.6267">
        <ele>80</ele>
        <time>2021-04-26T12:02:08.000Z</time>
      </trkpt>
      <trkpt lat="47.16772" lon="-1.62655">
        <ele>73</ele>
        <time>2021-04-26T12:03:14.000Z</time>
      </trkpt>
      <trkpt lat="47.16781" lon="-1.62662">
        <ele>70</ele>
        <time>2021-04-26T12:04:32.000Z</time>
      </trkpt>
      <trkpt lat="47.16776" lon="-1.62678">
        <ele>69</ele>
        <time>2021-04-26T12:04:35.000Z</time>
      </trkpt>
      <trkpt lat="47.16765" lon="-1.62677">
        <ele>70</ele>
        <time>2021-04-26T12:04:37.000Z</time>
      </trkpt>
      <trkpt lat="47.16755" lon="-1.62671">
        <ele>69</ele>
        <time>2021-04-26T12:04:39.000Z</time>
      </trkpt>
      <trkpt lat="47.16745" lon="-1.62676">
        <ele>70</ele>
        <time>2021-04-26T12:04:41.000Z</time>
      </trkpt>
      <trkpt lat="47.16735" lon="-1.62683">
        <ele>69</ele>
        <time>2021-04-26T12:04:43.000Z</time>
      </trkpt>
      <trkpt lat="47.16726" lon="-1.6269">
        <ele>70</ele>
        <time>2021-04-26T12:04:45.000Z</time>
      </trkpt>
      <trkpt lat="47.16716" lon="-1.62695">
        <ele>69</ele>
        <time>2021-04-26T12:04:47.000Z</time>
      </trkpt>
      <trkpt lat="47.16706" lon="-1.62685">
        <ele>69</ele>
        <time>2021-04-26T12:04:49.000Z</time>
      </trkpt>
      <trkpt lat="47.167" lon="-1.62669">
        <ele>69</ele>
        <time>2021-04-26T12:04:51.000Z</time>
      </trkpt>
      <trkpt lat="47.16696" lon="-1.62652">
        <ele>69</ele>
        <time>2021-04-26T12:04:53.000Z</time>
      </trkpt>
      <trkpt lat="47.16695" lon="-1.62634">
        <ele>69</ele>
        <time>2021-04-26T12:04:55.000Z</time>
      </trkpt>
      <trkpt lat="47.16695" lon="-1.62616">
        <ele>68</ele>
        <time>2021-04-26T12:04:57.000Z</time>
      </trkpt>
      <trkpt lat="47.16695" lon="-1.62599">
        <ele>68</ele>
        <time>2021-04-26T12:04:59.000Z</time>
      </trkpt>
      <trkpt lat="47.16696" lon="-1.62581">
        <ele>67</ele>
        <time>2021-04-26T12:05:01.000Z</time>
      </trkpt>
      <trkpt lat="47.16698" lon="-1.62564">
        <ele>67</ele>
        <time>2021-04-26T12:05:03.000Z</time>
      </trkpt>
      <trkpt lat="47.167" lon="-1.62547">
        <ele>67</ele>
        <time>2021-04-26T12:05:05.000Z</time>
      </trkpt>
      <trkpt lat="47.16702" lon="-1.6253">
        <ele>66</ele>
        <time>2021-04-26T12:05:07.000Z</time>
      </trkpt>
      <trkpt lat="47.16704" lon="-1.62513">
        <ele>66</ele>
        <time>2021-04-26T12:05:09.000Z</time>
      </trkpt>
      <trkpt lat="47.16707" lon="-1.62496">
        <ele>66</ele>
        <time>2021-04-26T12:05:11.000Z</time>
      </trkpt>
      <trkpt lat="47.16711" lon="-1.62479">
        <ele>66</ele>
        <time>2021-04-26T12:05:13.000Z</time>
      </trkpt>
      <trkpt lat="47.16714" lon="-1.62462">
        <ele>66</ele>
        <time>2021-04-26T12:05:15.000Z</time>
      </trkpt>
      <trkpt lat="47.16716" lon="-1.62446">
        <ele>67</ele>
        <time>2021-04-26T12:05:17.000Z</time>
      </trkpt>
      <trkpt lat="47.16718" lon="-1.6243">
        <ele>67</ele>
        <time>2021-04-26T12:05:19.000Z</time>
      </trkpt>
      <trkpt lat="47.16724" lon="-1.62416">
        <ele>67</ele>
        <time>2021-04-26T12:05:21.000Z</time>
      </trkpt>
      <trkpt lat="47.16719" lon="-1.62399">
        <ele>67</ele>
        <time>2021-04-26T12:05:24.000Z</time>
      </trkpt>
      <trkpt lat="47.16712" lon="-1.62386">
        <ele>67</ele>
        <time>2021-04-26T12:05:26.000Z</time>
      </trkpt>
      <trkpt lat="47.16703" lon="-1.62375">
        <ele>68</ele>
        <time>2021-04-26T12:05:28.000Z</time>
      </trkpt>
      <trkpt lat="47.16693" lon="-1.62364">
        <ele>68</ele>
        <time>2021-04-26T12:05:30.000Z</time>
      </trkpt>
      <trkpt lat="47.16682" lon="-1.62359">
        <ele>68</ele>
        <time>2021-04-26T12:05:32.000Z</time>
      </trkpt>
      <trkpt lat="47.16671" lon="-1.62359">
        <ele>69</ele>
        <time>2021-04-26T12:05:34.000Z</time>
      </trkpt>
      <trkpt lat="47.16659" lon="-1.62363">
        <ele>69</ele>
        <time>2021-04-26T12:05:36.000Z</time>
      </trkpt>
      <trkpt lat="47.16649" lon="-1.62371">
        <ele>68</ele>
        <time>2021-04-26T12:05:38.000Z</time>
      </trkpt>
      <trkpt lat="47.16639" lon="-1.6238">
        <ele>69</ele>
        <time>2021-04-26T12:05:40.000Z</time>
      </trkpt>
      <trkpt lat="47.16631" lon="-1.62391">
        <ele>69</ele>
        <time>2021-04-26T12:05:42.000Z</time>
      </trkpt>
      <trkpt lat="47.16623" lon="-1.62403">
        <ele>69</ele>
        <time>2021-04-26T12:05:44.000Z</time>
      </trkpt>
      <trkpt lat="47.16615" lon="-1.62416">
        <ele>69</ele>
        <time>2021-04-26T12:05:46.000Z</time>
      </trkpt>
      <trkpt lat="47.16608" lon="-1.62429">
        <ele>70</ele>
        <time>2021-04-26T12:05:48.000Z</time>
      </trkpt>
      <trkpt lat="47.16601" lon="-1.62444">
        <ele>71</ele>
        <time>2021-04-26T12:05:50.000Z</time>
      </trkpt>
      <trkpt lat="47.16595" lon="-1.62458">
        <ele>71</ele>
        <time>2021-04-26T12:05:52.000Z</time>
      </trkpt>
      <trkpt lat="47.16589" lon="-1.62473">
        <ele>71</ele>
        <time>2021-04-26T12:05:54.000Z</time>
      </trkpt>
      <trkpt lat="47.16583" lon="-1.62487">
        <ele>71</ele>
        <time>2021-04-26T12:05:56.000Z</time>
      </trkpt>
      <trkpt lat="47.16577" lon="-1.62502">
        <ele>71</ele>
        <time>2021-04-26T12:05:58.000Z</time>
      </trkpt>
      <trkpt lat="47.16571" lon="-1.62517">
        <ele>72</ele>
        <time>2021-04-26T12:06:00.000Z</time>
      </trkpt>
      <trkpt lat="47.16564" lon="-1.6253">
        <ele>72</ele>
        <time>2021-04-26T12:06:02.000Z</time>
      </trkpt>
      <trkpt lat="47.16557" lon="-1.62542">
        <ele>73</ele>
        <time>2021-04-26T12:06:04.000Z</time>
      </trkpt>
      <trkpt lat="47.16549" lon="-1.62553">
        <ele>74</ele>
        <time>2021-04-26T12:06:06.000Z</time>
      </trkpt>
      <trkpt lat="47.1654" lon="-1.62562">
        <ele>74</ele>
        <time>2021-04-26T12:06:08.000Z</time>
      </trkpt>
      <trkpt lat="47.16529" lon="-1.62566">
        <ele>75</ele>
        <time>2021-04-26T12:06:10.000Z</time>
      </trkpt>
      <trkpt lat="47.16517" lon="-1.62563">
        <ele>75</ele>
        <time>2021-04-26T12:06:12.000Z</time>
      </trkpt>
      <trkpt lat="47.16505" lon="-1.62559">
        <ele>75</ele>
        <time>2021-04-26T12:06:14.000Z</time>
      </trkpt>
      <trkpt lat="47.16493" lon="-1.62556">
        <ele>75</ele>
        <time>2021-04-26T12:06:16.000Z</time>
      </trkpt>
      <trkpt lat="47.16483" lon="-1.62553">
        <ele>76</ele>
        <time>2021-04-26T12:06:18.000Z</time>
      </trkpt>
      <trkpt lat="47.16472" lon="-1.6255">
        <ele>76</ele>
        <time>2021-04-26T12:06:20.000Z</time>
      </trkpt>
      <trkpt lat="47.16461" lon="-1.62546">
        <ele>76</ele>
        <time>2021-04-26T12:06:22.000Z</time>
      </trkpt>
      <trkpt lat="47.16449" lon="-1.62543">
        <ele>76</ele>
        <time>2021-04-26T12:06:24.000Z</time>
      </trkpt>
      <trkpt lat="47.16437" lon="-1.62541">
        <ele>76</ele>
        <time>2021-04-26T12:06:26.000Z</time>
      </trkpt>
      <trkpt lat="47.16427" lon="-1.62546">
        <ele>75</ele>
        <time>2021-04-26T12:06:28.000Z</time>
      </trkpt>
      <trkpt lat="47.16417" lon="-1.62556">
        <ele>75</ele>
        <time>2021-04-26T12:06:30.000Z</time>
      </trkpt>
      <trkpt lat="47.16407" lon="-1.62566">
        <ele>75</ele>
        <time>2021-04-26T12:06:32.000Z</time>
      </trkpt>
      <trkpt lat="47.16396" lon="-1.62577">
        <ele>75</ele>
        <time>2021-04-26T12:06:34.000Z</time>
      </trkpt>
      <trkpt lat="47.16383" lon="-1.62583">
        <ele>74</ele>
        <time>2021-04-26T12:06:36.000Z</time>
      </trkpt>
      <trkpt lat="47.16368" lon="-1.62584">
        <ele>74</ele>
        <time>2021-04-26T12:06:38.000Z</time>
      </trkpt>
      <trkpt lat="47.16354" lon="-1.62581">
        <ele>74</ele>
        <time>2021-04-26T12:06:40.000Z</time>
      </trkpt>
      <trkpt lat="47.1634" lon="-1.62576">
        <ele>74</ele>
        <time>2021-04-26T12:06:42.000Z</time>
      </trkpt>
      <trkpt lat="47.16326" lon="-1.62572">
        <ele>74</ele>
        <time>2021-04-26T12:06:44.000Z</time>
      </trkpt>
      <trkpt lat="47.16312" lon="-1.6257">
        <ele>74</ele>
        <time>2021-04-26T12:06:46.000Z</time>
      </trkpt>
      <trkpt lat="47.163" lon="-1.62576">
        <ele>74</ele>
        <time>2021-04-26T12:06:48.000Z</time>
      </trkpt>
      <trkpt lat="47.16291" lon="-1.6259">
        <ele>73</ele>
        <time>2021-04-26T12:06:50.000Z</time>
      </trkpt>
      <trkpt lat="47.16285" lon="-1.62609">
        <ele>73</ele>
        <time>2021-04-26T12:06:52.000Z</time>
      </trkpt>
      <trkpt lat="47.16281" lon="-1.62628">
        <ele>73</ele>
        <time>2021-04-26T12:06:54.000Z</time>
      </trkpt>
      <trkpt lat="47.16279" lon="-1.62648">
        <ele>73</ele>
        <time>2021-04-26T12:06:56.000Z</time>
      </trkpt>
      <trkpt lat="47.16277" lon="-1.62667">
        <ele>73</ele>
        <time>2021-04-26T12:06:58.000Z</time>
      </trkpt>
      <trkpt lat="47.16277" lon="-1.62685">
        <ele>73</ele>
        <time>2021-04-26T12:07:00.000Z</time>
      </trkpt>
      <trkpt lat="47.16279" lon="-1.62705">
        <ele>74</ele>
        <time>2021-04-26T12:07:02.000Z</time>
      </trkpt>
      <trkpt lat="47.16282" lon="-1.62722">
        <ele>74</ele>
        <time>2021-04-26T12:07:04.000Z</time>
      </trkpt>
      <trkpt lat="47.16278" lon="-1.62734">
        <ele>73</ele>
        <time>2021-04-26T12:07:06.000Z</time>
      </trkpt>
      <trkpt lat="47.16267" lon="-1.62737">
        <ele>73</ele>
        <time>2021-04-26T12:07:08.000Z</time>
      </trkpt>
      <trkpt lat="47.16254" lon="-1.62744">
        <ele>73</ele>
        <time>2021-04-26T12:07:10.000Z</time>
      </trkpt>
      <trkpt lat="47.1624" lon="-1.6275">
        <ele>73</ele>
        <time>2021-04-26T12:07:12.000Z</time>
      </trkpt>
      <trkpt lat="47.16225" lon="-1.62757">
        <ele>73</ele>
        <time>2021-04-26T12:07:14.000Z</time>
      </trkpt>
      <trkpt lat="47.1621" lon="-1.62765">
        <ele>72</ele>
        <time>2021-04-26T12:07:16.000Z</time>
      </trkpt>
      <trkpt lat="47.16195" lon="-1.62777">
        <ele>71</ele>
        <time>2021-04-26T12:07:18.000Z</time>
      </trkpt>
      <trkpt lat="47.1618" lon="-1.6279">
        <ele>70</ele>
        <time>2021-04-26T12:07:20.000Z</time>
      </trkpt>
      <trkpt lat="47.16165" lon="-1.62803">
        <ele>69</ele>
        <time>2021-04-26T12:07:22.000Z</time>
      </trkpt>
      <trkpt lat="47.1615" lon="-1.62816">
        <ele>69</ele>
        <time>2021-04-26T12:07:24.000Z</time>
      </trkpt>
      <trkpt lat="47.16135" lon="-1.62829">
        <ele>68</ele>
        <time>2021-04-26T12:07:26.000Z</time>
      </trkpt>
      <trkpt lat="47.1612" lon="-1.62842">
        <ele>67</ele>
        <time>2021-04-26T12:07:28.000Z</time>
      </trkpt>
      <trkpt lat="47.16105" lon="-1.62856">
        <ele>67</ele>
        <time>2021-04-26T12:07:30.000Z</time>
      </trkpt>
      <trkpt lat="47.1609" lon="-1.62869">
        <ele>67</ele>
        <time>2021-04-26T12:07:32.000Z</time>
      </trkpt>
      <trkpt lat="47.16075" lon="-1.62882">
        <ele>66</ele>
        <time>2021-04-26T12:07:34.000Z</time>
      </trkpt>
      <trkpt lat="47.1606" lon="-1.62896">
        <ele>66</ele>
        <time>2021-04-26T12:07:36.000Z</time>
      </trkpt>
      <trkpt lat="47.16045" lon="-1.62908">
        <ele>65</ele>
        <time>2021-04-26T12:07:38.000Z</time>
      </trkpt>
      <trkpt lat="47.1603" lon="-1.62922">
        <ele>65</ele>
        <time>2021-04-26T12:07:40.000Z</time>
      </trkpt>
      <trkpt lat="47.16023" lon="-1.62928">
        <ele>65</ele>
        <time>2021-04-26T12:07:41.000Z</time>
      </trkpt>
      <trkpt lat="47.16007" lon="-1.62941">
        <ele>64</ele>
        <time>2021-04-26T12:07:43.000Z</time>
      </trkpt>
      <trkpt lat="47.15992" lon="-1.62955">
        <ele>63</ele>
        <time>2021-04-26T12:07:45.000Z</time>
      </trkpt>
      <trkpt lat="47.15977" lon="-1.62968">
        <ele>63</ele>
        <time>2021-04-26T12:07:47.000Z</time>
      </trkpt>
      <trkpt lat="47.15969" lon="-1.62975">
        <ele>62</ele>
        <time>2021-04-26T12:07:48.000Z</time>
      </trkpt>
      <trkpt lat="47.15961" lon="-1.62982">
        <ele>62</ele>
        <time>2021-04-26T12:07:49.000Z</time>
      </trkpt>
      <trkpt lat="47.15953" lon="-1.6299">
        <ele>62</ele>
        <time>2021-04-26T12:07:50.000Z</time>
      </trkpt>
      <trkpt lat="47.15946" lon="-1.62997">
        <ele>61</ele>
        <time>2021-04-26T12:07:51.000Z</time>
      </trkpt>
      <trkpt lat="47.15938" lon="-1.63004">
        <ele>61</ele>
        <time>2021-04-26T12:07:52.000Z</time>
      </trkpt>
      <trkpt lat="47.15929" lon="-1.63011">
        <ele>61</ele>
        <time>2021-04-26T12:07:53.000Z</time>
      </trkpt>
      <trkpt lat="47.15921" lon="-1.63018">
        <ele>60</ele>
        <time>2021-04-26T12:07:54.000Z</time>
      </trkpt>
      <trkpt lat="47.15906" lon="-1.63031">
        <ele>60</ele>
        <time>2021-04-26T12:07:56.000Z</time>
      </trkpt>
      <trkpt lat="47.15898" lon="-1.63038">
        <ele>60</ele>
        <time>2021-04-26T12:07:57.000Z</time>
      </trkpt>
      <trkpt lat="47.15884" lon="-1.63051">
        <ele>60</ele>
        <time>2021-04-26T12:07:59.000Z</time>
      </trkpt>
      <trkpt lat="47.1587" lon="-1.63064">
        <ele>61</ele>
        <time>2021-04-26T12:08:01.000Z</time>
      </trkpt>
      <trkpt lat="47.15855" lon="-1.63076">
        <ele>61</ele>
        <time>2021-04-26T12:08:03.000Z</time>
      </trkpt>
      <trkpt lat="47.15842" lon="-1.63088">
        <ele>62</ele>
        <time>2021-04-26T12:08:05.000Z</time>
      </trkpt>
      <trkpt lat="47.15829" lon="-1.631">
        <ele>62</ele>
        <time>2021-04-26T12:08:07.000Z</time>
      </trkpt>
      <trkpt lat="47.15815" lon="-1.63112">
        <ele>62</ele>
        <time>2021-04-26T12:08:09.000Z</time>
      </trkpt>
      <trkpt lat="47.15801" lon="-1.63123">
        <ele>63</ele>
        <time>2021-04-26T12:08:11.000Z</time>
      </trkpt>
      <trkpt lat="47.15788" lon="-1.63135">
        <ele>63</ele>
        <time>2021-04-26T12:08:13.000Z</time>
      </trkpt>
      <trkpt lat="47.15775" lon="-1.63147">
        <ele>64</ele>
        <time>2021-04-26T12:08:15.000Z</time>
      </trkpt>
      <trkpt lat="47.15762" lon="-1.63158">
        <ele>64</ele>
        <time>2021-04-26T12:08:17.000Z</time>
      </trkpt>
      <trkpt lat="47.15748" lon="-1.63169">
        <ele>64</ele>
        <time>2021-04-26T12:08:19.000Z</time>
      </trkpt>
      <trkpt lat="47.15734" lon="-1.63181">
        <ele>64</ele>
        <time>2021-04-26T12:08:21.000Z</time>
      </trkpt>
      <trkpt lat="47.15722" lon="-1.63193">
        <ele>64</ele>
        <time>2021-04-26T12:08:23.000Z</time>
      </trkpt>
      <trkpt lat="47.15709" lon="-1.63205">
        <ele>64</ele>
        <time>2021-04-26T12:08:25.000Z</time>
      </trkpt>
      <trkpt lat="47.15696" lon="-1.63216">
        <ele>64</ele>
        <time>2021-04-26T12:08:27.000Z</time>
      </trkpt>
      <trkpt lat="47.15682" lon="-1.63229">
        <ele>64</ele>
        <time>2021-04-26T12:08:29.000Z</time>
      </trkpt>
      <trkpt lat="47.15668" lon="-1.63241">
        <ele>64</ele>
        <time>2021-04-26T12:08:31.000Z</time>
      </trkpt>
      <trkpt lat="47.15655" lon="-1.63253">
        <ele>64</ele>
        <time>2021-04-26T12:08:33.000Z</time>
      </trkpt>
      <trkpt lat="47.15641" lon="-1.63266">
        <ele>64</ele>
        <time>2021-04-26T12:08:35.000Z</time>
      </trkpt>
      <trkpt lat="47.15627" lon="-1.63279">
        <ele>64</ele>
        <time>2021-04-26T12:08:37.000Z</time>
      </trkpt>
      <trkpt lat="47.15613" lon="-1.63291">
        <ele>64</ele>
        <time>2021-04-26T12:08:39.000Z</time>
      </trkpt>
      <trkpt lat="47.15599" lon="-1.63303">
        <ele>65</ele>
        <time>2021-04-26T12:08:41.000Z</time>
      </trkpt>
      <trkpt lat="47.15585" lon="-1.63315">
        <ele>65</ele>
        <time>2021-04-26T12:08:43.000Z</time>
      </trkpt>
      <trkpt lat="47.15572" lon="-1.63328">
        <ele>66</ele>
        <time>2021-04-26T12:08:45.000Z</time>
      </trkpt>
      <trkpt lat="47.15559" lon="-1.6334">
        <ele>66</ele>
        <time>2021-04-26T12:08:47.000Z</time>
      </trkpt>
      <trkpt lat="47.15545" lon="-1.63351">
        <ele>66</ele>
        <time>2021-04-26T12:08:49.000Z</time>
      </trkpt>
      <trkpt lat="47.15532" lon="-1.63362">
        <ele>66</ele>
        <time>2021-04-26T12:08:51.000Z</time>
      </trkpt>
      <trkpt lat="47.15519" lon="-1.63374">
        <ele>67</ele>
        <time>2021-04-26T12:08:53.000Z</time>
      </trkpt>
      <trkpt lat="47.15507" lon="-1.63386">
        <ele>67</ele>
        <time>2021-04-26T12:08:55.000Z</time>
      </trkpt>
      <trkpt lat="47.15494" lon="-1.63397">
        <ele>68</ele>
        <time>2021-04-26T12:08:57.000Z</time>
      </trkpt>
      <trkpt lat="47.15482" lon="-1.63409">
        <ele>68</ele>
        <time>2021-04-26T12:08:59.000Z</time>
      </trkpt>
      <trkpt lat="47.15469" lon="-1.63421">
        <ele>68</ele>
        <time>2021-04-26T12:09:01.000Z</time>
      </trkpt>
      <trkpt lat="47.15456" lon="-1.63432">
        <ele>69</ele>
        <time>2021-04-26T12:09:03.000Z</time>
      </trkpt>
      <trkpt lat="47.15444" lon="-1.63444">
        <ele>68</ele>
        <time>2021-04-26T12:09:05.000Z</time>
      </trkpt>
      <trkpt lat="47.15432" lon="-1.63455">
        <ele>69</ele>
        <time>2021-04-26T12:09:07.000Z</time>
      </trkpt>
      <trkpt lat="47.15419" lon="-1.63467">
        <ele>69</ele>
        <time>2021-04-26T12:09:09.000Z</time>
      </trkpt>
      <trkpt lat="47.15408" lon="-1.63479">
        <ele>69</ele>
        <time>2021-04-26T12:09:11.000Z</time>
      </trkpt>
      <trkpt lat="47.15398" lon="-1.63494">
        <ele>70</ele>
        <time>2021-04-26T12:09:13.000Z</time>
      </trkpt>
      <trkpt lat="47.15388" lon="-1.63506">
        <ele>70</ele>
        <time>2021-04-26T12:09:15.000Z</time>
      </trkpt>
      <trkpt lat="47.15377" lon="-1.6351">
        <ele>70</ele>
        <time>2021-04-26T12:09:17.000Z</time>
      </trkpt>
      <trkpt lat="47.15364" lon="-1.63516">
        <ele>70</ele>
        <time>2021-04-26T12:09:19.000Z</time>
      </trkpt>
      <trkpt lat="47.15352" lon="-1.63529">
        <ele>70</ele>
        <time>2021-04-26T12:09:21.000Z</time>
      </trkpt>
      <trkpt lat="47.1534" lon="-1.63541">
        <ele>70</ele>
        <time>2021-04-26T12:09:23.000Z</time>
      </trkpt>
      <trkpt lat="47.15328" lon="-1.63552">
        <ele>71</ele>
        <time>2021-04-26T12:09:25.000Z</time>
      </trkpt>
      <trkpt lat="47.15315" lon="-1.6356">
        <ele>71</ele>
        <time>2021-04-26T12:09:27.000Z</time>
      </trkpt>
      <trkpt lat="47.15303" lon="-1.63569">
        <ele>71</ele>
        <time>2021-04-26T12:09:29.000Z</time>
      </trkpt>
      <trkpt lat="47.1529" lon="-1.63581">
        <ele>71</ele>
        <time>2021-04-26T12:09:31.000Z</time>
      </trkpt>
      <trkpt lat="47.15277" lon="-1.63592">
        <ele>70</ele>
        <time>2021-04-26T12:09:33.000Z</time>
      </trkpt>
      <trkpt lat="47.15264" lon="-1.63602">
        <ele>70</ele>
        <time>2021-04-26T12:09:35.000Z</time>
      </trkpt>
      <trkpt lat="47.15251" lon="-1.63614">
        <ele>70</ele>
        <time>2021-04-26T12:09:37.000Z</time>
      </trkpt>
      <trkpt lat="47.15237" lon="-1.63625">
        <ele>70</ele>
        <time>2021-04-26T12:09:39.000Z</time>
      </trkpt>
      <trkpt lat="47.15224" lon="-1.63636">
        <ele>70</ele>
        <time>2021-04-26T12:09:41.000Z</time>
      </trkpt>
      <trkpt lat="47.1521" lon="-1.63648">
        <ele>70</ele>
        <time>2021-04-26T12:09:43.000Z</time>
      </trkpt>
      <trkpt lat="47.15197" lon="-1.6366">
        <ele>70</ele>
        <time>2021-04-26T12:09:45.000Z</time>
      </trkpt>
      <trkpt lat="47.15184" lon="-1.63671">
        <ele>70</ele>
        <time>2021-04-26T12:09:47.000Z</time>
      </trkpt>
      <trkpt lat="47.15171" lon="-1.63683">
        <ele>70</ele>
        <time>2021-04-26T12:09:49.000Z</time>
      </trkpt>
      <trkpt lat="47.15157" lon="-1.63695">
        <ele>70</ele>
        <time>2021-04-26T12:09:51.000Z</time>
      </trkpt>
      <trkpt lat="47.15144" lon="-1.63708">
        <ele>70</ele>
        <time>2021-04-26T12:09:53.000Z</time>
      </trkpt>
      <trkpt lat="47.15131" lon="-1.63721">
        <ele>70</ele>
        <time>2021-04-26T12:09:55.000Z</time>
      </trkpt>
      <trkpt lat="47.15118" lon="-1.63734">
        <ele>70</ele>
        <time>2021-04-26T12:09:57.000Z</time>
      </trkpt>
      <trkpt lat="47.15106" lon="-1.63747">
        <ele>70</ele>
        <time>2021-04-26T12:09:59.000Z</time>
      </trkpt>
      <trkpt lat="47.15094" lon="-1.6376">
        <ele>70</ele>
        <time>2021-04-26T12:10:01.000Z</time>
      </trkpt>
      <trkpt lat="47.15082" lon="-1.63774">
        <ele>70</ele>
        <time>2021-04-26T12:10:03.000Z</time>
      </trkpt>
      <trkpt lat="47.1507" lon="-1.63789">
        <ele>69</ele>
        <time>2021-04-26T12:10:05.000Z</time>
      </trkpt>
      <trkpt lat="47.15058" lon="-1.63804">
        <ele>69</ele>
        <time>2021-04-26T12:10:07.000Z</time>
      </trkpt>
      <trkpt lat="47.15048" lon="-1.63819">
        <ele>69</ele>
        <time>2021-04-26T12:10:09.000Z</time>
      </trkpt>
      <trkpt lat="47.15036" lon="-1.63833">
        <ele>69</ele>
        <time>2021-04-26T12:10:11.000Z</time>
      </trkpt>
      <trkpt lat="47.15025" lon="-1.63849">
        <ele>69</ele>
        <time>2021-04-26T12:10:13.000Z</time>
      </trkpt>
      <trkpt lat="47.15015" lon="-1.63864">
        <ele>69</ele>
        <time>2021-04-26T12:10:15.000Z</time>
      </trkpt>
      <trkpt lat="47.15005" lon="-1.63881">
        <ele>69</ele>
        <time>2021-04-26T12:10:17.000Z</time>
      </trkpt>
      <trkpt lat="47.14995" lon="-1.63896">
        <ele>69</ele>
        <time>2021-04-26T12:10:19.000Z</time>
      </trkpt>
      <trkpt lat="47.14985" lon="-1.63912">
        <ele>70</ele>
        <time>2021-04-26T12:10:21.000Z</time>
      </trkpt>
      <trkpt lat="47.14975" lon="-1.63928">
        <ele>70</ele>
        <time>2021-04-26T12:10:23.000Z</time>
      </trkpt>
      <trkpt lat="47.14966" lon="-1.63943">
        <ele>71</ele>
        <time>2021-04-26T12:10:25.000Z</time>
      </trkpt>
      <trkpt lat="47.14957" lon="-1.63958">
        <ele>71</ele>
        <time>2021-04-26T12:10:27.000Z</time>
      </trkpt>
      <trkpt lat="47.14949" lon="-1.63972">
        <ele>71</ele>
        <time>2021-04-26T12:10:29.000Z</time>
      </trkpt>
      <trkpt lat="47.1494" lon="-1.63985">
        <ele>71</ele>
        <time>2021-04-26T12:10:31.000Z</time>
      </trkpt>
      <trkpt lat="47.14933" lon="-1.63998">
        <ele>71</ele>
        <time>2021-04-26T12:10:33.000Z</time>
      </trkpt>
      <trkpt lat="47.14927" lon="-1.64011">
        <ele>71</ele>
        <time>2021-04-26T12:10:35.000Z</time>
      </trkpt>
      <trkpt lat="47.1492" lon="-1.64026">
        <ele>70</ele>
        <time>2021-04-26T12:10:38.000Z</time>
      </trkpt>
      <trkpt lat="47.14913" lon="-1.64038">
        <ele>70</ele>
        <time>2021-04-26T12:10:41.000Z</time>
      </trkpt>
      <trkpt lat="47.14907" lon="-1.64049">
        <ele>70</ele>
        <time>2021-04-26T12:10:44.000Z</time>
      </trkpt>
      <trkpt lat="47.14895" lon="-1.64047">
        <ele>71</ele>
        <time>2021-04-26T12:10:47.000Z</time>
      </trkpt>
      <trkpt lat="47.14885" lon="-1.64035">
        <ele>71</ele>
        <time>2021-04-26T12:10:49.000Z</time>
      </trkpt>
      <trkpt lat="47.14876" lon="-1.64021">
        <ele>71</ele>
        <time>2021-04-26T12:10:51.000Z</time>
      </trkpt>
      <trkpt lat="47.14867" lon="-1.64004">
        <ele>71</ele>
        <time>2021-04-26T12:10:53.000Z</time>
      </trkpt>
      <trkpt lat="47.14856" lon="-1.63991">
        <ele>71</ele>
        <time>2021-04-26T12:10:55.000Z</time>
      </trkpt>
      <trkpt lat="47.14841" lon="-1.63986">
        <ele>72</ele>
        <time>2021-04-26T12:10:57.000Z</time>
      </trkpt>
      <trkpt lat="47.14827" lon="-1.63987">
        <ele>71</ele>
        <time>2021-04-26T12:10:59.000Z</time>
      </trkpt>
      <trkpt lat="47.14814" lon="-1.63999">
        <ele>71</ele>
        <time>2021-04-26T12:11:01.000Z</time>
      </trkpt>
      <trkpt lat="47.14801" lon="-1.64012">
        <ele>71</ele>
        <time>2021-04-26T12:11:03.000Z</time>
      </trkpt>
      <trkpt lat="47.14788" lon="-1.64025">
        <ele>71</ele>
        <time>2021-04-26T12:11:05.000Z</time>
      </trkpt>
      <trkpt lat="47.14775" lon="-1.64036">
        <ele>70</ele>
        <time>2021-04-26T12:11:07.000Z</time>
      </trkpt>
      <trkpt lat="47.14762" lon="-1.64046">
        <ele>71</ele>
        <time>2021-04-26T12:11:09.000Z</time>
      </trkpt>
      <trkpt lat="47.14747" lon="-1.64053">
        <ele>71</ele>
        <time>2021-04-26T12:11:11.000Z</time>
      </trkpt>
      <trkpt lat="47.14732" lon="-1.64058">
        <ele>70</ele>
        <time>2021-04-26T12:11:13.000Z</time>
      </trkpt>
      <trkpt lat="47.14716" lon="-1.64065">
        <ele>70</ele>
        <time>2021-04-26T12:11:15.000Z</time>
      </trkpt>
      <trkpt lat="47.14702" lon="-1.64071">
        <ele>70</ele>
        <time>2021-04-26T12:11:17.000Z</time>
      </trkpt>
      <trkpt lat="47.14688" lon="-1.64076">
        <ele>70</ele>
        <time>2021-04-26T12:11:19.000Z</time>
      </trkpt>
      <trkpt lat="47.14675" lon="-1.64083">
        <ele>70</ele>
        <time>2021-04-26T12:11:21.000Z</time>
      </trkpt>
      <trkpt lat="47.14661" lon="-1.6409">
        <ele>70</ele>
        <time>2021-04-26T12:11:23.000Z</time>
      </trkpt>
      <trkpt lat="47.14646" lon="-1.64098">
        <ele>70</ele>
        <time>2021-04-26T12:11:25.000Z</time>
      </trkpt>
      <trkpt lat="47.14631" lon="-1.64106">
        <ele>70</ele>
        <time>2021-04-26T12:11:27.000Z</time>
      </trkpt>
      <trkpt lat="47.14616" lon="-1.64113">
        <ele>70</ele>
        <time>2021-04-26T12:11:29.000Z</time>
      </trkpt>
      <trkpt lat="47.14602" lon="-1.64121">
        <ele>70</ele>
        <time>2021-04-26T12:11:31.000Z</time>
      </trkpt>
      <trkpt lat="47.14587" lon="-1.6413">
        <ele>70</ele>
        <time>2021-04-26T12:11:33.000Z</time>
      </trkpt>
      <trkpt lat="47.14572" lon="-1.64139">
        <ele>70</ele>
        <time>2021-04-26T12:11:35.000Z</time>
      </trkpt>
      <trkpt lat="47.14557" lon="-1.64148">
        <ele>69</ele>
        <time>2021-04-26T12:11:37.000Z</time>
      </trkpt>
      <trkpt lat="47.14543" lon="-1.64157">
        <ele>69</ele>
        <time>2021-04-26T12:11:39.000Z</time>
      </trkpt>
      <trkpt lat="47.1453" lon="-1.64166">
        <ele>68</ele>
        <time>2021-04-26T12:11:41.000Z</time>
      </trkpt>
      <trkpt lat="47.14515" lon="-1.64175">
        <ele>68</ele>
        <time>2021-04-26T12:11:43.000Z</time>
      </trkpt>
      <trkpt lat="47.14501" lon="-1.64185">
        <ele>67</ele>
        <time>2021-04-26T12:11:45.000Z</time>
      </trkpt>
      <trkpt lat="47.14486" lon="-1.64195">
        <ele>67</ele>
        <time>2021-04-26T12:11:47.000Z</time>
      </trkpt>
      <trkpt lat="47.14472" lon="-1.64204">
        <ele>66</ele>
        <time>2021-04-26T12:11:49.000Z</time>
      </trkpt>
      <trkpt lat="47.14456" lon="-1.64213">
        <ele>66</ele>
        <time>2021-04-26T12:11:51.000Z</time>
      </trkpt>
      <trkpt lat="47.14441" lon="-1.64217">
        <ele>66</ele>
        <time>2021-04-26T12:11:53.000Z</time>
      </trkpt>
      <trkpt lat="47.14424" lon="-1.6422">
        <ele>66</ele>
        <time>2021-04-26T12:11:55.000Z</time>
      </trkpt>
      <trkpt lat="47.14408" lon="-1.64223">
        <ele>66</ele>
        <time>2021-04-26T12:11:57.000Z</time>
      </trkpt>
      <trkpt lat="47.14392" lon="-1.64224">
        <ele>66</ele>
        <time>2021-04-26T12:11:59.000Z</time>
      </trkpt>
      <trkpt lat="47.14375" lon="-1.64226">
        <ele>65</ele>
        <time>2021-04-26T12:12:01.000Z</time>
      </trkpt>
      <trkpt lat="47.14359" lon="-1.64228">
        <ele>65</ele>
        <time>2021-04-26T12:12:03.000Z</time>
      </trkpt>
      <trkpt lat="47.14344" lon="-1.6423">
        <ele>65</ele>
        <time>2021-04-26T12:12:05.000Z</time>
      </trkpt>
      <trkpt lat="47.14327" lon="-1.64233">
        <ele>65</ele>
        <time>2021-04-26T12:12:07.000Z</time>
      </trkpt>
      <trkpt lat="47.14311" lon="-1.64236">
        <ele>65</ele>
        <time>2021-04-26T12:12:09.000Z</time>
      </trkpt>
      <trkpt lat="47.14295" lon="-1.64241">
        <ele>65</ele>
        <time>2021-04-26T12:12:11.000Z</time>
      </trkpt>
      <trkpt lat="47.1428" lon="-1.64249">
        <ele>65</ele>
        <time>2021-04-26T12:12:13.000Z</time>
      </trkpt>
      <trkpt lat="47.14268" lon="-1.64259">
        <ele>66</ele>
        <time>2021-04-26T12:12:15.000Z</time>
      </trkpt>
      <trkpt lat="47.14253" lon="-1.6427">
        <ele>66</ele>
        <time>2021-04-26T12:12:17.000Z</time>
      </trkpt>
      <trkpt lat="47.14245" lon="-1.64277">
        <ele>67</ele>
        <time>2021-04-26T12:12:18.000Z</time>
      </trkpt>
      <trkpt lat="47.1423" lon="-1.64289">
        <ele>66</ele>
        <time>2021-04-26T12:12:20.000Z</time>
      </trkpt>
      <trkpt lat="47.14216" lon="-1.64302">
        <ele>67</ele>
        <time>2021-04-26T12:12:22.000Z</time>
      </trkpt>
      <trkpt lat="47.14204" lon="-1.64316">
        <ele>68</ele>
        <time>2021-04-26T12:12:24.000Z</time>
      </trkpt>
      <trkpt lat="47.14192" lon="-1.64332">
        <ele>68</ele>
        <time>2021-04-26T12:12:26.000Z</time>
      </trkpt>
      <trkpt lat="47.14178" lon="-1.64347">
        <ele>68</ele>
        <time>2021-04-26T12:12:28.000Z</time>
      </trkpt>
      <trkpt lat="47.14165" lon="-1.64361">
        <ele>67</ele>
        <time>2021-04-26T12:12:30.000Z</time>
      </trkpt>
      <trkpt lat="47.1415" lon="-1.64373">
        <ele>67</ele>
        <time>2021-04-26T12:12:32.000Z</time>
      </trkpt>
      <trkpt lat="47.14135" lon="-1.64384">
        <ele>67</ele>
        <time>2021-04-26T12:12:34.000Z</time>
      </trkpt>
      <trkpt lat="47.14119" lon="-1.64395">
        <ele>66</ele>
        <time>2021-04-26T12:12:36.000Z</time>
      </trkpt>
      <trkpt lat="47.14104" lon="-1.64407">
        <ele>65</ele>
        <time>2021-04-26T12:12:38.000Z</time>
      </trkpt>
      <trkpt lat="47.14089" lon="-1.64418">
        <ele>65</ele>
        <time>2021-04-26T12:12:40.000Z</time>
      </trkpt>
      <trkpt lat="47.14075" lon="-1.64429">
        <ele>64</ele>
        <time>2021-04-26T12:12:42.000Z</time>
      </trkpt>
      <trkpt lat="47.14061" lon="-1.64441">
        <ele>65</ele>
        <time>2021-04-26T12:12:44.000Z</time>
      </trkpt>
      <trkpt lat="47.14046" lon="-1.64451">
        <ele>64</ele>
        <time>2021-04-26T12:12:46.000Z</time>
      </trkpt>
      <trkpt lat="47.14033" lon="-1.64462">
        <ele>64</ele>
        <time>2021-04-26T12:12:48.000Z</time>
      </trkpt>
      <trkpt lat="47.14019" lon="-1.64474">
        <ele>64</ele>
        <time>2021-04-26T12:12:50.000Z</time>
      </trkpt>
      <trkpt lat="47.14005" lon="-1.64485">
        <ele>65</ele>
        <time>2021-04-26T12:12:52.000Z</time>
      </trkpt>
      <trkpt lat="47.1399" lon="-1.64498">
        <ele>65</ele>
        <time>2021-04-26T12:12:54.000Z</time>
      </trkpt>
      <trkpt lat="47.13977" lon="-1.6451">
        <ele>65</ele>
        <time>2021-04-26T12:12:56.000Z</time>
      </trkpt>
      <trkpt lat="47.13963" lon="-1.64524">
        <ele>65</ele>
        <time>2021-04-26T12:12:58.000Z</time>
      </trkpt>
      <trkpt lat="47.1395" lon="-1.64537">
        <ele>64</ele>
        <time>2021-04-26T12:13:00.000Z</time>
      </trkpt>
      <trkpt lat="47.13937" lon="-1.6455">
        <ele>64</ele>
        <time>2021-04-26T12:13:02.000Z</time>
      </trkpt>
      <trkpt lat="47.13924" lon="-1.64562">
        <ele>64</ele>
        <time>2021-04-26T12:13:04.000Z</time>
      </trkpt>
      <trkpt lat="47.13911" lon="-1.64575">
        <ele>63</ele>
        <time>2021-04-26T12:13:06.000Z</time>
      </trkpt>
      <trkpt lat="47.13897" lon="-1.64586">
        <ele>63</ele>
        <time>2021-04-26T12:13:08.000Z</time>
      </trkpt>
      <trkpt lat="47.13882" lon="-1.64593">
        <ele>63</ele>
        <time>2021-04-26T12:13:10.000Z</time>
      </trkpt>
      <trkpt lat="47.13866" lon="-1.64598">
        <ele>63</ele>
        <time>2021-04-26T12:13:12.000Z</time>
      </trkpt>
      <trkpt lat="47.1385" lon="-1.646">
        <ele>62</ele>
        <time>2021-04-26T12:13:14.000Z</time>
      </trkpt>
      <trkpt lat="47.13835" lon="-1.64602">
        <ele>63</ele>
        <time>2021-04-26T12:13:16.000Z</time>
      </trkpt>
      <trkpt lat="47.1382" lon="-1.64603">
        <ele>64</ele>
        <time>2021-04-26T12:13:18.000Z</time>
      </trkpt>
      <trkpt lat="47.13805" lon="-1.64601">
        <ele>64</ele>
        <time>2021-04-26T12:13:20.000Z</time>
      </trkpt>
      <trkpt lat="47.13789" lon="-1.64599">
        <ele>64</ele>
        <time>2021-04-26T12:13:22.000Z</time>
      </trkpt>
      <trkpt lat="47.13774" lon="-1.64596">
        <ele>64</ele>
        <time>2021-04-26T12:13:24.000Z</time>
      </trkpt>
      <trkpt lat="47.1376" lon="-1.64593">
        <ele>64</ele>
        <time>2021-04-26T12:13:26.000Z</time>
      </trkpt>
      <trkpt lat="47.13746" lon="-1.64589">
        <ele>64</ele>
        <time>2021-04-26T12:13:28.000Z</time>
      </trkpt>
      <trkpt lat="47.13731" lon="-1.64586">
        <ele>64</ele>
        <time>2021-04-26T12:13:30.000Z</time>
      </trkpt>
      <trkpt lat="47.13717" lon="-1.64583">
        <ele>65</ele>
        <time>2021-04-26T12:13:32.000Z</time>
      </trkpt>
      <trkpt lat="47.13703" lon="-1.6458">
        <ele>65</ele>
        <time>2021-04-26T12:13:34.000Z</time>
      </trkpt>
      <trkpt lat="47.1369" lon="-1.64576">
        <ele>65</ele>
        <time>2021-04-26T12:13:36.000Z</time>
      </trkpt>
      <trkpt lat="47.13677" lon="-1.64573">
        <ele>65</ele>
        <time>2021-04-26T12:13:38.000Z</time>
      </trkpt>
      <trkpt lat="47.13664" lon="-1.64569">
        <ele>65</ele>
        <time>2021-04-26T12:13:40.000Z</time>
      </trkpt>
      <trkpt lat="47.1365" lon="-1.64566">
        <ele>65</ele>
        <time>2021-04-26T12:13:42.000Z</time>
      </trkpt>
      <trkpt lat="47.13638" lon="-1.64563">
        <ele>65</ele>
        <time>2021-04-26T12:13:44.000Z</time>
      </trkpt>
      <trkpt lat="47.13625" lon="-1.6456">
        <ele>66</ele>
        <time>2021-04-26T12:13:46.000Z</time>
      </trkpt>
      <trkpt lat="47.13613" lon="-1.64558">
        <ele>66</ele>
        <time>2021-04-26T12:13:48.000Z</time>
      </trkpt>
      <trkpt lat="47.136" lon="-1.64556">
        <ele>66</ele>
        <time>2021-04-26T12:13:50.000Z</time>
      </trkpt>
      <trkpt lat="47.13587" lon="-1.64558">
        <ele>66</ele>
        <time>2021-04-26T12:13:52.000Z</time>
      </trkpt>
      <trkpt lat="47.13574" lon="-1.64563">
        <ele>66</ele>
        <time>2021-04-26T12:13:54.000Z</time>
      </trkpt>
      <trkpt lat="47.13563" lon="-1.64571">
        <ele>66</ele>
        <time>2021-04-26T12:13:56.000Z</time>
      </trkpt>
      <trkpt lat="47.13552" lon="-1.6458">
        <ele>66</ele>
        <time>2021-04-26T12:13:58.000Z</time>
      </trkpt>
      <trkpt lat="47.13541" lon="-1.6459">
        <ele>66</ele>
        <time>2021-04-26T12:14:00.000Z</time>
      </trkpt>
      <trkpt lat="47.1353" lon="-1.64602">
        <ele>66</ele>
        <time>2021-04-26T12:14:02.000Z</time>
      </trkpt>
      <trkpt lat="47.1352" lon="-1.64614">
        <ele>66</ele>
        <time>2021-04-26T12:14:04.000Z</time>
      </trkpt>
      <trkpt lat="47.13509" lon="-1.64624">
        <ele>67</ele>
        <time>2021-04-26T12:14:06.000Z</time>
      </trkpt>
      <trkpt lat="47.13498" lon="-1.64634">
        <ele>67</ele>
        <time>2021-04-26T12:14:08.000Z</time>
      </trkpt>
      <trkpt lat="47.13486" lon="-1.64642">
        <ele>68</ele>
        <time>2021-04-26T12:14:10.000Z</time>
      </trkpt>
      <trkpt lat="47.13473" lon="-1.64645">
        <ele>68</ele>
        <time>2021-04-26T12:14:12.000Z</time>
      </trkpt>
      <trkpt lat="47.13459" lon="-1.64645">
        <ele>68</ele>
        <time>2021-04-26T12:14:14.000Z</time>
      </trkpt>
      <trkpt lat="47.13446" lon="-1.64644">
        <ele>67</ele>
        <time>2021-04-26T12:14:16.000Z</time>
      </trkpt>
      <trkpt lat="47.13433" lon="-1.64643">
        <ele>67</ele>
        <time>2021-04-26T12:14:18.000Z</time>
      </trkpt>
      <trkpt lat="47.1342" lon="-1.64643">
        <ele>67</ele>
        <time>2021-04-26T12:14:20.000Z</time>
      </trkpt>
      <trkpt lat="47.1341" lon="-1.64643">
        <ele>67</ele>
        <time>2021-04-26T12:14:22.000Z</time>
      </trkpt>
      <trkpt lat="47.13399" lon="-1.64634">
        <ele>68</ele>
        <time>2021-04-26T12:14:26.000Z</time>
      </trkpt>
      <trkpt lat="47.13396" lon="-1.64617">
        <ele>68</ele>
        <time>2021-04-26T12:14:28.000Z</time>
      </trkpt>
      <trkpt lat="47.13393" lon="-1.64598">
        <ele>68</ele>
        <time>2021-04-26T12:14:30.000Z</time>
      </trkpt>
      <trkpt lat="47.13389" lon="-1.6458">
        <ele>68</ele>
        <time>2021-04-26T12:14:32.000Z</time>
      </trkpt>
      <trkpt lat="47.13386" lon="-1.64561">
        <ele>68</ele>
        <time>2021-04-26T12:14:34.000Z</time>
      </trkpt>
      <trkpt lat="47.13381" lon="-1.64544">
        <ele>69</ele>
        <time>2021-04-26T12:14:36.000Z</time>
      </trkpt>
      <trkpt lat="47.13376" lon="-1.64526">
        <ele>68</ele>
        <time>2021-04-26T12:14:38.000Z</time>
      </trkpt>
      <trkpt lat="47.1337" lon="-1.64508">
        <ele>68</ele>
        <time>2021-04-26T12:14:40.000Z</time>
      </trkpt>
      <trkpt lat="47.13363" lon="-1.6449">
        <ele>67</ele>
        <time>2021-04-26T12:14:42.000Z</time>
      </trkpt>
      <trkpt lat="47.13356" lon="-1.64473">
        <ele>67</ele>
        <time>2021-04-26T12:14:44.000Z</time>
      </trkpt>
      <trkpt lat="47.13348" lon="-1.64456">
        <ele>66</ele>
        <time>2021-04-26T12:14:46.000Z</time>
      </trkpt>
      <trkpt lat="47.13339" lon="-1.64437">
        <ele>66</ele>
        <time>2021-04-26T12:14:48.000Z</time>
      </trkpt>
      <trkpt lat="47.13331" lon="-1.64419">
        <ele>65</ele>
        <time>2021-04-26T12:14:50.000Z</time>
      </trkpt>
      <trkpt lat="47.13321" lon="-1.64401">
        <ele>65</ele>
        <time>2021-04-26T12:14:52.000Z</time>
      </trkpt>
      <trkpt lat="47.13312" lon="-1.64381">
        <ele>65</ele>
        <time>2021-04-26T12:14:54.000Z</time>
      </trkpt>
      <trkpt lat="47.13302" lon="-1.64362">
        <ele>64</ele>
        <time>2021-04-26T12:14:56.000Z</time>
      </trkpt>
      <trkpt lat="47.13293" lon="-1.64342">
        <ele>64</ele>
        <time>2021-04-26T12:14:58.000Z</time>
      </trkpt>
      <trkpt lat="47.13284" lon="-1.64323">
        <ele>64</ele>
        <time>2021-04-26T12:15:00.000Z</time>
      </trkpt>
      <trkpt lat="47.13275" lon="-1.64304">
        <ele>63</ele>
        <time>2021-04-26T12:15:02.000Z</time>
      </trkpt>
      <trkpt lat="47.13266" lon="-1.64286">
        <ele>63</ele>
        <time>2021-04-26T12:15:04.000Z</time>
      </trkpt>
      <trkpt lat="47.13257" lon="-1.64267">
        <ele>62</ele>
        <time>2021-04-26T12:15:06.000Z</time>
      </trkpt>
      <trkpt lat="47.13248" lon="-1.64247">
        <ele>62</ele>
        <time>2021-04-26T12:15:08.000Z</time>
      </trkpt>
      <trkpt lat="47.13241" lon="-1.64227">
        <ele>61</ele>
        <time>2021-04-26T12:15:10.000Z</time>
      </trkpt>
      <trkpt lat="47.13232" lon="-1.64207">
        <ele>61</ele>
        <time>2021-04-26T12:15:12.000Z</time>
      </trkpt>
      <trkpt lat="47.13222" lon="-1.6419">
        <ele>60</ele>
        <time>2021-04-26T12:15:14.000Z</time>
      </trkpt>
      <trkpt lat="47.13213" lon="-1.64172">
        <ele>60</ele>
        <time>2021-04-26T12:15:16.000Z</time>
      </trkpt>
      <trkpt lat="47.13205" lon="-1.64153">
        <ele>60</ele>
        <time>2021-04-26T12:15:18.000Z</time>
      </trkpt>
      <trkpt lat="47.13197" lon="-1.64134">
        <ele>60</ele>
        <time>2021-04-26T12:15:20.000Z</time>
      </trkpt>
      <trkpt lat="47.13188" lon="-1.64116">
        <ele>59</ele>
        <time>2021-04-26T12:15:22.000Z</time>
      </trkpt>
      <trkpt lat="47.1318" lon="-1.64097">
        <ele>59</ele>
        <time>2021-04-26T12:15:24.000Z</time>
      </trkpt>
      <trkpt lat="47.13172" lon="-1.64079">
        <ele>59</ele>
        <time>2021-04-26T12:15:26.000Z</time>
      </trkpt>
      <trkpt lat="47.13164" lon="-1.64061">
        <ele>59</ele>
        <time>2021-04-26T12:15:28.000Z</time>
      </trkpt>
      <trkpt lat="47.13156" lon="-1.64043">
        <ele>59</ele>
        <time>2021-04-26T12:15:30.000Z</time>
      </trkpt>
      <trkpt lat="47.13149" lon="-1.64025">
        <ele>59</ele>
        <time>2021-04-26T12:15:32.000Z</time>
      </trkpt>
      <trkpt lat="47.13142" lon="-1.64007">
        <ele>59</ele>
        <time>2021-04-26T12:15:34.000Z</time>
      </trkpt>
      <trkpt lat="47.13135" lon="-1.63988">
        <ele>59</ele>
        <time>2021-04-26T12:15:36.000Z</time>
      </trkpt>
      <trkpt lat="47.13128" lon="-1.6397">
        <ele>59</ele>
        <time>2021-04-26T12:15:38.000Z</time>
      </trkpt>
      <trkpt lat="47.13121" lon="-1.63952">
        <ele>59</ele>
        <time>2021-04-26T12:15:40.000Z</time>
      </trkpt>
      <trkpt lat="47.13115" lon="-1.63933">
        <ele>58</ele>
        <time>2021-04-26T12:15:42.000Z</time>
      </trkpt>
      <trkpt lat="47.13108" lon="-1.63914">
        <ele>58</ele>
        <time>2021-04-26T12:15:44.000Z</time>
      </trkpt>
      <trkpt lat="47.13102" lon="-1.63895">
        <ele>58</ele>
        <time>2021-04-26T12:15:46.000Z</time>
      </trkpt>
      <trkpt lat="47.13095" lon="-1.63876">
        <ele>58</ele>
        <time>2021-04-26T12:15:48.000Z</time>
      </trkpt>
      <trkpt lat="47.13087" lon="-1.63859">
        <ele>58</ele>
        <time>2021-04-26T12:15:50.000Z</time>
      </trkpt>
      <trkpt lat="47.13079" lon="-1.6384">
        <ele>58</ele>
        <time>2021-04-26T12:15:52.000Z</time>
      </trkpt>
      <trkpt lat="47.13072" lon="-1.63822">
        <ele>58</ele>
        <time>2021-04-26T12:15:54.000Z</time>
      </trkpt>
      <trkpt lat="47.13065" lon="-1.63805">
        <ele>58</ele>
        <time>2021-04-26T12:15:56.000Z</time>
      </trkpt>
      <trkpt lat="47.13057" lon="-1.63787">
        <ele>58</ele>
        <time>2021-04-26T12:15:58.000Z</time>
      </trkpt>
      <trkpt lat="47.13049" lon="-1.6377">
        <ele>58</ele>
        <time>2021-04-26T12:16:00.000Z</time>
      </trkpt>
      <trkpt lat="47.13041" lon="-1.63753">
        <ele>58</ele>
        <time>2021-04-26T12:16:02.000Z</time>
      </trkpt>
      <trkpt lat="47.13032" lon="-1.63735">
        <ele>58</ele>
        <time>2021-04-26T12:16:04.000Z</time>
      </trkpt>
      <trkpt lat="47.13024" lon="-1.63718">
        <ele>57</ele>
        <time>2021-04-26T12:16:06.000Z</time>
      </trkpt>
      <trkpt lat="47.13016" lon="-1.63701">
        <ele>57</ele>
        <time>2021-04-26T12:16:08.000Z</time>
      </trkpt>
      <trkpt lat="47.13008" lon="-1.63683">
        <ele>57</ele>
        <time>2021-04-26T12:16:10.000Z</time>
      </trkpt>
      <trkpt lat="47.12999" lon="-1.63666">
        <ele>56</ele>
        <time>2021-04-26T12:16:12.000Z</time>
      </trkpt>
      <trkpt lat="47.12991" lon="-1.63647">
        <ele>56</ele>
        <time>2021-04-26T12:16:14.000Z</time>
      </trkpt>
      <trkpt lat="47.12985" lon="-1.63629">
        <ele>55</ele>
        <time>2021-04-26T12:16:16.000Z</time>
      </trkpt>
      <trkpt lat="47.1298" lon="-1.6361">
        <ele>55</ele>
        <time>2021-04-26T12:16:18.000Z</time>
      </trkpt>
      <trkpt lat="47.12972" lon="-1.63592">
        <ele>55</ele>
        <time>2021-04-26T12:16:20.000Z</time>
      </trkpt>
      <trkpt lat="47.12965" lon="-1.63574">
        <ele>55</ele>
        <time>2021-04-26T12:16:22.000Z</time>
      </trkpt>
      <trkpt lat="47.12958" lon="-1.63557">
        <ele>54</ele>
        <time>2021-04-26T12:16:24.000Z</time>
      </trkpt>
      <trkpt lat="47.1295" lon="-1.63541">
        <ele>55</ele>
        <time>2021-04-26T12:16:26.000Z</time>
      </trkpt>
      <trkpt lat="47.12944" lon="-1.63523">
        <ele>55</ele>
        <time>2021-04-26T12:16:28.000Z</time>
      </trkpt>
      <trkpt lat="47.12937" lon="-1.63505">
        <ele>55</ele>
        <time>2021-04-26T12:16:30.000Z</time>
      </trkpt>
      <trkpt lat="47.1293" lon="-1.63486">
        <ele>55</ele>
        <time>2021-04-26T12:16:32.000Z</time>
      </trkpt>
      <trkpt lat="47.12924" lon="-1.63468">
        <ele>55</ele>
        <time>2021-04-26T12:16:34.000Z</time>
      </trkpt>
      <trkpt lat="47.12917" lon="-1.6345">
        <ele>54</ele>
        <time>2021-04-26T12:16:36.000Z</time>
      </trkpt>
      <trkpt lat="47.12909" lon="-1.63432">
        <ele>54</ele>
        <time>2021-04-26T12:16:38.000Z</time>
      </trkpt>
      <trkpt lat="47.12902" lon="-1.63414">
        <ele>54</ele>
        <time>2021-04-26T12:16:40.000Z</time>
      </trkpt>
      <trkpt lat="47.12895" lon="-1.63395">
        <ele>54</ele>
        <time>2021-04-26T12:16:42.000Z</time>
      </trkpt>
      <trkpt lat="47.12888" lon="-1.63377">
        <ele>54</ele>
        <time>2021-04-26T12:16:44.000Z</time>
      </trkpt>
      <trkpt lat="47.12881" lon="-1.63358">
        <ele>54</ele>
        <time>2021-04-26T12:16:46.000Z</time>
      </trkpt>
      <trkpt lat="47.12874" lon="-1.6334">
        <ele>54</ele>
        <time>2021-04-26T12:16:48.000Z</time>
      </trkpt>
      <trkpt lat="47.12867" lon="-1.63322">
        <ele>54</ele>
        <time>2021-04-26T12:16:50.000Z</time>
      </trkpt>
      <trkpt lat="47.1286" lon="-1.63304">
        <ele>54</ele>
        <time>2021-04-26T12:16:52.000Z</time>
      </trkpt>
      <trkpt lat="47.12853" lon="-1.63286">
        <ele>53</ele>
        <time>2021-04-26T12:16:54.000Z</time>
      </trkpt>
      <trkpt lat="47.12846" lon="-1.63269">
        <ele>53</ele>
        <time>2021-04-26T12:16:56.000Z</time>
      </trkpt>
      <trkpt lat="47.1284" lon="-1.63253">
        <ele>53</ele>
        <time>2021-04-26T12:16:58.000Z</time>
      </trkpt>
      <trkpt lat="47.12833" lon="-1.63235">
        <ele>53</ele>
        <time>2021-04-26T12:17:00.000Z</time>
      </trkpt>
      <trkpt lat="47.12826" lon="-1.63217">
        <ele>53</ele>
        <time>2021-04-26T12:17:02.000Z</time>
      </trkpt>
      <trkpt lat="47.12819" lon="-1.63199">
        <ele>53</ele>
        <time>2021-04-26T12:17:04.000Z</time>
      </trkpt>
      <trkpt lat="47.12813" lon="-1.63181">
        <ele>53</ele>
        <time>2021-04-26T12:17:06.000Z</time>
      </trkpt>
      <trkpt lat="47.12805" lon="-1.63164">
        <ele>53</ele>
        <time>2021-04-26T12:17:08.000Z</time>
      </trkpt>
      <trkpt lat="47.12798" lon="-1.63146">
        <ele>54</ele>
        <time>2021-04-26T12:17:10.000Z</time>
      </trkpt>
      <trkpt lat="47.12791" lon="-1.63128">
        <ele>54</ele>
        <time>2021-04-26T12:17:12.000Z</time>
      </trkpt>
      <trkpt lat="47.12785" lon="-1.63111">
        <ele>55</ele>
        <time>2021-04-26T12:17:14.000Z</time>
      </trkpt>
      <trkpt lat="47.12778" lon="-1.63093">
        <ele>54</ele>
        <time>2021-04-26T12:17:16.000Z</time>
      </trkpt>
      <trkpt lat="47.12771" lon="-1.63076">
        <ele>55</ele>
        <time>2021-04-26T12:17:18.000Z</time>
      </trkpt>
      <trkpt lat="47.12764" lon="-1.63058">
        <ele>55</ele>
        <time>2021-04-26T12:17:20.000Z</time>
      </trkpt>
      <trkpt lat="47.12758" lon="-1.63041">
        <ele>55</ele>
        <time>2021-04-26T12:17:22.000Z</time>
      </trkpt>
      <trkpt lat="47.12751" lon="-1.63024">
        <ele>55</ele>
        <time>2021-04-26T12:17:24.000Z</time>
      </trkpt>
      <trkpt lat="47.12745" lon="-1.63007">
        <ele>55</ele>
        <time>2021-04-26T12:17:26.000Z</time>
      </trkpt>
      <trkpt lat="47.12738" lon="-1.6299">
        <ele>55</ele>
        <time>2021-04-26T12:17:28.000Z</time>
      </trkpt>
      <trkpt lat="47.12731" lon="-1.62973">
        <ele>55</ele>
        <time>2021-04-26T12:17:30.000Z</time>
      </trkpt>
      <trkpt lat="47.12725" lon="-1.62956">
        <ele>55</ele>
        <time>2021-04-26T12:17:32.000Z</time>
      </trkpt>
      <trkpt lat="47.12718" lon="-1.62939">
        <ele>56</ele>
        <time>2021-04-26T12:17:34.000Z</time>
      </trkpt>
      <trkpt lat="47.12712" lon="-1.62923">
        <ele>56</ele>
        <time>2021-04-26T12:17:36.000Z</time>
      </trkpt>
      <trkpt lat="47.12706" lon="-1.62908">
        <ele>55</ele>
        <time>2021-04-26T12:17:38.000Z</time>
      </trkpt>
      <trkpt lat="47.127" lon="-1.62892">
        <ele>55</ele>
        <time>2021-04-26T12:17:40.000Z</time>
      </trkpt>
      <trkpt lat="47.12693" lon="-1.62877">
        <ele>56</ele>
        <time>2021-04-26T12:17:42.000Z</time>
      </trkpt>
      <trkpt lat="47.12687" lon="-1.62862">
        <ele>56</ele>
        <time>2021-04-26T12:17:44.000Z</time>
      </trkpt>
      <trkpt lat="47.12681" lon="-1.62847">
        <ele>56</ele>
        <time>2021-04-26T12:17:46.000Z</time>
      </trkpt>
      <trkpt lat="47.12674" lon="-1.62832">
        <ele>56</ele>
        <time>2021-04-26T12:17:48.000Z</time>
      </trkpt>
      <trkpt lat="47.12665" lon="-1.62819">
        <ele>56</ele>
        <time>2021-04-26T12:17:50.000Z</time>
      </trkpt>
      <trkpt lat="47.12658" lon="-1.62804">
        <ele>56</ele>
        <time>2021-04-26T12:17:52.000Z</time>
      </trkpt>
      <trkpt lat="47.12654" lon="-1.62787">
        <ele>56</ele>
        <time>2021-04-26T12:17:54.000Z</time>
      </trkpt>
      <trkpt lat="47.12649" lon="-1.62771">
        <ele>56</ele>
        <time>2021-04-26T12:17:56.000Z</time>
      </trkpt>
      <trkpt lat="47.12641" lon="-1.62756">
        <ele>56</ele>
        <time>2021-04-26T12:17:58.000Z</time>
      </trkpt>
      <trkpt lat="47.12634" lon="-1.6274">
        <ele>56</ele>
        <time>2021-04-26T12:18:00.000Z</time>
      </trkpt>
      <trkpt lat="47.12625" lon="-1.62724">
        <ele>56</ele>
        <time>2021-04-26T12:18:02.000Z</time>
      </trkpt>
      <trkpt lat="47.12617" lon="-1.62708">
        <ele>55</ele>
        <time>2021-04-26T12:18:04.000Z</time>
      </trkpt>
      <trkpt lat="47.12609" lon="-1.62692">
        <ele>55</ele>
        <time>2021-04-26T12:18:06.000Z</time>
      </trkpt>
      <trkpt lat="47.12601" lon="-1.62675">
        <ele>55</ele>
        <time>2021-04-26T12:18:08.000Z</time>
      </trkpt>
      <trkpt lat="47.12592" lon="-1.62657">
        <ele>55</ele>
        <time>2021-04-26T12:18:10.000Z</time>
      </trkpt>
      <trkpt lat="47.12585" lon="-1.6264">
        <ele>55</ele>
        <time>2021-04-26T12:18:12.000Z</time>
      </trkpt>
      <trkpt lat="47.12579" lon="-1.62623">
        <ele>54</ele>
        <time>2021-04-26T12:18:14.000Z</time>
      </trkpt>
      <trkpt lat="47.12573" lon="-1.62604">
        <ele>54</ele>
        <time>2021-04-26T12:18:16.000Z</time>
      </trkpt>
      <trkpt lat="47.12569" lon="-1.62585">
        <ele>55</ele>
        <time>2021-04-26T12:18:18.000Z</time>
      </trkpt>
      <trkpt lat="47.12565" lon="-1.62567">
        <ele>54</ele>
        <time>2021-04-26T12:18:20.000Z</time>
      </trkpt>
      <trkpt lat="47.12561" lon="-1.62548">
        <ele>54</ele>
        <time>2021-04-26T12:18:22.000Z</time>
      </trkpt>
      <trkpt lat="47.12557" lon="-1.62529">
        <ele>54</ele>
        <time>2021-04-26T12:18:24.000Z</time>
      </trkpt>
      <trkpt lat="47.12554" lon="-1.62509">
        <ele>54</ele>
        <time>2021-04-26T12:18:26.000Z</time>
      </trkpt>
      <trkpt lat="47.12551" lon="-1.6249">
        <ele>54</ele>
        <time>2021-04-26T12:18:28.000Z</time>
      </trkpt>
      <trkpt lat="47.12546" lon="-1.62471">
        <ele>54</ele>
        <time>2021-04-26T12:18:30.000Z</time>
      </trkpt>
      <trkpt lat="47.12542" lon="-1.62451">
        <ele>54</ele>
        <time>2021-04-26T12:18:32.000Z</time>
      </trkpt>
      <trkpt lat="47.12536" lon="-1.62432">
        <ele>53</ele>
        <time>2021-04-26T12:18:34.000Z</time>
      </trkpt>
      <trkpt lat="47.12531" lon="-1.62413">
        <ele>53</ele>
        <time>2021-04-26T12:18:36.000Z</time>
      </trkpt>
      <trkpt lat="47.12524" lon="-1.62394">
        <ele>53</ele>
        <time>2021-04-26T12:18:38.000Z</time>
      </trkpt>
      <trkpt lat="47.12517" lon="-1.62376">
        <ele>53</ele>
        <time>2021-04-26T12:18:40.000Z</time>
      </trkpt>
      <trkpt lat="47.12509" lon="-1.62359">
        <ele>53</ele>
        <time>2021-04-26T12:18:42.000Z</time>
      </trkpt>
      <trkpt lat="47.12502" lon="-1.62343">
        <ele>53</ele>
        <time>2021-04-26T12:18:44.000Z</time>
      </trkpt>
      <trkpt lat="47.12493" lon="-1.62327">
        <ele>53</ele>
        <time>2021-04-26T12:18:46.000Z</time>
      </trkpt>
      <trkpt lat="47.12484" lon="-1.62312">
        <ele>53</ele>
        <time>2021-04-26T12:18:48.000Z</time>
      </trkpt>
      <trkpt lat="47.12476" lon="-1.62298">
        <ele>53</ele>
        <time>2021-04-26T12:18:50.000Z</time>
      </trkpt>
      <trkpt lat="47.12466" lon="-1.62284">
        <ele>53</ele>
        <time>2021-04-26T12:18:52.000Z</time>
      </trkpt>
      <trkpt lat="47.12457" lon="-1.62269">
        <ele>52</ele>
        <time>2021-04-26T12:18:54.000Z</time>
      </trkpt>
      <trkpt lat="47.12448" lon="-1.62255">
        <ele>53</ele>
        <time>2021-04-26T12:18:56.000Z</time>
      </trkpt>
      <trkpt lat="47.12438" lon="-1.62241">
        <ele>53</ele>
        <time>2021-04-26T12:18:58.000Z</time>
      </trkpt>
      <trkpt lat="47.12429" lon="-1.62227">
        <ele>53</ele>
        <time>2021-04-26T12:19:00.000Z</time>
      </trkpt>
      <trkpt lat="47.1242" lon="-1.62213">
        <ele>52</ele>
        <time>2021-04-26T12:19:02.000Z</time>
      </trkpt>
      <trkpt lat="47.12411" lon="-1.62198">
        <ele>53</ele>
        <time>2021-04-26T12:19:04.000Z</time>
      </trkpt>
      <trkpt lat="47.12403" lon="-1.62181">
        <ele>53</ele>
        <time>2021-04-26T12:19:06.000Z</time>
      </trkpt>
      <trkpt lat="47.12397" lon="-1.62164">
        <ele>53</ele>
        <time>2021-04-26T12:19:08.000Z</time>
      </trkpt>
      <trkpt lat="47.12391" lon="-1.62147">
        <ele>53</ele>
        <time>2021-04-26T12:19:10.000Z</time>
      </trkpt>
      <trkpt lat="47.12387" lon="-1.62128">
        <ele>53</ele>
        <time>2021-04-26T12:19:12.000Z</time>
      </trkpt>
      <trkpt lat="47.12383" lon="-1.62109">
        <ele>53</ele>
        <time>2021-04-26T12:19:14.000Z</time>
      </trkpt>
      <trkpt lat="47.12381" lon="-1.6209">
        <ele>53</ele>
        <time>2021-04-26T12:19:16.000Z</time>
      </trkpt>
      <trkpt lat="47.1238" lon="-1.62071">
        <ele>53</ele>
        <time>2021-04-26T12:19:18.000Z</time>
      </trkpt>
      <trkpt lat="47.12381" lon="-1.62052">
        <ele>53</ele>
        <time>2021-04-26T12:19:20.000Z</time>
      </trkpt>
      <trkpt lat="47.12382" lon="-1.62033">
        <ele>53</ele>
        <time>2021-04-26T12:19:22.000Z</time>
      </trkpt>
      <trkpt lat="47.12384" lon="-1.62015">
        <ele>53</ele>
        <time>2021-04-26T12:19:24.000Z</time>
      </trkpt>
      <trkpt lat="47.12388" lon="-1.61997">
        <ele>53</ele>
        <time>2021-04-26T12:19:26.000Z</time>
      </trkpt>
      <trkpt lat="47.12393" lon="-1.6198">
        <ele>53</ele>
        <time>2021-04-26T12:19:28.000Z</time>
      </trkpt>
      <trkpt lat="47.12398" lon="-1.61963">
        <ele>53</ele>
        <time>2021-04-26T12:19:30.000Z</time>
      </trkpt>
      <trkpt lat="47.12402" lon="-1.61947">
        <ele>54</ele>
        <time>2021-04-26T12:19:32.000Z</time>
      </trkpt>
      <trkpt lat="47.12407" lon="-1.6193">
        <ele>54</ele>
        <time>2021-04-26T12:19:34.000Z</time>
      </trkpt>
      <trkpt lat="47.1241" lon="-1.61913">
        <ele>54</ele>
        <time>2021-04-26T12:19:36.000Z</time>
      </trkpt>
      <trkpt lat="47.12414" lon="-1.61897">
        <ele>54</ele>
        <time>2021-04-26T12:19:38.000Z</time>
      </trkpt>
      <trkpt lat="47.12418" lon="-1.61881">
        <ele>54</ele>
        <time>2021-04-26T12:19:40.000Z</time>
      </trkpt>
      <trkpt lat="47.12425" lon="-1.61865">
        <ele>55</ele>
        <time>2021-04-26T12:19:42.000Z</time>
      </trkpt>
      <trkpt lat="47.1243" lon="-1.61851">
        <ele>55</ele>
        <time>2021-04-26T12:19:44.000Z</time>
      </trkpt>
      <trkpt lat="47.12434" lon="-1.61834">
        <ele>56</ele>
        <time>2021-04-26T12:19:46.000Z</time>
      </trkpt>
      <trkpt lat="47.12437" lon="-1.61816">
        <ele>56</ele>
        <time>2021-04-26T12:19:48.000Z</time>
      </trkpt>
      <trkpt lat="47.12441" lon="-1.618">
        <ele>56</ele>
        <time>2021-04-26T12:19:50.000Z</time>
      </trkpt>
      <trkpt lat="47.12444" lon="-1.61785">
        <ele>56</ele>
        <time>2021-04-26T12:19:52.000Z</time>
      </trkpt>
      <trkpt lat="47.12448" lon="-1.61769">
        <ele>56</ele>
        <time>2021-04-26T12:19:54.000Z</time>
      </trkpt>
      <trkpt lat="47.12453" lon="-1.61753">
        <ele>56</ele>
        <time>2021-04-26T12:19:56.000Z</time>
      </trkpt>
      <trkpt lat="47.12457" lon="-1.61738">
        <ele>56</ele>
        <time>2021-04-26T12:19:58.000Z</time>
      </trkpt>
      <trkpt lat="47.12461" lon="-1.61722">
        <ele>57</ele>
        <time>2021-04-26T12:20:00.000Z</time>
      </trkpt>
      <trkpt lat="47.12465" lon="-1.61706">
        <ele>57</ele>
        <time>2021-04-26T12:20:02.000Z</time>
      </trkpt>
      <trkpt lat="47.12468" lon="-1.61689">
        <ele>57</ele>
        <time>2021-04-26T12:20:04.000Z</time>
      </trkpt>
      <trkpt lat="47.12471" lon="-1.61672">
        <ele>57</ele>
        <time>2021-04-26T12:20:06.000Z</time>
      </trkpt>
      <trkpt lat="47.12475" lon="-1.61655">
        <ele>57</ele>
        <time>2021-04-26T12:20:08.000Z</time>
      </trkpt>
      <trkpt lat="47.12477" lon="-1.61639">
        <ele>57</ele>
        <time>2021-04-26T12:20:10.000Z</time>
      </trkpt>
      <trkpt lat="47.12477" lon="-1.61621">
        <ele>57</ele>
        <time>2021-04-26T12:20:12.000Z</time>
      </trkpt>
      <trkpt lat="47.12476" lon="-1.61604">
        <ele>57</ele>
        <time>2021-04-26T12:20:14.000Z</time>
      </trkpt>
      <trkpt lat="47.12474" lon="-1.61586">
        <ele>57</ele>
        <time>2021-04-26T12:20:16.000Z</time>
      </trkpt>
      <trkpt lat="47.12472" lon="-1.61568">
        <ele>57</ele>
        <time>2021-04-26T12:20:18.000Z</time>
      </trkpt>
      <trkpt lat="47.12471" lon="-1.61551">
        <ele>57</ele>
        <time>2021-04-26T12:20:20.000Z</time>
      </trkpt>
      <trkpt lat="47.12469" lon="-1.61534">
        <ele>57</ele>
        <time>2021-04-26T12:20:22.000Z</time>
      </trkpt>
      <trkpt lat="47.12467" lon="-1.61516">
        <ele>57</ele>
        <time>2021-04-26T12:20:24.000Z</time>
      </trkpt>
      <trkpt lat="47.12465" lon="-1.61498">
        <ele>57</ele>
        <time>2021-04-26T12:20:26.000Z</time>
      </trkpt>
      <trkpt lat="47.12463" lon="-1.61481">
        <ele>57</ele>
        <time>2021-04-26T12:20:28.000Z</time>
      </trkpt>
      <trkpt lat="47.12461" lon="-1.61463">
        <ele>57</ele>
        <time>2021-04-26T12:20:30.000Z</time>
      </trkpt>
      <trkpt lat="47.12459" lon="-1.61446">
        <ele>56</ele>
        <time>2021-04-26T12:20:32.000Z</time>
      </trkpt>
      <trkpt lat="47.12458" lon="-1.61429">
        <ele>57</ele>
        <time>2021-04-26T12:20:34.000Z</time>
      </trkpt>
      <trkpt lat="47.12456" lon="-1.61412">
        <ele>57</ele>
        <time>2021-04-26T12:20:36.000Z</time>
      </trkpt>
      <trkpt lat="47.12454" lon="-1.61396">
        <ele>57</ele>
        <time>2021-04-26T12:20:38.000Z</time>
      </trkpt>
      <trkpt lat="47.12453" lon="-1.6138">
        <ele>57</ele>
        <time>2021-04-26T12:20:40.000Z</time>
      </trkpt>
      <trkpt lat="47.12455" lon="-1.61363">
        <ele>57</ele>
        <time>2021-04-26T12:20:42.000Z</time>
      </trkpt>
      <trkpt lat="47.12457" lon="-1.61346">
        <ele>57</ele>
        <time>2021-04-26T12:20:44.000Z</time>
      </trkpt>
      <trkpt lat="47.1246" lon="-1.6133">
        <ele>57</ele>
        <time>2021-04-26T12:20:46.000Z</time>
      </trkpt>
      <trkpt lat="47.12465" lon="-1.61314">
        <ele>57</ele>
        <time>2021-04-26T12:20:48.000Z</time>
      </trkpt>
      <trkpt lat="47.1247" lon="-1.61299">
        <ele>57</ele>
        <time>2021-04-26T12:20:50.000Z</time>
      </trkpt>
      <trkpt lat="47.12475" lon="-1.61284">
        <ele>57</ele>
        <time>2021-04-26T12:20:52.000Z</time>
      </trkpt>
      <trkpt lat="47.1248" lon="-1.61269">
        <ele>58</ele>
        <time>2021-04-26T12:20:54.000Z</time>
      </trkpt>
      <trkpt lat="47.12485" lon="-1.61254">
        <ele>58</ele>
        <time>2021-04-26T12:20:56.000Z</time>
      </trkpt>
      <trkpt lat="47.12489" lon="-1.61238">
        <ele>58</ele>
        <time>2021-04-26T12:20:58.000Z</time>
      </trkpt>
      <trkpt lat="47.12492" lon="-1.61222">
        <ele>58</ele>
        <time>2021-04-26T12:21:00.000Z</time>
      </trkpt>
      <trkpt lat="47.12496" lon="-1.61205">
        <ele>58</ele>
        <time>2021-04-26T12:21:02.000Z</time>
      </trkpt>
      <trkpt lat="47.12499" lon="-1.61189">
        <ele>58</ele>
        <time>2021-04-26T12:21:04.000Z</time>
      </trkpt>
      <trkpt lat="47.12501" lon="-1.61172">
        <ele>58</ele>
        <time>2021-04-26T12:21:06.000Z</time>
      </trkpt>
      <trkpt lat="47.12503" lon="-1.61154">
        <ele>58</ele>
        <time>2021-04-26T12:21:08.000Z</time>
      </trkpt>
      <trkpt lat="47.12505" lon="-1.61136">
        <ele>58</ele>
        <time>2021-04-26T12:21:10.000Z</time>
      </trkpt>
      <trkpt lat="47.12506" lon="-1.61117">
        <ele>58</ele>
        <time>2021-04-26T12:21:12.000Z</time>
      </trkpt>
      <trkpt lat="47.12508" lon="-1.611">
        <ele>58</ele>
        <time>2021-04-26T12:21:14.000Z</time>
      </trkpt>
      <trkpt lat="47.1251" lon="-1.61082">
        <ele>58</ele>
        <time>2021-04-26T12:21:16.000Z</time>
      </trkpt>
      <trkpt lat="47.12511" lon="-1.61063">
        <ele>58</ele>
        <time>2021-04-26T12:21:18.000Z</time>
      </trkpt>
      <trkpt lat="47.12513" lon="-1.61046">
        <ele>58</ele>
        <time>2021-04-26T12:21:20.000Z</time>
      </trkpt>
      <trkpt lat="47.12515" lon="-1.61029">
        <ele>58</ele>
        <time>2021-04-26T12:21:22.000Z</time>
      </trkpt>
      <trkpt lat="47.12516" lon="-1.6101">
        <ele>57</ele>
        <time>2021-04-26T12:21:24.000Z</time>
      </trkpt>
      <trkpt lat="47.12518" lon="-1.60992">
        <ele>57</ele>
        <time>2021-04-26T12:21:26.000Z</time>
      </trkpt>
      <trkpt lat="47.1252" lon="-1.60974">
        <ele>57</ele>
        <time>2021-04-26T12:21:28.000Z</time>
      </trkpt>
      <trkpt lat="47.12521" lon="-1.60956">
        <ele>57</ele>
        <time>2021-04-26T12:21:30.000Z</time>
      </trkpt>
      <trkpt lat="47.12523" lon="-1.60939">
        <ele>57</ele>
        <time>2021-04-26T12:21:32.000Z</time>
      </trkpt>
      <trkpt lat="47.12524" lon="-1.60922">
        <ele>57</ele>
        <time>2021-04-26T12:21:34.000Z</time>
      </trkpt>
      <trkpt lat="47.12526" lon="-1.60906">
        <ele>57</ele>
        <time>2021-04-26T12:21:36.000Z</time>
      </trkpt>
      <trkpt lat="47.12528" lon="-1.60888">
        <ele>57</ele>
        <time>2021-04-26T12:21:38.000Z</time>
      </trkpt>
      <trkpt lat="47.12529" lon="-1.60871">
        <ele>58</ele>
        <time>2021-04-26T12:21:40.000Z</time>
      </trkpt>
      <trkpt lat="47.1253" lon="-1.60854">
        <ele>58</ele>
        <time>2021-04-26T12:21:42.000Z</time>
      </trkpt>
      <trkpt lat="47.12532" lon="-1.60837">
        <ele>58</ele>
        <time>2021-04-26T12:21:44.000Z</time>
      </trkpt>
      <trkpt lat="47.12534" lon="-1.6082">
        <ele>58</ele>
        <time>2021-04-26T12:21:46.000Z</time>
      </trkpt>
      <trkpt lat="47.12536" lon="-1.60803">
        <ele>58</ele>
        <time>2021-04-26T12:21:48.000Z</time>
      </trkpt>
      <trkpt lat="47.12538" lon="-1.60785">
        <ele>58</ele>
        <time>2021-04-26T12:21:50.000Z</time>
      </trkpt>
      <trkpt lat="47.12539" lon="-1.60768">
        <ele>58</ele>
        <time>2021-04-26T12:21:52.000Z</time>
      </trkpt>
      <trkpt lat="47.1254" lon="-1.6075">
        <ele>57</ele>
        <time>2021-04-26T12:21:54.000Z</time>
      </trkpt>
      <trkpt lat="47.12541" lon="-1.60732">
        <ele>57</ele>
        <time>2021-04-26T12:21:56.000Z</time>
      </trkpt>
      <trkpt lat="47.12541" lon="-1.60715">
        <ele>58</ele>
        <time>2021-04-26T12:21:58.000Z</time>
      </trkpt>
      <trkpt lat="47.12541" lon="-1.60697">
        <ele>57</ele>
        <time>2021-04-26T12:22:00.000Z</time>
      </trkpt>
      <trkpt lat="47.12541" lon="-1.60679">
        <ele>57</ele>
        <time>2021-04-26T12:22:02.000Z</time>
      </trkpt>
      <trkpt lat="47.12541" lon="-1.60661">
        <ele>57</ele>
        <time>2021-04-26T12:22:04.000Z</time>
      </trkpt>
      <trkpt lat="47.12541" lon="-1.60644">
        <ele>57</ele>
        <time>2021-04-26T12:22:06.000Z</time>
      </trkpt>
      <trkpt lat="47.12541" lon="-1.60625">
        <ele>57</ele>
        <time>2021-04-26T12:22:08.000Z</time>
      </trkpt>
      <trkpt lat="47.1254" lon="-1.60608">
        <ele>57</ele>
        <time>2021-04-26T12:22:10.000Z</time>
      </trkpt>
      <trkpt lat="47.1254" lon="-1.6059">
        <ele>57</ele>
        <time>2021-04-26T12:22:12.000Z</time>
      </trkpt>
      <trkpt lat="47.1254" lon="-1.60571">
        <ele>57</ele>
        <time>2021-04-26T12:22:14.000Z</time>
      </trkpt>
      <trkpt lat="47.12539" lon="-1.60553">
        <ele>57</ele>
        <time>2021-04-26T12:22:16.000Z</time>
      </trkpt>
      <trkpt lat="47.12538" lon="-1.60535">
        <ele>57</ele>
        <time>2021-04-26T12:22:18.000Z</time>
      </trkpt>
      <trkpt lat="47.12537" lon="-1.60516">
        <ele>56</ele>
        <time>2021-04-26T12:22:20.000Z</time>
      </trkpt>
      <trkpt lat="47.12535" lon="-1.60498">
        <ele>56</ele>
        <time>2021-04-26T12:22:22.000Z</time>
      </trkpt>
      <trkpt lat="47.12532" lon="-1.6048">
        <ele>56</ele>
        <time>2021-04-26T12:22:24.000Z</time>
      </trkpt>
      <trkpt lat="47.1253" lon="-1.60462">
        <ele>56</ele>
        <time>2021-04-26T12:22:26.000Z</time>
      </trkpt>
      <trkpt lat="47.12527" lon="-1.60444">
        <ele>56</ele>
        <time>2021-04-26T12:22:28.000Z</time>
      </trkpt>
      <trkpt lat="47.12524" lon="-1.60425">
        <ele>56</ele>
        <time>2021-04-26T12:22:30.000Z</time>
      </trkpt>
      <trkpt lat="47.12521" lon="-1.60406">
        <ele>55</ele>
        <time>2021-04-26T12:22:32.000Z</time>
      </trkpt>
      <trkpt lat="47.12517" lon="-1.60388">
        <ele>55</ele>
        <time>2021-04-26T12:22:34.000Z</time>
      </trkpt>
      <trkpt lat="47.12513" lon="-1.60369">
        <ele>55</ele>
        <time>2021-04-26T12:22:36.000Z</time>
      </trkpt>
      <trkpt lat="47.12509" lon="-1.6035">
        <ele>55</ele>
        <time>2021-04-26T12:22:38.000Z</time>
      </trkpt>
      <trkpt lat="47.12505" lon="-1.6033">
        <ele>55</ele>
        <time>2021-04-26T12:22:40.000Z</time>
      </trkpt>
      <trkpt lat="47.12501" lon="-1.60311">
        <ele>54</ele>
        <time>2021-04-26T12:22:42.000Z</time>
      </trkpt>
      <trkpt lat="47.12498" lon="-1.60292">
        <ele>54</ele>
        <time>2021-04-26T12:22:44.000Z</time>
      </trkpt>
      <trkpt lat="47.12494" lon="-1.60273">
        <ele>54</ele>
        <time>2021-04-26T12:22:46.000Z</time>
      </trkpt>
      <trkpt lat="47.1249" lon="-1.60255">
        <ele>54</ele>
        <time>2021-04-26T12:22:48.000Z</time>
      </trkpt>
      <trkpt lat="47.12487" lon="-1.60237">
        <ele>54</ele>
        <time>2021-04-26T12:22:50.000Z</time>
      </trkpt>
      <trkpt lat="47.12484" lon="-1.6022">
        <ele>54</ele>
        <time>2021-04-26T12:22:52.000Z</time>
      </trkpt>
      <trkpt lat="47.12481" lon="-1.60202">
        <ele>54</ele>
        <time>2021-04-26T12:22:54.000Z</time>
      </trkpt>
      <trkpt lat="47.12478" lon="-1.60183">
        <ele>55</ele>
        <time>2021-04-26T12:22:56.000Z</time>
      </trkpt>
      <trkpt lat="47.12477" lon="-1.60164">
        <ele>55</ele>
        <time>2021-04-26T12:22:58.000Z</time>
      </trkpt>
      <trkpt lat="47.12476" lon="-1.60146">
        <ele>54</ele>
        <time>2021-04-26T12:23:00.000Z</time>
      </trkpt>
      <trkpt lat="47.12475" lon="-1.60127">
        <ele>54</ele>
        <time>2021-04-26T12:23:02.000Z</time>
      </trkpt>
      <trkpt lat="47.12474" lon="-1.60107">
        <ele>55</ele>
        <time>2021-04-26T12:23:04.000Z</time>
      </trkpt>
      <trkpt lat="47.12473" lon="-1.60089">
        <ele>54</ele>
        <time>2021-04-26T12:23:06.000Z</time>
      </trkpt>
      <trkpt lat="47.12472" lon="-1.6007">
        <ele>54</ele>
        <time>2021-04-26T12:23:08.000Z</time>
      </trkpt>
      <trkpt lat="47.12471" lon="-1.60051">
        <ele>54</ele>
        <time>2021-04-26T12:23:10.000Z</time>
      </trkpt>
      <trkpt lat="47.1247" lon="-1.60032">
        <ele>54</ele>
        <time>2021-04-26T12:23:12.000Z</time>
      </trkpt>
      <trkpt lat="47.12469" lon="-1.60014">
        <ele>54</ele>
        <time>2021-04-26T12:23:14.000Z</time>
      </trkpt>
      <trkpt lat="47.12468" lon="-1.59994">
        <ele>54</ele>
        <time>2021-04-26T12:23:16.000Z</time>
      </trkpt>
      <trkpt lat="47.12467" lon="-1.59975">
        <ele>54</ele>
        <time>2021-04-26T12:23:18.000Z</time>
      </trkpt>
      <trkpt lat="47.12466" lon="-1.59957">
        <ele>54</ele>
        <time>2021-04-26T12:23:20.000Z</time>
      </trkpt>
      <trkpt lat="47.12466" lon="-1.59938">
        <ele>55</ele>
        <time>2021-04-26T12:23:22.000Z</time>
      </trkpt>
      <trkpt lat="47.12465" lon="-1.5992">
        <ele>56</ele>
        <time>2021-04-26T12:23:24.000Z</time>
      </trkpt>
      <trkpt lat="47.12464" lon="-1.59901">
        <ele>55</ele>
        <time>2021-04-26T12:23:26.000Z</time>
      </trkpt>
      <trkpt lat="47.12463" lon="-1.59882">
        <ele>56</ele>
        <time>2021-04-26T12:23:28.000Z</time>
      </trkpt>
      <trkpt lat="47.12462" lon="-1.59865">
        <ele>56</ele>
        <time>2021-04-26T12:23:30.000Z</time>
      </trkpt>
      <trkpt lat="47.12462" lon="-1.59846">
        <ele>56</ele>
        <time>2021-04-26T12:23:32.000Z</time>
      </trkpt>
      <trkpt lat="47.12461" lon="-1.59827">
        <ele>56</ele>
        <time>2021-04-26T12:23:34.000Z</time>
      </trkpt>
      <trkpt lat="47.1246" lon="-1.5981">
        <ele>57</ele>
        <time>2021-04-26T12:23:36.000Z</time>
      </trkpt>
      <trkpt lat="47.12459" lon="-1.59792">
        <ele>57</ele>
        <time>2021-04-26T12:23:38.000Z</time>
      </trkpt>
      <trkpt lat="47.12458" lon="-1.59774">
        <ele>57</ele>
        <time>2021-04-26T12:23:40.000Z</time>
      </trkpt>
      <trkpt lat="47.12458" lon="-1.59757">
        <ele>57</ele>
        <time>2021-04-26T12:23:42.000Z</time>
      </trkpt>
      <trkpt lat="47.12457" lon="-1.59739">
        <ele>57</ele>
        <time>2021-04-26T12:23:44.000Z</time>
      </trkpt>
      <trkpt lat="47.12456" lon="-1.59723">
        <ele>57</ele>
        <time>2021-04-26T12:23:46.000Z</time>
      </trkpt>
      <trkpt lat="47.12455" lon="-1.59706">
        <ele>57</ele>
        <time>2021-04-26T12:23:48.000Z</time>
      </trkpt>
      <trkpt lat="47.12454" lon="-1.59689">
        <ele>58</ele>
        <time>2021-04-26T12:23:50.000Z</time>
      </trkpt>
      <trkpt lat="47.12454" lon="-1.59672">
        <ele>58</ele>
        <time>2021-04-26T12:23:52.000Z</time>
      </trkpt>
      <trkpt lat="47.12453" lon="-1.59655">
        <ele>58</ele>
        <time>2021-04-26T12:23:54.000Z</time>
      </trkpt>
      <trkpt lat="47.12452" lon="-1.59637">
        <ele>58</ele>
        <time>2021-04-26T12:23:56.000Z</time>
      </trkpt>
      <trkpt lat="47.12451" lon="-1.5962">
        <ele>58</ele>
        <time>2021-04-26T12:23:58.000Z</time>
      </trkpt>
      <trkpt lat="47.1245" lon="-1.59603">
        <ele>57</ele>
        <time>2021-04-26T12:24:00.000Z</time>
      </trkpt>
      <trkpt lat="47.1245" lon="-1.59585">
        <ele>57</ele>
        <time>2021-04-26T12:24:02.000Z</time>
      </trkpt>
      <trkpt lat="47.12448" lon="-1.59568">
        <ele>58</ele>
        <time>2021-04-26T12:24:04.000Z</time>
      </trkpt>
      <trkpt lat="47.12448" lon="-1.5955">
        <ele>58</ele>
        <time>2021-04-26T12:24:06.000Z</time>
      </trkpt>
      <trkpt lat="47.12447" lon="-1.59533">
        <ele>58</ele>
        <time>2021-04-26T12:24:08.000Z</time>
      </trkpt>
      <trkpt lat="47.12446" lon="-1.59516">
        <ele>57</ele>
        <time>2021-04-26T12:24:10.000Z</time>
      </trkpt>
      <trkpt lat="47.12445" lon="-1.59499">
        <ele>57</ele>
        <time>2021-04-26T12:24:12.000Z</time>
      </trkpt>
      <trkpt lat="47.12445" lon="-1.59481">
        <ele>57</ele>
        <time>2021-04-26T12:24:14.000Z</time>
      </trkpt>
      <trkpt lat="47.12444" lon="-1.59464">
        <ele>57</ele>
        <time>2021-04-26T12:24:16.000Z</time>
      </trkpt>
      <trkpt lat="47.12442" lon="-1.59445">
        <ele>57</ele>
        <time>2021-04-26T12:24:18.000Z</time>
      </trkpt>
      <trkpt lat="47.12441" lon="-1.59427">
        <ele>57</ele>
        <time>2021-04-26T12:24:20.000Z</time>
      </trkpt>
      <trkpt lat="47.12441" lon="-1.59409">
        <ele>57</ele>
        <time>2021-04-26T12:24:22.000Z</time>
      </trkpt>
      <trkpt lat="47.1244" lon="-1.5939">
        <ele>57</ele>
        <time>2021-04-26T12:24:24.000Z</time>
      </trkpt>
      <trkpt lat="47.12439" lon="-1.59373">
        <ele>56</ele>
        <time>2021-04-26T12:24:26.000Z</time>
      </trkpt>
      <trkpt lat="47.12438" lon="-1.59355">
        <ele>56</ele>
        <time>2021-04-26T12:24:28.000Z</time>
      </trkpt>
      <trkpt lat="47.12437" lon="-1.59337">
        <ele>56</ele>
        <time>2021-04-26T12:24:30.000Z</time>
      </trkpt>
      <trkpt lat="47.12436" lon="-1.59319">
        <ele>56</ele>
        <time>2021-04-26T12:24:32.000Z</time>
      </trkpt>
      <trkpt lat="47.12435" lon="-1.59301">
        <ele>56</ele>
        <time>2021-04-26T12:24:34.000Z</time>
      </trkpt>
      <trkpt lat="47.12434" lon="-1.59283">
        <ele>56</ele>
        <time>2021-04-26T12:24:36.000Z</time>
      </trkpt>
      <trkpt lat="47.12433" lon="-1.59265">
        <ele>56</ele>
        <time>2021-04-26T12:24:38.000Z</time>
      </trkpt>
      <trkpt lat="47.12432" lon="-1.59249">
        <ele>56</ele>
        <time>2021-04-26T12:24:40.000Z</time>
      </trkpt>
      <trkpt lat="47.12431" lon="-1.59232">
        <ele>56</ele>
        <time>2021-04-26T12:24:42.000Z</time>
      </trkpt>
      <trkpt lat="47.12429" lon="-1.59216">
        <ele>56</ele>
        <time>2021-04-26T12:24:44.000Z</time>
      </trkpt>
      <trkpt lat="47.12425" lon="-1.59199">
        <ele>56</ele>
        <time>2021-04-26T12:24:46.000Z</time>
      </trkpt>
      <trkpt lat="47.12425" lon="-1.59181">
        <ele>56</ele>
        <time>2021-04-26T12:24:48.000Z</time>
      </trkpt>
      <trkpt lat="47.12427" lon="-1.59163">
        <ele>55</ele>
        <time>2021-04-26T12:24:50.000Z</time>
      </trkpt>
      <trkpt lat="47.12427" lon="-1.59145">
        <ele>56</ele>
        <time>2021-04-26T12:24:52.000Z</time>
      </trkpt>
      <trkpt lat="47.12427" lon="-1.59126">
        <ele>56</ele>
        <time>2021-04-26T12:24:54.000Z</time>
      </trkpt>
      <trkpt lat="47.12428" lon="-1.59107">
        <ele>56</ele>
        <time>2021-04-26T12:24:56.000Z</time>
      </trkpt>
      <trkpt lat="47.12427" lon="-1.59088">
        <ele>56</ele>
        <time>2021-04-26T12:24:58.000Z</time>
      </trkpt>
      <trkpt lat="47.12426" lon="-1.59071">
        <ele>56</ele>
        <time>2021-04-26T12:25:00.000Z</time>
      </trkpt>
      <trkpt lat="47.12425" lon="-1.59052">
        <ele>55</ele>
        <time>2021-04-26T12:25:02.000Z</time>
      </trkpt>
      <trkpt lat="47.12424" lon="-1.59034">
        <ele>56</ele>
        <time>2021-04-26T12:25:04.000Z</time>
      </trkpt>
      <trkpt lat="47.12423" lon="-1.59018">
        <ele>56</ele>
        <time>2021-04-26T12:25:06.000Z</time>
      </trkpt>
      <trkpt lat="47.12422" lon="-1.59002">
        <ele>56</ele>
        <time>2021-04-26T12:25:08.000Z</time>
      </trkpt>
      <trkpt lat="47.12421" lon="-1.58986">
        <ele>56</ele>
        <time>2021-04-26T12:25:10.000Z</time>
      </trkpt>
      <trkpt lat="47.1242" lon="-1.5897">
        <ele>56</ele>
        <time>2021-04-26T12:25:12.000Z</time>
      </trkpt>
      <trkpt lat="47.1242" lon="-1.58954">
        <ele>57</ele>
        <time>2021-04-26T12:25:14.000Z</time>
      </trkpt>
      <trkpt lat="47.12418" lon="-1.58937">
        <ele>57</ele>
        <time>2021-04-26T12:25:16.000Z</time>
      </trkpt>
      <trkpt lat="47.12417" lon="-1.58921">
        <ele>58</ele>
        <time>2021-04-26T12:25:18.000Z</time>
      </trkpt>
      <trkpt lat="47.12416" lon="-1.58905">
        <ele>58</ele>
        <time>2021-04-26T12:25:20.000Z</time>
      </trkpt>
      <trkpt lat="47.12414" lon="-1.58889">
        <ele>59</ele>
        <time>2021-04-26T12:25:22.000Z</time>
      </trkpt>
      <trkpt lat="47.12413" lon="-1.58873">
        <ele>59</ele>
        <time>2021-04-26T12:25:24.000Z</time>
      </trkpt>
      <trkpt lat="47.12411" lon="-1.58857">
        <ele>59</ele>
        <time>2021-04-26T12:25:26.000Z</time>
      </trkpt>
      <trkpt lat="47.12409" lon="-1.58841">
        <ele>59</ele>
        <time>2021-04-26T12:25:28.000Z</time>
      </trkpt>
      <trkpt lat="47.12408" lon="-1.58826">
        <ele>59</ele>
        <time>2021-04-26T12:25:30.000Z</time>
      </trkpt>
      <trkpt lat="47.12406" lon="-1.5881">
        <ele>59</ele>
        <time>2021-04-26T12:25:32.000Z</time>
      </trkpt>
      <trkpt lat="47.12403" lon="-1.58793">
        <ele>59</ele>
        <time>2021-04-26T12:25:34.000Z</time>
      </trkpt>
      <trkpt lat="47.12401" lon="-1.58777">
        <ele>59</ele>
        <time>2021-04-26T12:25:36.000Z</time>
      </trkpt>
      <trkpt lat="47.12398" lon="-1.5876">
        <ele>59</ele>
        <time>2021-04-26T12:25:38.000Z</time>
      </trkpt>
      <trkpt lat="47.12395" lon="-1.58743">
        <ele>59</ele>
        <time>2021-04-26T12:25:40.000Z</time>
      </trkpt>
      <trkpt lat="47.12391" lon="-1.58727">
        <ele>58</ele>
        <time>2021-04-26T12:25:42.000Z</time>
      </trkpt>
      <trkpt lat="47.12388" lon="-1.58711">
        <ele>58</ele>
        <time>2021-04-26T12:25:44.000Z</time>
      </trkpt>
      <trkpt lat="47.12384" lon="-1.58695">
        <ele>58</ele>
        <time>2021-04-26T12:25:46.000Z</time>
      </trkpt>
      <trkpt lat="47.1238" lon="-1.58679">
        <ele>58</ele>
        <time>2021-04-26T12:25:48.000Z</time>
      </trkpt>
      <trkpt lat="47.12376" lon="-1.58663">
        <ele>58</ele>
        <time>2021-04-26T12:25:50.000Z</time>
      </trkpt>
      <trkpt lat="47.12372" lon="-1.58646">
        <ele>57</ele>
        <time>2021-04-26T12:25:52.000Z</time>
      </trkpt>
      <trkpt lat="47.12369" lon="-1.58629">
        <ele>57</ele>
        <time>2021-04-26T12:25:54.000Z</time>
      </trkpt>
      <trkpt lat="47.12365" lon="-1.58612">
        <ele>57</ele>
        <time>2021-04-26T12:25:56.000Z</time>
      </trkpt>
      <trkpt lat="47.12361" lon="-1.58595">
        <ele>56</ele>
        <time>2021-04-26T12:25:58.000Z</time>
      </trkpt>
      <trkpt lat="47.12357" lon="-1.58577">
        <ele>56</ele>
        <time>2021-04-26T12:26:00.000Z</time>
      </trkpt>
      <trkpt lat="47.12353" lon="-1.5856">
        <ele>56</ele>
        <time>2021-04-26T12:26:02.000Z</time>
      </trkpt>
      <trkpt lat="47.12349" lon="-1.58543">
        <ele>55</ele>
        <time>2021-04-26T12:26:04.000Z</time>
      </trkpt>
      <trkpt lat="47.12345" lon="-1.58525">
        <ele>55</ele>
        <time>2021-04-26T12:26:06.000Z</time>
      </trkpt>
      <trkpt lat="47.12342" lon="-1.58508">
        <ele>55</ele>
        <time>2021-04-26T12:26:08.000Z</time>
      </trkpt>
      <trkpt lat="47.12338" lon="-1.5849">
        <ele>55</ele>
        <time>2021-04-26T12:26:10.000Z</time>
      </trkpt>
      <trkpt lat="47.12334" lon="-1.58474">
        <ele>55</ele>
        <time>2021-04-26T12:26:12.000Z</time>
      </trkpt>
      <trkpt lat="47.12329" lon="-1.5846">
        <ele>56</ele>
        <time>2021-04-26T12:26:14.000Z</time>
      </trkpt>
      <trkpt lat="47.12323" lon="-1.58447">
        <ele>56</ele>
        <time>2021-04-26T12:26:16.000Z</time>
      </trkpt>
      <trkpt lat="47.12317" lon="-1.58433">
        <ele>57</ele>
        <time>2021-04-26T12:26:18.000Z</time>
      </trkpt>
      <trkpt lat="47.1231" lon="-1.58419">
        <ele>57</ele>
        <time>2021-04-26T12:26:20.000Z</time>
      </trkpt>
      <trkpt lat="47.12303" lon="-1.58404">
        <ele>57</ele>
        <time>2021-04-26T12:26:22.000Z</time>
      </trkpt>
      <trkpt lat="47.12298" lon="-1.58387">
        <ele>57</ele>
        <time>2021-04-26T12:26:24.000Z</time>
      </trkpt>
      <trkpt lat="47.12296" lon="-1.58368">
        <ele>56</ele>
        <time>2021-04-26T12:26:26.000Z</time>
      </trkpt>
      <trkpt lat="47.12295" lon="-1.58349">
        <ele>56</ele>
        <time>2021-04-26T12:26:28.000Z</time>
      </trkpt>
      <trkpt lat="47.12285" lon="-1.58335">
        <ele>56</ele>
        <time>2021-04-26T12:26:30.000Z</time>
      </trkpt>
      <trkpt lat="47.12273" lon="-1.58324">
        <ele>55</ele>
        <time>2021-04-26T12:26:32.000Z</time>
      </trkpt>
      <trkpt lat="47.1226" lon="-1.58313">
        <ele>54</ele>
        <time>2021-04-26T12:26:34.000Z</time>
      </trkpt>
      <trkpt lat="47.12249" lon="-1.58304">
        <ele>54</ele>
        <time>2021-04-26T12:26:36.000Z</time>
      </trkpt>
      <trkpt lat="47.12239" lon="-1.58294">
        <ele>54</ele>
        <time>2021-04-26T12:26:38.000Z</time>
      </trkpt>
      <trkpt lat="47.12228" lon="-1.58283">
        <ele>54</ele>
        <time>2021-04-26T12:26:40.000Z</time>
      </trkpt>
      <trkpt lat="47.12219" lon="-1.58271">
        <ele>54</ele>
        <time>2021-04-26T12:26:42.000Z</time>
      </trkpt>
      <trkpt lat="47.12209" lon="-1.58261">
        <ele>54</ele>
        <time>2021-04-26T12:26:44.000Z</time>
      </trkpt>
      <trkpt lat="47.122" lon="-1.5825">
        <ele>55</ele>
        <time>2021-04-26T12:26:46.000Z</time>
      </trkpt>
      <trkpt lat="47.12198" lon="-1.58235">
        <ele>55</ele>
        <time>2021-04-26T12:26:48.000Z</time>
      </trkpt>
      <trkpt lat="47.12201" lon="-1.58216">
        <ele>55</ele>
        <time>2021-04-26T12:26:50.000Z</time>
      </trkpt>
      <trkpt lat="47.12203" lon="-1.582">
        <ele>55</ele>
        <time>2021-04-26T12:26:52.000Z</time>
      </trkpt>
      <trkpt lat="47.12203" lon="-1.58183">
        <ele>56</ele>
        <time>2021-04-26T12:26:54.000Z</time>
      </trkpt>
      <trkpt lat="47.12204" lon="-1.58166">
        <ele>55</ele>
        <time>2021-04-26T12:26:56.000Z</time>
      </trkpt>
      <trkpt lat="47.12209" lon="-1.5815">
        <ele>55</ele>
        <time>2021-04-26T12:26:58.000Z</time>
      </trkpt>
      <trkpt lat="47.12215" lon="-1.58135">
        <ele>56</ele>
        <time>2021-04-26T12:27:00.000Z</time>
      </trkpt>
      <trkpt lat="47.12222" lon="-1.5812">
        <ele>56</ele>
        <time>2021-04-26T12:27:02.000Z</time>
      </trkpt>
      <trkpt lat="47.12229" lon="-1.58105">
        <ele>56</ele>
        <time>2021-04-26T12:27:04.000Z</time>
      </trkpt>
      <trkpt lat="47.12235" lon="-1.5809">
        <ele>55</ele>
        <time>2021-04-26T12:27:06.000Z</time>
      </trkpt>
      <trkpt lat="47.1224" lon="-1.58074">
        <ele>55</ele>
        <time>2021-04-26T12:27:08.000Z</time>
      </trkpt>
      <trkpt lat="47.12244" lon="-1.58058">
        <ele>55</ele>
        <time>2021-04-26T12:27:10.000Z</time>
      </trkpt>
      <trkpt lat="47.12244" lon="-1.5804">
        <ele>56</ele>
        <time>2021-04-26T12:27:12.000Z</time>
      </trkpt>
      <trkpt lat="47.1224" lon="-1.58025">
        <ele>57</ele>
        <time>2021-04-26T12:27:14.000Z</time>
      </trkpt>
      <trkpt lat="47.12233" lon="-1.58011">
        <ele>57</ele>
        <time>2021-04-26T12:27:16.000Z</time>
      </trkpt>
      <trkpt lat="47.12225" lon="-1.57998">
        <ele>58</ele>
        <time>2021-04-26T12:27:18.000Z</time>
      </trkpt>
      <trkpt lat="47.12217" lon="-1.57985">
        <ele>58</ele>
        <time>2021-04-26T12:27:20.000Z</time>
      </trkpt>
      <trkpt lat="47.12209" lon="-1.57971">
        <ele>58</ele>
        <time>2021-04-26T12:27:22.000Z</time>
      </trkpt>
      <trkpt lat="47.12202" lon="-1.57958">
        <ele>58</ele>
        <time>2021-04-26T12:27:24.000Z</time>
      </trkpt>
      <trkpt lat="47.12195" lon="-1.57945">
        <ele>58</ele>
        <time>2021-04-26T12:27:26.000Z</time>
      </trkpt>
      <trkpt lat="47.12189" lon="-1.5793">
        <ele>59</ele>
        <time>2021-04-26T12:27:28.000Z</time>
      </trkpt>
      <trkpt lat="47.12186" lon="-1.57914">
        <ele>59</ele>
        <time>2021-04-26T12:27:30.000Z</time>
      </trkpt>
      <trkpt lat="47.12183" lon="-1.57899">
        <ele>59</ele>
        <time>2021-04-26T12:27:32.000Z</time>
      </trkpt>
      <trkpt lat="47.12181" lon="-1.57882">
        <ele>59</ele>
        <time>2021-04-26T12:27:34.000Z</time>
      </trkpt>
      <trkpt lat="47.1218" lon="-1.57865">
        <ele>59</ele>
        <time>2021-04-26T12:27:36.000Z</time>
      </trkpt>
      <trkpt lat="47.1218" lon="-1.57848">
        <ele>60</ele>
        <time>2021-04-26T12:27:38.000Z</time>
      </trkpt>
      <trkpt lat="47.1218" lon="-1.57832">
        <ele>60</ele>
        <time>2021-04-26T12:27:40.000Z</time>
      </trkpt>
      <trkpt lat="47.1218" lon="-1.57815">
        <ele>60</ele>
        <time>2021-04-26T12:27:42.000Z</time>
      </trkpt>
      <trkpt lat="47.1218" lon="-1.57798">
        <ele>60</ele>
        <time>2021-04-26T12:27:44.000Z</time>
      </trkpt>
      <trkpt lat="47.12179" lon="-1.57782">
        <ele>60</ele>
        <time>2021-04-26T12:27:46.000Z</time>
      </trkpt>
      <trkpt lat="47.12179" lon="-1.57765">
        <ele>61</ele>
        <time>2021-04-26T12:27:48.000Z</time>
      </trkpt>
      <trkpt lat="47.12178" lon="-1.57749">
        <ele>61</ele>
        <time>2021-04-26T12:27:50.000Z</time>
      </trkpt>
      <trkpt lat="47.12178" lon="-1.57733">
        <ele>61</ele>
        <time>2021-04-26T12:27:52.000Z</time>
      </trkpt>
      <trkpt lat="47.12178" lon="-1.57717">
        <ele>61</ele>
        <time>2021-04-26T12:27:54.000Z</time>
      </trkpt>
      <trkpt lat="47.12177" lon="-1.577">
        <ele>61</ele>
        <time>2021-04-26T12:27:56.000Z</time>
      </trkpt>
      <trkpt lat="47.12177" lon="-1.57683">
        <ele>60</ele>
        <time>2021-04-26T12:27:58.000Z</time>
      </trkpt>
      <trkpt lat="47.12177" lon="-1.57667">
        <ele>61</ele>
        <time>2021-04-26T12:28:00.000Z</time>
      </trkpt>
      <trkpt lat="47.12177" lon="-1.5765">
        <ele>60</ele>
        <time>2021-04-26T12:28:02.000Z</time>
      </trkpt>
      <trkpt lat="47.12177" lon="-1.57633">
        <ele>60</ele>
        <time>2021-04-26T12:28:04.000Z</time>
      </trkpt>
      <trkpt lat="47.12178" lon="-1.57615">
        <ele>60</ele>
        <time>2021-04-26T12:28:06.000Z</time>
      </trkpt>
      <trkpt lat="47.12177" lon="-1.57597">
        <ele>60</ele>
        <time>2021-04-26T12:28:08.000Z</time>
      </trkpt>
      <trkpt lat="47.12176" lon="-1.57579">
        <ele>60</ele>
        <time>2021-04-26T12:28:10.000Z</time>
      </trkpt>
      <trkpt lat="47.12175" lon="-1.57561">
        <ele>60</ele>
        <time>2021-04-26T12:28:12.000Z</time>
      </trkpt>
      <trkpt lat="47.12174" lon="-1.57543">
        <ele>60</ele>
        <time>2021-04-26T12:28:14.000Z</time>
      </trkpt>
      <trkpt lat="47.12173" lon="-1.57525">
        <ele>60</ele>
        <time>2021-04-26T12:28:16.000Z</time>
      </trkpt>
      <trkpt lat="47.12171" lon="-1.57508">
        <ele>59</ele>
        <time>2021-04-26T12:28:18.000Z</time>
      </trkpt>
      <trkpt lat="47.12169" lon="-1.5749">
        <ele>59</ele>
        <time>2021-04-26T12:28:20.000Z</time>
      </trkpt>
      <trkpt lat="47.12166" lon="-1.57473">
        <ele>59</ele>
        <time>2021-04-26T12:28:22.000Z</time>
      </trkpt>
      <trkpt lat="47.12163" lon="-1.57456">
        <ele>59</ele>
        <time>2021-04-26T12:28:24.000Z</time>
      </trkpt>
      <trkpt lat="47.12159" lon="-1.57439">
        <ele>59</ele>
        <time>2021-04-26T12:28:26.000Z</time>
      </trkpt>
      <trkpt lat="47.12156" lon="-1.57421">
        <ele>59</ele>
        <time>2021-04-26T12:28:28.000Z</time>
      </trkpt>
      <trkpt lat="47.12152" lon="-1.57403">
        <ele>59</ele>
        <time>2021-04-26T12:28:30.000Z</time>
      </trkpt>
      <trkpt lat="47.1215" lon="-1.57384">
        <ele>59</ele>
        <time>2021-04-26T12:28:32.000Z</time>
      </trkpt>
      <trkpt lat="47.12146" lon="-1.57366">
        <ele>58</ele>
        <time>2021-04-26T12:28:34.000Z</time>
      </trkpt>
      <trkpt lat="47.12143" lon="-1.57347">
        <ele>57</ele>
        <time>2021-04-26T12:28:36.000Z</time>
      </trkpt>
      <trkpt lat="47.1214" lon="-1.57327">
        <ele>57</ele>
        <time>2021-04-26T12:28:38.000Z</time>
      </trkpt>
      <trkpt lat="47.12137" lon="-1.57307">
        <ele>57</ele>
        <time>2021-04-26T12:28:40.000Z</time>
      </trkpt>
      <trkpt lat="47.12132" lon="-1.57289">
        <ele>57</ele>
        <time>2021-04-26T12:28:42.000Z</time>
      </trkpt>
      <trkpt lat="47.12128" lon="-1.5727">
        <ele>56</ele>
        <time>2021-04-26T12:28:44.000Z</time>
      </trkpt>
      <trkpt lat="47.12124" lon="-1.5725">
        <ele>56</ele>
        <time>2021-04-26T12:28:46.000Z</time>
      </trkpt>
      <trkpt lat="47.1212" lon="-1.57232">
        <ele>55</ele>
        <time>2021-04-26T12:28:48.000Z</time>
      </trkpt>
      <trkpt lat="47.12116" lon="-1.57212">
        <ele>55</ele>
        <time>2021-04-26T12:28:50.000Z</time>
      </trkpt>
      <trkpt lat="47.12112" lon="-1.57193">
        <ele>54</ele>
        <time>2021-04-26T12:28:52.000Z</time>
      </trkpt>
      <trkpt lat="47.12109" lon="-1.57173">
        <ele>54</ele>
        <time>2021-04-26T12:28:54.000Z</time>
      </trkpt>
      <trkpt lat="47.12105" lon="-1.57153">
        <ele>54</ele>
        <time>2021-04-26T12:28:56.000Z</time>
      </trkpt>
      <trkpt lat="47.12102" lon="-1.57133">
        <ele>54</ele>
        <time>2021-04-26T12:28:58.000Z</time>
      </trkpt>
      <trkpt lat="47.12098" lon="-1.57112">
        <ele>53</ele>
        <time>2021-04-26T12:29:00.000Z</time>
      </trkpt>
      <trkpt lat="47.12094" lon="-1.57093">
        <ele>53</ele>
        <time>2021-04-26T12:29:02.000Z</time>
      </trkpt>
      <trkpt lat="47.1209" lon="-1.57073">
        <ele>53</ele>
        <time>2021-04-26T12:29:04.000Z</time>
      </trkpt>
      <trkpt lat="47.12087" lon="-1.57054">
        <ele>54</ele>
        <time>2021-04-26T12:29:06.000Z</time>
      </trkpt>
      <trkpt lat="47.12083" lon="-1.57035">
        <ele>54</ele>
        <time>2021-04-26T12:29:08.000Z</time>
      </trkpt>
      <trkpt lat="47.12079" lon="-1.57016">
        <ele>54</ele>
        <time>2021-04-26T12:29:10.000Z</time>
      </trkpt>
      <trkpt lat="47.12076" lon="-1.56998">
        <ele>54</ele>
        <time>2021-04-26T12:29:12.000Z</time>
      </trkpt>
      <trkpt lat="47.12072" lon="-1.5698">
        <ele>54</ele>
        <time>2021-04-26T12:29:14.000Z</time>
      </trkpt>
      <trkpt lat="47.12068" lon="-1.56962">
        <ele>54</ele>
        <time>2021-04-26T12:29:16.000Z</time>
      </trkpt>
      <trkpt lat="47.12065" lon="-1.56945">
        <ele>54</ele>
        <time>2021-04-26T12:29:18.000Z</time>
      </trkpt>
      <trkpt lat="47.12062" lon="-1.56929">
        <ele>55</ele>
        <time>2021-04-26T12:29:20.000Z</time>
      </trkpt>
      <trkpt lat="47.12059" lon="-1.56913">
        <ele>55</ele>
        <time>2021-04-26T12:29:22.000Z</time>
      </trkpt>
      <trkpt lat="47.12055" lon="-1.56896">
        <ele>56</ele>
        <time>2021-04-26T12:29:24.000Z</time>
      </trkpt>
      <trkpt lat="47.12053" lon="-1.5688">
        <ele>56</ele>
        <time>2021-04-26T12:29:26.000Z</time>
      </trkpt>
      <trkpt lat="47.12049" lon="-1.56864">
        <ele>57</ele>
        <time>2021-04-26T12:29:28.000Z</time>
      </trkpt>
      <trkpt lat="47.12047" lon="-1.56849">
        <ele>57</ele>
        <time>2021-04-26T12:29:30.000Z</time>
      </trkpt>
      <trkpt lat="47.12044" lon="-1.56833">
        <ele>57</ele>
        <time>2021-04-26T12:29:32.000Z</time>
      </trkpt>
      <trkpt lat="47.12041" lon="-1.56818">
        <ele>58</ele>
        <time>2021-04-26T12:29:34.000Z</time>
      </trkpt>
      <trkpt lat="47.12038" lon="-1.56802">
        <ele>57</ele>
        <time>2021-04-26T12:29:36.000Z</time>
      </trkpt>
      <trkpt lat="47.12035" lon="-1.56786">
        <ele>58</ele>
        <time>2021-04-26T12:29:38.000Z</time>
      </trkpt>
      <trkpt lat="47.12032" lon="-1.5677">
        <ele>59</ele>
        <time>2021-04-26T12:29:40.000Z</time>
      </trkpt>
      <trkpt lat="47.12029" lon="-1.56755">
        <ele>60</ele>
        <time>2021-04-26T12:29:42.000Z</time>
      </trkpt>
      <trkpt lat="47.12026" lon="-1.56739">
        <ele>60</ele>
        <time>2021-04-26T12:29:44.000Z</time>
      </trkpt>
      <trkpt lat="47.12023" lon="-1.56724">
        <ele>61</ele>
        <time>2021-04-26T12:29:46.000Z</time>
      </trkpt>
      <trkpt lat="47.1202" lon="-1.56709">
        <ele>61</ele>
        <time>2021-04-26T12:29:48.000Z</time>
      </trkpt>
      <trkpt lat="47.12018" lon="-1.56694">
        <ele>62</ele>
        <time>2021-04-26T12:29:50.000Z</time>
      </trkpt>
      <trkpt lat="47.12015" lon="-1.56678">
        <ele>62</ele>
        <time>2021-04-26T12:29:52.000Z</time>
      </trkpt>
      <trkpt lat="47.12011" lon="-1.56663">
        <ele>63</ele>
        <time>2021-04-26T12:29:54.000Z</time>
      </trkpt>
      <trkpt lat="47.12009" lon="-1.56648">
        <ele>63</ele>
        <time>2021-04-26T12:29:56.000Z</time>
      </trkpt>
      <trkpt lat="47.12006" lon="-1.56633">
        <ele>63</ele>
        <time>2021-04-26T12:29:58.000Z</time>
      </trkpt>
      <trkpt lat="47.12003" lon="-1.5662">
        <ele>63</ele>
        <time>2021-04-26T12:30:00.000Z</time>
      </trkpt>
      <trkpt lat="47.12" lon="-1.56606">
        <ele>63</ele>
        <time>2021-04-26T12:30:02.000Z</time>
      </trkpt>
      <trkpt lat="47.11997" lon="-1.56591">
        <ele>63</ele>
        <time>2021-04-26T12:30:04.000Z</time>
      </trkpt>
      <trkpt lat="47.11993" lon="-1.5657">
        <ele>63</ele>
        <time>2021-04-26T12:30:07.000Z</time>
      </trkpt>
      <trkpt lat="47.1199" lon="-1.56555">
        <ele>63</ele>
        <time>2021-04-26T12:30:09.000Z</time>
      </trkpt>
      <trkpt lat="47.11987" lon="-1.5654">
        <ele>63</ele>
        <time>2021-04-26T12:30:11.000Z</time>
      </trkpt>
      <trkpt lat="47.11984" lon="-1.56526">
        <ele>64</ele>
        <time>2021-04-26T12:30:13.000Z</time>
      </trkpt>
      <trkpt lat="47.1198" lon="-1.56511">
        <ele>64</ele>
        <time>2021-04-26T12:30:15.000Z</time>
      </trkpt>
      <trkpt lat="47.11977" lon="-1.56497">
        <ele>63</ele>
        <time>2021-04-26T12:30:17.000Z</time>
      </trkpt>
      <trkpt lat="47.11973" lon="-1.56482">
        <ele>63</ele>
        <time>2021-04-26T12:30:19.000Z</time>
      </trkpt>
      <trkpt lat="47.11969" lon="-1.56467">
        <ele>63</ele>
        <time>2021-04-26T12:30:21.000Z</time>
      </trkpt>
      <trkpt lat="47.11965" lon="-1.56451">
        <ele>63</ele>
        <time>2021-04-26T12:30:23.000Z</time>
      </trkpt>
      <trkpt lat="47.11961" lon="-1.56436">
        <ele>63</ele>
        <time>2021-04-26T12:30:25.000Z</time>
      </trkpt>
      <trkpt lat="47.11958" lon="-1.56421">
        <ele>63</ele>
        <time>2021-04-26T12:30:27.000Z</time>
      </trkpt>
      <trkpt lat="47.11954" lon="-1.56406">
        <ele>63</ele>
        <time>2021-04-26T12:30:29.000Z</time>
      </trkpt>
      <trkpt lat="47.1195" lon="-1.5639">
        <ele>63</ele>
        <time>2021-04-26T12:30:31.000Z</time>
      </trkpt>
      <trkpt lat="47.11946" lon="-1.56374">
        <ele>63</ele>
        <time>2021-04-26T12:30:33.000Z</time>
      </trkpt>
      <trkpt lat="47.11941" lon="-1.56358">
        <ele>63</ele>
        <time>2021-04-26T12:30:35.000Z</time>
      </trkpt>
      <trkpt lat="47.11937" lon="-1.56342">
        <ele>62</ele>
        <time>2021-04-26T12:30:37.000Z</time>
      </trkpt>
      <trkpt lat="47.11933" lon="-1.56325">
        <ele>62</ele>
        <time>2021-04-26T12:30:39.000Z</time>
      </trkpt>
      <trkpt lat="47.11929" lon="-1.5631">
        <ele>62</ele>
        <time>2021-04-26T12:30:41.000Z</time>
      </trkpt>
      <trkpt lat="47.11925" lon="-1.56294">
        <ele>62</ele>
        <time>2021-04-26T12:30:43.000Z</time>
      </trkpt>
      <trkpt lat="47.1192" lon="-1.56279">
        <ele>62</ele>
        <time>2021-04-26T12:30:45.000Z</time>
      </trkpt>
      <trkpt lat="47.11917" lon="-1.56262">
        <ele>62</ele>
        <time>2021-04-26T12:30:47.000Z</time>
      </trkpt>
      <trkpt lat="47.11913" lon="-1.56246">
        <ele>62</ele>
        <time>2021-04-26T12:30:49.000Z</time>
      </trkpt>
      <trkpt lat="47.11909" lon="-1.56231">
        <ele>62</ele>
        <time>2021-04-26T12:30:51.000Z</time>
      </trkpt>
      <trkpt lat="47.11905" lon="-1.56215">
        <ele>62</ele>
        <time>2021-04-26T12:30:53.000Z</time>
      </trkpt>
      <trkpt lat="47.11901" lon="-1.56199">
        <ele>62</ele>
        <time>2021-04-26T12:30:55.000Z</time>
      </trkpt>
      <trkpt lat="47.11896" lon="-1.56183">
        <ele>62</ele>
        <time>2021-04-26T12:30:57.000Z</time>
      </trkpt>
      <trkpt lat="47.11892" lon="-1.56167">
        <ele>62</ele>
        <time>2021-04-26T12:30:59.000Z</time>
      </trkpt>
      <trkpt lat="47.11888" lon="-1.56151">
        <ele>62</ele>
        <time>2021-04-26T12:31:01.000Z</time>
      </trkpt>
      <trkpt lat="47.11884" lon="-1.56136">
        <ele>63</ele>
        <time>2021-04-26T12:31:03.000Z</time>
      </trkpt>
      <trkpt lat="47.1188" lon="-1.5612">
        <ele>63</ele>
        <time>2021-04-26T12:31:05.000Z</time>
      </trkpt>
      <trkpt lat="47.11877" lon="-1.56104">
        <ele>63</ele>
        <time>2021-04-26T12:31:07.000Z</time>
      </trkpt>
      <trkpt lat="47.11873" lon="-1.56088">
        <ele>63</ele>
        <time>2021-04-26T12:31:09.000Z</time>
      </trkpt>
      <trkpt lat="47.1187" lon="-1.56073">
        <ele>63</ele>
        <time>2021-04-26T12:31:11.000Z</time>
      </trkpt>
      <trkpt lat="47.11868" lon="-1.56058">
        <ele>63</ele>
        <time>2021-04-26T12:31:13.000Z</time>
      </trkpt>
      <trkpt lat="47.11865" lon="-1.56042">
        <ele>63</ele>
        <time>2021-04-26T12:31:15.000Z</time>
      </trkpt>
      <trkpt lat="47.11863" lon="-1.56025">
        <ele>62</ele>
        <time>2021-04-26T12:31:17.000Z</time>
      </trkpt>
      <trkpt lat="47.11861" lon="-1.56009">
        <ele>62</ele>
        <time>2021-04-26T12:31:19.000Z</time>
      </trkpt>
      <trkpt lat="47.1186" lon="-1.55993">
        <ele>62</ele>
        <time>2021-04-26T12:31:21.000Z</time>
      </trkpt>
      <trkpt lat="47.11858" lon="-1.55977">
        <ele>62</ele>
        <time>2021-04-26T12:31:23.000Z</time>
      </trkpt>
      <trkpt lat="47.11857" lon="-1.5596">
        <ele>63</ele>
        <time>2021-04-26T12:31:25.000Z</time>
      </trkpt>
      <trkpt lat="47.11854" lon="-1.55936">
        <ele>63</ele>
        <time>2021-04-26T12:31:28.000Z</time>
      </trkpt>
      <trkpt lat="47.11853" lon="-1.55919">
        <ele>64</ele>
        <time>2021-04-26T12:31:30.000Z</time>
      </trkpt>
      <trkpt lat="47.11852" lon="-1.55902">
        <ele>64</ele>
        <time>2021-04-26T12:31:32.000Z</time>
      </trkpt>
      <trkpt lat="47.11851" lon="-1.55886">
        <ele>64</ele>
        <time>2021-04-26T12:31:34.000Z</time>
      </trkpt>
      <trkpt lat="47.1185" lon="-1.55869">
        <ele>64</ele>
        <time>2021-04-26T12:31:36.000Z</time>
      </trkpt>
      <trkpt lat="47.11848" lon="-1.55844">
        <ele>64</ele>
        <time>2021-04-26T12:31:39.000Z</time>
      </trkpt>
      <trkpt lat="47.11847" lon="-1.55827">
        <ele>64</ele>
        <time>2021-04-26T12:31:41.000Z</time>
      </trkpt>
      <trkpt lat="47.11845" lon="-1.55811">
        <ele>65</ele>
        <time>2021-04-26T12:31:43.000Z</time>
      </trkpt>
      <trkpt lat="47.11844" lon="-1.55795">
        <ele>65</ele>
        <time>2021-04-26T12:31:45.000Z</time>
      </trkpt>
      <trkpt lat="47.11843" lon="-1.55778">
        <ele>65</ele>
        <time>2021-04-26T12:31:47.000Z</time>
      </trkpt>
      <trkpt lat="47.11842" lon="-1.55761">
        <ele>65</ele>
        <time>2021-04-26T12:31:49.000Z</time>
      </trkpt>
      <trkpt lat="47.1184" lon="-1.55745">
        <ele>65</ele>
        <time>2021-04-26T12:31:51.000Z</time>
      </trkpt>
      <trkpt lat="47.11839" lon="-1.55727">
        <ele>65</ele>
        <time>2021-04-26T12:31:53.000Z</time>
      </trkpt>
      <trkpt lat="47.11837" lon="-1.55701">
        <ele>66</ele>
        <time>2021-04-26T12:31:56.000Z</time>
      </trkpt>
      <trkpt lat="47.11835" lon="-1.55674">
        <ele>66</ele>
        <time>2021-04-26T12:31:59.000Z</time>
      </trkpt>
      <trkpt lat="47.11834" lon="-1.55657">
        <ele>66</ele>
        <time>2021-04-26T12:32:01.000Z</time>
      </trkpt>
      <trkpt lat="47.11832" lon="-1.55639">
        <ele>66</ele>
        <time>2021-04-26T12:32:03.000Z</time>
      </trkpt>
      <trkpt lat="47.11831" lon="-1.55622">
        <ele>66</ele>
        <time>2021-04-26T12:32:05.000Z</time>
      </trkpt>
      <trkpt lat="47.11829" lon="-1.55604">
        <ele>66</ele>
        <time>2021-04-26T12:32:07.000Z</time>
      </trkpt>
      <trkpt lat="47.11828" lon="-1.55586">
        <ele>66</ele>
        <time>2021-04-26T12:32:09.000Z</time>
      </trkpt>
      <trkpt lat="47.11827" lon="-1.55569">
        <ele>66</ele>
        <time>2021-04-26T12:32:11.000Z</time>
      </trkpt>
      <trkpt lat="47.11826" lon="-1.55551">
        <ele>66</ele>
        <time>2021-04-26T12:32:13.000Z</time>
      </trkpt>
      <trkpt lat="47.11825" lon="-1.55534">
        <ele>66</ele>
        <time>2021-04-26T12:32:15.000Z</time>
      </trkpt>
      <trkpt lat="47.11824" lon="-1.55517">
        <ele>66</ele>
        <time>2021-04-26T12:32:17.000Z</time>
      </trkpt>
      <trkpt lat="47.11822" lon="-1.55501">
        <ele>66</ele>
        <time>2021-04-26T12:32:19.000Z</time>
      </trkpt>
      <trkpt lat="47.11821" lon="-1.55485">
        <ele>66</ele>
        <time>2021-04-26T12:32:21.000Z</time>
      </trkpt>
      <trkpt lat="47.11819" lon="-1.55468">
        <ele>66</ele>
        <time>2021-04-26T12:32:23.000Z</time>
      </trkpt>
      <trkpt lat="47.11818" lon="-1.55451">
        <ele>66</ele>
        <time>2021-04-26T12:32:25.000Z</time>
      </trkpt>
      <trkpt lat="47.11818" lon="-1.55434">
        <ele>66</ele>
        <time>2021-04-26T12:32:27.000Z</time>
      </trkpt>
      <trkpt lat="47.11817" lon="-1.55418">
        <ele>67</ele>
        <time>2021-04-26T12:32:29.000Z</time>
      </trkpt>
      <trkpt lat="47.11817" lon="-1.55401">
        <ele>67</ele>
        <time>2021-04-26T12:32:31.000Z</time>
      </trkpt>
      <trkpt lat="47.11816" lon="-1.55383">
        <ele>67</ele>
        <time>2021-04-26T12:32:33.000Z</time>
      </trkpt>
      <trkpt lat="47.11816" lon="-1.55367">
        <ele>67</ele>
        <time>2021-04-26T12:32:35.000Z</time>
      </trkpt>
      <trkpt lat="47.11816" lon="-1.5535">
        <ele>67</ele>
        <time>2021-04-26T12:32:37.000Z</time>
      </trkpt>
      <trkpt lat="47.11816" lon="-1.55332">
        <ele>67</ele>
        <time>2021-04-26T12:32:39.000Z</time>
      </trkpt>
      <trkpt lat="47.11815" lon="-1.55314">
        <ele>67</ele>
        <time>2021-04-26T12:32:41.000Z</time>
      </trkpt>
      <trkpt lat="47.11815" lon="-1.55297">
        <ele>67</ele>
        <time>2021-04-26T12:32:43.000Z</time>
      </trkpt>
      <trkpt lat="47.11815" lon="-1.55279">
        <ele>67</ele>
        <time>2021-04-26T12:32:45.000Z</time>
      </trkpt>
      <trkpt lat="47.11814" lon="-1.55262">
        <ele>67</ele>
        <time>2021-04-26T12:32:47.000Z</time>
      </trkpt>
      <trkpt lat="47.11814" lon="-1.55245">
        <ele>67</ele>
        <time>2021-04-26T12:32:49.000Z</time>
      </trkpt>
      <trkpt lat="47.11813" lon="-1.55228">
        <ele>67</ele>
        <time>2021-04-26T12:32:51.000Z</time>
      </trkpt>
      <trkpt lat="47.11813" lon="-1.55211">
        <ele>68</ele>
        <time>2021-04-26T12:32:53.000Z</time>
      </trkpt>
      <trkpt lat="47.11812" lon="-1.55193">
        <ele>67</ele>
        <time>2021-04-26T12:32:55.000Z</time>
      </trkpt>
      <trkpt lat="47.11812" lon="-1.55176">
        <ele>67</ele>
        <time>2021-04-26T12:32:57.000Z</time>
      </trkpt>
      <trkpt lat="47.11811" lon="-1.55158">
        <ele>67</ele>
        <time>2021-04-26T12:32:59.000Z</time>
      </trkpt>
      <trkpt lat="47.1181" lon="-1.55141">
        <ele>67</ele>
        <time>2021-04-26T12:33:01.000Z</time>
      </trkpt>
      <trkpt lat="47.11809" lon="-1.55124">
        <ele>67</ele>
        <time>2021-04-26T12:33:03.000Z</time>
      </trkpt>
      <trkpt lat="47.11807" lon="-1.55107">
        <ele>67</ele>
        <time>2021-04-26T12:33:05.000Z</time>
      </trkpt>
      <trkpt lat="47.11805" lon="-1.5509">
        <ele>67</ele>
        <time>2021-04-26T12:33:07.000Z</time>
      </trkpt>
      <trkpt lat="47.11803" lon="-1.55072">
        <ele>67</ele>
        <time>2021-04-26T12:33:09.000Z</time>
      </trkpt>
      <trkpt lat="47.118" lon="-1.55055">
        <ele>67</ele>
        <time>2021-04-26T12:33:11.000Z</time>
      </trkpt>
      <trkpt lat="47.11797" lon="-1.55039">
        <ele>67</ele>
        <time>2021-04-26T12:33:13.000Z</time>
      </trkpt>
      <trkpt lat="47.11794" lon="-1.55022">
        <ele>67</ele>
        <time>2021-04-26T12:33:15.000Z</time>
      </trkpt>
      <trkpt lat="47.11791" lon="-1.55005">
        <ele>67</ele>
        <time>2021-04-26T12:33:17.000Z</time>
      </trkpt>
      <trkpt lat="47.11788" lon="-1.54988">
        <ele>67</ele>
        <time>2021-04-26T12:33:19.000Z</time>
      </trkpt>
      <trkpt lat="47.11784" lon="-1.54972">
        <ele>67</ele>
        <time>2021-04-26T12:33:21.000Z</time>
      </trkpt>
      <trkpt lat="47.1178" lon="-1.54955">
        <ele>68</ele>
        <time>2021-04-26T12:33:23.000Z</time>
      </trkpt>
      <trkpt lat="47.11776" lon="-1.54939">
        <ele>68</ele>
        <time>2021-04-26T12:33:25.000Z</time>
      </trkpt>
      <trkpt lat="47.11772" lon="-1.54923">
        <ele>67</ele>
        <time>2021-04-26T12:33:27.000Z</time>
      </trkpt>
      <trkpt lat="47.11767" lon="-1.54907">
        <ele>67</ele>
        <time>2021-04-26T12:33:29.000Z</time>
      </trkpt>
      <trkpt lat="47.11763" lon="-1.54891">
        <ele>67</ele>
        <time>2021-04-26T12:33:31.000Z</time>
      </trkpt>
      <trkpt lat="47.11758" lon="-1.54875">
        <ele>68</ele>
        <time>2021-04-26T12:33:33.000Z</time>
      </trkpt>
      <trkpt lat="47.11754" lon="-1.5486">
        <ele>68</ele>
        <time>2021-04-26T12:33:35.000Z</time>
      </trkpt>
      <trkpt lat="47.11749" lon="-1.54845">
        <ele>68</ele>
        <time>2021-04-26T12:33:37.000Z</time>
      </trkpt>
      <trkpt lat="47.11744" lon="-1.54829">
        <ele>68</ele>
        <time>2021-04-26T12:33:39.000Z</time>
      </trkpt>
      <trkpt lat="47.11739" lon="-1.54814">
        <ele>68</ele>
        <time>2021-04-26T12:33:41.000Z</time>
      </trkpt>
      <trkpt lat="47.11735" lon="-1.548">
        <ele>68</ele>
        <time>2021-04-26T12:33:43.000Z</time>
      </trkpt>
      <trkpt lat="47.11731" lon="-1.54785">
        <ele>68</ele>
        <time>2021-04-26T12:33:45.000Z</time>
      </trkpt>
      <trkpt lat="47.11726" lon="-1.5477">
        <ele>68</ele>
        <time>2021-04-26T12:33:47.000Z</time>
      </trkpt>
      <trkpt lat="47.11721" lon="-1.54755">
        <ele>68</ele>
        <time>2021-04-26T12:33:49.000Z</time>
      </trkpt>
      <trkpt lat="47.11717" lon="-1.54741">
        <ele>68</ele>
        <time>2021-04-26T12:33:51.000Z</time>
      </trkpt>
      <trkpt lat="47.11713" lon="-1.54726">
        <ele>68</ele>
        <time>2021-04-26T12:33:53.000Z</time>
      </trkpt>
      <trkpt lat="47.11708" lon="-1.54712">
        <ele>69</ele>
        <time>2021-04-26T12:33:55.000Z</time>
      </trkpt>
      <trkpt lat="47.11704" lon="-1.54697">
        <ele>69</ele>
        <time>2021-04-26T12:33:57.000Z</time>
      </trkpt>
      <trkpt lat="47.11699" lon="-1.54682">
        <ele>69</ele>
        <time>2021-04-26T12:33:59.000Z</time>
      </trkpt>
      <trkpt lat="47.11695" lon="-1.54667">
        <ele>69</ele>
        <time>2021-04-26T12:34:01.000Z</time>
      </trkpt>
      <trkpt lat="47.1169" lon="-1.54652">
        <ele>69</ele>
        <time>2021-04-26T12:34:03.000Z</time>
      </trkpt>
      <trkpt lat="47.11686" lon="-1.54637">
        <ele>69</ele>
        <time>2021-04-26T12:34:05.000Z</time>
      </trkpt>
      <trkpt lat="47.11681" lon="-1.54622">
        <ele>69</ele>
        <time>2021-04-26T12:34:07.000Z</time>
      </trkpt>
      <trkpt lat="47.11677" lon="-1.54607">
        <ele>69</ele>
        <time>2021-04-26T12:34:09.000Z</time>
      </trkpt>
      <trkpt lat="47.11671" lon="-1.54592">
        <ele>69</ele>
        <time>2021-04-26T12:34:11.000Z</time>
      </trkpt>
      <trkpt lat="47.11666" lon="-1.54577">
        <ele>70</ele>
        <time>2021-04-26T12:34:13.000Z</time>
      </trkpt>
      <trkpt lat="47.11661" lon="-1.54561">
        <ele>70</ele>
        <time>2021-04-26T12:34:15.000Z</time>
      </trkpt>
      <trkpt lat="47.11656" lon="-1.54546">
        <ele>70</ele>
        <time>2021-04-26T12:34:17.000Z</time>
      </trkpt>
      <trkpt lat="47.11651" lon="-1.5453">
        <ele>70</ele>
        <time>2021-04-26T12:34:19.000Z</time>
      </trkpt>
      <trkpt lat="47.11646" lon="-1.54515">
        <ele>70</ele>
        <time>2021-04-26T12:34:21.000Z</time>
      </trkpt>
      <trkpt lat="47.11641" lon="-1.54501">
        <ele>70</ele>
        <time>2021-04-26T12:34:23.000Z</time>
      </trkpt>
      <trkpt lat="47.11636" lon="-1.54485">
        <ele>70</ele>
        <time>2021-04-26T12:34:25.000Z</time>
      </trkpt>
      <trkpt lat="47.1163" lon="-1.54469">
        <ele>71</ele>
        <time>2021-04-26T12:34:27.000Z</time>
      </trkpt>
      <trkpt lat="47.11625" lon="-1.54453">
        <ele>71</ele>
        <time>2021-04-26T12:34:29.000Z</time>
      </trkpt>
      <trkpt lat="47.1162" lon="-1.54437">
        <ele>71</ele>
        <time>2021-04-26T12:34:31.000Z</time>
      </trkpt>
      <trkpt lat="47.11614" lon="-1.54422">
        <ele>71</ele>
        <time>2021-04-26T12:34:33.000Z</time>
      </trkpt>
      <trkpt lat="47.11609" lon="-1.54406">
        <ele>71</ele>
        <time>2021-04-26T12:34:35.000Z</time>
      </trkpt>
      <trkpt lat="47.11604" lon="-1.54391">
        <ele>71</ele>
        <time>2021-04-26T12:34:37.000Z</time>
      </trkpt>
      <trkpt lat="47.11598" lon="-1.54375">
        <ele>71</ele>
        <time>2021-04-26T12:34:39.000Z</time>
      </trkpt>
      <trkpt lat="47.11593" lon="-1.5436">
        <ele>71</ele>
        <time>2021-04-26T12:34:41.000Z</time>
      </trkpt>
      <trkpt lat="47.11588" lon="-1.54345">
        <ele>71</ele>
        <time>2021-04-26T12:34:43.000Z</time>
      </trkpt>
      <trkpt lat="47.11583" lon="-1.54329">
        <ele>72</ele>
        <time>2021-04-26T12:34:45.000Z</time>
      </trkpt>
      <trkpt lat="47.11578" lon="-1.54314">
        <ele>72</ele>
        <time>2021-04-26T12:34:47.000Z</time>
      </trkpt>
      <trkpt lat="47.11572" lon="-1.54299">
        <ele>71</ele>
        <time>2021-04-26T12:34:49.000Z</time>
      </trkpt>
      <trkpt lat="47.11567" lon="-1.54285">
        <ele>72</ele>
        <time>2021-04-26T12:34:51.000Z</time>
      </trkpt>
      <trkpt lat="47.11562" lon="-1.54273">
        <ele>71</ele>
        <time>2021-04-26T12:34:53.000Z</time>
      </trkpt>
      <trkpt lat="47.11565" lon="-1.54256">
        <ele>71</ele>
        <time>2021-04-26T12:34:58.000Z</time>
      </trkpt>
      <trkpt lat="47.11573" lon="-1.5425">
        <ele>71</ele>
        <time>2021-04-26T12:35:00.000Z</time>
      </trkpt>
      <trkpt lat="47.11582" lon="-1.54242">
        <ele>72</ele>
        <time>2021-04-26T12:35:02.000Z</time>
      </trkpt>
      <trkpt lat="47.11591" lon="-1.54236">
        <ele>72</ele>
        <time>2021-04-26T12:35:04.000Z</time>
      </trkpt>
      <trkpt lat="47.11601" lon="-1.54229">
        <ele>72</ele>
        <time>2021-04-26T12:35:06.000Z</time>
      </trkpt>
      <trkpt lat="47.11611" lon="-1.54222">
        <ele>72</ele>
        <time>2021-04-26T12:35:08.000Z</time>
      </trkpt>
      <trkpt lat="47.1162" lon="-1.54216">
        <ele>72</ele>
        <time>2021-04-26T12:35:10.000Z</time>
      </trkpt>
      <trkpt lat="47.11629" lon="-1.54207">
        <ele>73</ele>
        <time>2021-04-26T12:35:12.000Z</time>
      </trkpt>
      <trkpt lat="47.11636" lon="-1.54196">
        <ele>73</ele>
        <time>2021-04-26T12:35:14.000Z</time>
      </trkpt>
      <trkpt lat="47.11642" lon="-1.54184">
        <ele>72</ele>
        <time>2021-04-26T12:35:16.000Z</time>
      </trkpt>
      <trkpt lat="47.11644" lon="-1.54168">
        <ele>72</ele>
        <time>2021-04-26T12:35:18.000Z</time>
      </trkpt>
      <trkpt lat="47.11648" lon="-1.54155">
        <ele>72</ele>
        <time>2021-04-26T12:35:20.000Z</time>
      </trkpt>
      <trkpt lat="47.11657" lon="-1.54147">
        <ele>72</ele>
        <time>2021-04-26T12:35:22.000Z</time>
      </trkpt>
      <trkpt lat="47.11668" lon="-1.54144">
        <ele>72</ele>
        <time>2021-04-26T12:35:24.000Z</time>
      </trkpt>
      <trkpt lat="47.11677" lon="-1.54137">
        <ele>72</ele>
        <time>2021-04-26T12:35:26.000Z</time>
      </trkpt>
      <trkpt lat="47.11686" lon="-1.54128">
        <ele>72</ele>
        <time>2021-04-26T12:35:28.000Z</time>
      </trkpt>
      <trkpt lat="47.11694" lon="-1.54117">
        <ele>72</ele>
        <time>2021-04-26T12:35:30.000Z</time>
      </trkpt>
      <trkpt lat="47.117" lon="-1.54105">
        <ele>72</ele>
        <time>2021-04-26T12:35:32.000Z</time>
      </trkpt>
      <trkpt lat="47.11705" lon="-1.54092">
        <ele>72</ele>
        <time>2021-04-26T12:35:34.000Z</time>
      </trkpt>
      <trkpt lat="47.11711" lon="-1.54078">
        <ele>72</ele>
        <time>2021-04-26T12:35:36.000Z</time>
      </trkpt>
      <trkpt lat="47.11716" lon="-1.54066">
        <ele>73</ele>
        <time>2021-04-26T12:35:38.000Z</time>
      </trkpt>
      <trkpt lat="47.11722" lon="-1.54052">
        <ele>73</ele>
        <time>2021-04-26T12:35:40.000Z</time>
      </trkpt>
      <trkpt lat="47.11727" lon="-1.54039">
        <ele>73</ele>
        <time>2021-04-26T12:35:42.000Z</time>
      </trkpt>
      <trkpt lat="47.11733" lon="-1.54027">
        <ele>73</ele>
        <time>2021-04-26T12:35:44.000Z</time>
      </trkpt>
      <trkpt lat="47.11738" lon="-1.54014">
        <ele>73</ele>
        <time>2021-04-26T12:35:46.000Z</time>
      </trkpt>
      <trkpt lat="47.11744" lon="-1.54001">
        <ele>74</ele>
        <time>2021-04-26T12:35:48.000Z</time>
      </trkpt>
      <trkpt lat="47.11748" lon="-1.53989">
        <ele>74</ele>
        <time>2021-04-26T12:35:50.000Z</time>
      </trkpt>
      <trkpt lat="47.11753" lon="-1.53975">
        <ele>73</ele>
        <time>2021-04-26T12:35:52.000Z</time>
      </trkpt>
      <trkpt lat="47.11759" lon="-1.53961">
        <ele>72</ele>
        <time>2021-04-26T12:35:54.000Z</time>
      </trkpt>
      <trkpt lat="47.11764" lon="-1.53947">
        <ele>72</ele>
        <time>2021-04-26T12:35:56.000Z</time>
      </trkpt>
      <trkpt lat="47.1177" lon="-1.53933">
        <ele>71</ele>
        <time>2021-04-26T12:35:58.000Z</time>
      </trkpt>
      <trkpt lat="47.11776" lon="-1.53919">
        <ele>72</ele>
        <time>2021-04-26T12:36:00.000Z</time>
      </trkpt>
      <trkpt lat="47.11781" lon="-1.53905">
        <ele>72</ele>
        <time>2021-04-26T12:36:02.000Z</time>
      </trkpt>
      <trkpt lat="47.11788" lon="-1.53892">
        <ele>71</ele>
        <time>2021-04-26T12:36:04.000Z</time>
      </trkpt>
      <trkpt lat="47.11795" lon="-1.53878">
        <ele>71</ele>
        <time>2021-04-26T12:36:06.000Z</time>
      </trkpt>
      <trkpt lat="47.11803" lon="-1.53866">
        <ele>71</ele>
        <time>2021-04-26T12:36:08.000Z</time>
      </trkpt>
      <trkpt lat="47.1181" lon="-1.53853">
        <ele>71</ele>
        <time>2021-04-26T12:36:10.000Z</time>
      </trkpt>
      <trkpt lat="47.11817" lon="-1.53841">
        <ele>71</ele>
        <time>2021-04-26T12:36:12.000Z</time>
      </trkpt>
      <trkpt lat="47.11825" lon="-1.53827">
        <ele>72</ele>
        <time>2021-04-26T12:36:14.000Z</time>
      </trkpt>
      <trkpt lat="47.11832" lon="-1.53813">
        <ele>72</ele>
        <time>2021-04-26T12:36:16.000Z</time>
      </trkpt>
      <trkpt lat="47.11839" lon="-1.538">
        <ele>71</ele>
        <time>2021-04-26T12:36:18.000Z</time>
      </trkpt>
      <trkpt lat="47.11846" lon="-1.53786">
        <ele>71</ele>
        <time>2021-04-26T12:36:20.000Z</time>
      </trkpt>
      <trkpt lat="47.11852" lon="-1.53772">
        <ele>71</ele>
        <time>2021-04-26T12:36:22.000Z</time>
      </trkpt>
      <trkpt lat="47.11858" lon="-1.53757">
        <ele>70</ele>
        <time>2021-04-26T12:36:24.000Z</time>
      </trkpt>
      <trkpt lat="47.11863" lon="-1.53742">
        <ele>69</ele>
        <time>2021-04-26T12:36:26.000Z</time>
      </trkpt>
      <trkpt lat="47.11869" lon="-1.53726">
        <ele>69</ele>
        <time>2021-04-26T12:36:28.000Z</time>
      </trkpt>
      <trkpt lat="47.11874" lon="-1.5371">
        <ele>68</ele>
        <time>2021-04-26T12:36:30.000Z</time>
      </trkpt>
      <trkpt lat="47.11881" lon="-1.53696">
        <ele>68</ele>
        <time>2021-04-26T12:36:32.000Z</time>
      </trkpt>
      <trkpt lat="47.11888" lon="-1.53683">
        <ele>68</ele>
        <time>2021-04-26T12:36:34.000Z</time>
      </trkpt>
      <trkpt lat="47.11894" lon="-1.5367">
        <ele>68</ele>
        <time>2021-04-26T12:36:36.000Z</time>
      </trkpt>
      <trkpt lat="47.11901" lon="-1.53658">
        <ele>67</ele>
        <time>2021-04-26T12:36:38.000Z</time>
      </trkpt>
      <trkpt lat="47.11908" lon="-1.53646">
        <ele>66</ele>
        <time>2021-04-26T12:36:40.000Z</time>
      </trkpt>
      <trkpt lat="47.11914" lon="-1.53634">
        <ele>65</ele>
        <time>2021-04-26T12:36:42.000Z</time>
      </trkpt>
      <trkpt lat="47.11921" lon="-1.53622">
        <ele>65</ele>
        <time>2021-04-26T12:36:44.000Z</time>
      </trkpt>
      <trkpt lat="47.11928" lon="-1.53608">
        <ele>64</ele>
        <time>2021-04-26T12:36:46.000Z</time>
      </trkpt>
      <trkpt lat="47.11935" lon="-1.53595">
        <ele>64</ele>
        <time>2021-04-26T12:36:48.000Z</time>
      </trkpt>
      <trkpt lat="47.11943" lon="-1.53582">
        <ele>63</ele>
        <time>2021-04-26T12:36:50.000Z</time>
      </trkpt>
      <trkpt lat="47.11949" lon="-1.53568">
        <ele>63</ele>
        <time>2021-04-26T12:36:52.000Z</time>
      </trkpt>
      <trkpt lat="47.11957" lon="-1.53555">
        <ele>63</ele>
        <time>2021-04-26T12:36:54.000Z</time>
      </trkpt>
      <trkpt lat="47.11964" lon="-1.53541">
        <ele>62</ele>
        <time>2021-04-26T12:36:56.000Z</time>
      </trkpt>
      <trkpt lat="47.11971" lon="-1.53527">
        <ele>62</ele>
        <time>2021-04-26T12:36:58.000Z</time>
      </trkpt>
      <trkpt lat="47.11978" lon="-1.53513">
        <ele>62</ele>
        <time>2021-04-26T12:37:00.000Z</time>
      </trkpt>
      <trkpt lat="47.11985" lon="-1.53499">
        <ele>62</ele>
        <time>2021-04-26T12:37:02.000Z</time>
      </trkpt>
      <trkpt lat="47.11992" lon="-1.53486">
        <ele>62</ele>
        <time>2021-04-26T12:37:04.000Z</time>
      </trkpt>
      <trkpt lat="47.12" lon="-1.53473">
        <ele>61</ele>
        <time>2021-04-26T12:37:06.000Z</time>
      </trkpt>
      <trkpt lat="47.12008" lon="-1.5346">
        <ele>61</ele>
        <time>2021-04-26T12:37:08.000Z</time>
      </trkpt>
      <trkpt lat="47.12015" lon="-1.53446">
        <ele>61</ele>
        <time>2021-04-26T12:37:10.000Z</time>
      </trkpt>
      <trkpt lat="47.12022" lon="-1.53432">
        <ele>61</ele>
        <time>2021-04-26T12:37:12.000Z</time>
      </trkpt>
      <trkpt lat="47.1203" lon="-1.53418">
        <ele>61</ele>
        <time>2021-04-26T12:37:14.000Z</time>
      </trkpt>
      <trkpt lat="47.12037" lon="-1.53404">
        <ele>61</ele>
        <time>2021-04-26T12:37:16.000Z</time>
      </trkpt>
      <trkpt lat="47.12044" lon="-1.53391">
        <ele>61</ele>
        <time>2021-04-26T12:37:18.000Z</time>
      </trkpt>
      <trkpt lat="47.12051" lon="-1.53377">
        <ele>61</ele>
        <time>2021-04-26T12:37:20.000Z</time>
      </trkpt>
      <trkpt lat="47.12058" lon="-1.53363">
        <ele>61</ele>
        <time>2021-04-26T12:37:22.000Z</time>
      </trkpt>
      <trkpt lat="47.12066" lon="-1.5335">
        <ele>61</ele>
        <time>2021-04-26T12:37:24.000Z</time>
      </trkpt>
      <trkpt lat="47.12074" lon="-1.53335">
        <ele>62</ele>
        <time>2021-04-26T12:37:26.000Z</time>
      </trkpt>
      <trkpt lat="47.12081" lon="-1.5332">
        <ele>61</ele>
        <time>2021-04-26T12:37:28.000Z</time>
      </trkpt>
      <trkpt lat="47.12089" lon="-1.53306">
        <ele>60</ele>
        <time>2021-04-26T12:37:30.000Z</time>
      </trkpt>
      <trkpt lat="47.12096" lon="-1.53291">
        <ele>60</ele>
        <time>2021-04-26T12:37:32.000Z</time>
      </trkpt>
      <trkpt lat="47.12103" lon="-1.53277">
        <ele>60</ele>
        <time>2021-04-26T12:37:34.000Z</time>
      </trkpt>
      <trkpt lat="47.1211" lon="-1.53263">
        <ele>60</ele>
        <time>2021-04-26T12:37:36.000Z</time>
      </trkpt>
      <trkpt lat="47.12118" lon="-1.53248">
        <ele>60</ele>
        <time>2021-04-26T12:37:38.000Z</time>
      </trkpt>
      <trkpt lat="47.12126" lon="-1.53234">
        <ele>59</ele>
        <time>2021-04-26T12:37:40.000Z</time>
      </trkpt>
      <trkpt lat="47.12134" lon="-1.53219">
        <ele>59</ele>
        <time>2021-04-26T12:37:42.000Z</time>
      </trkpt>
      <trkpt lat="47.12141" lon="-1.53205">
        <ele>59</ele>
        <time>2021-04-26T12:37:44.000Z</time>
      </trkpt>
      <trkpt lat="47.12149" lon="-1.53191">
        <ele>59</ele>
        <time>2021-04-26T12:37:46.000Z</time>
      </trkpt>
      <trkpt lat="47.12156" lon="-1.53178">
        <ele>59</ele>
        <time>2021-04-26T12:37:48.000Z</time>
      </trkpt>
      <trkpt lat="47.12163" lon="-1.53165">
        <ele>59</ele>
        <time>2021-04-26T12:37:50.000Z</time>
      </trkpt>
      <trkpt lat="47.1217" lon="-1.53152">
        <ele>59</ele>
        <time>2021-04-26T12:37:52.000Z</time>
      </trkpt>
      <trkpt lat="47.12177" lon="-1.53138">
        <ele>59</ele>
        <time>2021-04-26T12:37:54.000Z</time>
      </trkpt>
      <trkpt lat="47.12184" lon="-1.53124">
        <ele>59</ele>
        <time>2021-04-26T12:37:56.000Z</time>
      </trkpt>
      <trkpt lat="47.12191" lon="-1.53111">
        <ele>59</ele>
        <time>2021-04-26T12:37:58.000Z</time>
      </trkpt>
      <trkpt lat="47.12198" lon="-1.53097">
        <ele>59</ele>
        <time>2021-04-26T12:38:00.000Z</time>
      </trkpt>
      <trkpt lat="47.12205" lon="-1.53084">
        <ele>59</ele>
        <time>2021-04-26T12:38:02.000Z</time>
      </trkpt>
      <trkpt lat="47.12212" lon="-1.53072">
        <ele>58</ele>
        <time>2021-04-26T12:38:04.000Z</time>
      </trkpt>
      <trkpt lat="47.12218" lon="-1.5306">
        <ele>58</ele>
        <time>2021-04-26T12:38:06.000Z</time>
      </trkpt>
      <trkpt lat="47.12224" lon="-1.53049">
        <ele>59</ele>
        <time>2021-04-26T12:38:08.000Z</time>
      </trkpt>
      <trkpt lat="47.12231" lon="-1.53037">
        <ele>59</ele>
        <time>2021-04-26T12:38:10.000Z</time>
      </trkpt>
      <trkpt lat="47.12237" lon="-1.53025">
        <ele>59</ele>
        <time>2021-04-26T12:38:12.000Z</time>
      </trkpt>
      <trkpt lat="47.12243" lon="-1.53012">
        <ele>59</ele>
        <time>2021-04-26T12:38:14.000Z</time>
      </trkpt>
      <trkpt lat="47.1225" lon="-1.53">
        <ele>59</ele>
        <time>2021-04-26T12:38:16.000Z</time>
      </trkpt>
      <trkpt lat="47.12257" lon="-1.52988">
        <ele>60</ele>
        <time>2021-04-26T12:38:18.000Z</time>
      </trkpt>
      <trkpt lat="47.12263" lon="-1.52977">
        <ele>60</ele>
        <time>2021-04-26T12:38:20.000Z</time>
      </trkpt>
      <trkpt lat="47.12269" lon="-1.52965">
        <ele>60</ele>
        <time>2021-04-26T12:38:22.000Z</time>
      </trkpt>
      <trkpt lat="47.12276" lon="-1.52953">
        <ele>61</ele>
        <time>2021-04-26T12:38:24.000Z</time>
      </trkpt>
      <trkpt lat="47.12282" lon="-1.52942">
        <ele>61</ele>
        <time>2021-04-26T12:38:26.000Z</time>
      </trkpt>
      <trkpt lat="47.12288" lon="-1.5293">
        <ele>61</ele>
        <time>2021-04-26T12:38:28.000Z</time>
      </trkpt>
      <trkpt lat="47.12294" lon="-1.52919">
        <ele>62</ele>
        <time>2021-04-26T12:38:30.000Z</time>
      </trkpt>
      <trkpt lat="47.123" lon="-1.52908">
        <ele>62</ele>
        <time>2021-04-26T12:38:32.000Z</time>
      </trkpt>
      <trkpt lat="47.12307" lon="-1.52897">
        <ele>62</ele>
        <time>2021-04-26T12:38:34.000Z</time>
      </trkpt>
      <trkpt lat="47.12313" lon="-1.52886">
        <ele>62</ele>
        <time>2021-04-26T12:38:36.000Z</time>
      </trkpt>
      <trkpt lat="47.1232" lon="-1.52876">
        <ele>62</ele>
        <time>2021-04-26T12:38:38.000Z</time>
      </trkpt>
      <trkpt lat="47.12326" lon="-1.52866">
        <ele>62</ele>
        <time>2021-04-26T12:38:40.000Z</time>
      </trkpt>
      <trkpt lat="47.12333" lon="-1.52857">
        <ele>63</ele>
        <time>2021-04-26T12:38:42.000Z</time>
      </trkpt>
      <trkpt lat="47.1234" lon="-1.52847">
        <ele>63</ele>
        <time>2021-04-26T12:38:44.000Z</time>
      </trkpt>
      <trkpt lat="47.12348" lon="-1.52838">
        <ele>63</ele>
        <time>2021-04-26T12:38:46.000Z</time>
      </trkpt>
      <trkpt lat="47.12355" lon="-1.5283">
        <ele>63</ele>
        <time>2021-04-26T12:38:48.000Z</time>
      </trkpt>
      <trkpt lat="47.12363" lon="-1.52823">
        <ele>63</ele>
        <time>2021-04-26T12:38:50.000Z</time>
      </trkpt>
      <trkpt lat="47.12374" lon="-1.52812">
        <ele>63</ele>
        <time>2021-04-26T12:38:53.000Z</time>
      </trkpt>
      <trkpt lat="47.12385" lon="-1.52801">
        <ele>64</ele>
        <time>2021-04-26T12:38:56.000Z</time>
      </trkpt>
      <trkpt lat="47.12395" lon="-1.52791">
        <ele>64</ele>
        <time>2021-04-26T12:38:59.000Z</time>
      </trkpt>
      <trkpt lat="47.12406" lon="-1.5278">
        <ele>65</ele>
        <time>2021-04-26T12:39:02.000Z</time>
      </trkpt>
      <trkpt lat="47.12414" lon="-1.52772">
        <ele>65</ele>
        <time>2021-04-26T12:39:04.000Z</time>
      </trkpt>
      <trkpt lat="47.12421" lon="-1.52765">
        <ele>66</ele>
        <time>2021-04-26T12:39:06.000Z</time>
      </trkpt>
      <trkpt lat="47.12429" lon="-1.52757">
        <ele>66</ele>
        <time>2021-04-26T12:39:08.000Z</time>
      </trkpt>
      <trkpt lat="47.12437" lon="-1.52751">
        <ele>67</ele>
        <time>2021-04-26T12:39:10.000Z</time>
      </trkpt>
      <trkpt lat="47.12445" lon="-1.52745">
        <ele>67</ele>
        <time>2021-04-26T12:39:12.000Z</time>
      </trkpt>
      <trkpt lat="47.12453" lon="-1.52739">
        <ele>67</ele>
        <time>2021-04-26T12:39:14.000Z</time>
      </trkpt>
      <trkpt lat="47.12462" lon="-1.52736">
        <ele>68</ele>
        <time>2021-04-26T12:39:16.000Z</time>
      </trkpt>
      <trkpt lat="47.12471" lon="-1.52732">
        <ele>68</ele>
        <time>2021-04-26T12:39:18.000Z</time>
      </trkpt>
      <trkpt lat="47.1248" lon="-1.52729">
        <ele>69</ele>
        <time>2021-04-26T12:39:20.000Z</time>
      </trkpt>
      <trkpt lat="47.12493" lon="-1.52727">
        <ele>70</ele>
        <time>2021-04-26T12:39:23.000Z</time>
      </trkpt>
      <trkpt lat="47.12505" lon="-1.52721">
        <ele>71</ele>
        <time>2021-04-26T12:39:26.000Z</time>
      </trkpt>
      <trkpt lat="47.12507" lon="-1.52707">
        <ele>72</ele>
        <time>2021-04-26T12:39:29.000Z</time>
      </trkpt>
      <trkpt lat="47.12495" lon="-1.52699">
        <ele>73</ele>
        <time>2021-04-26T12:39:32.000Z</time>
      </trkpt>
      <trkpt lat="47.12486" lon="-1.52698">
        <ele>73</ele>
        <time>2021-04-26T12:39:34.000Z</time>
      </trkpt>
      <trkpt lat="47.12472" lon="-1.52696">
        <ele>73</ele>
        <time>2021-04-26T12:39:37.000Z</time>
      </trkpt>
      <trkpt lat="47.12463" lon="-1.52694">
        <ele>73</ele>
        <time>2021-04-26T12:39:39.000Z</time>
      </trkpt>
      <trkpt lat="47.12454" lon="-1.52692">
        <ele>73</ele>
        <time>2021-04-26T12:39:41.000Z</time>
      </trkpt>
      <trkpt lat="47.12444" lon="-1.5269">
        <ele>73</ele>
        <time>2021-04-26T12:39:43.000Z</time>
      </trkpt>
      <trkpt lat="47.12435" lon="-1.52687">
        <ele>73</ele>
        <time>2021-04-26T12:39:45.000Z</time>
      </trkpt>
      <trkpt lat="47.12425" lon="-1.52685">
        <ele>73</ele>
        <time>2021-04-26T12:39:47.000Z</time>
      </trkpt>
      <trkpt lat="47.12413" lon="-1.52682">
        <ele>73</ele>
        <time>2021-04-26T12:39:49.000Z</time>
      </trkpt>
      <trkpt lat="47.12401" lon="-1.5268">
        <ele>73</ele>
        <time>2021-04-26T12:39:51.000Z</time>
      </trkpt>
      <trkpt lat="47.12389" lon="-1.52678">
        <ele>73</ele>
        <time>2021-04-26T12:39:53.000Z</time>
      </trkpt>
      <trkpt lat="47.12376" lon="-1.52675">
        <ele>72</ele>
        <time>2021-04-26T12:39:55.000Z</time>
      </trkpt>
      <trkpt lat="47.12361" lon="-1.52671">
        <ele>71</ele>
        <time>2021-04-26T12:39:57.000Z</time>
      </trkpt>
      <trkpt lat="47.12345" lon="-1.52667">
        <ele>70</ele>
        <time>2021-04-26T12:39:59.000Z</time>
      </trkpt>
      <trkpt lat="47.12329" lon="-1.52662">
        <ele>69</ele>
        <time>2021-04-26T12:40:01.000Z</time>
      </trkpt>
      <trkpt lat="47.12312" lon="-1.52655">
        <ele>68</ele>
        <time>2021-04-26T12:40:03.000Z</time>
      </trkpt>
      <trkpt lat="47.12295" lon="-1.52648">
        <ele>68</ele>
        <time>2021-04-26T12:40:05.000Z</time>
      </trkpt>
      <trkpt lat="47.12279" lon="-1.5264">
        <ele>67</ele>
        <time>2021-04-26T12:40:07.000Z</time>
      </trkpt>
      <trkpt lat="47.12264" lon="-1.52631">
        <ele>67</ele>
        <time>2021-04-26T12:40:09.000Z</time>
      </trkpt>
      <trkpt lat="47.12249" lon="-1.52623">
        <ele>66</ele>
        <time>2021-04-26T12:40:11.000Z</time>
      </trkpt>
      <trkpt lat="47.12234" lon="-1.52615">
        <ele>66</ele>
        <time>2021-04-26T12:40:13.000Z</time>
      </trkpt>
      <trkpt lat="47.12219" lon="-1.52608">
        <ele>66</ele>
        <time>2021-04-26T12:40:15.000Z</time>
      </trkpt>
      <trkpt lat="47.12204" lon="-1.52603">
        <ele>66</ele>
        <time>2021-04-26T12:40:17.000Z</time>
      </trkpt>
      <trkpt lat="47.12189" lon="-1.52599">
        <ele>67</ele>
        <time>2021-04-26T12:40:19.000Z</time>
      </trkpt>
      <trkpt lat="47.12174" lon="-1.52596">
        <ele>67</ele>
        <time>2021-04-26T12:40:21.000Z</time>
      </trkpt>
      <trkpt lat="47.12158" lon="-1.52594">
        <ele>67</ele>
        <time>2021-04-26T12:40:23.000Z</time>
      </trkpt>
      <trkpt lat="47.12143" lon="-1.52593">
        <ele>66</ele>
        <time>2021-04-26T12:40:25.000Z</time>
      </trkpt>
      <trkpt lat="47.12128" lon="-1.52592">
        <ele>65</ele>
        <time>2021-04-26T12:40:27.000Z</time>
      </trkpt>
      <trkpt lat="47.12113" lon="-1.52592">
        <ele>65</ele>
        <time>2021-04-26T12:40:29.000Z</time>
      </trkpt>
      <trkpt lat="47.12098" lon="-1.52592">
        <ele>65</ele>
        <time>2021-04-26T12:40:31.000Z</time>
      </trkpt>
      <trkpt lat="47.12083" lon="-1.52593">
        <ele>65</ele>
        <time>2021-04-26T12:40:33.000Z</time>
      </trkpt>
      <trkpt lat="47.12068" lon="-1.52593">
        <ele>64</ele>
        <time>2021-04-26T12:40:35.000Z</time>
      </trkpt>
      <trkpt lat="47.12053" lon="-1.52592">
        <ele>64</ele>
        <time>2021-04-26T12:40:37.000Z</time>
      </trkpt>
      <trkpt lat="47.12038" lon="-1.52592">
        <ele>64</ele>
        <time>2021-04-26T12:40:39.000Z</time>
      </trkpt>
      <trkpt lat="47.12023" lon="-1.52592">
        <ele>64</ele>
        <time>2021-04-26T12:40:41.000Z</time>
      </trkpt>
      <trkpt lat="47.12009" lon="-1.52589">
        <ele>64</ele>
        <time>2021-04-26T12:40:43.000Z</time>
      </trkpt>
      <trkpt lat="47.11994" lon="-1.52585">
        <ele>64</ele>
        <time>2021-04-26T12:40:45.000Z</time>
      </trkpt>
      <trkpt lat="47.11979" lon="-1.52578">
        <ele>63</ele>
        <time>2021-04-26T12:40:47.000Z</time>
      </trkpt>
      <trkpt lat="47.11964" lon="-1.52571">
        <ele>63</ele>
        <time>2021-04-26T12:40:49.000Z</time>
      </trkpt>
      <trkpt lat="47.1195" lon="-1.52562">
        <ele>62</ele>
        <time>2021-04-26T12:40:51.000Z</time>
      </trkpt>
      <trkpt lat="47.11935" lon="-1.52553">
        <ele>61</ele>
        <time>2021-04-26T12:40:53.000Z</time>
      </trkpt>
      <trkpt lat="47.11921" lon="-1.52542">
        <ele>60</ele>
        <time>2021-04-26T12:40:55.000Z</time>
      </trkpt>
      <trkpt lat="47.11907" lon="-1.52532">
        <ele>60</ele>
        <time>2021-04-26T12:40:57.000Z</time>
      </trkpt>
      <trkpt lat="47.11894" lon="-1.52518">
        <ele>61</ele>
        <time>2021-04-26T12:40:59.000Z</time>
      </trkpt>
      <trkpt lat="47.11882" lon="-1.52504">
        <ele>61</ele>
        <time>2021-04-26T12:41:01.000Z</time>
      </trkpt>
      <trkpt lat="47.11871" lon="-1.52491">
        <ele>61</ele>
        <time>2021-04-26T12:41:03.000Z</time>
      </trkpt>
      <trkpt lat="47.11861" lon="-1.52478">
        <ele>61</ele>
        <time>2021-04-26T12:41:05.000Z</time>
      </trkpt>
      <trkpt lat="47.11851" lon="-1.52466">
        <ele>61</ele>
        <time>2021-04-26T12:41:07.000Z</time>
      </trkpt>
      <trkpt lat="47.11842" lon="-1.52454">
        <ele>62</ele>
        <time>2021-04-26T12:41:09.000Z</time>
      </trkpt>
      <trkpt lat="47.11832" lon="-1.52441">
        <ele>62</ele>
        <time>2021-04-26T12:41:11.000Z</time>
      </trkpt>
      <trkpt lat="47.11823" lon="-1.52429">
        <ele>63</ele>
        <time>2021-04-26T12:41:13.000Z</time>
      </trkpt>
      <trkpt lat="47.11814" lon="-1.52417">
        <ele>63</ele>
        <time>2021-04-26T12:41:15.000Z</time>
      </trkpt>
      <trkpt lat="47.11805" lon="-1.52405">
        <ele>64</ele>
        <time>2021-04-26T12:41:17.000Z</time>
      </trkpt>
      <trkpt lat="47.11796" lon="-1.52392">
        <ele>64</ele>
        <time>2021-04-26T12:41:19.000Z</time>
      </trkpt>
      <trkpt lat="47.11787" lon="-1.5238">
        <ele>65</ele>
        <time>2021-04-26T12:41:21.000Z</time>
      </trkpt>
      <trkpt lat="47.11778" lon="-1.52368">
        <ele>66</ele>
        <time>2021-04-26T12:41:23.000Z</time>
      </trkpt>
      <trkpt lat="47.11768" lon="-1.52356">
        <ele>66</ele>
        <time>2021-04-26T12:41:25.000Z</time>
      </trkpt>
      <trkpt lat="47.11759" lon="-1.52345">
        <ele>67</ele>
        <time>2021-04-26T12:41:27.000Z</time>
      </trkpt>
      <trkpt lat="47.1175" lon="-1.52333">
        <ele>67</ele>
        <time>2021-04-26T12:41:29.000Z</time>
      </trkpt>
      <trkpt lat="47.11741" lon="-1.52321">
        <ele>68</ele>
        <time>2021-04-26T12:41:31.000Z</time>
      </trkpt>
      <trkpt lat="47.11733" lon="-1.52311">
        <ele>68</ele>
        <time>2021-04-26T12:41:33.000Z</time>
      </trkpt>
      <trkpt lat="47.11723" lon="-1.52301">
        <ele>68</ele>
        <time>2021-04-26T12:41:35.000Z</time>
      </trkpt>
      <trkpt lat="47.11713" lon="-1.52292">
        <ele>68</ele>
        <time>2021-04-26T12:41:37.000Z</time>
      </trkpt>
      <trkpt lat="47.11703" lon="-1.52284">
        <ele>67</ele>
        <time>2021-04-26T12:41:39.000Z</time>
      </trkpt>
      <trkpt lat="47.11692" lon="-1.52277">
        <ele>67</ele>
        <time>2021-04-26T12:41:41.000Z</time>
      </trkpt>
      <trkpt lat="47.11679" lon="-1.5227">
        <ele>66</ele>
        <time>2021-04-26T12:41:43.000Z</time>
      </trkpt>
      <trkpt lat="47.11666" lon="-1.52262">
        <ele>66</ele>
        <time>2021-04-26T12:41:45.000Z</time>
      </trkpt>
      <trkpt lat="47.11652" lon="-1.52254">
        <ele>65</ele>
        <time>2021-04-26T12:41:47.000Z</time>
      </trkpt>
      <trkpt lat="47.11637" lon="-1.52245">
        <ele>64</ele>
        <time>2021-04-26T12:41:49.000Z</time>
      </trkpt>
      <trkpt lat="47.11623" lon="-1.52237">
        <ele>63</ele>
        <time>2021-04-26T12:41:51.000Z</time>
      </trkpt>
      <trkpt lat="47.11607" lon="-1.52227">
        <ele>62</ele>
        <time>2021-04-26T12:41:53.000Z</time>
      </trkpt>
      <trkpt lat="47.11593" lon="-1.52215">
        <ele>62</ele>
        <time>2021-04-26T12:41:55.000Z</time>
      </trkpt>
      <trkpt lat="47.1158" lon="-1.522">
        <ele>62</ele>
        <time>2021-04-26T12:41:57.000Z</time>
      </trkpt>
      <trkpt lat="47.11568" lon="-1.52183">
        <ele>61</ele>
        <time>2021-04-26T12:41:59.000Z</time>
      </trkpt>
      <trkpt lat="47.11557" lon="-1.52165">
        <ele>60</ele>
        <time>2021-04-26T12:42:01.000Z</time>
      </trkpt>
      <trkpt lat="47.11547" lon="-1.52146">
        <ele>60</ele>
        <time>2021-04-26T12:42:03.000Z</time>
      </trkpt>
      <trkpt lat="47.11537" lon="-1.52127">
        <ele>60</ele>
        <time>2021-04-26T12:42:05.000Z</time>
      </trkpt>
      <trkpt lat="47.11527" lon="-1.52109">
        <ele>60</ele>
        <time>2021-04-26T12:42:07.000Z</time>
      </trkpt>
      <trkpt lat="47.11516" lon="-1.52091">
        <ele>60</ele>
        <time>2021-04-26T12:42:09.000Z</time>
      </trkpt>
      <trkpt lat="47.11506" lon="-1.52072">
        <ele>60</ele>
        <time>2021-04-26T12:42:11.000Z</time>
      </trkpt>
      <trkpt lat="47.11496" lon="-1.52053">
        <ele>60</ele>
        <time>2021-04-26T12:42:13.000Z</time>
      </trkpt>
      <trkpt lat="47.11485" lon="-1.52034">
        <ele>60</ele>
        <time>2021-04-26T12:42:15.000Z</time>
      </trkpt>
      <trkpt lat="47.11474" lon="-1.52016">
        <ele>60</ele>
        <time>2021-04-26T12:42:17.000Z</time>
      </trkpt>
      <trkpt lat="47.11464" lon="-1.51999">
        <ele>60</ele>
        <time>2021-04-26T12:42:19.000Z</time>
      </trkpt>
      <trkpt lat="47.11454" lon="-1.51981">
        <ele>60</ele>
        <time>2021-04-26T12:42:21.000Z</time>
      </trkpt>
      <trkpt lat="47.11445" lon="-1.51963">
        <ele>60</ele>
        <time>2021-04-26T12:42:23.000Z</time>
      </trkpt>
      <trkpt lat="47.11435" lon="-1.51945">
        <ele>59</ele>
        <time>2021-04-26T12:42:25.000Z</time>
      </trkpt>
      <trkpt lat="47.11426" lon="-1.51928">
        <ele>60</ele>
        <time>2021-04-26T12:42:27.000Z</time>
      </trkpt>
      <trkpt lat="47.11417" lon="-1.51911">
        <ele>59</ele>
        <time>2021-04-26T12:42:29.000Z</time>
      </trkpt>
      <trkpt lat="47.11407" lon="-1.51894">
        <ele>59</ele>
        <time>2021-04-26T12:42:31.000Z</time>
      </trkpt>
      <trkpt lat="47.11397" lon="-1.51878">
        <ele>59</ele>
        <time>2021-04-26T12:42:33.000Z</time>
      </trkpt>
      <trkpt lat="47.11388" lon="-1.5186">
        <ele>59</ele>
        <time>2021-04-26T12:42:35.000Z</time>
      </trkpt>
      <trkpt lat="47.11379" lon="-1.51843">
        <ele>58</ele>
        <time>2021-04-26T12:42:37.000Z</time>
      </trkpt>
      <trkpt lat="47.11369" lon="-1.51826">
        <ele>58</ele>
        <time>2021-04-26T12:42:39.000Z</time>
      </trkpt>
      <trkpt lat="47.1136" lon="-1.5181">
        <ele>59</ele>
        <time>2021-04-26T12:42:41.000Z</time>
      </trkpt>
      <trkpt lat="47.11349" lon="-1.51796">
        <ele>59</ele>
        <time>2021-04-26T12:42:43.000Z</time>
      </trkpt>
      <trkpt lat="47.11337" lon="-1.51783">
        <ele>59</ele>
        <time>2021-04-26T12:42:45.000Z</time>
      </trkpt>
      <trkpt lat="47.11326" lon="-1.51772">
        <ele>59</ele>
        <time>2021-04-26T12:42:47.000Z</time>
      </trkpt>
      <trkpt lat="47.11313" lon="-1.51762">
        <ele>59</ele>
        <time>2021-04-26T12:42:49.000Z</time>
      </trkpt>
      <trkpt lat="47.11301" lon="-1.51753">
        <ele>59</ele>
        <time>2021-04-26T12:42:51.000Z</time>
      </trkpt>
      <trkpt lat="47.11289" lon="-1.51743">
        <ele>59</ele>
        <time>2021-04-26T12:42:53.000Z</time>
      </trkpt>
      <trkpt lat="47.11278" lon="-1.51733">
        <ele>59</ele>
        <time>2021-04-26T12:42:55.000Z</time>
      </trkpt>
      <trkpt lat="47.11266" lon="-1.51722">
        <ele>59</ele>
        <time>2021-04-26T12:42:57.000Z</time>
      </trkpt>
      <trkpt lat="47.11254" lon="-1.51712">
        <ele>59</ele>
        <time>2021-04-26T12:42:59.000Z</time>
      </trkpt>
      <trkpt lat="47.11243" lon="-1.51703">
        <ele>60</ele>
        <time>2021-04-26T12:43:01.000Z</time>
      </trkpt>
      <trkpt lat="47.11231" lon="-1.51693">
        <ele>60</ele>
        <time>2021-04-26T12:43:03.000Z</time>
      </trkpt>
      <trkpt lat="47.1122" lon="-1.51683">
        <ele>60</ele>
        <time>2021-04-26T12:43:05.000Z</time>
      </trkpt>
      <trkpt lat="47.11209" lon="-1.51673">
        <ele>60</ele>
        <time>2021-04-26T12:43:07.000Z</time>
      </trkpt>
      <trkpt lat="47.11198" lon="-1.51663">
        <ele>60</ele>
        <time>2021-04-26T12:43:09.000Z</time>
      </trkpt>
      <trkpt lat="47.11189" lon="-1.51652">
        <ele>61</ele>
        <time>2021-04-26T12:43:11.000Z</time>
      </trkpt>
      <trkpt lat="47.1118" lon="-1.51641">
        <ele>61</ele>
        <time>2021-04-26T12:43:13.000Z</time>
      </trkpt>
      <trkpt lat="47.11172" lon="-1.51629">
        <ele>62</ele>
        <time>2021-04-26T12:43:15.000Z</time>
      </trkpt>
      <trkpt lat="47.11164" lon="-1.51616">
        <ele>62</ele>
        <time>2021-04-26T12:43:17.000Z</time>
      </trkpt>
      <trkpt lat="47.11156" lon="-1.51604">
        <ele>63</ele>
        <time>2021-04-26T12:43:19.000Z</time>
      </trkpt>
      <trkpt lat="47.11149" lon="-1.51591">
        <ele>64</ele>
        <time>2021-04-26T12:43:21.000Z</time>
      </trkpt>
      <trkpt lat="47.11141" lon="-1.51578">
        <ele>64</ele>
        <time>2021-04-26T12:43:23.000Z</time>
      </trkpt>
      <trkpt lat="47.11132" lon="-1.51566">
        <ele>64</ele>
        <time>2021-04-26T12:43:25.000Z</time>
      </trkpt>
      <trkpt lat="47.11124" lon="-1.51553">
        <ele>65</ele>
        <time>2021-04-26T12:43:27.000Z</time>
      </trkpt>
      <trkpt lat="47.11116" lon="-1.5154">
        <ele>66</ele>
        <time>2021-04-26T12:43:29.000Z</time>
      </trkpt>
      <trkpt lat="47.11108" lon="-1.51528">
        <ele>66</ele>
        <time>2021-04-26T12:43:31.000Z</time>
      </trkpt>
      <trkpt lat="47.111" lon="-1.51515">
        <ele>67</ele>
        <time>2021-04-26T12:43:33.000Z</time>
      </trkpt>
      <trkpt lat="47.11091" lon="-1.51502">
        <ele>67</ele>
        <time>2021-04-26T12:43:35.000Z</time>
      </trkpt>
      <trkpt lat="47.11082" lon="-1.51491">
        <ele>67</ele>
        <time>2021-04-26T12:43:37.000Z</time>
      </trkpt>
      <trkpt lat="47.11073" lon="-1.5148">
        <ele>68</ele>
        <time>2021-04-26T12:43:39.000Z</time>
      </trkpt>
      <trkpt lat="47.11063" lon="-1.51471">
        <ele>68</ele>
        <time>2021-04-26T12:43:41.000Z</time>
      </trkpt>
      <trkpt lat="47.11053" lon="-1.5146">
        <ele>68</ele>
        <time>2021-04-26T12:43:43.000Z</time>
      </trkpt>
      <trkpt lat="47.11043" lon="-1.5145">
        <ele>68</ele>
        <time>2021-04-26T12:43:45.000Z</time>
      </trkpt>
      <trkpt lat="47.11032" lon="-1.5144">
        <ele>68</ele>
        <time>2021-04-26T12:43:47.000Z</time>
      </trkpt>
      <trkpt lat="47.11022" lon="-1.51431">
        <ele>68</ele>
        <time>2021-04-26T12:43:49.000Z</time>
      </trkpt>
      <trkpt lat="47.11013" lon="-1.51422">
        <ele>68</ele>
        <time>2021-04-26T12:43:51.000Z</time>
      </trkpt>
      <trkpt lat="47.11003" lon="-1.51412">
        <ele>69</ele>
        <time>2021-04-26T12:43:53.000Z</time>
      </trkpt>
      <trkpt lat="47.10993" lon="-1.51403">
        <ele>68</ele>
        <time>2021-04-26T12:43:55.000Z</time>
      </trkpt>
      <trkpt lat="47.10982" lon="-1.51392">
        <ele>68</ele>
        <time>2021-04-26T12:43:57.000Z</time>
      </trkpt>
      <trkpt lat="47.10972" lon="-1.51383">
        <ele>68</ele>
        <time>2021-04-26T12:43:59.000Z</time>
      </trkpt>
      <trkpt lat="47.10962" lon="-1.51373">
        <ele>68</ele>
        <time>2021-04-26T12:44:01.000Z</time>
      </trkpt>
      <trkpt lat="47.10952" lon="-1.51364">
        <ele>68</ele>
        <time>2021-04-26T12:44:03.000Z</time>
      </trkpt>
      <trkpt lat="47.10942" lon="-1.51354">
        <ele>68</ele>
        <time>2021-04-26T12:44:05.000Z</time>
      </trkpt>
      <trkpt lat="47.10932" lon="-1.51345">
        <ele>68</ele>
        <time>2021-04-26T12:44:07.000Z</time>
      </trkpt>
      <trkpt lat="47.10922" lon="-1.51335">
        <ele>68</ele>
        <time>2021-04-26T12:44:09.000Z</time>
      </trkpt>
      <trkpt lat="47.10912" lon="-1.51325">
        <ele>68</ele>
        <time>2021-04-26T12:44:11.000Z</time>
      </trkpt>
      <trkpt lat="47.10902" lon="-1.51316">
        <ele>68</ele>
        <time>2021-04-26T12:44:13.000Z</time>
      </trkpt>
      <trkpt lat="47.10892" lon="-1.51306">
        <ele>68</ele>
        <time>2021-04-26T12:44:15.000Z</time>
      </trkpt>
      <trkpt lat="47.10882" lon="-1.51297">
        <ele>68</ele>
        <time>2021-04-26T12:44:17.000Z</time>
      </trkpt>
      <trkpt lat="47.10871" lon="-1.51287">
        <ele>68</ele>
        <time>2021-04-26T12:44:19.000Z</time>
      </trkpt>
      <trkpt lat="47.10861" lon="-1.51278">
        <ele>68</ele>
        <time>2021-04-26T12:44:21.000Z</time>
      </trkpt>
      <trkpt lat="47.10851" lon="-1.51267">
        <ele>68</ele>
        <time>2021-04-26T12:44:23.000Z</time>
      </trkpt>
      <trkpt lat="47.10841" lon="-1.51258">
        <ele>68</ele>
        <time>2021-04-26T12:44:25.000Z</time>
      </trkpt>
      <trkpt lat="47.10831" lon="-1.51248">
        <ele>68</ele>
        <time>2021-04-26T12:44:27.000Z</time>
      </trkpt>
      <trkpt lat="47.10821" lon="-1.51238">
        <ele>69</ele>
        <time>2021-04-26T12:44:29.000Z</time>
      </trkpt>
      <trkpt lat="47.10811" lon="-1.51228">
        <ele>69</ele>
        <time>2021-04-26T12:44:31.000Z</time>
      </trkpt>
      <trkpt lat="47.108" lon="-1.51218">
        <ele>69</ele>
        <time>2021-04-26T12:44:33.000Z</time>
      </trkpt>
      <trkpt lat="47.1079" lon="-1.51208">
        <ele>69</ele>
        <time>2021-04-26T12:44:35.000Z</time>
      </trkpt>
      <trkpt lat="47.10779" lon="-1.51198">
        <ele>69</ele>
        <time>2021-04-26T12:44:37.000Z</time>
      </trkpt>
      <trkpt lat="47.10769" lon="-1.51188">
        <ele>69</ele>
        <time>2021-04-26T12:44:39.000Z</time>
      </trkpt>
      <trkpt lat="47.10758" lon="-1.51178">
        <ele>69</ele>
        <time>2021-04-26T12:44:41.000Z</time>
      </trkpt>
      <trkpt lat="47.10748" lon="-1.51168">
        <ele>69</ele>
        <time>2021-04-26T12:44:43.000Z</time>
      </trkpt>
      <trkpt lat="47.10737" lon="-1.51158">
        <ele>69</ele>
        <time>2021-04-26T12:44:45.000Z</time>
      </trkpt>
      <trkpt lat="47.10727" lon="-1.51148">
        <ele>69</ele>
        <time>2021-04-26T12:44:47.000Z</time>
      </trkpt>
      <trkpt lat="47.10717" lon="-1.51138">
        <ele>69</ele>
        <time>2021-04-26T12:44:49.000Z</time>
      </trkpt>
      <trkpt lat="47.10706" lon="-1.51127">
        <ele>68</ele>
        <time>2021-04-26T12:44:51.000Z</time>
      </trkpt>
      <trkpt lat="47.10696" lon="-1.51115">
        <ele>68</ele>
        <time>2021-04-26T12:44:53.000Z</time>
      </trkpt>
      <trkpt lat="47.10686" lon="-1.51101">
        <ele>67</ele>
        <time>2021-04-26T12:44:55.000Z</time>
      </trkpt>
      <trkpt lat="47.10679" lon="-1.51085">
        <ele>67</ele>
        <time>2021-04-26T12:44:57.000Z</time>
      </trkpt>
      <trkpt lat="47.10672" lon="-1.51066">
        <ele>67</ele>
        <time>2021-04-26T12:44:59.000Z</time>
      </trkpt>
      <trkpt lat="47.10665" lon="-1.51047">
        <ele>66</ele>
        <time>2021-04-26T12:45:01.000Z</time>
      </trkpt>
      <trkpt lat="47.10659" lon="-1.51027">
        <ele>66</ele>
        <time>2021-04-26T12:45:03.000Z</time>
      </trkpt>
      <trkpt lat="47.10651" lon="-1.51009">
        <ele>65</ele>
        <time>2021-04-26T12:45:05.000Z</time>
      </trkpt>
      <trkpt lat="47.10641" lon="-1.50992">
        <ele>64</ele>
        <time>2021-04-26T12:45:07.000Z</time>
      </trkpt>
      <trkpt lat="47.10629" lon="-1.50977">
        <ele>64</ele>
        <time>2021-04-26T12:45:09.000Z</time>
      </trkpt>
      <trkpt lat="47.10617" lon="-1.50964">
        <ele>63</ele>
        <time>2021-04-26T12:45:11.000Z</time>
      </trkpt>
      <trkpt lat="47.10604" lon="-1.5095">
        <ele>63</ele>
        <time>2021-04-26T12:45:13.000Z</time>
      </trkpt>
      <trkpt lat="47.10592" lon="-1.50937">
        <ele>63</ele>
        <time>2021-04-26T12:45:15.000Z</time>
      </trkpt>
      <trkpt lat="47.1058" lon="-1.50923">
        <ele>62</ele>
        <time>2021-04-26T12:45:17.000Z</time>
      </trkpt>
      <trkpt lat="47.10568" lon="-1.50909">
        <ele>62</ele>
        <time>2021-04-26T12:45:19.000Z</time>
      </trkpt>
      <trkpt lat="47.10555" lon="-1.50896">
        <ele>61</ele>
        <time>2021-04-26T12:45:21.000Z</time>
      </trkpt>
      <trkpt lat="47.10544" lon="-1.50883">
        <ele>61</ele>
        <time>2021-04-26T12:45:23.000Z</time>
      </trkpt>
      <trkpt lat="47.10532" lon="-1.50869">
        <ele>61</ele>
        <time>2021-04-26T12:45:25.000Z</time>
      </trkpt>
      <trkpt lat="47.10523" lon="-1.50854">
        <ele>61</ele>
        <time>2021-04-26T12:45:27.000Z</time>
      </trkpt>
      <trkpt lat="47.10514" lon="-1.50838">
        <ele>61</ele>
        <time>2021-04-26T12:45:29.000Z</time>
      </trkpt>
      <trkpt lat="47.10504" lon="-1.50822">
        <ele>61</ele>
        <time>2021-04-26T12:45:31.000Z</time>
      </trkpt>
      <trkpt lat="47.10495" lon="-1.50805">
        <ele>61</ele>
        <time>2021-04-26T12:45:33.000Z</time>
      </trkpt>
      <trkpt lat="47.10486" lon="-1.50788">
        <ele>61</ele>
        <time>2021-04-26T12:45:35.000Z</time>
      </trkpt>
      <trkpt lat="47.10477" lon="-1.50771">
        <ele>61</ele>
        <time>2021-04-26T12:45:37.000Z</time>
      </trkpt>
      <trkpt lat="47.10469" lon="-1.50754">
        <ele>61</ele>
        <time>2021-04-26T12:45:39.000Z</time>
      </trkpt>
      <trkpt lat="47.10463" lon="-1.50734">
        <ele>61</ele>
        <time>2021-04-26T12:45:41.000Z</time>
      </trkpt>
      <trkpt lat="47.10458" lon="-1.50716">
        <ele>60</ele>
        <time>2021-04-26T12:45:43.000Z</time>
      </trkpt>
      <trkpt lat="47.10453" lon="-1.50697">
        <ele>60</ele>
        <time>2021-04-26T12:45:45.000Z</time>
      </trkpt>
      <trkpt lat="47.10447" lon="-1.50678">
        <ele>60</ele>
        <time>2021-04-26T12:45:47.000Z</time>
      </trkpt>
      <trkpt lat="47.10441" lon="-1.5066">
        <ele>60</ele>
        <time>2021-04-26T12:45:49.000Z</time>
      </trkpt>
      <trkpt lat="47.10433" lon="-1.50645">
        <ele>60</ele>
        <time>2021-04-26T12:45:51.000Z</time>
      </trkpt>
      <trkpt lat="47.10422" lon="-1.50632">
        <ele>60</ele>
        <time>2021-04-26T12:45:53.000Z</time>
      </trkpt>
      <trkpt lat="47.10411" lon="-1.50621">
        <ele>60</ele>
        <time>2021-04-26T12:45:55.000Z</time>
      </trkpt>
      <trkpt lat="47.10399" lon="-1.50611">
        <ele>60</ele>
        <time>2021-04-26T12:45:57.000Z</time>
      </trkpt>
      <trkpt lat="47.10388" lon="-1.50601">
        <ele>60</ele>
        <time>2021-04-26T12:45:59.000Z</time>
      </trkpt>
      <trkpt lat="47.10377" lon="-1.50588">
        <ele>60</ele>
        <time>2021-04-26T12:46:01.000Z</time>
      </trkpt>
      <trkpt lat="47.10368" lon="-1.50574">
        <ele>60</ele>
        <time>2021-04-26T12:46:03.000Z</time>
      </trkpt>
      <trkpt lat="47.10359" lon="-1.50559">
        <ele>61</ele>
        <time>2021-04-26T12:46:05.000Z</time>
      </trkpt>
      <trkpt lat="47.1035" lon="-1.50544">
        <ele>61</ele>
        <time>2021-04-26T12:46:07.000Z</time>
      </trkpt>
      <trkpt lat="47.10341" lon="-1.5053">
        <ele>61</ele>
        <time>2021-04-26T12:46:09.000Z</time>
      </trkpt>
      <trkpt lat="47.10332" lon="-1.50516">
        <ele>61</ele>
        <time>2021-04-26T12:46:11.000Z</time>
      </trkpt>
      <trkpt lat="47.10323" lon="-1.50501">
        <ele>61</ele>
        <time>2021-04-26T12:46:13.000Z</time>
      </trkpt>
      <trkpt lat="47.10315" lon="-1.50487">
        <ele>61</ele>
        <time>2021-04-26T12:46:15.000Z</time>
      </trkpt>
      <trkpt lat="47.10307" lon="-1.50473">
        <ele>62</ele>
        <time>2021-04-26T12:46:17.000Z</time>
      </trkpt>
      <trkpt lat="47.10298" lon="-1.50459">
        <ele>62</ele>
        <time>2021-04-26T12:46:19.000Z</time>
      </trkpt>
      <trkpt lat="47.1029" lon="-1.50446">
        <ele>62</ele>
        <time>2021-04-26T12:46:21.000Z</time>
      </trkpt>
      <trkpt lat="47.10282" lon="-1.50433">
        <ele>63</ele>
        <time>2021-04-26T12:46:23.000Z</time>
      </trkpt>
      <trkpt lat="47.10274" lon="-1.50419">
        <ele>63</ele>
        <time>2021-04-26T12:46:25.000Z</time>
      </trkpt>
      <trkpt lat="47.10266" lon="-1.50406">
        <ele>63</ele>
        <time>2021-04-26T12:46:27.000Z</time>
      </trkpt>
      <trkpt lat="47.10258" lon="-1.50393">
        <ele>64</ele>
        <time>2021-04-26T12:46:29.000Z</time>
      </trkpt>
      <trkpt lat="47.1025" lon="-1.5038">
        <ele>64</ele>
        <time>2021-04-26T12:46:31.000Z</time>
      </trkpt>
      <trkpt lat="47.10242" lon="-1.50367">
        <ele>64</ele>
        <time>2021-04-26T12:46:33.000Z</time>
      </trkpt>
      <trkpt lat="47.10235" lon="-1.50355">
        <ele>64</ele>
        <time>2021-04-26T12:46:35.000Z</time>
      </trkpt>
      <trkpt lat="47.10227" lon="-1.50342">
        <ele>64</ele>
        <time>2021-04-26T12:46:37.000Z</time>
      </trkpt>
      <trkpt lat="47.10219" lon="-1.5033">
        <ele>64</ele>
        <time>2021-04-26T12:46:39.000Z</time>
      </trkpt>
      <trkpt lat="47.10212" lon="-1.50318">
        <ele>65</ele>
        <time>2021-04-26T12:46:41.000Z</time>
      </trkpt>
      <trkpt lat="47.10203" lon="-1.50307">
        <ele>65</ele>
        <time>2021-04-26T12:46:43.000Z</time>
      </trkpt>
      <trkpt lat="47.10194" lon="-1.50298">
        <ele>66</ele>
        <time>2021-04-26T12:46:45.000Z</time>
      </trkpt>
      <trkpt lat="47.10183" lon="-1.50288">
        <ele>66</ele>
        <time>2021-04-26T12:46:47.000Z</time>
      </trkpt>
      <trkpt lat="47.10173" lon="-1.50281">
        <ele>66</ele>
        <time>2021-04-26T12:46:49.000Z</time>
      </trkpt>
      <trkpt lat="47.10162" lon="-1.50274">
        <ele>67</ele>
        <time>2021-04-26T12:46:51.000Z</time>
      </trkpt>
      <trkpt lat="47.10152" lon="-1.50266">
        <ele>67</ele>
        <time>2021-04-26T12:46:53.000Z</time>
      </trkpt>
      <trkpt lat="47.10141" lon="-1.50259">
        <ele>67</ele>
        <time>2021-04-26T12:46:55.000Z</time>
      </trkpt>
      <trkpt lat="47.10131" lon="-1.50251">
        <ele>67</ele>
        <time>2021-04-26T12:46:57.000Z</time>
      </trkpt>
      <trkpt lat="47.10121" lon="-1.50243">
        <ele>68</ele>
        <time>2021-04-26T12:46:59.000Z</time>
      </trkpt>
      <trkpt lat="47.10111" lon="-1.50234">
        <ele>68</ele>
        <time>2021-04-26T12:47:01.000Z</time>
      </trkpt>
      <trkpt lat="47.10102" lon="-1.50226">
        <ele>68</ele>
        <time>2021-04-26T12:47:03.000Z</time>
      </trkpt>
      <trkpt lat="47.10094" lon="-1.50215">
        <ele>68</ele>
        <time>2021-04-26T12:47:05.000Z</time>
      </trkpt>
      <trkpt lat="47.10088" lon="-1.50203">
        <ele>68</ele>
        <time>2021-04-26T12:47:07.000Z</time>
      </trkpt>
      <trkpt lat="47.10084" lon="-1.50191">
        <ele>69</ele>
        <time>2021-04-26T12:47:09.000Z</time>
      </trkpt>
      <trkpt lat="47.10081" lon="-1.50178">
        <ele>69</ele>
        <time>2021-04-26T12:47:11.000Z</time>
      </trkpt>
      <trkpt lat="47.1008" lon="-1.50165">
        <ele>69</ele>
        <time>2021-04-26T12:47:13.000Z</time>
      </trkpt>
      <trkpt lat="47.10079" lon="-1.5015">
        <ele>69</ele>
        <time>2021-04-26T12:47:15.000Z</time>
      </trkpt>
      <trkpt lat="47.10079" lon="-1.50135">
        <ele>69</ele>
        <time>2021-04-26T12:47:17.000Z</time>
      </trkpt>
      <trkpt lat="47.10078" lon="-1.50117">
        <ele>69</ele>
        <time>2021-04-26T12:47:20.000Z</time>
      </trkpt>
      <trkpt lat="47.10078" lon="-1.50099">
        <ele>70</ele>
        <time>2021-04-26T12:47:23.000Z</time>
      </trkpt>
      <trkpt lat="47.10077" lon="-1.50086">
        <ele>70</ele>
        <time>2021-04-26T12:47:25.000Z</time>
      </trkpt>
      <trkpt lat="47.10076" lon="-1.50073">
        <ele>70</ele>
        <time>2021-04-26T12:47:27.000Z</time>
      </trkpt>
      <trkpt lat="47.10076" lon="-1.50059">
        <ele>70</ele>
        <time>2021-04-26T12:47:29.000Z</time>
      </trkpt>
      <trkpt lat="47.10076" lon="-1.50046">
        <ele>70</ele>
        <time>2021-04-26T12:47:31.000Z</time>
      </trkpt>
      <trkpt lat="47.10075" lon="-1.50028">
        <ele>70</ele>
        <time>2021-04-26T12:47:34.000Z</time>
      </trkpt>
      <trkpt lat="47.10075" lon="-1.50009">
        <ele>70</ele>
        <time>2021-04-26T12:47:37.000Z</time>
      </trkpt>
      <trkpt lat="47.10074" lon="-1.49995">
        <ele>70</ele>
        <time>2021-04-26T12:47:39.000Z</time>
      </trkpt>
      <trkpt lat="47.10074" lon="-1.49976">
        <ele>70</ele>
        <time>2021-04-26T12:47:42.000Z</time>
      </trkpt>
      <trkpt lat="47.10073" lon="-1.49962">
        <ele>70</ele>
        <time>2021-04-26T12:47:44.000Z</time>
      </trkpt>
      <trkpt lat="47.10073" lon="-1.49948">
        <ele>70</ele>
        <time>2021-04-26T12:47:46.000Z</time>
      </trkpt>
      <trkpt lat="47.10071" lon="-1.49934">
        <ele>69</ele>
        <time>2021-04-26T12:47:48.000Z</time>
      </trkpt>
      <trkpt lat="47.1007" lon="-1.4992">
        <ele>69</ele>
        <time>2021-04-26T12:47:50.000Z</time>
      </trkpt>
      <trkpt lat="47.10068" lon="-1.49904">
        <ele>69</ele>
        <time>2021-04-26T12:47:52.000Z</time>
      </trkpt>
      <trkpt lat="47.10064" lon="-1.49888">
        <ele>68</ele>
        <time>2021-04-26T12:47:54.000Z</time>
      </trkpt>
      <trkpt lat="47.1006" lon="-1.49873">
        <ele>68</ele>
        <time>2021-04-26T12:47:56.000Z</time>
      </trkpt>
      <trkpt lat="47.10054" lon="-1.49857">
        <ele>68</ele>
        <time>2021-04-26T12:47:58.000Z</time>
      </trkpt>
      <trkpt lat="47.10048" lon="-1.49842">
        <ele>68</ele>
        <time>2021-04-26T12:48:00.000Z</time>
      </trkpt>
      <trkpt lat="47.10041" lon="-1.49827">
        <ele>68</ele>
        <time>2021-04-26T12:48:02.000Z</time>
      </trkpt>
      <trkpt lat="47.10035" lon="-1.49812">
        <ele>68</ele>
        <time>2021-04-26T12:48:04.000Z</time>
      </trkpt>
      <trkpt lat="47.10029" lon="-1.49797">
        <ele>67</ele>
        <time>2021-04-26T12:48:06.000Z</time>
      </trkpt>
      <trkpt lat="47.10023" lon="-1.49783">
        <ele>67</ele>
        <time>2021-04-26T12:48:08.000Z</time>
      </trkpt>
      <trkpt lat="47.10016" lon="-1.49769">
        <ele>67</ele>
        <time>2021-04-26T12:48:10.000Z</time>
      </trkpt>
      <trkpt lat="47.1001" lon="-1.49754">
        <ele>67</ele>
        <time>2021-04-26T12:48:12.000Z</time>
      </trkpt>
      <trkpt lat="47.10003" lon="-1.4974">
        <ele>67</ele>
        <time>2021-04-26T12:48:14.000Z</time>
      </trkpt>
      <trkpt lat="47.09997" lon="-1.49725">
        <ele>67</ele>
        <time>2021-04-26T12:48:16.000Z</time>
      </trkpt>
      <trkpt lat="47.09991" lon="-1.49711">
        <ele>68</ele>
        <time>2021-04-26T12:48:18.000Z</time>
      </trkpt>
      <trkpt lat="47.09984" lon="-1.49696">
        <ele>68</ele>
        <time>2021-04-26T12:48:20.000Z</time>
      </trkpt>
      <trkpt lat="47.09978" lon="-1.49682">
        <ele>68</ele>
        <time>2021-04-26T12:48:22.000Z</time>
      </trkpt>
      <trkpt lat="47.09972" lon="-1.49669">
        <ele>68</ele>
        <time>2021-04-26T12:48:24.000Z</time>
      </trkpt>
      <trkpt lat="47.09966" lon="-1.49655">
        <ele>69</ele>
        <time>2021-04-26T12:48:26.000Z</time>
      </trkpt>
      <trkpt lat="47.09959" lon="-1.49641">
        <ele>69</ele>
        <time>2021-04-26T12:48:28.000Z</time>
      </trkpt>
      <trkpt lat="47.09953" lon="-1.49627">
        <ele>69</ele>
        <time>2021-04-26T12:48:30.000Z</time>
      </trkpt>
      <trkpt lat="47.09947" lon="-1.49614">
        <ele>69</ele>
        <time>2021-04-26T12:48:32.000Z</time>
      </trkpt>
      <trkpt lat="47.09941" lon="-1.49601">
        <ele>69</ele>
        <time>2021-04-26T12:48:34.000Z</time>
      </trkpt>
      <trkpt lat="47.09936" lon="-1.49588">
        <ele>69</ele>
        <time>2021-04-26T12:48:36.000Z</time>
      </trkpt>
      <trkpt lat="47.0993" lon="-1.49574">
        <ele>69</ele>
        <time>2021-04-26T12:48:38.000Z</time>
      </trkpt>
      <trkpt lat="47.09924" lon="-1.49561">
        <ele>70</ele>
        <time>2021-04-26T12:48:40.000Z</time>
      </trkpt>
      <trkpt lat="47.09919" lon="-1.49547">
        <ele>70</ele>
        <time>2021-04-26T12:48:42.000Z</time>
      </trkpt>
      <trkpt lat="47.09912" lon="-1.49533">
        <ele>70</ele>
        <time>2021-04-26T12:48:44.000Z</time>
      </trkpt>
      <trkpt lat="47.09906" lon="-1.49519">
        <ele>70</ele>
        <time>2021-04-26T12:48:46.000Z</time>
      </trkpt>
      <trkpt lat="47.099" lon="-1.49505">
        <ele>70</ele>
        <time>2021-04-26T12:48:48.000Z</time>
      </trkpt>
      <trkpt lat="47.09894" lon="-1.49492">
        <ele>70</ele>
        <time>2021-04-26T12:48:50.000Z</time>
      </trkpt>
      <trkpt lat="47.09889" lon="-1.49477">
        <ele>69</ele>
        <time>2021-04-26T12:48:52.000Z</time>
      </trkpt>
      <trkpt lat="47.09885" lon="-1.49463">
        <ele>70</ele>
        <time>2021-04-26T12:48:54.000Z</time>
      </trkpt>
      <trkpt lat="47.09879" lon="-1.49449">
        <ele>70</ele>
        <time>2021-04-26T12:48:56.000Z</time>
      </trkpt>
      <trkpt lat="47.09874" lon="-1.49435">
        <ele>70</ele>
        <time>2021-04-26T12:48:58.000Z</time>
      </trkpt>
      <trkpt lat="47.09873" lon="-1.49418">
        <ele>70</ele>
        <time>2021-04-26T12:49:00.000Z</time>
      </trkpt>
      <trkpt lat="47.09871" lon="-1.49402">
        <ele>71</ele>
        <time>2021-04-26T12:49:02.000Z</time>
      </trkpt>
      <trkpt lat="47.09869" lon="-1.49387">
        <ele>71</ele>
        <time>2021-04-26T12:49:04.000Z</time>
      </trkpt>
      <trkpt lat="47.09866" lon="-1.49371">
        <ele>71</ele>
        <time>2021-04-26T12:49:06.000Z</time>
      </trkpt>
      <trkpt lat="47.09864" lon="-1.49356">
        <ele>71</ele>
        <time>2021-04-26T12:49:08.000Z</time>
      </trkpt>
      <trkpt lat="47.09862" lon="-1.49341">
        <ele>71</ele>
        <time>2021-04-26T12:49:10.000Z</time>
      </trkpt>
      <trkpt lat="47.0986" lon="-1.49326">
        <ele>71</ele>
        <time>2021-04-26T12:49:12.000Z</time>
      </trkpt>
      <trkpt lat="47.09858" lon="-1.4931">
        <ele>71</ele>
        <time>2021-04-26T12:49:14.000Z</time>
      </trkpt>
      <trkpt lat="47.09856" lon="-1.49294">
        <ele>71</ele>
        <time>2021-04-26T12:49:16.000Z</time>
      </trkpt>
      <trkpt lat="47.09856" lon="-1.49278">
        <ele>71</ele>
        <time>2021-04-26T12:49:18.000Z</time>
      </trkpt>
      <trkpt lat="47.09855" lon="-1.49263">
        <ele>71</ele>
        <time>2021-04-26T12:49:20.000Z</time>
      </trkpt>
      <trkpt lat="47.09855" lon="-1.49247">
        <ele>71</ele>
        <time>2021-04-26T12:49:22.000Z</time>
      </trkpt>
      <trkpt lat="47.09854" lon="-1.49231">
        <ele>71</ele>
        <time>2021-04-26T12:49:24.000Z</time>
      </trkpt>
      <trkpt lat="47.09853" lon="-1.49215">
        <ele>71</ele>
        <time>2021-04-26T12:49:26.000Z</time>
      </trkpt>
      <trkpt lat="47.09853" lon="-1.49198">
        <ele>71</ele>
        <time>2021-04-26T12:49:28.000Z</time>
      </trkpt>
      <trkpt lat="47.09852" lon="-1.49182">
        <ele>71</ele>
        <time>2021-04-26T12:49:30.000Z</time>
      </trkpt>
      <trkpt lat="47.09852" lon="-1.49165">
        <ele>70</ele>
        <time>2021-04-26T12:49:32.000Z</time>
      </trkpt>
      <trkpt lat="47.09851" lon="-1.49149">
        <ele>70</ele>
        <time>2021-04-26T12:49:34.000Z</time>
      </trkpt>
      <trkpt lat="47.09851" lon="-1.49134">
        <ele>70</ele>
        <time>2021-04-26T12:49:36.000Z</time>
      </trkpt>
      <trkpt lat="47.0985" lon="-1.49118">
        <ele>70</ele>
        <time>2021-04-26T12:49:38.000Z</time>
      </trkpt>
      <trkpt lat="47.09845" lon="-1.49105">
        <ele>70</ele>
        <time>2021-04-26T12:49:40.000Z</time>
      </trkpt>
      <trkpt lat="47.09835" lon="-1.49099">
        <ele>70</ele>
        <time>2021-04-26T12:49:42.000Z</time>
      </trkpt>
      <trkpt lat="47.09823" lon="-1.49093">
        <ele>70</ele>
        <time>2021-04-26T12:49:44.000Z</time>
      </trkpt>
      <trkpt lat="47.09813" lon="-1.49087">
        <ele>69</ele>
        <time>2021-04-26T12:49:46.000Z</time>
      </trkpt>
      <trkpt lat="47.09802" lon="-1.49081">
        <ele>69</ele>
        <time>2021-04-26T12:49:48.000Z</time>
      </trkpt>
      <trkpt lat="47.09792" lon="-1.49076">
        <ele>70</ele>
        <time>2021-04-26T12:49:50.000Z</time>
      </trkpt>
      <trkpt lat="47.09782" lon="-1.49071">
        <ele>69</ele>
        <time>2021-04-26T12:49:52.000Z</time>
      </trkpt>
      <trkpt lat="47.09774" lon="-1.49061">
        <ele>70</ele>
        <time>2021-04-26T12:49:55.000Z</time>
      </trkpt>
      <trkpt lat="47.09775" lon="-1.49045">
        <ele>70</ele>
        <time>2021-04-26T12:49:57.000Z</time>
      </trkpt>
      <trkpt lat="47.09777" lon="-1.49028">
        <ele>71</ele>
        <time>2021-04-26T12:49:59.000Z</time>
      </trkpt>
      <trkpt lat="47.09779" lon="-1.49011">
        <ele>71</ele>
        <time>2021-04-26T12:50:01.000Z</time>
      </trkpt>
      <trkpt lat="47.09781" lon="-1.48994">
        <ele>71</ele>
        <time>2021-04-26T12:50:03.000Z</time>
      </trkpt>
      <trkpt lat="47.09783" lon="-1.48978">
        <ele>71</ele>
        <time>2021-04-26T12:50:05.000Z</time>
      </trkpt>
      <trkpt lat="47.09787" lon="-1.48963">
        <ele>71</ele>
        <time>2021-04-26T12:50:07.000Z</time>
      </trkpt>
      <trkpt lat="47.0979" lon="-1.48947">
        <ele>71</ele>
        <time>2021-04-26T12:50:09.000Z</time>
      </trkpt>
      <trkpt lat="47.09794" lon="-1.48932">
        <ele>71</ele>
        <time>2021-04-26T12:50:11.000Z</time>
      </trkpt>
      <trkpt lat="47.09797" lon="-1.48916">
        <ele>71</ele>
        <time>2021-04-26T12:50:13.000Z</time>
      </trkpt>
      <trkpt lat="47.09798" lon="-1.48899">
        <ele>71</ele>
        <time>2021-04-26T12:50:15.000Z</time>
      </trkpt>
      <trkpt lat="47.09792" lon="-1.48882">
        <ele>70</ele>
        <time>2021-04-26T12:50:17.000Z</time>
      </trkpt>
      <trkpt lat="47.09786" lon="-1.48865">
        <ele>68</ele>
        <time>2021-04-26T12:50:19.000Z</time>
      </trkpt>
      <trkpt lat="47.0978" lon="-1.48849">
        <ele>67</ele>
        <time>2021-04-26T12:50:21.000Z</time>
      </trkpt>
      <trkpt lat="47.09774" lon="-1.48833">
        <ele>67</ele>
        <time>2021-04-26T12:50:23.000Z</time>
      </trkpt>
      <trkpt lat="47.09769" lon="-1.48817">
        <ele>66</ele>
        <time>2021-04-26T12:50:25.000Z</time>
      </trkpt>
      <trkpt lat="47.09765" lon="-1.48801">
        <ele>66</ele>
        <time>2021-04-26T12:50:27.000Z</time>
      </trkpt>
      <trkpt lat="47.09762" lon="-1.48786">
        <ele>66</ele>
        <time>2021-04-26T12:50:29.000Z</time>
      </trkpt>
      <trkpt lat="47.09762" lon="-1.48769">
        <ele>66</ele>
        <time>2021-04-26T12:50:31.000Z</time>
      </trkpt>
      <trkpt lat="47.09765" lon="-1.48753">
        <ele>66</ele>
        <time>2021-04-26T12:50:33.000Z</time>
      </trkpt>
      <trkpt lat="47.09775" lon="-1.48743">
        <ele>66</ele>
        <time>2021-04-26T12:50:35.000Z</time>
      </trkpt>
      <trkpt lat="47.09783" lon="-1.48731">
        <ele>67</ele>
        <time>2021-04-26T12:50:37.000Z</time>
      </trkpt>
      <trkpt lat="47.09791" lon="-1.48717">
        <ele>67</ele>
        <time>2021-04-26T12:50:39.000Z</time>
      </trkpt>
      <trkpt lat="47.09799" lon="-1.48704">
        <ele>66</ele>
        <time>2021-04-26T12:50:41.000Z</time>
      </trkpt>
      <trkpt lat="47.09806" lon="-1.4869">
        <ele>66</ele>
        <time>2021-04-26T12:50:43.000Z</time>
      </trkpt>
      <trkpt lat="47.09812" lon="-1.48676">
        <ele>67</ele>
        <time>2021-04-26T12:50:45.000Z</time>
      </trkpt>
      <trkpt lat="47.0982" lon="-1.48663">
        <ele>67</ele>
        <time>2021-04-26T12:50:47.000Z</time>
      </trkpt>
      <trkpt lat="47.09827" lon="-1.4865">
        <ele>67</ele>
        <time>2021-04-26T12:50:49.000Z</time>
      </trkpt>
      <trkpt lat="47.09835" lon="-1.48636">
        <ele>67</ele>
        <time>2021-04-26T12:50:51.000Z</time>
      </trkpt>
      <trkpt lat="47.09842" lon="-1.48624">
        <ele>67</ele>
        <time>2021-04-26T12:50:53.000Z</time>
      </trkpt>
      <trkpt lat="47.09849" lon="-1.48611">
        <ele>67</ele>
        <time>2021-04-26T12:50:55.000Z</time>
      </trkpt>
      <trkpt lat="47.09855" lon="-1.48597">
        <ele>67</ele>
        <time>2021-04-26T12:50:57.000Z</time>
      </trkpt>
      <trkpt lat="47.09859" lon="-1.48582">
        <ele>67</ele>
        <time>2021-04-26T12:50:59.000Z</time>
      </trkpt>
      <trkpt lat="47.09863" lon="-1.48566">
        <ele>67</ele>
        <time>2021-04-26T12:51:01.000Z</time>
      </trkpt>
      <trkpt lat="47.09865" lon="-1.48549">
        <ele>67</ele>
        <time>2021-04-26T12:51:03.000Z</time>
      </trkpt>
      <trkpt lat="47.09866" lon="-1.48531">
        <ele>67</ele>
        <time>2021-04-26T12:51:05.000Z</time>
      </trkpt>
      <trkpt lat="47.09866" lon="-1.48514">
        <ele>67</ele>
        <time>2021-04-26T12:51:07.000Z</time>
      </trkpt>
      <trkpt lat="47.09865" lon="-1.48497">
        <ele>67</ele>
        <time>2021-04-26T12:51:09.000Z</time>
      </trkpt>
      <trkpt lat="47.09863" lon="-1.4848">
        <ele>67</ele>
        <time>2021-04-26T12:51:11.000Z</time>
      </trkpt>
      <trkpt lat="47.09862" lon="-1.48462">
        <ele>67</ele>
        <time>2021-04-26T12:51:13.000Z</time>
      </trkpt>
      <trkpt lat="47.09859" lon="-1.48445">
        <ele>67</ele>
        <time>2021-04-26T12:51:15.000Z</time>
      </trkpt>
      <trkpt lat="47.09857" lon="-1.48429">
        <ele>67</ele>
        <time>2021-04-26T12:51:17.000Z</time>
      </trkpt>
      <trkpt lat="47.09856" lon="-1.48411">
        <ele>67</ele>
        <time>2021-04-26T12:51:19.000Z</time>
      </trkpt>
      <trkpt lat="47.09854" lon="-1.48394">
        <ele>68</ele>
        <time>2021-04-26T12:51:21.000Z</time>
      </trkpt>
      <trkpt lat="47.09853" lon="-1.48378">
        <ele>68</ele>
        <time>2021-04-26T12:51:23.000Z</time>
      </trkpt>
      <trkpt lat="47.09851" lon="-1.48362">
        <ele>68</ele>
        <time>2021-04-26T12:51:25.000Z</time>
      </trkpt>
      <trkpt lat="47.0985" lon="-1.48345">
        <ele>68</ele>
        <time>2021-04-26T12:51:27.000Z</time>
      </trkpt>
      <trkpt lat="47.09848" lon="-1.48329">
        <ele>68</ele>
        <time>2021-04-26T12:51:29.000Z</time>
      </trkpt>
      <trkpt lat="47.09847" lon="-1.48313">
        <ele>68</ele>
        <time>2021-04-26T12:51:31.000Z</time>
      </trkpt>
      <trkpt lat="47.09846" lon="-1.48296">
        <ele>68</ele>
        <time>2021-04-26T12:51:33.000Z</time>
      </trkpt>
      <trkpt lat="47.09844" lon="-1.48279">
        <ele>68</ele>
        <time>2021-04-26T12:51:35.000Z</time>
      </trkpt>
      <trkpt lat="47.09841" lon="-1.48261">
        <ele>68</ele>
        <time>2021-04-26T12:51:37.000Z</time>
      </trkpt>
      <trkpt lat="47.0984" lon="-1.48244">
        <ele>69</ele>
        <time>2021-04-26T12:51:39.000Z</time>
      </trkpt>
      <trkpt lat="47.09838" lon="-1.48227">
        <ele>69</ele>
        <time>2021-04-26T12:51:41.000Z</time>
      </trkpt>
      <trkpt lat="47.09837" lon="-1.4821">
        <ele>69</ele>
        <time>2021-04-26T12:51:43.000Z</time>
      </trkpt>
      <trkpt lat="47.09837" lon="-1.48192">
        <ele>69</ele>
        <time>2021-04-26T12:51:45.000Z</time>
      </trkpt>
      <trkpt lat="47.09838" lon="-1.48174">
        <ele>69</ele>
        <time>2021-04-26T12:51:47.000Z</time>
      </trkpt>
      <trkpt lat="47.09839" lon="-1.48157">
        <ele>70</ele>
        <time>2021-04-26T12:51:49.000Z</time>
      </trkpt>
      <trkpt lat="47.0984" lon="-1.4814">
        <ele>69</ele>
        <time>2021-04-26T12:51:51.000Z</time>
      </trkpt>
      <trkpt lat="47.0984" lon="-1.48123">
        <ele>70</ele>
        <time>2021-04-26T12:51:53.000Z</time>
      </trkpt>
      <trkpt lat="47.0984" lon="-1.48106">
        <ele>70</ele>
        <time>2021-04-26T12:51:55.000Z</time>
      </trkpt>
      <trkpt lat="47.0984" lon="-1.4809">
        <ele>70</ele>
        <time>2021-04-26T12:51:57.000Z</time>
      </trkpt>
      <trkpt lat="47.09839" lon="-1.48072">
        <ele>70</ele>
        <time>2021-04-26T12:51:59.000Z</time>
      </trkpt>
      <trkpt lat="47.09837" lon="-1.48055">
        <ele>70</ele>
        <time>2021-04-26T12:52:01.000Z</time>
      </trkpt>
      <trkpt lat="47.09836" lon="-1.48038">
        <ele>70</ele>
        <time>2021-04-26T12:52:03.000Z</time>
      </trkpt>
      <trkpt lat="47.09834" lon="-1.48021">
        <ele>70</ele>
        <time>2021-04-26T12:52:05.000Z</time>
      </trkpt>
      <trkpt lat="47.09833" lon="-1.48004">
        <ele>70</ele>
        <time>2021-04-26T12:52:07.000Z</time>
      </trkpt>
      <trkpt lat="47.09832" lon="-1.47988">
        <ele>71</ele>
        <time>2021-04-26T12:52:09.000Z</time>
      </trkpt>
      <trkpt lat="47.09831" lon="-1.47971">
        <ele>70</ele>
        <time>2021-04-26T12:52:11.000Z</time>
      </trkpt>
      <trkpt lat="47.0983" lon="-1.47954">
        <ele>70</ele>
        <time>2021-04-26T12:52:13.000Z</time>
      </trkpt>
      <trkpt lat="47.09829" lon="-1.47936">
        <ele>70</ele>
        <time>2021-04-26T12:52:15.000Z</time>
      </trkpt>
      <trkpt lat="47.09827" lon="-1.4792">
        <ele>70</ele>
        <time>2021-04-26T12:52:17.000Z</time>
      </trkpt>
      <trkpt lat="47.09826" lon="-1.47903">
        <ele>70</ele>
        <time>2021-04-26T12:52:19.000Z</time>
      </trkpt>
      <trkpt lat="47.09825" lon="-1.47887">
        <ele>69</ele>
        <time>2021-04-26T12:52:21.000Z</time>
      </trkpt>
      <trkpt lat="47.09824" lon="-1.4787">
        <ele>70</ele>
        <time>2021-04-26T12:52:23.000Z</time>
      </trkpt>
      <trkpt lat="47.09823" lon="-1.47853">
        <ele>70</ele>
        <time>2021-04-26T12:52:25.000Z</time>
      </trkpt>
      <trkpt lat="47.09822" lon="-1.47836">
        <ele>70</ele>
        <time>2021-04-26T12:52:27.000Z</time>
      </trkpt>
      <trkpt lat="47.0982" lon="-1.47818">
        <ele>70</ele>
        <time>2021-04-26T12:52:29.000Z</time>
      </trkpt>
      <trkpt lat="47.09819" lon="-1.47802">
        <ele>71</ele>
        <time>2021-04-26T12:52:31.000Z</time>
      </trkpt>
      <trkpt lat="47.09817" lon="-1.47785">
        <ele>71</ele>
        <time>2021-04-26T12:52:33.000Z</time>
      </trkpt>
      <trkpt lat="47.09816" lon="-1.47769">
        <ele>71</ele>
        <time>2021-04-26T12:52:35.000Z</time>
      </trkpt>
      <trkpt lat="47.09815" lon="-1.47752">
        <ele>71</ele>
        <time>2021-04-26T12:52:37.000Z</time>
      </trkpt>
      <trkpt lat="47.09814" lon="-1.47735">
        <ele>71</ele>
        <time>2021-04-26T12:52:39.000Z</time>
      </trkpt>
      <trkpt lat="47.09814" lon="-1.4772">
        <ele>71</ele>
        <time>2021-04-26T12:52:41.000Z</time>
      </trkpt>
      <trkpt lat="47.09814" lon="-1.47706">
        <ele>71</ele>
        <time>2021-04-26T12:52:43.000Z</time>
      </trkpt>
      <trkpt lat="47.09814" lon="-1.47692">
        <ele>71</ele>
        <time>2021-04-26T12:52:45.000Z</time>
      </trkpt>
      <trkpt lat="47.09815" lon="-1.47678">
        <ele>71</ele>
        <time>2021-04-26T12:52:47.000Z</time>
      </trkpt>
      <trkpt lat="47.09816" lon="-1.47664">
        <ele>71</ele>
        <time>2021-04-26T12:52:49.000Z</time>
      </trkpt>
      <trkpt lat="47.09818" lon="-1.47649">
        <ele>71</ele>
        <time>2021-04-26T12:52:51.000Z</time>
      </trkpt>
      <trkpt lat="47.0982" lon="-1.47635">
        <ele>71</ele>
        <time>2021-04-26T12:52:53.000Z</time>
      </trkpt>
      <trkpt lat="47.09823" lon="-1.47622">
        <ele>71</ele>
        <time>2021-04-26T12:52:55.000Z</time>
      </trkpt>
      <trkpt lat="47.09827" lon="-1.4761">
        <ele>72</ele>
        <time>2021-04-26T12:52:57.000Z</time>
      </trkpt>
      <trkpt lat="47.09831" lon="-1.47592">
        <ele>72</ele>
        <time>2021-04-26T12:53:00.000Z</time>
      </trkpt>
      <trkpt lat="47.09836" lon="-1.47576">
        <ele>73</ele>
        <time>2021-04-26T12:53:03.000Z</time>
      </trkpt>
      <trkpt lat="47.09841" lon="-1.4756">
        <ele>73</ele>
        <time>2021-04-26T12:53:06.000Z</time>
      </trkpt>
      <trkpt lat="47.09848" lon="-1.47545">
        <ele>74</ele>
        <time>2021-04-26T12:53:09.000Z</time>
      </trkpt>
      <trkpt lat="47.09854" lon="-1.47529">
        <ele>75</ele>
        <time>2021-04-26T12:53:12.000Z</time>
      </trkpt>
      <trkpt lat="47.09861" lon="-1.47516">
        <ele>76</ele>
        <time>2021-04-26T12:53:15.000Z</time>
      </trkpt>
      <trkpt lat="47.09868" lon="-1.47501">
        <ele>76</ele>
        <time>2021-04-26T12:53:18.000Z</time>
      </trkpt>
      <trkpt lat="47.09875" lon="-1.47487">
        <ele>76</ele>
        <time>2021-04-26T12:53:21.000Z</time>
      </trkpt>
      <trkpt lat="47.09883" lon="-1.47473">
        <ele>77</ele>
        <time>2021-04-26T12:53:24.000Z</time>
      </trkpt>
      <trkpt lat="47.09889" lon="-1.47461">
        <ele>77</ele>
        <time>2021-04-26T12:53:27.000Z</time>
      </trkpt>
      <trkpt lat="47.09897" lon="-1.47448">
        <ele>77</ele>
        <time>2021-04-26T12:53:30.000Z</time>
      </trkpt>
      <trkpt lat="47.09904" lon="-1.47434">
        <ele>78</ele>
        <time>2021-04-26T12:53:33.000Z</time>
      </trkpt>
      <trkpt lat="47.09911" lon="-1.4742">
        <ele>78</ele>
        <time>2021-04-26T12:53:36.000Z</time>
      </trkpt>
      <trkpt lat="47.09919" lon="-1.47405">
        <ele>79</ele>
        <time>2021-04-26T12:53:39.000Z</time>
      </trkpt>
      <trkpt lat="47.09927" lon="-1.47392">
        <ele>79</ele>
        <time>2021-04-26T12:53:42.000Z</time>
      </trkpt>
      <trkpt lat="47.09934" lon="-1.47378">
        <ele>80</ele>
        <time>2021-04-26T12:53:45.000Z</time>
      </trkpt>
      <trkpt lat="47.09942" lon="-1.47364">
        <ele>80</ele>
        <time>2021-04-26T12:53:48.000Z</time>
      </trkpt>
      <trkpt lat="47.09949" lon="-1.4735">
        <ele>80</ele>
        <time>2021-04-26T12:53:51.000Z</time>
      </trkpt>
      <trkpt lat="47.09957" lon="-1.47336">
        <ele>81</ele>
        <time>2021-04-26T12:53:54.000Z</time>
      </trkpt>
      <trkpt lat="47.09964" lon="-1.47323">
        <ele>81</ele>
        <time>2021-04-26T12:53:57.000Z</time>
      </trkpt>
      <trkpt lat="47.09971" lon="-1.47309">
        <ele>82</ele>
        <time>2021-04-26T12:54:00.000Z</time>
      </trkpt>
      <trkpt lat="47.09979" lon="-1.47296">
        <ele>82</ele>
        <time>2021-04-26T12:54:03.000Z</time>
      </trkpt>
      <trkpt lat="47.09986" lon="-1.47282">
        <ele>82</ele>
        <time>2021-04-26T12:54:06.000Z</time>
      </trkpt>
      <trkpt lat="47.09994" lon="-1.47268">
        <ele>82</ele>
        <time>2021-04-26T12:54:09.000Z</time>
      </trkpt>
      <trkpt lat="47.10001" lon="-1.47254">
        <ele>83</ele>
        <time>2021-04-26T12:54:12.000Z</time>
      </trkpt>
      <trkpt lat="47.10007" lon="-1.47243">
        <ele>82</ele>
        <time>2021-04-26T12:54:14.000Z</time>
      </trkpt>
      <trkpt lat="47.10013" lon="-1.47232">
        <ele>82</ele>
        <time>2021-04-26T12:54:16.000Z</time>
      </trkpt>
      <trkpt lat="47.10019" lon="-1.47221">
        <ele>82</ele>
        <time>2021-04-26T12:54:18.000Z</time>
      </trkpt>
      <trkpt lat="47.10025" lon="-1.4721">
        <ele>82</ele>
        <time>2021-04-26T12:54:20.000Z</time>
      </trkpt>
      <trkpt lat="47.10031" lon="-1.47197">
        <ele>82</ele>
        <time>2021-04-26T12:54:22.000Z</time>
      </trkpt>
      <trkpt lat="47.10037" lon="-1.47185">
        <ele>81</ele>
        <time>2021-04-26T12:54:24.000Z</time>
      </trkpt>
      <trkpt lat="47.10044" lon="-1.47173">
        <ele>81</ele>
        <time>2021-04-26T12:54:26.000Z</time>
      </trkpt>
      <trkpt lat="47.10051" lon="-1.4716">
        <ele>81</ele>
        <time>2021-04-26T12:54:28.000Z</time>
      </trkpt>
      <trkpt lat="47.10057" lon="-1.47146">
        <ele>80</ele>
        <time>2021-04-26T12:54:30.000Z</time>
      </trkpt>
      <trkpt lat="47.10063" lon="-1.47132">
        <ele>80</ele>
        <time>2021-04-26T12:54:32.000Z</time>
      </trkpt>
      <trkpt lat="47.10069" lon="-1.47117">
        <ele>79</ele>
        <time>2021-04-26T12:54:34.000Z</time>
      </trkpt>
      <trkpt lat="47.10074" lon="-1.47102">
        <ele>79</ele>
        <time>2021-04-26T12:54:36.000Z</time>
      </trkpt>
      <trkpt lat="47.10079" lon="-1.47086">
        <ele>78</ele>
        <time>2021-04-26T12:54:38.000Z</time>
      </trkpt>
      <trkpt lat="47.10084" lon="-1.47071">
        <ele>78</ele>
        <time>2021-04-26T12:54:40.000Z</time>
      </trkpt>
      <trkpt lat="47.10088" lon="-1.47055">
        <ele>78</ele>
        <time>2021-04-26T12:54:42.000Z</time>
      </trkpt>
      <trkpt lat="47.10092" lon="-1.4704">
        <ele>78</ele>
        <time>2021-04-26T12:54:44.000Z</time>
      </trkpt>
      <trkpt lat="47.10096" lon="-1.47024">
        <ele>78</ele>
        <time>2021-04-26T12:54:46.000Z</time>
      </trkpt>
      <trkpt lat="47.10101" lon="-1.47009">
        <ele>78</ele>
        <time>2021-04-26T12:54:48.000Z</time>
      </trkpt>
      <trkpt lat="47.10105" lon="-1.46994">
        <ele>79</ele>
        <time>2021-04-26T12:54:50.000Z</time>
      </trkpt>
      <trkpt lat="47.10109" lon="-1.46981">
        <ele>79</ele>
        <time>2021-04-26T12:54:52.000Z</time>
      </trkpt>
      <trkpt lat="47.10112" lon="-1.46967">
        <ele>79</ele>
        <time>2021-04-26T12:54:54.000Z</time>
      </trkpt>
      <trkpt lat="47.10117" lon="-1.46949">
        <ele>80</ele>
        <time>2021-04-26T12:54:57.000Z</time>
      </trkpt>
      <trkpt lat="47.10121" lon="-1.4693">
        <ele>80</ele>
        <time>2021-04-26T12:55:00.000Z</time>
      </trkpt>
      <trkpt lat="47.10124" lon="-1.46918">
        <ele>81</ele>
        <time>2021-04-26T12:55:02.000Z</time>
      </trkpt>
      <trkpt lat="47.10129" lon="-1.469">
        <ele>81</ele>
        <time>2021-04-26T12:55:05.000Z</time>
      </trkpt>
      <trkpt lat="47.10133" lon="-1.46887">
        <ele>81</ele>
        <time>2021-04-26T12:55:07.000Z</time>
      </trkpt>
      <trkpt lat="47.10137" lon="-1.46869">
        <ele>81</ele>
        <time>2021-04-26T12:55:10.000Z</time>
      </trkpt>
      <trkpt lat="47.10142" lon="-1.46851">
        <ele>82</ele>
        <time>2021-04-26T12:55:13.000Z</time>
      </trkpt>
      <trkpt lat="47.10145" lon="-1.46838">
        <ele>82</ele>
        <time>2021-04-26T12:55:15.000Z</time>
      </trkpt>
      <trkpt lat="47.10148" lon="-1.46826">
        <ele>83</ele>
        <time>2021-04-26T12:55:17.000Z</time>
      </trkpt>
      <trkpt lat="47.10152" lon="-1.46808">
        <ele>83</ele>
        <time>2021-04-26T12:55:20.000Z</time>
      </trkpt>
      <trkpt lat="47.10156" lon="-1.4679">
        <ele>84</ele>
        <time>2021-04-26T12:55:23.000Z</time>
      </trkpt>
      <trkpt lat="47.1016" lon="-1.46772">
        <ele>84</ele>
        <time>2021-04-26T12:55:26.000Z</time>
      </trkpt>
      <trkpt lat="47.10163" lon="-1.46753">
        <ele>84</ele>
        <time>2021-04-26T12:55:29.000Z</time>
      </trkpt>
      <trkpt lat="47.10165" lon="-1.46734">
        <ele>85</ele>
        <time>2021-04-26T12:55:32.000Z</time>
      </trkpt>
      <trkpt lat="47.10167" lon="-1.46721">
        <ele>85</ele>
        <time>2021-04-26T12:55:34.000Z</time>
      </trkpt>
      <trkpt lat="47.1017" lon="-1.46702">
        <ele>86</ele>
        <time>2021-04-26T12:55:37.000Z</time>
      </trkpt>
      <trkpt lat="47.10172" lon="-1.46684">
        <ele>86</ele>
        <time>2021-04-26T12:55:40.000Z</time>
      </trkpt>
      <trkpt lat="47.10175" lon="-1.46665">
        <ele>87</ele>
        <time>2021-04-26T12:55:43.000Z</time>
      </trkpt>
      <trkpt lat="47.10177" lon="-1.46647">
        <ele>87</ele>
        <time>2021-04-26T12:55:46.000Z</time>
      </trkpt>
      <trkpt lat="47.1018" lon="-1.46629">
        <ele>89</ele>
        <time>2021-04-26T12:55:49.000Z</time>
      </trkpt>
      <trkpt lat="47.10183" lon="-1.4661">
        <ele>90</ele>
        <time>2021-04-26T12:55:52.000Z</time>
      </trkpt>
      <trkpt lat="47.10185" lon="-1.46594">
        <ele>90</ele>
        <time>2021-04-26T12:55:55.000Z</time>
      </trkpt>
      <trkpt lat="47.10187" lon="-1.46576">
        <ele>91</ele>
        <time>2021-04-26T12:55:58.000Z</time>
      </trkpt>
      <trkpt lat="47.1019" lon="-1.46558">
        <ele>91</ele>
        <time>2021-04-26T12:56:01.000Z</time>
      </trkpt>
      <trkpt lat="47.10191" lon="-1.46538">
        <ele>91</ele>
        <time>2021-04-26T12:56:04.000Z</time>
      </trkpt>
      <trkpt lat="47.10192" lon="-1.46525">
        <ele>91</ele>
        <time>2021-04-26T12:56:06.000Z</time>
      </trkpt>
      <trkpt lat="47.10193" lon="-1.46511">
        <ele>91</ele>
        <time>2021-04-26T12:56:08.000Z</time>
      </trkpt>
      <trkpt lat="47.10193" lon="-1.46497">
        <ele>91</ele>
        <time>2021-04-26T12:56:10.000Z</time>
      </trkpt>
      <trkpt lat="47.10194" lon="-1.46483">
        <ele>91</ele>
        <time>2021-04-26T12:56:12.000Z</time>
      </trkpt>
      <trkpt lat="47.10195" lon="-1.4647">
        <ele>91</ele>
        <time>2021-04-26T12:56:14.000Z</time>
      </trkpt>
      <trkpt lat="47.10196" lon="-1.46457">
        <ele>91</ele>
        <time>2021-04-26T12:56:16.000Z</time>
      </trkpt>
      <trkpt lat="47.10197" lon="-1.46442">
        <ele>92</ele>
        <time>2021-04-26T12:56:18.000Z</time>
      </trkpt>
      <trkpt lat="47.10197" lon="-1.46429">
        <ele>92</ele>
        <time>2021-04-26T12:56:20.000Z</time>
      </trkpt>
      <trkpt lat="47.10198" lon="-1.46415">
        <ele>93</ele>
        <time>2021-04-26T12:56:22.000Z</time>
      </trkpt>
      <trkpt lat="47.10199" lon="-1.46401">
        <ele>93</ele>
        <time>2021-04-26T12:56:24.000Z</time>
      </trkpt>
      <trkpt lat="47.10201" lon="-1.46388">
        <ele>93</ele>
        <time>2021-04-26T12:56:26.000Z</time>
      </trkpt>
      <trkpt lat="47.10203" lon="-1.46375">
        <ele>94</ele>
        <time>2021-04-26T12:56:28.000Z</time>
      </trkpt>
      <trkpt lat="47.10207" lon="-1.46361">
        <ele>94</ele>
        <time>2021-04-26T12:56:30.000Z</time>
      </trkpt>
      <trkpt lat="47.10211" lon="-1.46349">
        <ele>94</ele>
        <time>2021-04-26T12:56:32.000Z</time>
      </trkpt>
      <trkpt lat="47.10217" lon="-1.46338">
        <ele>95</ele>
        <time>2021-04-26T12:56:34.000Z</time>
      </trkpt>
      <trkpt lat="47.10223" lon="-1.46327">
        <ele>95</ele>
        <time>2021-04-26T12:56:36.000Z</time>
      </trkpt>
      <trkpt lat="47.1023" lon="-1.46317">
        <ele>95</ele>
        <time>2021-04-26T12:56:38.000Z</time>
      </trkpt>
      <trkpt lat="47.10237" lon="-1.46306">
        <ele>95</ele>
        <time>2021-04-26T12:56:40.000Z</time>
      </trkpt>
      <trkpt lat="47.10245" lon="-1.46295">
        <ele>96</ele>
        <time>2021-04-26T12:56:42.000Z</time>
      </trkpt>
      <trkpt lat="47.10251" lon="-1.46284">
        <ele>96</ele>
        <time>2021-04-26T12:56:44.000Z</time>
      </trkpt>
      <trkpt lat="47.10258" lon="-1.46274">
        <ele>96</ele>
        <time>2021-04-26T12:56:46.000Z</time>
      </trkpt>
      <trkpt lat="47.10265" lon="-1.46263">
        <ele>97</ele>
        <time>2021-04-26T12:56:48.000Z</time>
      </trkpt>
      <trkpt lat="47.10272" lon="-1.46252">
        <ele>97</ele>
        <time>2021-04-26T12:56:50.000Z</time>
      </trkpt>
      <trkpt lat="47.10278" lon="-1.46243">
        <ele>97</ele>
        <time>2021-04-26T12:56:52.000Z</time>
      </trkpt>
      <trkpt lat="47.10284" lon="-1.46232">
        <ele>97</ele>
        <time>2021-04-26T12:56:54.000Z</time>
      </trkpt>
      <trkpt lat="47.10289" lon="-1.46216">
        <ele>97</ele>
        <time>2021-04-26T12:56:57.000Z</time>
      </trkpt>
      <trkpt lat="47.10281" lon="-1.462">
        <ele>98</ele>
        <time>2021-04-26T12:57:00.000Z</time>
      </trkpt>
      <trkpt lat="47.10275" lon="-1.46189">
        <ele>98</ele>
        <time>2021-04-26T12:57:02.000Z</time>
      </trkpt>
      <trkpt lat="47.10268" lon="-1.46176">
        <ele>99</ele>
        <time>2021-04-26T12:57:04.000Z</time>
      </trkpt>
      <trkpt lat="47.10261" lon="-1.46164">
        <ele>99</ele>
        <time>2021-04-26T12:57:06.000Z</time>
      </trkpt>
      <trkpt lat="47.10254" lon="-1.46151">
        <ele>99</ele>
        <time>2021-04-26T12:57:08.000Z</time>
      </trkpt>
      <trkpt lat="47.10246" lon="-1.46137">
        <ele>100</ele>
        <time>2021-04-26T12:57:10.000Z</time>
      </trkpt>
      <trkpt lat="47.10238" lon="-1.46123">
        <ele>100</ele>
        <time>2021-04-26T12:57:12.000Z</time>
      </trkpt>
      <trkpt lat="47.1023" lon="-1.4611">
        <ele>100</ele>
        <time>2021-04-26T12:57:14.000Z</time>
      </trkpt>
      <trkpt lat="47.10223" lon="-1.46096">
        <ele>100</ele>
        <time>2021-04-26T12:57:16.000Z</time>
      </trkpt>
      <trkpt lat="47.10215" lon="-1.46083">
        <ele>100</ele>
        <time>2021-04-26T12:57:18.000Z</time>
      </trkpt>
      <trkpt lat="47.10208" lon="-1.4607">
        <ele>100</ele>
        <time>2021-04-26T12:57:20.000Z</time>
      </trkpt>
      <trkpt lat="47.10201" lon="-1.46057">
        <ele>101</ele>
        <time>2021-04-26T12:57:22.000Z</time>
      </trkpt>
      <trkpt lat="47.10194" lon="-1.46044">
        <ele>101</ele>
        <time>2021-04-26T12:57:24.000Z</time>
      </trkpt>
      <trkpt lat="47.10186" lon="-1.46029">
        <ele>101</ele>
        <time>2021-04-26T12:57:26.000Z</time>
      </trkpt>
      <trkpt lat="47.10177" lon="-1.46013">
        <ele>101</ele>
        <time>2021-04-26T12:57:28.000Z</time>
      </trkpt>
      <trkpt lat="47.10168" lon="-1.45998">
        <ele>101</ele>
        <time>2021-04-26T12:57:30.000Z</time>
      </trkpt>
      <trkpt lat="47.1016" lon="-1.45982">
        <ele>101</ele>
        <time>2021-04-26T12:57:32.000Z</time>
      </trkpt>
      <trkpt lat="47.10152" lon="-1.45967">
        <ele>101</ele>
        <time>2021-04-26T12:57:34.000Z</time>
      </trkpt>
      <trkpt lat="47.10144" lon="-1.45953">
        <ele>101</ele>
        <time>2021-04-26T12:57:36.000Z</time>
      </trkpt>
      <trkpt lat="47.10136" lon="-1.4594">
        <ele>101</ele>
        <time>2021-04-26T12:57:38.000Z</time>
      </trkpt>
      <trkpt lat="47.10128" lon="-1.45926">
        <ele>102</ele>
        <time>2021-04-26T12:57:40.000Z</time>
      </trkpt>
      <trkpt lat="47.1012" lon="-1.45912">
        <ele>102</ele>
        <time>2021-04-26T12:57:42.000Z</time>
      </trkpt>
      <trkpt lat="47.10113" lon="-1.45898">
        <ele>101</ele>
        <time>2021-04-26T12:57:44.000Z</time>
      </trkpt>
      <trkpt lat="47.10105" lon="-1.45884">
        <ele>101</ele>
        <time>2021-04-26T12:57:46.000Z</time>
      </trkpt>
      <trkpt lat="47.10097" lon="-1.4587">
        <ele>101</ele>
        <time>2021-04-26T12:57:48.000Z</time>
      </trkpt>
      <trkpt lat="47.10089" lon="-1.45856">
        <ele>101</ele>
        <time>2021-04-26T12:57:50.000Z</time>
      </trkpt>
      <trkpt lat="47.10082" lon="-1.45842">
        <ele>101</ele>
        <time>2021-04-26T12:57:52.000Z</time>
      </trkpt>
      <trkpt lat="47.10075" lon="-1.45828">
        <ele>101</ele>
        <time>2021-04-26T12:57:54.000Z</time>
      </trkpt>
      <trkpt lat="47.10068" lon="-1.45813">
        <ele>101</ele>
        <time>2021-04-26T12:57:56.000Z</time>
      </trkpt>
      <trkpt lat="47.1006" lon="-1.45798">
        <ele>100</ele>
        <time>2021-04-26T12:57:58.000Z</time>
      </trkpt>
      <trkpt lat="47.10051" lon="-1.45782">
        <ele>100</ele>
        <time>2021-04-26T12:58:00.000Z</time>
      </trkpt>
      <trkpt lat="47.10043" lon="-1.45767">
        <ele>100</ele>
        <time>2021-04-26T12:58:02.000Z</time>
      </trkpt>
      <trkpt lat="47.10035" lon="-1.45751">
        <ele>100</ele>
        <time>2021-04-26T12:58:04.000Z</time>
      </trkpt>
      <trkpt lat="47.10027" lon="-1.45735">
        <ele>100</ele>
        <time>2021-04-26T12:58:06.000Z</time>
      </trkpt>
      <trkpt lat="47.10019" lon="-1.45719">
        <ele>100</ele>
        <time>2021-04-26T12:58:08.000Z</time>
      </trkpt>
      <trkpt lat="47.1001" lon="-1.45702">
        <ele>100</ele>
        <time>2021-04-26T12:58:10.000Z</time>
      </trkpt>
      <trkpt lat="47.10001" lon="-1.45686">
        <ele>100</ele>
        <time>2021-04-26T12:58:12.000Z</time>
      </trkpt>
      <trkpt lat="47.09993" lon="-1.45669">
        <ele>100</ele>
        <time>2021-04-26T12:58:14.000Z</time>
      </trkpt>
      <trkpt lat="47.09985" lon="-1.45652">
        <ele>100</ele>
        <time>2021-04-26T12:58:16.000Z</time>
      </trkpt>
      <trkpt lat="47.09976" lon="-1.45636">
        <ele>100</ele>
        <time>2021-04-26T12:58:18.000Z</time>
      </trkpt>
      <trkpt lat="47.09968" lon="-1.4562">
        <ele>100</ele>
        <time>2021-04-26T12:58:20.000Z</time>
      </trkpt>
      <trkpt lat="47.0996" lon="-1.45604">
        <ele>100</ele>
        <time>2021-04-26T12:58:22.000Z</time>
      </trkpt>
      <trkpt lat="47.09951" lon="-1.45588">
        <ele>100</ele>
        <time>2021-04-26T12:58:24.000Z</time>
      </trkpt>
      <trkpt lat="47.09943" lon="-1.45571">
        <ele>100</ele>
        <time>2021-04-26T12:58:26.000Z</time>
      </trkpt>
      <trkpt lat="47.09935" lon="-1.45556">
        <ele>100</ele>
        <time>2021-04-26T12:58:28.000Z</time>
      </trkpt>
      <trkpt lat="47.09927" lon="-1.4554">
        <ele>100</ele>
        <time>2021-04-26T12:58:30.000Z</time>
      </trkpt>
      <trkpt lat="47.0992" lon="-1.45524">
        <ele>100</ele>
        <time>2021-04-26T12:58:32.000Z</time>
      </trkpt>
      <trkpt lat="47.09913" lon="-1.45507">
        <ele>99</ele>
        <time>2021-04-26T12:58:34.000Z</time>
      </trkpt>
      <trkpt lat="47.09906" lon="-1.45491">
        <ele>99</ele>
        <time>2021-04-26T12:58:36.000Z</time>
      </trkpt>
      <trkpt lat="47.09898" lon="-1.45474">
        <ele>98</ele>
        <time>2021-04-26T12:58:38.000Z</time>
      </trkpt>
      <trkpt lat="47.09891" lon="-1.45458">
        <ele>98</ele>
        <time>2021-04-26T12:58:40.000Z</time>
      </trkpt>
      <trkpt lat="47.09884" lon="-1.45442">
        <ele>98</ele>
        <time>2021-04-26T12:58:42.000Z</time>
      </trkpt>
      <trkpt lat="47.09877" lon="-1.45426">
        <ele>98</ele>
        <time>2021-04-26T12:58:44.000Z</time>
      </trkpt>
      <trkpt lat="47.0987" lon="-1.45409">
        <ele>98</ele>
        <time>2021-04-26T12:58:46.000Z</time>
      </trkpt>
      <trkpt lat="47.09862" lon="-1.45393">
        <ele>98</ele>
        <time>2021-04-26T12:58:48.000Z</time>
      </trkpt>
      <trkpt lat="47.09855" lon="-1.45377">
        <ele>98</ele>
        <time>2021-04-26T12:58:50.000Z</time>
      </trkpt>
      <trkpt lat="47.09848" lon="-1.4536">
        <ele>98</ele>
        <time>2021-04-26T12:58:52.000Z</time>
      </trkpt>
      <trkpt lat="47.09841" lon="-1.45343">
        <ele>97</ele>
        <time>2021-04-26T12:58:54.000Z</time>
      </trkpt>
      <trkpt lat="47.09833" lon="-1.45326">
        <ele>97</ele>
        <time>2021-04-26T12:58:56.000Z</time>
      </trkpt>
      <trkpt lat="47.09826" lon="-1.45309">
        <ele>97</ele>
        <time>2021-04-26T12:58:58.000Z</time>
      </trkpt>
      <trkpt lat="47.09819" lon="-1.45293">
        <ele>97</ele>
        <time>2021-04-26T12:59:00.000Z</time>
      </trkpt>
      <trkpt lat="47.09812" lon="-1.45276">
        <ele>96</ele>
        <time>2021-04-26T12:59:02.000Z</time>
      </trkpt>
      <trkpt lat="47.09804" lon="-1.4526">
        <ele>95</ele>
        <time>2021-04-26T12:59:04.000Z</time>
      </trkpt>
      <trkpt lat="47.09797" lon="-1.45244">
        <ele>95</ele>
        <time>2021-04-26T12:59:06.000Z</time>
      </trkpt>
      <trkpt lat="47.0979" lon="-1.45227">
        <ele>95</ele>
        <time>2021-04-26T12:59:08.000Z</time>
      </trkpt>
      <trkpt lat="47.09782" lon="-1.45211">
        <ele>95</ele>
        <time>2021-04-26T12:59:10.000Z</time>
      </trkpt>
      <trkpt lat="47.09775" lon="-1.45195">
        <ele>95</ele>
        <time>2021-04-26T12:59:12.000Z</time>
      </trkpt>
      <trkpt lat="47.09768" lon="-1.4518">
        <ele>95</ele>
        <time>2021-04-26T12:59:14.000Z</time>
      </trkpt>
      <trkpt lat="47.09761" lon="-1.45164">
        <ele>95</ele>
        <time>2021-04-26T12:59:16.000Z</time>
      </trkpt>
      <trkpt lat="47.09754" lon="-1.45149">
        <ele>95</ele>
        <time>2021-04-26T12:59:18.000Z</time>
      </trkpt>
      <trkpt lat="47.09747" lon="-1.45133">
        <ele>95</ele>
        <time>2021-04-26T12:59:20.000Z</time>
      </trkpt>
      <trkpt lat="47.0974" lon="-1.45117">
        <ele>94</ele>
        <time>2021-04-26T12:59:22.000Z</time>
      </trkpt>
      <trkpt lat="47.09732" lon="-1.45101">
        <ele>94</ele>
        <time>2021-04-26T12:59:24.000Z</time>
      </trkpt>
      <trkpt lat="47.09725" lon="-1.45086">
        <ele>94</ele>
        <time>2021-04-26T12:59:26.000Z</time>
      </trkpt>
      <trkpt lat="47.09717" lon="-1.4507">
        <ele>94</ele>
        <time>2021-04-26T12:59:28.000Z</time>
      </trkpt>
      <trkpt lat="47.0971" lon="-1.45055">
        <ele>94</ele>
        <time>2021-04-26T12:59:30.000Z</time>
      </trkpt>
      <trkpt lat="47.09703" lon="-1.4504">
        <ele>94</ele>
        <time>2021-04-26T12:59:32.000Z</time>
      </trkpt>
      <trkpt lat="47.09697" lon="-1.45024">
        <ele>94</ele>
        <time>2021-04-26T12:59:34.000Z</time>
      </trkpt>
      <trkpt lat="47.09689" lon="-1.45009">
        <ele>94</ele>
        <time>2021-04-26T12:59:36.000Z</time>
      </trkpt>
      <trkpt lat="47.09682" lon="-1.44995">
        <ele>95</ele>
        <time>2021-04-26T12:59:38.000Z</time>
      </trkpt>
      <trkpt lat="47.09673" lon="-1.44983">
        <ele>95</ele>
        <time>2021-04-26T12:59:40.000Z</time>
      </trkpt>
      <trkpt lat="47.09664" lon="-1.44971">
        <ele>95</ele>
        <time>2021-04-26T12:59:42.000Z</time>
      </trkpt>
      <trkpt lat="47.09652" lon="-1.44964">
        <ele>95</ele>
        <time>2021-04-26T12:59:44.000Z</time>
      </trkpt>
      <trkpt lat="47.0964" lon="-1.44958">
        <ele>95</ele>
        <time>2021-04-26T12:59:46.000Z</time>
      </trkpt>
      <trkpt lat="47.09632" lon="-1.44945">
        <ele>95</ele>
        <time>2021-04-26T12:59:48.000Z</time>
      </trkpt>
      <trkpt lat="47.09627" lon="-1.44927">
        <ele>96</ele>
        <time>2021-04-26T12:59:50.000Z</time>
      </trkpt>
      <trkpt lat="47.09629" lon="-1.44909">
        <ele>96</ele>
        <time>2021-04-26T12:59:52.000Z</time>
      </trkpt>
      <trkpt lat="47.09635" lon="-1.44892">
        <ele>95</ele>
        <time>2021-04-26T12:59:54.000Z</time>
      </trkpt>
      <trkpt lat="47.09647" lon="-1.44881">
        <ele>95</ele>
        <time>2021-04-26T12:59:56.000Z</time>
      </trkpt>
      <trkpt lat="47.0966" lon="-1.44876">
        <ele>95</ele>
        <time>2021-04-26T12:59:58.000Z</time>
      </trkpt>
      <trkpt lat="47.0967" lon="-1.44864">
        <ele>94</ele>
        <time>2021-04-26T13:00:00.000Z</time>
      </trkpt>
      <trkpt lat="47.09677" lon="-1.44848">
        <ele>94</ele>
        <time>2021-04-26T13:00:02.000Z</time>
      </trkpt>
      <trkpt lat="47.09684" lon="-1.44831">
        <ele>94</ele>
        <time>2021-04-26T13:00:04.000Z</time>
      </trkpt>
      <trkpt lat="47.09686" lon="-1.44813">
        <ele>94</ele>
        <time>2021-04-26T13:00:06.000Z</time>
      </trkpt>
      <trkpt lat="47.09685" lon="-1.44796">
        <ele>94</ele>
        <time>2021-04-26T13:00:08.000Z</time>
      </trkpt>
      <trkpt lat="47.09681" lon="-1.44782">
        <ele>94</ele>
        <time>2021-04-26T13:00:10.000Z</time>
      </trkpt>
      <trkpt lat="47.09675" lon="-1.44768">
        <ele>94</ele>
        <time>2021-04-26T13:00:12.000Z</time>
      </trkpt>
      <trkpt lat="47.09668" lon="-1.44755">
        <ele>94</ele>
        <time>2021-04-26T13:00:14.000Z</time>
      </trkpt>
      <trkpt lat="47.0966" lon="-1.44742">
        <ele>95</ele>
        <time>2021-04-26T13:00:16.000Z</time>
      </trkpt>
      <trkpt lat="47.09654" lon="-1.44728">
        <ele>95</ele>
        <time>2021-04-26T13:00:18.000Z</time>
      </trkpt>
      <trkpt lat="47.09649" lon="-1.44713">
        <ele>95</ele>
        <time>2021-04-26T13:00:20.000Z</time>
      </trkpt>
      <trkpt lat="47.09646" lon="-1.44697">
        <ele>96</ele>
        <time>2021-04-26T13:00:22.000Z</time>
      </trkpt>
      <trkpt lat="47.09645" lon="-1.4468">
        <ele>96</ele>
        <time>2021-04-26T13:00:24.000Z</time>
      </trkpt>
      <trkpt lat="47.09647" lon="-1.44664">
        <ele>96</ele>
        <time>2021-04-26T13:00:26.000Z</time>
      </trkpt>
      <trkpt lat="47.09651" lon="-1.44649">
        <ele>96</ele>
        <time>2021-04-26T13:00:28.000Z</time>
      </trkpt>
      <trkpt lat="47.09656" lon="-1.44635">
        <ele>96</ele>
        <time>2021-04-26T13:00:30.000Z</time>
      </trkpt>
      <trkpt lat="47.09662" lon="-1.44623">
        <ele>96</ele>
        <time>2021-04-26T13:00:32.000Z</time>
      </trkpt>
      <trkpt lat="47.0967" lon="-1.44613">
        <ele>96</ele>
        <time>2021-04-26T13:00:34.000Z</time>
      </trkpt>
      <trkpt lat="47.09679" lon="-1.44605">
        <ele>96</ele>
        <time>2021-04-26T13:00:36.000Z</time>
      </trkpt>
      <trkpt lat="47.09689" lon="-1.44598">
        <ele>95</ele>
        <time>2021-04-26T13:00:38.000Z</time>
      </trkpt>
      <trkpt lat="47.09699" lon="-1.4459">
        <ele>95</ele>
        <time>2021-04-26T13:00:40.000Z</time>
      </trkpt>
      <trkpt lat="47.09709" lon="-1.44584">
        <ele>95</ele>
        <time>2021-04-26T13:00:42.000Z</time>
      </trkpt>
      <trkpt lat="47.09719" lon="-1.44578">
        <ele>95</ele>
        <time>2021-04-26T13:00:44.000Z</time>
      </trkpt>
      <trkpt lat="47.0973" lon="-1.44572">
        <ele>94</ele>
        <time>2021-04-26T13:00:46.000Z</time>
      </trkpt>
      <trkpt lat="47.09741" lon="-1.44566">
        <ele>94</ele>
        <time>2021-04-26T13:00:48.000Z</time>
      </trkpt>
      <trkpt lat="47.09753" lon="-1.4456">
        <ele>94</ele>
        <time>2021-04-26T13:00:50.000Z</time>
      </trkpt>
      <trkpt lat="47.09765" lon="-1.44554">
        <ele>93</ele>
        <time>2021-04-26T13:00:52.000Z</time>
      </trkpt>
      <trkpt lat="47.09776" lon="-1.44549">
        <ele>93</ele>
        <time>2021-04-26T13:00:54.000Z</time>
      </trkpt>
      <trkpt lat="47.09787" lon="-1.44544">
        <ele>93</ele>
        <time>2021-04-26T13:00:56.000Z</time>
      </trkpt>
      <trkpt lat="47.09799" lon="-1.4454">
        <ele>93</ele>
        <time>2021-04-26T13:00:58.000Z</time>
      </trkpt>
      <trkpt lat="47.09811" lon="-1.44535">
        <ele>92</ele>
        <time>2021-04-26T13:01:00.000Z</time>
      </trkpt>
      <trkpt lat="47.09824" lon="-1.44531">
        <ele>91</ele>
        <time>2021-04-26T13:01:02.000Z</time>
      </trkpt>
      <trkpt lat="47.09837" lon="-1.44526">
        <ele>90</ele>
        <time>2021-04-26T13:01:04.000Z</time>
      </trkpt>
      <trkpt lat="47.09851" lon="-1.44521">
        <ele>89</ele>
        <time>2021-04-26T13:01:06.000Z</time>
      </trkpt>
      <trkpt lat="47.09864" lon="-1.44516">
        <ele>89</ele>
        <time>2021-04-26T13:01:08.000Z</time>
      </trkpt>
      <trkpt lat="47.09877" lon="-1.44511">
        <ele>88</ele>
        <time>2021-04-26T13:01:10.000Z</time>
      </trkpt>
      <trkpt lat="47.09891" lon="-1.44506">
        <ele>88</ele>
        <time>2021-04-26T13:01:12.000Z</time>
      </trkpt>
      <trkpt lat="47.09905" lon="-1.44501">
        <ele>87</ele>
        <time>2021-04-26T13:01:14.000Z</time>
      </trkpt>
      <trkpt lat="47.09918" lon="-1.44496">
        <ele>86</ele>
        <time>2021-04-26T13:01:16.000Z</time>
      </trkpt>
      <trkpt lat="47.09932" lon="-1.44491">
        <ele>85</ele>
        <time>2021-04-26T13:01:18.000Z</time>
      </trkpt>
      <trkpt lat="47.09946" lon="-1.44485">
        <ele>85</ele>
        <time>2021-04-26T13:01:20.000Z</time>
      </trkpt>
      <trkpt lat="47.09961" lon="-1.4448">
        <ele>84</ele>
        <time>2021-04-26T13:01:22.000Z</time>
      </trkpt>
      <trkpt lat="47.09976" lon="-1.44474">
        <ele>83</ele>
        <time>2021-04-26T13:01:24.000Z</time>
      </trkpt>
      <trkpt lat="47.09992" lon="-1.44468">
        <ele>82</ele>
        <time>2021-04-26T13:01:26.000Z</time>
      </trkpt>
      <trkpt lat="47.10008" lon="-1.44462">
        <ele>81</ele>
        <time>2021-04-26T13:01:28.000Z</time>
      </trkpt>
      <trkpt lat="47.10024" lon="-1.44456">
        <ele>81</ele>
        <time>2021-04-26T13:01:30.000Z</time>
      </trkpt>
      <trkpt lat="47.1004" lon="-1.4445">
        <ele>80</ele>
        <time>2021-04-26T13:01:32.000Z</time>
      </trkpt>
      <trkpt lat="47.10056" lon="-1.44444">
        <ele>79</ele>
        <time>2021-04-26T13:01:34.000Z</time>
      </trkpt>
      <trkpt lat="47.10072" lon="-1.44438">
        <ele>79</ele>
        <time>2021-04-26T13:01:36.000Z</time>
      </trkpt>
      <trkpt lat="47.10087" lon="-1.44433">
        <ele>79</ele>
        <time>2021-04-26T13:01:38.000Z</time>
      </trkpt>
      <trkpt lat="47.10102" lon="-1.44426">
        <ele>79</ele>
        <time>2021-04-26T13:01:40.000Z</time>
      </trkpt>
      <trkpt lat="47.10117" lon="-1.44419">
        <ele>78</ele>
        <time>2021-04-26T13:01:42.000Z</time>
      </trkpt>
      <trkpt lat="47.10131" lon="-1.44409">
        <ele>78</ele>
        <time>2021-04-26T13:01:44.000Z</time>
      </trkpt>
      <trkpt lat="47.10144" lon="-1.44396">
        <ele>78</ele>
        <time>2021-04-26T13:01:46.000Z</time>
      </trkpt>
      <trkpt lat="47.10157" lon="-1.44382">
        <ele>77</ele>
        <time>2021-04-26T13:01:48.000Z</time>
      </trkpt>
      <trkpt lat="47.10169" lon="-1.44368">
        <ele>77</ele>
        <time>2021-04-26T13:01:50.000Z</time>
      </trkpt>
      <trkpt lat="47.10181" lon="-1.44354">
        <ele>77</ele>
        <time>2021-04-26T13:01:52.000Z</time>
      </trkpt>
      <trkpt lat="47.10193" lon="-1.44341">
        <ele>77</ele>
        <time>2021-04-26T13:01:54.000Z</time>
      </trkpt>
      <trkpt lat="47.10204" lon="-1.44328">
        <ele>77</ele>
        <time>2021-04-26T13:01:56.000Z</time>
      </trkpt>
      <trkpt lat="47.10215" lon="-1.44314">
        <ele>77</ele>
        <time>2021-04-26T13:01:58.000Z</time>
      </trkpt>
      <trkpt lat="47.10226" lon="-1.44302">
        <ele>77</ele>
        <time>2021-04-26T13:02:00.000Z</time>
      </trkpt>
      <trkpt lat="47.10237" lon="-1.44289">
        <ele>77</ele>
        <time>2021-04-26T13:02:02.000Z</time>
      </trkpt>
      <trkpt lat="47.10247" lon="-1.44277">
        <ele>76</ele>
        <time>2021-04-26T13:02:04.000Z</time>
      </trkpt>
      <trkpt lat="47.10258" lon="-1.44266">
        <ele>76</ele>
        <time>2021-04-26T13:02:06.000Z</time>
      </trkpt>
      <trkpt lat="47.10268" lon="-1.44255">
        <ele>76</ele>
        <time>2021-04-26T13:02:08.000Z</time>
      </trkpt>
      <trkpt lat="47.10278" lon="-1.44245">
        <ele>75</ele>
        <time>2021-04-26T13:02:10.000Z</time>
      </trkpt>
      <trkpt lat="47.10289" lon="-1.44235">
        <ele>75</ele>
        <time>2021-04-26T13:02:12.000Z</time>
      </trkpt>
      <trkpt lat="47.10302" lon="-1.44227">
        <ele>75</ele>
        <time>2021-04-26T13:02:14.000Z</time>
      </trkpt>
      <trkpt lat="47.10315" lon="-1.4422">
        <ele>76</ele>
        <time>2021-04-26T13:02:16.000Z</time>
      </trkpt>
      <trkpt lat="47.10327" lon="-1.44214">
        <ele>76</ele>
        <time>2021-04-26T13:02:18.000Z</time>
      </trkpt>
      <trkpt lat="47.1034" lon="-1.44208">
        <ele>76</ele>
        <time>2021-04-26T13:02:20.000Z</time>
      </trkpt>
      <trkpt lat="47.10352" lon="-1.44202">
        <ele>76</ele>
        <time>2021-04-26T13:02:22.000Z</time>
      </trkpt>
      <trkpt lat="47.10365" lon="-1.44197">
        <ele>76</ele>
        <time>2021-04-26T13:02:24.000Z</time>
      </trkpt>
      <trkpt lat="47.10377" lon="-1.44191">
        <ele>76</ele>
        <time>2021-04-26T13:02:26.000Z</time>
      </trkpt>
      <trkpt lat="47.10389" lon="-1.44186">
        <ele>76</ele>
        <time>2021-04-26T13:02:28.000Z</time>
      </trkpt>
      <trkpt lat="47.104" lon="-1.4418">
        <ele>76</ele>
        <time>2021-04-26T13:02:30.000Z</time>
      </trkpt>
      <trkpt lat="47.10413" lon="-1.44175">
        <ele>75</ele>
        <time>2021-04-26T13:02:32.000Z</time>
      </trkpt>
      <trkpt lat="47.10425" lon="-1.44169">
        <ele>76</ele>
        <time>2021-04-26T13:02:34.000Z</time>
      </trkpt>
      <trkpt lat="47.10437" lon="-1.44163">
        <ele>76</ele>
        <time>2021-04-26T13:02:36.000Z</time>
      </trkpt>
      <trkpt lat="47.10449" lon="-1.44158">
        <ele>76</ele>
        <time>2021-04-26T13:02:38.000Z</time>
      </trkpt>
      <trkpt lat="47.1046" lon="-1.44152">
        <ele>76</ele>
        <time>2021-04-26T13:02:40.000Z</time>
      </trkpt>
      <trkpt lat="47.10471" lon="-1.44147">
        <ele>76</ele>
        <time>2021-04-26T13:02:42.000Z</time>
      </trkpt>
      <trkpt lat="47.10483" lon="-1.44141">
        <ele>76</ele>
        <time>2021-04-26T13:02:44.000Z</time>
      </trkpt>
      <trkpt lat="47.10494" lon="-1.44134">
        <ele>76</ele>
        <time>2021-04-26T13:02:46.000Z</time>
      </trkpt>
      <trkpt lat="47.10505" lon="-1.44126">
        <ele>76</ele>
        <time>2021-04-26T13:02:48.000Z</time>
      </trkpt>
      <trkpt lat="47.10516" lon="-1.44118">
        <ele>77</ele>
        <time>2021-04-26T13:02:50.000Z</time>
      </trkpt>
      <trkpt lat="47.10527" lon="-1.44109">
        <ele>77</ele>
        <time>2021-04-26T13:02:52.000Z</time>
      </trkpt>
      <trkpt lat="47.10538" lon="-1.441">
        <ele>77</ele>
        <time>2021-04-26T13:02:54.000Z</time>
      </trkpt>
      <trkpt lat="47.10548" lon="-1.44091">
        <ele>77</ele>
        <time>2021-04-26T13:02:56.000Z</time>
      </trkpt>
      <trkpt lat="47.10559" lon="-1.44083">
        <ele>77</ele>
        <time>2021-04-26T13:02:58.000Z</time>
      </trkpt>
      <trkpt lat="47.10569" lon="-1.44073">
        <ele>77</ele>
        <time>2021-04-26T13:03:00.000Z</time>
      </trkpt>
      <trkpt lat="47.10579" lon="-1.44062">
        <ele>77</ele>
        <time>2021-04-26T13:03:02.000Z</time>
      </trkpt>
      <trkpt lat="47.10589" lon="-1.44053">
        <ele>77</ele>
        <time>2021-04-26T13:03:04.000Z</time>
      </trkpt>
      <trkpt lat="47.10599" lon="-1.44045">
        <ele>77</ele>
        <time>2021-04-26T13:03:06.000Z</time>
      </trkpt>
      <trkpt lat="47.10609" lon="-1.44036">
        <ele>77</ele>
        <time>2021-04-26T13:03:08.000Z</time>
      </trkpt>
      <trkpt lat="47.10618" lon="-1.4403">
        <ele>77</ele>
        <time>2021-04-26T13:03:10.000Z</time>
      </trkpt>
      <trkpt lat="47.10628" lon="-1.44025">
        <ele>78</ele>
        <time>2021-04-26T13:03:12.000Z</time>
      </trkpt>
      <trkpt lat="47.10637" lon="-1.44019">
        <ele>78</ele>
        <time>2021-04-26T13:03:14.000Z</time>
      </trkpt>
      <trkpt lat="47.10647" lon="-1.44013">
        <ele>79</ele>
        <time>2021-04-26T13:03:16.000Z</time>
      </trkpt>
      <trkpt lat="47.10656" lon="-1.44007">
        <ele>80</ele>
        <time>2021-04-26T13:03:18.000Z</time>
      </trkpt>
      <trkpt lat="47.10666" lon="-1.44002">
        <ele>80</ele>
        <time>2021-04-26T13:03:20.000Z</time>
      </trkpt>
      <trkpt lat="47.10676" lon="-1.43997">
        <ele>81</ele>
        <time>2021-04-26T13:03:22.000Z</time>
      </trkpt>
      <trkpt lat="47.10685" lon="-1.43992">
        <ele>81</ele>
        <time>2021-04-26T13:03:24.000Z</time>
      </trkpt>
      <trkpt lat="47.10693" lon="-1.43987">
        <ele>81</ele>
        <time>2021-04-26T13:03:26.000Z</time>
      </trkpt>
      <trkpt lat="47.10701" lon="-1.43981">
        <ele>82</ele>
        <time>2021-04-26T13:03:28.000Z</time>
      </trkpt>
      <trkpt lat="47.10714" lon="-1.43972">
        <ele>82</ele>
        <time>2021-04-26T13:03:31.000Z</time>
      </trkpt>
      <trkpt lat="47.10725" lon="-1.43962">
        <ele>84</ele>
        <time>2021-04-26T13:03:34.000Z</time>
      </trkpt>
      <trkpt lat="47.10732" lon="-1.43954">
        <ele>84</ele>
        <time>2021-04-26T13:03:36.000Z</time>
      </trkpt>
      <trkpt lat="47.10744" lon="-1.43943">
        <ele>84</ele>
        <time>2021-04-26T13:03:39.000Z</time>
      </trkpt>
      <trkpt lat="47.10752" lon="-1.43934">
        <ele>84</ele>
        <time>2021-04-26T13:03:41.000Z</time>
      </trkpt>
      <trkpt lat="47.10759" lon="-1.43927">
        <ele>84</ele>
        <time>2021-04-26T13:03:43.000Z</time>
      </trkpt>
      <trkpt lat="47.10768" lon="-1.4392">
        <ele>84</ele>
        <time>2021-04-26T13:03:45.000Z</time>
      </trkpt>
      <trkpt lat="47.10776" lon="-1.43912">
        <ele>85</ele>
        <time>2021-04-26T13:03:47.000Z</time>
      </trkpt>
      <trkpt lat="47.10784" lon="-1.43905">
        <ele>85</ele>
        <time>2021-04-26T13:03:49.000Z</time>
      </trkpt>
      <trkpt lat="47.10792" lon="-1.43897">
        <ele>86</ele>
        <time>2021-04-26T13:03:51.000Z</time>
      </trkpt>
      <trkpt lat="47.108" lon="-1.4389">
        <ele>86</ele>
        <time>2021-04-26T13:03:53.000Z</time>
      </trkpt>
      <trkpt lat="47.10812" lon="-1.43881">
        <ele>87</ele>
        <time>2021-04-26T13:03:56.000Z</time>
      </trkpt>
      <trkpt lat="47.10824" lon="-1.43871">
        <ele>87</ele>
        <time>2021-04-26T13:03:59.000Z</time>
      </trkpt>
      <trkpt lat="47.10832" lon="-1.43864">
        <ele>86</ele>
        <time>2021-04-26T13:04:01.000Z</time>
      </trkpt>
      <trkpt lat="47.1084" lon="-1.43856">
        <ele>86</ele>
        <time>2021-04-26T13:04:03.000Z</time>
      </trkpt>
      <trkpt lat="47.10848" lon="-1.43848">
        <ele>86</ele>
        <time>2021-04-26T13:04:05.000Z</time>
      </trkpt>
      <trkpt lat="47.10856" lon="-1.43841">
        <ele>86</ele>
        <time>2021-04-26T13:04:07.000Z</time>
      </trkpt>
      <trkpt lat="47.10864" lon="-1.43833">
        <ele>87</ele>
        <time>2021-04-26T13:04:09.000Z</time>
      </trkpt>
      <trkpt lat="47.10872" lon="-1.43827">
        <ele>88</ele>
        <time>2021-04-26T13:04:11.000Z</time>
      </trkpt>
      <trkpt lat="47.1088" lon="-1.4382">
        <ele>88</ele>
        <time>2021-04-26T13:04:13.000Z</time>
      </trkpt>
      <trkpt lat="47.10888" lon="-1.43811">
        <ele>88</ele>
        <time>2021-04-26T13:04:15.000Z</time>
      </trkpt>
      <trkpt lat="47.10896" lon="-1.43803">
        <ele>88</ele>
        <time>2021-04-26T13:04:17.000Z</time>
      </trkpt>
      <trkpt lat="47.10905" lon="-1.43795">
        <ele>89</ele>
        <time>2021-04-26T13:04:19.000Z</time>
      </trkpt>
      <trkpt lat="47.10913" lon="-1.43786">
        <ele>89</ele>
        <time>2021-04-26T13:04:21.000Z</time>
      </trkpt>
      <trkpt lat="47.10921" lon="-1.43778">
        <ele>89</ele>
        <time>2021-04-26T13:04:23.000Z</time>
      </trkpt>
      <trkpt lat="47.10929" lon="-1.4377">
        <ele>90</ele>
        <time>2021-04-26T13:04:25.000Z</time>
      </trkpt>
      <trkpt lat="47.10937" lon="-1.43763">
        <ele>90</ele>
        <time>2021-04-26T13:04:27.000Z</time>
      </trkpt>
      <trkpt lat="47.10945" lon="-1.43755">
        <ele>90</ele>
        <time>2021-04-26T13:04:29.000Z</time>
      </trkpt>
      <trkpt lat="47.10953" lon="-1.43747">
        <ele>90</ele>
        <time>2021-04-26T13:04:31.000Z</time>
      </trkpt>
      <trkpt lat="47.10961" lon="-1.43738">
        <ele>90</ele>
        <time>2021-04-26T13:04:33.000Z</time>
      </trkpt>
      <trkpt lat="47.10969" lon="-1.43731">
        <ele>91</ele>
        <time>2021-04-26T13:04:35.000Z</time>
      </trkpt>
      <trkpt lat="47.10977" lon="-1.43723">
        <ele>92</ele>
        <time>2021-04-26T13:04:37.000Z</time>
      </trkpt>
      <trkpt lat="47.10985" lon="-1.43714">
        <ele>92</ele>
        <time>2021-04-26T13:04:39.000Z</time>
      </trkpt>
      <trkpt lat="47.10993" lon="-1.43705">
        <ele>91</ele>
        <time>2021-04-26T13:04:41.000Z</time>
      </trkpt>
      <trkpt lat="47.11" lon="-1.43696">
        <ele>91</ele>
        <time>2021-04-26T13:04:43.000Z</time>
      </trkpt>
      <trkpt lat="47.11008" lon="-1.43687">
        <ele>92</ele>
        <time>2021-04-26T13:04:45.000Z</time>
      </trkpt>
      <trkpt lat="47.11015" lon="-1.43677">
        <ele>92</ele>
        <time>2021-04-26T13:04:47.000Z</time>
      </trkpt>
      <trkpt lat="47.11023" lon="-1.43669">
        <ele>92</ele>
        <time>2021-04-26T13:04:49.000Z</time>
      </trkpt>
      <trkpt lat="47.1103" lon="-1.4366">
        <ele>92</ele>
        <time>2021-04-26T13:04:51.000Z</time>
      </trkpt>
      <trkpt lat="47.11037" lon="-1.43651">
        <ele>92</ele>
        <time>2021-04-26T13:04:53.000Z</time>
      </trkpt>
      <trkpt lat="47.11043" lon="-1.4364">
        <ele>91</ele>
        <time>2021-04-26T13:04:55.000Z</time>
      </trkpt>
      <trkpt lat="47.1105" lon="-1.43631">
        <ele>91</ele>
        <time>2021-04-26T13:04:57.000Z</time>
      </trkpt>
      <trkpt lat="47.1106" lon="-1.43618">
        <ele>91</ele>
        <time>2021-04-26T13:05:00.000Z</time>
      </trkpt>
      <trkpt lat="47.11071" lon="-1.43607">
        <ele>92</ele>
        <time>2021-04-26T13:05:03.000Z</time>
      </trkpt>
      <trkpt lat="47.11081" lon="-1.43595">
        <ele>92</ele>
        <time>2021-04-26T13:05:06.000Z</time>
      </trkpt>
      <trkpt lat="47.11092" lon="-1.43585">
        <ele>92</ele>
        <time>2021-04-26T13:05:09.000Z</time>
      </trkpt>
      <trkpt lat="47.11103" lon="-1.43574">
        <ele>92</ele>
        <time>2021-04-26T13:05:12.000Z</time>
      </trkpt>
      <trkpt lat="47.11112" lon="-1.4356">
        <ele>92</ele>
        <time>2021-04-26T13:05:15.000Z</time>
      </trkpt>
      <trkpt lat="47.11121" lon="-1.43546">
        <ele>92</ele>
        <time>2021-04-26T13:05:18.000Z</time>
      </trkpt>
      <trkpt lat="47.1113" lon="-1.43532">
        <ele>92</ele>
        <time>2021-04-26T13:05:21.000Z</time>
      </trkpt>
      <trkpt lat="47.11138" lon="-1.43518">
        <ele>92</ele>
        <time>2021-04-26T13:05:24.000Z</time>
      </trkpt>
      <trkpt lat="47.11146" lon="-1.43503">
        <ele>92</ele>
        <time>2021-04-26T13:05:27.000Z</time>
      </trkpt>
      <trkpt lat="47.11155" lon="-1.43488">
        <ele>92</ele>
        <time>2021-04-26T13:05:30.000Z</time>
      </trkpt>
      <trkpt lat="47.11164" lon="-1.43474">
        <ele>92</ele>
        <time>2021-04-26T13:05:33.000Z</time>
      </trkpt>
      <trkpt lat="47.11169" lon="-1.43464">
        <ele>92</ele>
        <time>2021-04-26T13:05:35.000Z</time>
      </trkpt>
      <trkpt lat="47.11177" lon="-1.43448">
        <ele>92</ele>
        <time>2021-04-26T13:05:38.000Z</time>
      </trkpt>
      <trkpt lat="47.11185" lon="-1.43434">
        <ele>92</ele>
        <time>2021-04-26T13:05:41.000Z</time>
      </trkpt>
      <trkpt lat="47.11191" lon="-1.43425">
        <ele>92</ele>
        <time>2021-04-26T13:05:43.000Z</time>
      </trkpt>
      <trkpt lat="47.112" lon="-1.4341">
        <ele>92</ele>
        <time>2021-04-26T13:05:46.000Z</time>
      </trkpt>
      <trkpt lat="47.11206" lon="-1.43399">
        <ele>92</ele>
        <time>2021-04-26T13:05:48.000Z</time>
      </trkpt>
      <trkpt lat="47.11212" lon="-1.43389">
        <ele>92</ele>
        <time>2021-04-26T13:05:50.000Z</time>
      </trkpt>
      <trkpt lat="47.11218" lon="-1.43379">
        <ele>92</ele>
        <time>2021-04-26T13:05:52.000Z</time>
      </trkpt>
      <trkpt lat="47.11224" lon="-1.43369">
        <ele>92</ele>
        <time>2021-04-26T13:05:54.000Z</time>
      </trkpt>
      <trkpt lat="47.11229" lon="-1.43358">
        <ele>92</ele>
        <time>2021-04-26T13:05:56.000Z</time>
      </trkpt>
      <trkpt lat="47.11235" lon="-1.43348">
        <ele>92</ele>
        <time>2021-04-26T13:05:58.000Z</time>
      </trkpt>
      <trkpt lat="47.11242" lon="-1.43338">
        <ele>92</ele>
        <time>2021-04-26T13:06:00.000Z</time>
      </trkpt>
      <trkpt lat="47.11248" lon="-1.43328">
        <ele>91</ele>
        <time>2021-04-26T13:06:02.000Z</time>
      </trkpt>
      <trkpt lat="47.11255" lon="-1.43319">
        <ele>91</ele>
        <time>2021-04-26T13:06:04.000Z</time>
      </trkpt>
      <trkpt lat="47.11262" lon="-1.43309">
        <ele>91</ele>
        <time>2021-04-26T13:06:06.000Z</time>
      </trkpt>
      <trkpt lat="47.11269" lon="-1.43299">
        <ele>91</ele>
        <time>2021-04-26T13:06:08.000Z</time>
      </trkpt>
      <trkpt lat="47.11277" lon="-1.4329">
        <ele>91</ele>
        <time>2021-04-26T13:06:10.000Z</time>
      </trkpt>
      <trkpt lat="47.11284" lon="-1.43281">
        <ele>91</ele>
        <time>2021-04-26T13:06:12.000Z</time>
      </trkpt>
      <trkpt lat="47.11292" lon="-1.43272">
        <ele>91</ele>
        <time>2021-04-26T13:06:14.000Z</time>
      </trkpt>
      <trkpt lat="47.11299" lon="-1.43264">
        <ele>91</ele>
        <time>2021-04-26T13:06:16.000Z</time>
      </trkpt>
      <trkpt lat="47.11307" lon="-1.43255">
        <ele>90</ele>
        <time>2021-04-26T13:06:18.000Z</time>
      </trkpt>
      <trkpt lat="47.11314" lon="-1.43246">
        <ele>90</ele>
        <time>2021-04-26T13:06:20.000Z</time>
      </trkpt>
      <trkpt lat="47.11321" lon="-1.43238">
        <ele>90</ele>
        <time>2021-04-26T13:06:22.000Z</time>
      </trkpt>
      <trkpt lat="47.11329" lon="-1.43229">
        <ele>89</ele>
        <time>2021-04-26T13:06:24.000Z</time>
      </trkpt>
      <trkpt lat="47.11336" lon="-1.4322">
        <ele>89</ele>
        <time>2021-04-26T13:06:26.000Z</time>
      </trkpt>
      <trkpt lat="47.11343" lon="-1.43211">
        <ele>89</ele>
        <time>2021-04-26T13:06:28.000Z</time>
      </trkpt>
      <trkpt lat="47.11351" lon="-1.43201">
        <ele>89</ele>
        <time>2021-04-26T13:06:30.000Z</time>
      </trkpt>
      <trkpt lat="47.11359" lon="-1.43191">
        <ele>89</ele>
        <time>2021-04-26T13:06:32.000Z</time>
      </trkpt>
      <trkpt lat="47.11367" lon="-1.43182">
        <ele>88</ele>
        <time>2021-04-26T13:06:34.000Z</time>
      </trkpt>
      <trkpt lat="47.11375" lon="-1.43173">
        <ele>88</ele>
        <time>2021-04-26T13:06:36.000Z</time>
      </trkpt>
      <trkpt lat="47.11382" lon="-1.43163">
        <ele>88</ele>
        <time>2021-04-26T13:06:38.000Z</time>
      </trkpt>
      <trkpt lat="47.1139" lon="-1.43153">
        <ele>88</ele>
        <time>2021-04-26T13:06:40.000Z</time>
      </trkpt>
      <trkpt lat="47.11398" lon="-1.43143">
        <ele>88</ele>
        <time>2021-04-26T13:06:42.000Z</time>
      </trkpt>
      <trkpt lat="47.11406" lon="-1.43132">
        <ele>88</ele>
        <time>2021-04-26T13:06:44.000Z</time>
      </trkpt>
      <trkpt lat="47.11419" lon="-1.43114">
        <ele>87</ele>
        <time>2021-04-26T13:06:47.000Z</time>
      </trkpt>
      <trkpt lat="47.11428" lon="-1.43104">
        <ele>88</ele>
        <time>2021-04-26T13:06:49.000Z</time>
      </trkpt>
      <trkpt lat="47.11438" lon="-1.43093">
        <ele>87</ele>
        <time>2021-04-26T13:06:51.000Z</time>
      </trkpt>
      <trkpt lat="47.11447" lon="-1.43083">
        <ele>87</ele>
        <time>2021-04-26T13:06:53.000Z</time>
      </trkpt>
      <trkpt lat="47.11457" lon="-1.43073">
        <ele>87</ele>
        <time>2021-04-26T13:06:55.000Z</time>
      </trkpt>
      <trkpt lat="47.11468" lon="-1.43064">
        <ele>86</ele>
        <time>2021-04-26T13:06:57.000Z</time>
      </trkpt>
      <trkpt lat="47.11479" lon="-1.43054">
        <ele>86</ele>
        <time>2021-04-26T13:06:59.000Z</time>
      </trkpt>
      <trkpt lat="47.11489" lon="-1.43044">
        <ele>85</ele>
        <time>2021-04-26T13:07:01.000Z</time>
      </trkpt>
      <trkpt lat="47.11499" lon="-1.43036">
        <ele>85</ele>
        <time>2021-04-26T13:07:03.000Z</time>
      </trkpt>
      <trkpt lat="47.11508" lon="-1.43027">
        <ele>84</ele>
        <time>2021-04-26T13:07:05.000Z</time>
      </trkpt>
      <trkpt lat="47.11517" lon="-1.43018">
        <ele>84</ele>
        <time>2021-04-26T13:07:07.000Z</time>
      </trkpt>
      <trkpt lat="47.11532" lon="-1.43005">
        <ele>83</ele>
        <time>2021-04-26T13:07:10.000Z</time>
      </trkpt>
      <trkpt lat="47.11541" lon="-1.42996">
        <ele>83</ele>
        <time>2021-04-26T13:07:12.000Z</time>
      </trkpt>
      <trkpt lat="47.11551" lon="-1.42986">
        <ele>83</ele>
        <time>2021-04-26T13:07:14.000Z</time>
      </trkpt>
      <trkpt lat="47.11561" lon="-1.42977">
        <ele>82</ele>
        <time>2021-04-26T13:07:16.000Z</time>
      </trkpt>
      <trkpt lat="47.11577" lon="-1.42963">
        <ele>81</ele>
        <time>2021-04-26T13:07:19.000Z</time>
      </trkpt>
      <trkpt lat="47.11587" lon="-1.42953">
        <ele>81</ele>
        <time>2021-04-26T13:07:21.000Z</time>
      </trkpt>
      <trkpt lat="47.11599" lon="-1.42942">
        <ele>80</ele>
        <time>2021-04-26T13:07:23.000Z</time>
      </trkpt>
      <trkpt lat="47.11609" lon="-1.42931">
        <ele>80</ele>
        <time>2021-04-26T13:07:25.000Z</time>
      </trkpt>
      <trkpt lat="47.11619" lon="-1.42917">
        <ele>79</ele>
        <time>2021-04-26T13:07:27.000Z</time>
      </trkpt>
      <trkpt lat="47.11628" lon="-1.42902">
        <ele>79</ele>
        <time>2021-04-26T13:07:29.000Z</time>
      </trkpt>
      <trkpt lat="47.11636" lon="-1.42885">
        <ele>79</ele>
        <time>2021-04-26T13:07:31.000Z</time>
      </trkpt>
      <trkpt lat="47.11647" lon="-1.42862">
        <ele>79</ele>
        <time>2021-04-26T13:07:34.000Z</time>
      </trkpt>
      <trkpt lat="47.11657" lon="-1.42838">
        <ele>79</ele>
        <time>2021-04-26T13:07:37.000Z</time>
      </trkpt>
      <trkpt lat="47.11667" lon="-1.42816">
        <ele>79</ele>
        <time>2021-04-26T13:07:40.000Z</time>
      </trkpt>
      <trkpt lat="47.11672" lon="-1.42802">
        <ele>80</ele>
        <time>2021-04-26T13:07:42.000Z</time>
      </trkpt>
      <trkpt lat="47.11678" lon="-1.42782">
        <ele>81</ele>
        <time>2021-04-26T13:07:45.000Z</time>
      </trkpt>
      <trkpt lat="47.11682" lon="-1.42763">
        <ele>81</ele>
        <time>2021-04-26T13:07:48.000Z</time>
      </trkpt>
      <trkpt lat="47.11686" lon="-1.42746">
        <ele>82</ele>
        <time>2021-04-26T13:07:51.000Z</time>
      </trkpt>
      <trkpt lat="47.1169" lon="-1.4273">
        <ele>83</ele>
        <time>2021-04-26T13:07:54.000Z</time>
      </trkpt>
      <trkpt lat="47.11694" lon="-1.42717">
        <ele>84</ele>
        <time>2021-04-26T13:07:57.000Z</time>
      </trkpt>
      <trkpt lat="47.11701" lon="-1.42705">
        <ele>85</ele>
        <time>2021-04-26T13:08:00.000Z</time>
      </trkpt>
      <trkpt lat="47.1171" lon="-1.42696">
        <ele>87</ele>
        <time>2021-04-26T13:08:03.000Z</time>
      </trkpt>
      <trkpt lat="47.11724" lon="-1.42685">
        <ele>88</ele>
        <time>2021-04-26T13:08:07.000Z</time>
      </trkpt>
      <trkpt lat="47.11734" lon="-1.42679">
        <ele>89</ele>
        <time>2021-04-26T13:08:10.000Z</time>
      </trkpt>
      <trkpt lat="47.11745" lon="-1.42672">
        <ele>89</ele>
        <time>2021-04-26T13:08:13.000Z</time>
      </trkpt>
      <trkpt lat="47.11756" lon="-1.42666">
        <ele>90</ele>
        <time>2021-04-26T13:08:16.000Z</time>
      </trkpt>
      <trkpt lat="47.11767" lon="-1.4266">
        <ele>90</ele>
        <time>2021-04-26T13:08:19.000Z</time>
      </trkpt>
      <trkpt lat="47.11777" lon="-1.42653">
        <ele>90</ele>
        <time>2021-04-26T13:08:22.000Z</time>
      </trkpt>
      <trkpt lat="47.11788" lon="-1.42646">
        <ele>90</ele>
        <time>2021-04-26T13:08:25.000Z</time>
      </trkpt>
      <trkpt lat="47.11798" lon="-1.42639">
        <ele>91</ele>
        <time>2021-04-26T13:08:28.000Z</time>
      </trkpt>
      <trkpt lat="47.11809" lon="-1.42633">
        <ele>92</ele>
        <time>2021-04-26T13:08:31.000Z</time>
      </trkpt>
      <trkpt lat="47.11819" lon="-1.42627">
        <ele>93</ele>
        <time>2021-04-26T13:08:34.000Z</time>
      </trkpt>
      <trkpt lat="47.1183" lon="-1.4262">
        <ele>93</ele>
        <time>2021-04-26T13:08:37.000Z</time>
      </trkpt>
      <trkpt lat="47.1184" lon="-1.42613">
        <ele>94</ele>
        <time>2021-04-26T13:08:40.000Z</time>
      </trkpt>
      <trkpt lat="47.1185" lon="-1.42606">
        <ele>94</ele>
        <time>2021-04-26T13:08:43.000Z</time>
      </trkpt>
      <trkpt lat="47.1186" lon="-1.42599">
        <ele>95</ele>
        <time>2021-04-26T13:08:46.000Z</time>
      </trkpt>
      <trkpt lat="47.1187" lon="-1.42591">
        <ele>96</ele>
        <time>2021-04-26T13:08:49.000Z</time>
      </trkpt>
      <trkpt lat="47.1188" lon="-1.42581">
        <ele>96</ele>
        <time>2021-04-26T13:08:52.000Z</time>
      </trkpt>
      <trkpt lat="47.11889" lon="-1.42572">
        <ele>97</ele>
        <time>2021-04-26T13:08:55.000Z</time>
      </trkpt>
      <trkpt lat="47.11898" lon="-1.42563">
        <ele>97</ele>
        <time>2021-04-26T13:08:58.000Z</time>
      </trkpt>
      <trkpt lat="47.1191" lon="-1.42551">
        <ele>98</ele>
        <time>2021-04-26T13:09:02.000Z</time>
      </trkpt>
      <trkpt lat="47.1192" lon="-1.42542">
        <ele>98</ele>
        <time>2021-04-26T13:09:05.000Z</time>
      </trkpt>
      <trkpt lat="47.11929" lon="-1.42533">
        <ele>99</ele>
        <time>2021-04-26T13:09:08.000Z</time>
      </trkpt>
      <trkpt lat="47.11939" lon="-1.42524">
        <ele>99</ele>
        <time>2021-04-26T13:09:11.000Z</time>
      </trkpt>
      <trkpt lat="47.11949" lon="-1.42514">
        <ele>99</ele>
        <time>2021-04-26T13:09:14.000Z</time>
      </trkpt>
      <trkpt lat="47.11958" lon="-1.42504">
        <ele>99</ele>
        <time>2021-04-26T13:09:17.000Z</time>
      </trkpt>
      <trkpt lat="47.11968" lon="-1.42495">
        <ele>99</ele>
        <time>2021-04-26T13:09:20.000Z</time>
      </trkpt>
      <trkpt lat="47.11978" lon="-1.42485">
        <ele>100</ele>
        <time>2021-04-26T13:09:23.000Z</time>
      </trkpt>
      <trkpt lat="47.11988" lon="-1.42475">
        <ele>100</ele>
        <time>2021-04-26T13:09:26.000Z</time>
      </trkpt>
      <trkpt lat="47.11998" lon="-1.42465">
        <ele>100</ele>
        <time>2021-04-26T13:09:29.000Z</time>
      </trkpt>
      <trkpt lat="47.12009" lon="-1.42455">
        <ele>101</ele>
        <time>2021-04-26T13:09:32.000Z</time>
      </trkpt>
      <trkpt lat="47.12019" lon="-1.42444">
        <ele>101</ele>
        <time>2021-04-26T13:09:35.000Z</time>
      </trkpt>
      <trkpt lat="47.12028" lon="-1.42435">
        <ele>101</ele>
        <time>2021-04-26T13:09:38.000Z</time>
      </trkpt>
      <trkpt lat="47.12038" lon="-1.42425">
        <ele>102</ele>
        <time>2021-04-26T13:09:41.000Z</time>
      </trkpt>
      <trkpt lat="47.12047" lon="-1.42411">
        <ele>102</ele>
        <time>2021-04-26T13:09:44.000Z</time>
      </trkpt>
      <trkpt lat="47.12054" lon="-1.42401">
        <ele>102</ele>
        <time>2021-04-26T13:09:46.000Z</time>
      </trkpt>
      <trkpt lat="47.1206" lon="-1.42389">
        <ele>102</ele>
        <time>2021-04-26T13:09:48.000Z</time>
      </trkpt>
      <trkpt lat="47.12066" lon="-1.42376">
        <ele>101</ele>
        <time>2021-04-26T13:09:50.000Z</time>
      </trkpt>
      <trkpt lat="47.12071" lon="-1.42361">
        <ele>101</ele>
        <time>2021-04-26T13:09:52.000Z</time>
      </trkpt>
      <trkpt lat="47.12076" lon="-1.42347">
        <ele>101</ele>
        <time>2021-04-26T13:09:54.000Z</time>
      </trkpt>
      <trkpt lat="47.12079" lon="-1.42332">
        <ele>101</ele>
        <time>2021-04-26T13:09:56.000Z</time>
      </trkpt>
      <trkpt lat="47.12084" lon="-1.42317">
        <ele>101</ele>
        <time>2021-04-26T13:09:58.000Z</time>
      </trkpt>
      <trkpt lat="47.12089" lon="-1.42302">
        <ele>100</ele>
        <time>2021-04-26T13:10:00.000Z</time>
      </trkpt>
      <trkpt lat="47.12093" lon="-1.42287">
        <ele>100</ele>
        <time>2021-04-26T13:10:02.000Z</time>
      </trkpt>
      <trkpt lat="47.12097" lon="-1.42272">
        <ele>100</ele>
        <time>2021-04-26T13:10:04.000Z</time>
      </trkpt>
      <trkpt lat="47.12102" lon="-1.42257">
        <ele>100</ele>
        <time>2021-04-26T13:10:06.000Z</time>
      </trkpt>
      <trkpt lat="47.12106" lon="-1.42242">
        <ele>100</ele>
        <time>2021-04-26T13:10:08.000Z</time>
      </trkpt>
      <trkpt lat="47.12111" lon="-1.42228">
        <ele>100</ele>
        <time>2021-04-26T13:10:10.000Z</time>
      </trkpt>
      <trkpt lat="47.12115" lon="-1.42214">
        <ele>100</ele>
        <time>2021-04-26T13:10:12.000Z</time>
      </trkpt>
      <trkpt lat="47.12121" lon="-1.422">
        <ele>100</ele>
        <time>2021-04-26T13:10:14.000Z</time>
      </trkpt>
      <trkpt lat="47.12127" lon="-1.42188">
        <ele>101</ele>
        <time>2021-04-26T13:10:16.000Z</time>
      </trkpt>
      <trkpt lat="47.12135" lon="-1.42178">
        <ele>101</ele>
        <time>2021-04-26T13:10:18.000Z</time>
      </trkpt>
      <trkpt lat="47.12144" lon="-1.42168">
        <ele>100</ele>
        <time>2021-04-26T13:10:20.000Z</time>
      </trkpt>
      <trkpt lat="47.12154" lon="-1.4216">
        <ele>100</ele>
        <time>2021-04-26T13:10:22.000Z</time>
      </trkpt>
      <trkpt lat="47.12163" lon="-1.42155">
        <ele>101</ele>
        <time>2021-04-26T13:10:24.000Z</time>
      </trkpt>
      <trkpt lat="47.12173" lon="-1.42149">
        <ele>101</ele>
        <time>2021-04-26T13:10:26.000Z</time>
      </trkpt>
      <trkpt lat="47.12183" lon="-1.42143">
        <ele>101</ele>
        <time>2021-04-26T13:10:28.000Z</time>
      </trkpt>
      <trkpt lat="47.12193" lon="-1.42138">
        <ele>101</ele>
        <time>2021-04-26T13:10:30.000Z</time>
      </trkpt>
      <trkpt lat="47.12203" lon="-1.42133">
        <ele>101</ele>
        <time>2021-04-26T13:10:32.000Z</time>
      </trkpt>
      <trkpt lat="47.12213" lon="-1.42127">
        <ele>101</ele>
        <time>2021-04-26T13:10:34.000Z</time>
      </trkpt>
      <trkpt lat="47.12222" lon="-1.42121">
        <ele>101</ele>
        <time>2021-04-26T13:10:36.000Z</time>
      </trkpt>
      <trkpt lat="47.12231" lon="-1.42113">
        <ele>101</ele>
        <time>2021-04-26T13:10:38.000Z</time>
      </trkpt>
      <trkpt lat="47.1224" lon="-1.42106">
        <ele>101</ele>
        <time>2021-04-26T13:10:40.000Z</time>
      </trkpt>
      <trkpt lat="47.12249" lon="-1.421">
        <ele>101</ele>
        <time>2021-04-26T13:10:42.000Z</time>
      </trkpt>
      <trkpt lat="47.12257" lon="-1.42091">
        <ele>102</ele>
        <time>2021-04-26T13:10:44.000Z</time>
      </trkpt>
      <trkpt lat="47.12266" lon="-1.42083">
        <ele>102</ele>
        <time>2021-04-26T13:10:46.000Z</time>
      </trkpt>
      <trkpt lat="47.12275" lon="-1.42075">
        <ele>102</ele>
        <time>2021-04-26T13:10:48.000Z</time>
      </trkpt>
      <trkpt lat="47.12284" lon="-1.42066">
        <ele>102</ele>
        <time>2021-04-26T13:10:50.000Z</time>
      </trkpt>
      <trkpt lat="47.12294" lon="-1.42058">
        <ele>103</ele>
        <time>2021-04-26T13:10:52.000Z</time>
      </trkpt>
      <trkpt lat="47.12304" lon="-1.42051">
        <ele>103</ele>
        <time>2021-04-26T13:10:54.000Z</time>
      </trkpt>
      <trkpt lat="47.12314" lon="-1.42044">
        <ele>104</ele>
        <time>2021-04-26T13:10:56.000Z</time>
      </trkpt>
      <trkpt lat="47.12323" lon="-1.42037">
        <ele>103</ele>
        <time>2021-04-26T13:10:58.000Z</time>
      </trkpt>
      <trkpt lat="47.12332" lon="-1.42043">
        <ele>103</ele>
        <time>2021-04-26T13:11:00.000Z</time>
      </trkpt>
      <trkpt lat="47.12341" lon="-1.4205">
        <ele>103</ele>
        <time>2021-04-26T13:11:02.000Z</time>
      </trkpt>
      <trkpt lat="47.12351" lon="-1.42043">
        <ele>103</ele>
        <time>2021-04-26T13:11:04.000Z</time>
      </trkpt>
      <trkpt lat="47.12361" lon="-1.42035">
        <ele>103</ele>
        <time>2021-04-26T13:11:06.000Z</time>
      </trkpt>
      <trkpt lat="47.1237" lon="-1.42027">
        <ele>103</ele>
        <time>2021-04-26T13:11:08.000Z</time>
      </trkpt>
      <trkpt lat="47.1238" lon="-1.4202">
        <ele>103</ele>
        <time>2021-04-26T13:11:10.000Z</time>
      </trkpt>
      <trkpt lat="47.12389" lon="-1.42012">
        <ele>103</ele>
        <time>2021-04-26T13:11:12.000Z</time>
      </trkpt>
      <trkpt lat="47.12397" lon="-1.42003">
        <ele>103</ele>
        <time>2021-04-26T13:11:14.000Z</time>
      </trkpt>
      <trkpt lat="47.12405" lon="-1.41992">
        <ele>103</ele>
        <time>2021-04-26T13:11:16.000Z</time>
      </trkpt>
      <trkpt lat="47.12413" lon="-1.41979">
        <ele>102</ele>
        <time>2021-04-26T13:11:18.000Z</time>
      </trkpt>
      <trkpt lat="47.1242" lon="-1.41966">
        <ele>101</ele>
        <time>2021-04-26T13:11:20.000Z</time>
      </trkpt>
      <trkpt lat="47.12429" lon="-1.41952">
        <ele>101</ele>
        <time>2021-04-26T13:11:22.000Z</time>
      </trkpt>
      <trkpt lat="47.12439" lon="-1.41937">
        <ele>101</ele>
        <time>2021-04-26T13:11:24.000Z</time>
      </trkpt>
      <trkpt lat="47.12449" lon="-1.41923">
        <ele>100</ele>
        <time>2021-04-26T13:11:26.000Z</time>
      </trkpt>
      <trkpt lat="47.12458" lon="-1.41911">
        <ele>100</ele>
        <time>2021-04-26T13:11:28.000Z</time>
      </trkpt>
      <trkpt lat="47.12468" lon="-1.419">
        <ele>100</ele>
        <time>2021-04-26T13:11:30.000Z</time>
      </trkpt>
      <trkpt lat="47.12477" lon="-1.41892">
        <ele>100</ele>
        <time>2021-04-26T13:11:32.000Z</time>
      </trkpt>
      <trkpt lat="47.12487" lon="-1.41884">
        <ele>100</ele>
        <time>2021-04-26T13:11:34.000Z</time>
      </trkpt>
      <trkpt lat="47.12497" lon="-1.41875">
        <ele>99</ele>
        <time>2021-04-26T13:11:36.000Z</time>
      </trkpt>
      <trkpt lat="47.12509" lon="-1.41868">
        <ele>99</ele>
        <time>2021-04-26T13:11:38.000Z</time>
      </trkpt>
      <trkpt lat="47.12521" lon="-1.41862">
        <ele>99</ele>
        <time>2021-04-26T13:11:40.000Z</time>
      </trkpt>
      <trkpt lat="47.12534" lon="-1.41857">
        <ele>99</ele>
        <time>2021-04-26T13:11:42.000Z</time>
      </trkpt>
      <trkpt lat="47.12546" lon="-1.41852">
        <ele>98</ele>
        <time>2021-04-26T13:11:44.000Z</time>
      </trkpt>
      <trkpt lat="47.12557" lon="-1.41846">
        <ele>97</ele>
        <time>2021-04-26T13:11:46.000Z</time>
      </trkpt>
      <trkpt lat="47.12567" lon="-1.41835">
        <ele>96</ele>
        <time>2021-04-26T13:11:48.000Z</time>
      </trkpt>
      <trkpt lat="47.12572" lon="-1.41815">
        <ele>96</ele>
        <time>2021-04-26T13:11:50.000Z</time>
      </trkpt>
      <trkpt lat="47.12576" lon="-1.41795">
        <ele>94</ele>
        <time>2021-04-26T13:11:52.000Z</time>
      </trkpt>
      <trkpt lat="47.1258" lon="-1.41775">
        <ele>93</ele>
        <time>2021-04-26T13:11:54.000Z</time>
      </trkpt>
      <trkpt lat="47.12587" lon="-1.41756">
        <ele>92</ele>
        <time>2021-04-26T13:11:56.000Z</time>
      </trkpt>
      <trkpt lat="47.12597" lon="-1.4174">
        <ele>91</ele>
        <time>2021-04-26T13:11:58.000Z</time>
      </trkpt>
      <trkpt lat="47.12611" lon="-1.4173">
        <ele>90</ele>
        <time>2021-04-26T13:12:00.000Z</time>
      </trkpt>
      <trkpt lat="47.12628" lon="-1.41724">
        <ele>90</ele>
        <time>2021-04-26T13:12:02.000Z</time>
      </trkpt>
      <trkpt lat="47.12644" lon="-1.41717">
        <ele>88</ele>
        <time>2021-04-26T13:12:04.000Z</time>
      </trkpt>
      <trkpt lat="47.12661" lon="-1.41708">
        <ele>87</ele>
        <time>2021-04-26T13:12:06.000Z</time>
      </trkpt>
      <trkpt lat="47.12669" lon="-1.41701">
        <ele>87</ele>
        <time>2021-04-26T13:12:07.000Z</time>
      </trkpt>
      <trkpt lat="47.12678" lon="-1.41694">
        <ele>86</ele>
        <time>2021-04-26T13:12:08.000Z</time>
      </trkpt>
      <trkpt lat="47.12685" lon="-1.41687">
        <ele>85</ele>
        <time>2021-04-26T13:12:09.000Z</time>
      </trkpt>
      <trkpt lat="47.12694" lon="-1.4168">
        <ele>85</ele>
        <time>2021-04-26T13:12:10.000Z</time>
      </trkpt>
      <trkpt lat="47.12703" lon="-1.41675">
        <ele>84</ele>
        <time>2021-04-26T13:12:11.000Z</time>
      </trkpt>
      <trkpt lat="47.12713" lon="-1.41672">
        <ele>84</ele>
        <time>2021-04-26T13:12:12.000Z</time>
      </trkpt>
      <trkpt lat="47.12723" lon="-1.41671">
        <ele>83</ele>
        <time>2021-04-26T13:12:13.000Z</time>
      </trkpt>
      <trkpt lat="47.12733" lon="-1.4167">
        <ele>82</ele>
        <time>2021-04-26T13:12:14.000Z</time>
      </trkpt>
      <trkpt lat="47.12743" lon="-1.41671">
        <ele>81</ele>
        <time>2021-04-26T13:12:15.000Z</time>
      </trkpt>
      <trkpt lat="47.12752" lon="-1.4167">
        <ele>80</ele>
        <time>2021-04-26T13:12:16.000Z</time>
      </trkpt>
      <trkpt lat="47.12761" lon="-1.41666">
        <ele>79</ele>
        <time>2021-04-26T13:12:17.000Z</time>
      </trkpt>
      <trkpt lat="47.12769" lon="-1.41658">
        <ele>78</ele>
        <time>2021-04-26T13:12:18.000Z</time>
      </trkpt>
      <trkpt lat="47.12775" lon="-1.41646">
        <ele>77</ele>
        <time>2021-04-26T13:12:19.000Z</time>
      </trkpt>
      <trkpt lat="47.12779" lon="-1.41632">
        <ele>76</ele>
        <time>2021-04-26T13:12:20.000Z</time>
      </trkpt>
      <trkpt lat="47.12779" lon="-1.41617">
        <ele>76</ele>
        <time>2021-04-26T13:12:21.000Z</time>
      </trkpt>
      <trkpt lat="47.12775" lon="-1.41603">
        <ele>75</ele>
        <time>2021-04-26T13:12:22.000Z</time>
      </trkpt>
      <trkpt lat="47.12768" lon="-1.41592">
        <ele>74</ele>
        <time>2021-04-26T13:12:23.000Z</time>
      </trkpt>
      <trkpt lat="47.12759" lon="-1.41584">
        <ele>73</ele>
        <time>2021-04-26T13:12:24.000Z</time>
      </trkpt>
      <trkpt lat="47.12751" lon="-1.41579">
        <ele>72</ele>
        <time>2021-04-26T13:12:25.000Z</time>
      </trkpt>
      <trkpt lat="47.1274" lon="-1.41582">
        <ele>72</ele>
        <time>2021-04-26T13:12:26.000Z</time>
      </trkpt>
      <trkpt lat="47.12728" lon="-1.41588">
        <ele>72</ele>
        <time>2021-04-26T13:12:27.000Z</time>
      </trkpt>
      <trkpt lat="47.12717" lon="-1.4159">
        <ele>71</ele>
        <time>2021-04-26T13:12:28.000Z</time>
      </trkpt>
      <trkpt lat="47.12706" lon="-1.41588">
        <ele>71</ele>
        <time>2021-04-26T13:12:29.000Z</time>
      </trkpt>
      <trkpt lat="47.12695" lon="-1.41582">
        <ele>71</ele>
        <time>2021-04-26T13:12:30.000Z</time>
      </trkpt>
      <trkpt lat="47.12685" lon="-1.41575">
        <ele>70</ele>
        <time>2021-04-26T13:12:31.000Z</time>
      </trkpt>
      <trkpt lat="47.12675" lon="-1.4157">
        <ele>70</ele>
        <time>2021-04-26T13:12:32.000Z</time>
      </trkpt>
      <trkpt lat="47.12664" lon="-1.41571">
        <ele>70</ele>
        <time>2021-04-26T13:12:33.000Z</time>
      </trkpt>
      <trkpt lat="47.12654" lon="-1.41579">
        <ele>69</ele>
        <time>2021-04-26T13:12:34.000Z</time>
      </trkpt>
      <trkpt lat="47.12643" lon="-1.41586">
        <ele>69</ele>
        <time>2021-04-26T13:12:35.000Z</time>
      </trkpt>
      <trkpt lat="47.12632" lon="-1.41588">
        <ele>69</ele>
        <time>2021-04-26T13:12:36.000Z</time>
      </trkpt>
      <trkpt lat="47.1262" lon="-1.41586">
        <ele>69</ele>
        <time>2021-04-26T13:12:37.000Z</time>
      </trkpt>
      <trkpt lat="47.12609" lon="-1.4158">
        <ele>69</ele>
        <time>2021-04-26T13:12:38.000Z</time>
      </trkpt>
      <trkpt lat="47.12598" lon="-1.41571">
        <ele>69</ele>
        <time>2021-04-26T13:12:39.000Z</time>
      </trkpt>
      <trkpt lat="47.12589" lon="-1.4156">
        <ele>69</ele>
        <time>2021-04-26T13:12:40.000Z</time>
      </trkpt>
      <trkpt lat="47.12582" lon="-1.41545">
        <ele>67</ele>
        <time>2021-04-26T13:12:41.000Z</time>
      </trkpt>
      <trkpt lat="47.12577" lon="-1.41529">
        <ele>66</ele>
        <time>2021-04-26T13:12:42.000Z</time>
      </trkpt>
      <trkpt lat="47.12571" lon="-1.41514">
        <ele>64</ele>
        <time>2021-04-26T13:12:43.000Z</time>
      </trkpt>
      <trkpt lat="47.12564" lon="-1.415">
        <ele>63</ele>
        <time>2021-04-26T13:12:44.000Z</time>
      </trkpt>
      <trkpt lat="47.12558" lon="-1.41488">
        <ele>62</ele>
        <time>2021-04-26T13:12:45.000Z</time>
      </trkpt>
      <trkpt lat="47.12551" lon="-1.41477">
        <ele>62</ele>
        <time>2021-04-26T13:12:46.000Z</time>
      </trkpt>
      <trkpt lat="47.12545" lon="-1.41466">
        <ele>61</ele>
        <time>2021-04-26T13:12:47.000Z</time>
      </trkpt>
      <trkpt lat="47.1254" lon="-1.41456">
        <ele>61</ele>
        <time>2021-04-26T13:12:48.000Z</time>
      </trkpt>
      <trkpt lat="47.12529" lon="-1.41437">
        <ele>60</ele>
        <time>2021-04-26T13:12:50.000Z</time>
      </trkpt>
      <trkpt lat="47.12526" lon="-1.41417">
        <ele>60</ele>
        <time>2021-04-26T13:12:52.000Z</time>
      </trkpt>
      <trkpt lat="47.12533" lon="-1.41402">
        <ele>61</ele>
        <time>2021-04-26T13:12:54.000Z</time>
      </trkpt>
      <trkpt lat="47.1254" lon="-1.41391">
        <ele>61</ele>
        <time>2021-04-26T13:12:56.000Z</time>
      </trkpt>
      <trkpt lat="47.12547" lon="-1.4138">
        <ele>61</ele>
        <time>2021-04-26T13:12:58.000Z</time>
      </trkpt>
      <trkpt lat="47.12554" lon="-1.41369">
        <ele>62</ele>
        <time>2021-04-26T13:13:00.000Z</time>
      </trkpt>
      <trkpt lat="47.12561" lon="-1.41357">
        <ele>62</ele>
        <time>2021-04-26T13:13:02.000Z</time>
      </trkpt>
      <trkpt lat="47.12569" lon="-1.41345">
        <ele>63</ele>
        <time>2021-04-26T13:13:04.000Z</time>
      </trkpt>
      <trkpt lat="47.12575" lon="-1.41334">
        <ele>64</ele>
        <time>2021-04-26T13:13:06.000Z</time>
      </trkpt>
      <trkpt lat="47.12582" lon="-1.41324">
        <ele>64</ele>
        <time>2021-04-26T13:13:08.000Z</time>
      </trkpt>
      <trkpt lat="47.1259" lon="-1.41309">
        <ele>65</ele>
        <time>2021-04-26T13:13:11.000Z</time>
      </trkpt>
      <trkpt lat="47.12595" lon="-1.41298">
        <ele>66</ele>
        <time>2021-04-26T13:13:13.000Z</time>
      </trkpt>
      <trkpt lat="47.12603" lon="-1.41283">
        <ele>67</ele>
        <time>2021-04-26T13:13:16.000Z</time>
      </trkpt>
      <trkpt lat="47.12613" lon="-1.41271">
        <ele>69</ele>
        <time>2021-04-26T13:13:19.000Z</time>
      </trkpt>
      <trkpt lat="47.12623" lon="-1.41263">
        <ele>70</ele>
        <time>2021-04-26T13:13:22.000Z</time>
      </trkpt>
      <trkpt lat="47.12634" lon="-1.41258">
        <ele>72</ele>
        <time>2021-04-26T13:13:25.000Z</time>
      </trkpt>
      <trkpt lat="47.12644" lon="-1.41249">
        <ele>74</ele>
        <time>2021-04-26T13:13:28.000Z</time>
      </trkpt>
      <trkpt lat="47.12654" lon="-1.41244">
        <ele>75</ele>
        <time>2021-04-26T13:13:31.000Z</time>
      </trkpt>
      <trkpt lat="47.12666" lon="-1.41241">
        <ele>76</ele>
        <time>2021-04-26T13:13:34.000Z</time>
      </trkpt>
      <trkpt lat="47.1268" lon="-1.41238">
        <ele>77</ele>
        <time>2021-04-26T13:13:37.000Z</time>
      </trkpt>
      <trkpt lat="47.12699" lon="-1.41228">
        <ele>81</ele>
        <time>2021-04-26T13:13:42.000Z</time>
      </trkpt>
      <trkpt lat="47.1271" lon="-1.41221">
        <ele>84</ele>
        <time>2021-04-26T13:13:45.000Z</time>
      </trkpt>
      <trkpt lat="47.12721" lon="-1.41212">
        <ele>85</ele>
        <time>2021-04-26T13:13:48.000Z</time>
      </trkpt>
      <trkpt lat="47.12732" lon="-1.41201">
        <ele>85</ele>
        <time>2021-04-26T13:13:51.000Z</time>
      </trkpt>
      <trkpt lat="47.12741" lon="-1.4119">
        <ele>85</ele>
        <time>2021-04-26T13:13:54.000Z</time>
      </trkpt>
      <trkpt lat="47.12749" lon="-1.41178">
        <ele>87</ele>
        <time>2021-04-26T13:13:57.000Z</time>
      </trkpt>
      <trkpt lat="47.12757" lon="-1.41163">
        <ele>87</ele>
        <time>2021-04-26T13:14:00.000Z</time>
      </trkpt>
      <trkpt lat="47.12764" lon="-1.41149">
        <ele>88</ele>
        <time>2021-04-26T13:14:03.000Z</time>
      </trkpt>
      <trkpt lat="47.12771" lon="-1.41133">
        <ele>89</ele>
        <time>2021-04-26T13:14:06.000Z</time>
      </trkpt>
      <trkpt lat="47.12779" lon="-1.4112">
        <ele>90</ele>
        <time>2021-04-26T13:14:09.000Z</time>
      </trkpt>
      <trkpt lat="47.12786" lon="-1.41107">
        <ele>91</ele>
        <time>2021-04-26T13:14:12.000Z</time>
      </trkpt>
      <trkpt lat="47.12792" lon="-1.41094">
        <ele>92</ele>
        <time>2021-04-26T13:14:15.000Z</time>
      </trkpt>
      <trkpt lat="47.12799" lon="-1.41079">
        <ele>93</ele>
        <time>2021-04-26T13:14:18.000Z</time>
      </trkpt>
      <trkpt lat="47.12804" lon="-1.41064">
        <ele>93</ele>
        <time>2021-04-26T13:14:21.000Z</time>
      </trkpt>
      <trkpt lat="47.12807" lon="-1.41045">
        <ele>93</ele>
        <time>2021-04-26T13:14:24.000Z</time>
      </trkpt>
      <trkpt lat="47.12804" lon="-1.41027">
        <ele>92</ele>
        <time>2021-04-26T13:14:27.000Z</time>
      </trkpt>
      <trkpt lat="47.12799" lon="-1.4101">
        <ele>92</ele>
        <time>2021-04-26T13:14:30.000Z</time>
      </trkpt>
      <trkpt lat="47.12793" lon="-1.40995">
        <ele>91</ele>
        <time>2021-04-26T13:14:33.000Z</time>
      </trkpt>
      <trkpt lat="47.12787" lon="-1.40982">
        <ele>91</ele>
        <time>2021-04-26T13:14:36.000Z</time>
      </trkpt>
      <trkpt lat="47.12781" lon="-1.40968">
        <ele>91</ele>
        <time>2021-04-26T13:14:39.000Z</time>
      </trkpt>
      <trkpt lat="47.12775" lon="-1.40953">
        <ele>91</ele>
        <time>2021-04-26T13:14:42.000Z</time>
      </trkpt>
      <trkpt lat="47.12768" lon="-1.40938">
        <ele>91</ele>
        <time>2021-04-26T13:14:45.000Z</time>
      </trkpt>
      <trkpt lat="47.1276" lon="-1.40925">
        <ele>91</ele>
        <time>2021-04-26T13:14:48.000Z</time>
      </trkpt>
      <trkpt lat="47.12749" lon="-1.40917">
        <ele>92</ele>
        <time>2021-04-26T13:14:51.000Z</time>
      </trkpt>
      <trkpt lat="47.12737" lon="-1.40911">
        <ele>93</ele>
        <time>2021-04-26T13:14:54.000Z</time>
      </trkpt>
      <trkpt lat="47.12725" lon="-1.40909">
        <ele>93</ele>
        <time>2021-04-26T13:14:57.000Z</time>
      </trkpt>
      <trkpt lat="47.12712" lon="-1.40906">
        <ele>94</ele>
        <time>2021-04-26T13:15:00.000Z</time>
      </trkpt>
      <trkpt lat="47.12699" lon="-1.40903">
        <ele>95</ele>
        <time>2021-04-26T13:15:03.000Z</time>
      </trkpt>
      <trkpt lat="47.12687" lon="-1.40901">
        <ele>96</ele>
        <time>2021-04-26T13:15:06.000Z</time>
      </trkpt>
      <trkpt lat="47.12674" lon="-1.40898">
        <ele>97</ele>
        <time>2021-04-26T13:15:09.000Z</time>
      </trkpt>
      <trkpt lat="47.12661" lon="-1.40896">
        <ele>97</ele>
        <time>2021-04-26T13:15:12.000Z</time>
      </trkpt>
      <trkpt lat="47.12649" lon="-1.40893">
        <ele>98</ele>
        <time>2021-04-26T13:15:15.000Z</time>
      </trkpt>
      <trkpt lat="47.12636" lon="-1.40891">
        <ele>98</ele>
        <time>2021-04-26T13:15:18.000Z</time>
      </trkpt>
      <trkpt lat="47.12623" lon="-1.40888">
        <ele>98</ele>
        <time>2021-04-26T13:15:21.000Z</time>
      </trkpt>
      <trkpt lat="47.12614" lon="-1.40886">
        <ele>98</ele>
        <time>2021-04-26T13:15:23.000Z</time>
      </trkpt>
      <trkpt lat="47.12605" lon="-1.40884">
        <ele>99</ele>
        <time>2021-04-26T13:15:25.000Z</time>
      </trkpt>
      <trkpt lat="47.12595" lon="-1.40881">
        <ele>99</ele>
        <time>2021-04-26T13:15:27.000Z</time>
      </trkpt>
      <trkpt lat="47.12586" lon="-1.40879">
        <ele>99</ele>
        <time>2021-04-26T13:15:29.000Z</time>
      </trkpt>
      <trkpt lat="47.12576" lon="-1.40877">
        <ele>99</ele>
        <time>2021-04-26T13:15:31.000Z</time>
      </trkpt>
      <trkpt lat="47.12566" lon="-1.40875">
        <ele>99</ele>
        <time>2021-04-26T13:15:33.000Z</time>
      </trkpt>
      <trkpt lat="47.12555" lon="-1.40872">
        <ele>99</ele>
        <time>2021-04-26T13:15:35.000Z</time>
      </trkpt>
      <trkpt lat="47.12544" lon="-1.4087">
        <ele>100</ele>
        <time>2021-04-26T13:15:37.000Z</time>
      </trkpt>
      <trkpt lat="47.12532" lon="-1.40867">
        <ele>100</ele>
        <time>2021-04-26T13:15:39.000Z</time>
      </trkpt>
      <trkpt lat="47.1252" lon="-1.40865">
        <ele>101</ele>
        <time>2021-04-26T13:15:41.000Z</time>
      </trkpt>
      <trkpt lat="47.12508" lon="-1.40862">
        <ele>101</ele>
        <time>2021-04-26T13:15:43.000Z</time>
      </trkpt>
      <trkpt lat="47.12497" lon="-1.4086">
        <ele>101</ele>
        <time>2021-04-26T13:15:45.000Z</time>
      </trkpt>
      <trkpt lat="47.12485" lon="-1.40857">
        <ele>102</ele>
        <time>2021-04-26T13:15:47.000Z</time>
      </trkpt>
      <trkpt lat="47.12473" lon="-1.40853">
        <ele>102</ele>
        <time>2021-04-26T13:15:49.000Z</time>
      </trkpt>
      <trkpt lat="47.12462" lon="-1.40848">
        <ele>102</ele>
        <time>2021-04-26T13:15:51.000Z</time>
      </trkpt>
      <trkpt lat="47.12451" lon="-1.40842">
        <ele>102</ele>
        <time>2021-04-26T13:15:53.000Z</time>
      </trkpt>
      <trkpt lat="47.1244" lon="-1.40835">
        <ele>102</ele>
        <time>2021-04-26T13:15:55.000Z</time>
      </trkpt>
      <trkpt lat="47.1243" lon="-1.40825">
        <ele>102</ele>
        <time>2021-04-26T13:15:57.000Z</time>
      </trkpt>
      <trkpt lat="47.12421" lon="-1.40814">
        <ele>102</ele>
        <time>2021-04-26T13:15:59.000Z</time>
      </trkpt>
      <trkpt lat="47.12413" lon="-1.40802">
        <ele>102</ele>
        <time>2021-04-26T13:16:01.000Z</time>
      </trkpt>
      <trkpt lat="47.12405" lon="-1.40789">
        <ele>102</ele>
        <time>2021-04-26T13:16:03.000Z</time>
      </trkpt>
      <trkpt lat="47.12396" lon="-1.40777">
        <ele>102</ele>
        <time>2021-04-26T13:16:05.000Z</time>
      </trkpt>
      <trkpt lat="47.12388" lon="-1.40764">
        <ele>103</ele>
        <time>2021-04-26T13:16:07.000Z</time>
      </trkpt>
      <trkpt lat="47.1238" lon="-1.40753">
        <ele>103</ele>
        <time>2021-04-26T13:16:09.000Z</time>
      </trkpt>
      <trkpt lat="47.12372" lon="-1.40741">
        <ele>103</ele>
        <time>2021-04-26T13:16:11.000Z</time>
      </trkpt>
      <trkpt lat="47.12365" lon="-1.40728">
        <ele>103</ele>
        <time>2021-04-26T13:16:13.000Z</time>
      </trkpt>
      <trkpt lat="47.12356" lon="-1.40716">
        <ele>103</ele>
        <time>2021-04-26T13:16:15.000Z</time>
      </trkpt>
      <trkpt lat="47.12347" lon="-1.40706">
        <ele>103</ele>
        <time>2021-04-26T13:16:17.000Z</time>
      </trkpt>
      <trkpt lat="47.12336" lon="-1.40698">
        <ele>103</ele>
        <time>2021-04-26T13:16:19.000Z</time>
      </trkpt>
      <trkpt lat="47.12326" lon="-1.40692">
        <ele>103</ele>
        <time>2021-04-26T13:16:21.000Z</time>
      </trkpt>
      <trkpt lat="47.12315" lon="-1.40687">
        <ele>103</ele>
        <time>2021-04-26T13:16:23.000Z</time>
      </trkpt>
      <trkpt lat="47.12304" lon="-1.40683">
        <ele>103</ele>
        <time>2021-04-26T13:16:25.000Z</time>
      </trkpt>
      <trkpt lat="47.12293" lon="-1.40677">
        <ele>104</ele>
        <time>2021-04-26T13:16:27.000Z</time>
      </trkpt>
      <trkpt lat="47.12284" lon="-1.40669">
        <ele>104</ele>
        <time>2021-04-26T13:16:29.000Z</time>
      </trkpt>
      <trkpt lat="47.12276" lon="-1.40657">
        <ele>104</ele>
        <time>2021-04-26T13:16:31.000Z</time>
      </trkpt>
      <trkpt lat="47.1227" lon="-1.40644">
        <ele>104</ele>
        <time>2021-04-26T13:16:33.000Z</time>
      </trkpt>
      <trkpt lat="47.12264" lon="-1.4063">
        <ele>104</ele>
        <time>2021-04-26T13:16:35.000Z</time>
      </trkpt>
      <trkpt lat="47.12259" lon="-1.40615">
        <ele>104</ele>
        <time>2021-04-26T13:16:37.000Z</time>
      </trkpt>
      <trkpt lat="47.12254" lon="-1.406">
        <ele>104</ele>
        <time>2021-04-26T13:16:39.000Z</time>
      </trkpt>
      <trkpt lat="47.12248" lon="-1.40585">
        <ele>104</ele>
        <time>2021-04-26T13:16:41.000Z</time>
      </trkpt>
      <trkpt lat="47.12243" lon="-1.40569">
        <ele>104</ele>
        <time>2021-04-26T13:16:43.000Z</time>
      </trkpt>
      <trkpt lat="47.12238" lon="-1.40554">
        <ele>104</ele>
        <time>2021-04-26T13:16:45.000Z</time>
      </trkpt>
      <trkpt lat="47.12233" lon="-1.40538">
        <ele>104</ele>
        <time>2021-04-26T13:16:47.000Z</time>
      </trkpt>
      <trkpt lat="47.12229" lon="-1.40522">
        <ele>104</ele>
        <time>2021-04-26T13:16:49.000Z</time>
      </trkpt>
      <trkpt lat="47.12225" lon="-1.40505">
        <ele>104</ele>
        <time>2021-04-26T13:16:51.000Z</time>
      </trkpt>
      <trkpt lat="47.12221" lon="-1.40488">
        <ele>104</ele>
        <time>2021-04-26T13:16:53.000Z</time>
      </trkpt>
      <trkpt lat="47.12218" lon="-1.40471">
        <ele>104</ele>
        <time>2021-04-26T13:16:55.000Z</time>
      </trkpt>
      <trkpt lat="47.12214" lon="-1.40454">
        <ele>104</ele>
        <time>2021-04-26T13:16:57.000Z</time>
      </trkpt>
      <trkpt lat="47.1221" lon="-1.40437">
        <ele>104</ele>
        <time>2021-04-26T13:16:59.000Z</time>
      </trkpt>
      <trkpt lat="47.12206" lon="-1.4042">
        <ele>104</ele>
        <time>2021-04-26T13:17:01.000Z</time>
      </trkpt>
      <trkpt lat="47.12203" lon="-1.40404">
        <ele>104</ele>
        <time>2021-04-26T13:17:03.000Z</time>
      </trkpt>
      <trkpt lat="47.122" lon="-1.40387">
        <ele>104</ele>
        <time>2021-04-26T13:17:05.000Z</time>
      </trkpt>
      <trkpt lat="47.12197" lon="-1.40371">
        <ele>104</ele>
        <time>2021-04-26T13:17:07.000Z</time>
      </trkpt>
      <trkpt lat="47.12193" lon="-1.40355">
        <ele>104</ele>
        <time>2021-04-26T13:17:09.000Z</time>
      </trkpt>
      <trkpt lat="47.12191" lon="-1.40341">
        <ele>105</ele>
        <time>2021-04-26T13:17:11.000Z</time>
      </trkpt>
      <trkpt lat="47.12189" lon="-1.40327">
        <ele>104</ele>
        <time>2021-04-26T13:17:13.000Z</time>
      </trkpt>
      <trkpt lat="47.12185" lon="-1.40309">
        <ele>105</ele>
        <time>2021-04-26T13:17:16.000Z</time>
      </trkpt>
      <trkpt lat="47.1219" lon="-1.40297">
        <ele>105</ele>
        <time>2021-04-26T13:17:18.000Z</time>
      </trkpt>
      <trkpt lat="47.122" lon="-1.4029">
        <ele>105</ele>
        <time>2021-04-26T13:17:20.000Z</time>
      </trkpt>
      <trkpt lat="47.12211" lon="-1.40285">
        <ele>105</ele>
        <time>2021-04-26T13:17:22.000Z</time>
      </trkpt>
      <trkpt lat="47.12222" lon="-1.4028">
        <ele>105</ele>
        <time>2021-04-26T13:17:24.000Z</time>
      </trkpt>
      <trkpt lat="47.12234" lon="-1.40275">
        <ele>104</ele>
        <time>2021-04-26T13:17:26.000Z</time>
      </trkpt>
      <trkpt lat="47.12244" lon="-1.40269">
        <ele>104</ele>
        <time>2021-04-26T13:17:28.000Z</time>
      </trkpt>
      <trkpt lat="47.12255" lon="-1.40265">
        <ele>104</ele>
        <time>2021-04-26T13:17:30.000Z</time>
      </trkpt>
      <trkpt lat="47.12265" lon="-1.4026">
        <ele>105</ele>
        <time>2021-04-26T13:17:32.000Z</time>
      </trkpt>
      <trkpt lat="47.12275" lon="-1.40254">
        <ele>104</ele>
        <time>2021-04-26T13:17:34.000Z</time>
      </trkpt>
      <trkpt lat="47.12286" lon="-1.40249">
        <ele>104</ele>
        <time>2021-04-26T13:17:36.000Z</time>
      </trkpt>
      <trkpt lat="47.12298" lon="-1.40244">
        <ele>104</ele>
        <time>2021-04-26T13:17:38.000Z</time>
      </trkpt>
      <trkpt lat="47.12309" lon="-1.40238">
        <ele>104</ele>
        <time>2021-04-26T13:17:40.000Z</time>
      </trkpt>
      <trkpt lat="47.1232" lon="-1.40233">
        <ele>103</ele>
        <time>2021-04-26T13:17:42.000Z</time>
      </trkpt>
      <trkpt lat="47.12331" lon="-1.40228">
        <ele>103</ele>
        <time>2021-04-26T13:17:44.000Z</time>
      </trkpt>
      <trkpt lat="47.12343" lon="-1.40223">
        <ele>103</ele>
        <time>2021-04-26T13:17:46.000Z</time>
      </trkpt>
      <trkpt lat="47.12355" lon="-1.40217">
        <ele>103</ele>
        <time>2021-04-26T13:17:48.000Z</time>
      </trkpt>
      <trkpt lat="47.12367" lon="-1.40212">
        <ele>103</ele>
        <time>2021-04-26T13:17:50.000Z</time>
      </trkpt>
      <trkpt lat="47.12378" lon="-1.40206">
        <ele>102</ele>
        <time>2021-04-26T13:17:52.000Z</time>
      </trkpt>
      <trkpt lat="47.1239" lon="-1.40201">
        <ele>102</ele>
        <time>2021-04-26T13:17:54.000Z</time>
      </trkpt>
      <trkpt lat="47.12403" lon="-1.40195">
        <ele>102</ele>
        <time>2021-04-26T13:17:56.000Z</time>
      </trkpt>
      <trkpt lat="47.12415" lon="-1.4019">
        <ele>102</ele>
        <time>2021-04-26T13:17:58.000Z</time>
      </trkpt>
      <trkpt lat="47.12427" lon="-1.40183">
        <ele>102</ele>
        <time>2021-04-26T13:18:00.000Z</time>
      </trkpt>
      <trkpt lat="47.1244" lon="-1.40177">
        <ele>101</ele>
        <time>2021-04-26T13:18:02.000Z</time>
      </trkpt>
      <trkpt lat="47.12452" lon="-1.40171">
        <ele>102</ele>
        <time>2021-04-26T13:18:04.000Z</time>
      </trkpt>
      <trkpt lat="47.12465" lon="-1.40165">
        <ele>102</ele>
        <time>2021-04-26T13:18:06.000Z</time>
      </trkpt>
      <trkpt lat="47.12478" lon="-1.40159">
        <ele>101</ele>
        <time>2021-04-26T13:18:08.000Z</time>
      </trkpt>
      <trkpt lat="47.12491" lon="-1.40153">
        <ele>101</ele>
        <time>2021-04-26T13:18:10.000Z</time>
      </trkpt>
      <trkpt lat="47.12504" lon="-1.40149">
        <ele>101</ele>
        <time>2021-04-26T13:18:12.000Z</time>
      </trkpt>
      <trkpt lat="47.12518" lon="-1.40147">
        <ele>101</ele>
        <time>2021-04-26T13:18:14.000Z</time>
      </trkpt>
      <trkpt lat="47.12531" lon="-1.40148">
        <ele>100</ele>
        <time>2021-04-26T13:18:16.000Z</time>
      </trkpt>
      <trkpt lat="47.12544" lon="-1.40151">
        <ele>99</ele>
        <time>2021-04-26T13:18:18.000Z</time>
      </trkpt>
      <trkpt lat="47.12557" lon="-1.40154">
        <ele>99</ele>
        <time>2021-04-26T13:18:20.000Z</time>
      </trkpt>
      <trkpt lat="47.1257" lon="-1.40158">
        <ele>98</ele>
        <time>2021-04-26T13:18:22.000Z</time>
      </trkpt>
      <trkpt lat="47.12583" lon="-1.40162">
        <ele>98</ele>
        <time>2021-04-26T13:18:24.000Z</time>
      </trkpt>
      <trkpt lat="47.12597" lon="-1.40164">
        <ele>97</ele>
        <time>2021-04-26T13:18:26.000Z</time>
      </trkpt>
      <trkpt lat="47.1261" lon="-1.40163">
        <ele>97</ele>
        <time>2021-04-26T13:18:28.000Z</time>
      </trkpt>
      <trkpt lat="47.12624" lon="-1.40162">
        <ele>96</ele>
        <time>2021-04-26T13:18:30.000Z</time>
      </trkpt>
      <trkpt lat="47.12637" lon="-1.40159">
        <ele>96</ele>
        <time>2021-04-26T13:18:32.000Z</time>
      </trkpt>
      <trkpt lat="47.1265" lon="-1.40157">
        <ele>96</ele>
        <time>2021-04-26T13:18:34.000Z</time>
      </trkpt>
      <trkpt lat="47.12663" lon="-1.40155">
        <ele>95</ele>
        <time>2021-04-26T13:18:36.000Z</time>
      </trkpt>
      <trkpt lat="47.12676" lon="-1.40152">
        <ele>95</ele>
        <time>2021-04-26T13:18:38.000Z</time>
      </trkpt>
      <trkpt lat="47.12687" lon="-1.40148">
        <ele>95</ele>
        <time>2021-04-26T13:18:40.000Z</time>
      </trkpt>
      <trkpt lat="47.12699" lon="-1.40138">
        <ele>95</ele>
        <time>2021-04-26T13:18:42.000Z</time>
      </trkpt>
      <trkpt lat="47.1271" lon="-1.40129">
        <ele>95</ele>
        <time>2021-04-26T13:18:44.000Z</time>
      </trkpt>
      <trkpt lat="47.12721" lon="-1.40119">
        <ele>95</ele>
        <time>2021-04-26T13:18:46.000Z</time>
      </trkpt>
      <trkpt lat="47.12732" lon="-1.40108">
        <ele>94</ele>
        <time>2021-04-26T13:18:48.000Z</time>
      </trkpt>
      <trkpt lat="47.12743" lon="-1.40097">
        <ele>94</ele>
        <time>2021-04-26T13:18:50.000Z</time>
      </trkpt>
      <trkpt lat="47.12753" lon="-1.40087">
        <ele>94</ele>
        <time>2021-04-26T13:18:52.000Z</time>
      </trkpt>
      <trkpt lat="47.12763" lon="-1.40077">
        <ele>93</ele>
        <time>2021-04-26T13:18:54.000Z</time>
      </trkpt>
      <trkpt lat="47.12774" lon="-1.40067">
        <ele>93</ele>
        <time>2021-04-26T13:18:56.000Z</time>
      </trkpt>
      <trkpt lat="47.12785" lon="-1.40056">
        <ele>93</ele>
        <time>2021-04-26T13:18:58.000Z</time>
      </trkpt>
      <trkpt lat="47.12796" lon="-1.40046">
        <ele>92</ele>
        <time>2021-04-26T13:19:00.000Z</time>
      </trkpt>
      <trkpt lat="47.12806" lon="-1.40036">
        <ele>92</ele>
        <time>2021-04-26T13:19:02.000Z</time>
      </trkpt>
      <trkpt lat="47.12817" lon="-1.40026">
        <ele>92</ele>
        <time>2021-04-26T13:19:04.000Z</time>
      </trkpt>
      <trkpt lat="47.12828" lon="-1.40016">
        <ele>92</ele>
        <time>2021-04-26T13:19:06.000Z</time>
      </trkpt>
      <trkpt lat="47.12838" lon="-1.40006">
        <ele>92</ele>
        <time>2021-04-26T13:19:08.000Z</time>
      </trkpt>
      <trkpt lat="47.12848" lon="-1.39995">
        <ele>92</ele>
        <time>2021-04-26T13:19:10.000Z</time>
      </trkpt>
      <trkpt lat="47.12858" lon="-1.39985">
        <ele>92</ele>
        <time>2021-04-26T13:19:12.000Z</time>
      </trkpt>
      <trkpt lat="47.12868" lon="-1.39975">
        <ele>93</ele>
        <time>2021-04-26T13:19:14.000Z</time>
      </trkpt>
      <trkpt lat="47.12879" lon="-1.39966">
        <ele>93</ele>
        <time>2021-04-26T13:19:16.000Z</time>
      </trkpt>
      <trkpt lat="47.12889" lon="-1.39959">
        <ele>93</ele>
        <time>2021-04-26T13:19:18.000Z</time>
      </trkpt>
      <trkpt lat="47.129" lon="-1.39953">
        <ele>93</ele>
        <time>2021-04-26T13:19:20.000Z</time>
      </trkpt>
      <trkpt lat="47.12911" lon="-1.39947">
        <ele>93</ele>
        <time>2021-04-26T13:19:22.000Z</time>
      </trkpt>
      <trkpt lat="47.12922" lon="-1.39942">
        <ele>93</ele>
        <time>2021-04-26T13:19:24.000Z</time>
      </trkpt>
      <trkpt lat="47.12933" lon="-1.39937">
        <ele>92</ele>
        <time>2021-04-26T13:19:26.000Z</time>
      </trkpt>
      <trkpt lat="47.12944" lon="-1.39933">
        <ele>93</ele>
        <time>2021-04-26T13:19:28.000Z</time>
      </trkpt>
      <trkpt lat="47.12956" lon="-1.39928">
        <ele>93</ele>
        <time>2021-04-26T13:19:30.000Z</time>
      </trkpt>
      <trkpt lat="47.12967" lon="-1.39922">
        <ele>93</ele>
        <time>2021-04-26T13:19:32.000Z</time>
      </trkpt>
      <trkpt lat="47.12977" lon="-1.39914">
        <ele>93</ele>
        <time>2021-04-26T13:19:34.000Z</time>
      </trkpt>
      <trkpt lat="47.12984" lon="-1.39905">
        <ele>93</ele>
        <time>2021-04-26T13:19:36.000Z</time>
      </trkpt>
      <trkpt lat="47.12995" lon="-1.39896">
        <ele>93</ele>
        <time>2021-04-26T13:19:39.000Z</time>
      </trkpt>
      <trkpt lat="47.13005" lon="-1.39904">
        <ele>93</ele>
        <time>2021-04-26T13:19:41.000Z</time>
      </trkpt>
      <trkpt lat="47.13013" lon="-1.3992">
        <ele>92</ele>
        <time>2021-04-26T13:19:43.000Z</time>
      </trkpt>
      <trkpt lat="47.13022" lon="-1.39935">
        <ele>92</ele>
        <time>2021-04-26T13:19:45.000Z</time>
      </trkpt>
      <trkpt lat="47.13032" lon="-1.3995">
        <ele>91</ele>
        <time>2021-04-26T13:19:47.000Z</time>
      </trkpt>
      <trkpt lat="47.13043" lon="-1.39962">
        <ele>91</ele>
        <time>2021-04-26T13:19:49.000Z</time>
      </trkpt>
      <trkpt lat="47.13055" lon="-1.39974">
        <ele>91</ele>
        <time>2021-04-26T13:19:51.000Z</time>
      </trkpt>
      <trkpt lat="47.13067" lon="-1.39984">
        <ele>91</ele>
        <time>2021-04-26T13:19:53.000Z</time>
      </trkpt>
      <trkpt lat="47.1308" lon="-1.39992">
        <ele>91</ele>
        <time>2021-04-26T13:19:55.000Z</time>
      </trkpt>
      <trkpt lat="47.13093" lon="-1.39999">
        <ele>91</ele>
        <time>2021-04-26T13:19:57.000Z</time>
      </trkpt>
      <trkpt lat="47.13106" lon="-1.40006">
        <ele>91</ele>
        <time>2021-04-26T13:19:59.000Z</time>
      </trkpt>
      <trkpt lat="47.13119" lon="-1.40012">
        <ele>90</ele>
        <time>2021-04-26T13:20:01.000Z</time>
      </trkpt>
      <trkpt lat="47.13132" lon="-1.40018">
        <ele>90</ele>
        <time>2021-04-26T13:20:03.000Z</time>
      </trkpt>
      <trkpt lat="47.13144" lon="-1.40025">
        <ele>90</ele>
        <time>2021-04-26T13:20:05.000Z</time>
      </trkpt>
      <trkpt lat="47.13157" lon="-1.40032">
        <ele>90</ele>
        <time>2021-04-26T13:20:07.000Z</time>
      </trkpt>
      <trkpt lat="47.13169" lon="-1.40039">
        <ele>90</ele>
        <time>2021-04-26T13:20:09.000Z</time>
      </trkpt>
      <trkpt lat="47.13181" lon="-1.40046">
        <ele>90</ele>
        <time>2021-04-26T13:20:11.000Z</time>
      </trkpt>
      <trkpt lat="47.13194" lon="-1.40054">
        <ele>90</ele>
        <time>2021-04-26T13:20:13.000Z</time>
      </trkpt>
      <trkpt lat="47.13206" lon="-1.40062">
        <ele>90</ele>
        <time>2021-04-26T13:20:15.000Z</time>
      </trkpt>
      <trkpt lat="47.13218" lon="-1.40071">
        <ele>90</ele>
        <time>2021-04-26T13:20:17.000Z</time>
      </trkpt>
      <trkpt lat="47.1323" lon="-1.40081">
        <ele>90</ele>
        <time>2021-04-26T13:20:19.000Z</time>
      </trkpt>
      <trkpt lat="47.13242" lon="-1.4009">
        <ele>90</ele>
        <time>2021-04-26T13:20:21.000Z</time>
      </trkpt>
      <trkpt lat="47.13254" lon="-1.40101">
        <ele>90</ele>
        <time>2021-04-26T13:20:23.000Z</time>
      </trkpt>
      <trkpt lat="47.13266" lon="-1.40111">
        <ele>90</ele>
        <time>2021-04-26T13:20:25.000Z</time>
      </trkpt>
      <trkpt lat="47.13278" lon="-1.40121">
        <ele>90</ele>
        <time>2021-04-26T13:20:27.000Z</time>
      </trkpt>
      <trkpt lat="47.13289" lon="-1.4013">
        <ele>90</ele>
        <time>2021-04-26T13:20:29.000Z</time>
      </trkpt>
      <trkpt lat="47.133" lon="-1.40139">
        <ele>90</ele>
        <time>2021-04-26T13:20:31.000Z</time>
      </trkpt>
      <trkpt lat="47.13311" lon="-1.40148">
        <ele>90</ele>
        <time>2021-04-26T13:20:33.000Z</time>
      </trkpt>
      <trkpt lat="47.13323" lon="-1.40156">
        <ele>91</ele>
        <time>2021-04-26T13:20:35.000Z</time>
      </trkpt>
      <trkpt lat="47.13334" lon="-1.40164">
        <ele>91</ele>
        <time>2021-04-26T13:20:37.000Z</time>
      </trkpt>
      <trkpt lat="47.13345" lon="-1.40171">
        <ele>91</ele>
        <time>2021-04-26T13:20:39.000Z</time>
      </trkpt>
      <trkpt lat="47.13357" lon="-1.40176">
        <ele>91</ele>
        <time>2021-04-26T13:20:41.000Z</time>
      </trkpt>
      <trkpt lat="47.13369" lon="-1.40178">
        <ele>91</ele>
        <time>2021-04-26T13:20:43.000Z</time>
      </trkpt>
      <trkpt lat="47.1338" lon="-1.40179">
        <ele>91</ele>
        <time>2021-04-26T13:20:45.000Z</time>
      </trkpt>
      <trkpt lat="47.13392" lon="-1.40179">
        <ele>91</ele>
        <time>2021-04-26T13:20:47.000Z</time>
      </trkpt>
      <trkpt lat="47.13404" lon="-1.40179">
        <ele>92</ele>
        <time>2021-04-26T13:20:49.000Z</time>
      </trkpt>
      <trkpt lat="47.13416" lon="-1.4018">
        <ele>92</ele>
        <time>2021-04-26T13:20:51.000Z</time>
      </trkpt>
      <trkpt lat="47.13428" lon="-1.40181">
        <ele>92</ele>
        <time>2021-04-26T13:20:53.000Z</time>
      </trkpt>
      <trkpt lat="47.13439" lon="-1.40184">
        <ele>92</ele>
        <time>2021-04-26T13:20:55.000Z</time>
      </trkpt>
      <trkpt lat="47.1345" lon="-1.40188">
        <ele>91</ele>
        <time>2021-04-26T13:20:57.000Z</time>
      </trkpt>
      <trkpt lat="47.13461" lon="-1.40194">
        <ele>91</ele>
        <time>2021-04-26T13:20:59.000Z</time>
      </trkpt>
      <trkpt lat="47.13473" lon="-1.40199">
        <ele>91</ele>
        <time>2021-04-26T13:21:01.000Z</time>
      </trkpt>
      <trkpt lat="47.13484" lon="-1.40204">
        <ele>91</ele>
        <time>2021-04-26T13:21:03.000Z</time>
      </trkpt>
      <trkpt lat="47.13495" lon="-1.40209">
        <ele>91</ele>
        <time>2021-04-26T13:21:05.000Z</time>
      </trkpt>
      <trkpt lat="47.13506" lon="-1.40214">
        <ele>91</ele>
        <time>2021-04-26T13:21:07.000Z</time>
      </trkpt>
      <trkpt lat="47.13517" lon="-1.40219">
        <ele>91</ele>
        <time>2021-04-26T13:21:09.000Z</time>
      </trkpt>
      <trkpt lat="47.13529" lon="-1.40224">
        <ele>91</ele>
        <time>2021-04-26T13:21:11.000Z</time>
      </trkpt>
      <trkpt lat="47.1354" lon="-1.40229">
        <ele>91</ele>
        <time>2021-04-26T13:21:13.000Z</time>
      </trkpt>
      <trkpt lat="47.13552" lon="-1.40235">
        <ele>91</ele>
        <time>2021-04-26T13:21:15.000Z</time>
      </trkpt>
      <trkpt lat="47.13563" lon="-1.40241">
        <ele>91</ele>
        <time>2021-04-26T13:21:17.000Z</time>
      </trkpt>
      <trkpt lat="47.13574" lon="-1.40246">
        <ele>91</ele>
        <time>2021-04-26T13:21:19.000Z</time>
      </trkpt>
      <trkpt lat="47.13586" lon="-1.40251">
        <ele>91</ele>
        <time>2021-04-26T13:21:21.000Z</time>
      </trkpt>
      <trkpt lat="47.13597" lon="-1.40257">
        <ele>91</ele>
        <time>2021-04-26T13:21:23.000Z</time>
      </trkpt>
      <trkpt lat="47.13608" lon="-1.40261">
        <ele>91</ele>
        <time>2021-04-26T13:21:25.000Z</time>
      </trkpt>
      <trkpt lat="47.1362" lon="-1.40266">
        <ele>91</ele>
        <time>2021-04-26T13:21:27.000Z</time>
      </trkpt>
      <trkpt lat="47.13631" lon="-1.40271">
        <ele>91</ele>
        <time>2021-04-26T13:21:29.000Z</time>
      </trkpt>
      <trkpt lat="47.13642" lon="-1.40275">
        <ele>90</ele>
        <time>2021-04-26T13:21:31.000Z</time>
      </trkpt>
      <trkpt lat="47.13654" lon="-1.40278">
        <ele>90</ele>
        <time>2021-04-26T13:21:33.000Z</time>
      </trkpt>
      <trkpt lat="47.13666" lon="-1.40279">
        <ele>90</ele>
        <time>2021-04-26T13:21:35.000Z</time>
      </trkpt>
      <trkpt lat="47.13677" lon="-1.40279">
        <ele>90</ele>
        <time>2021-04-26T13:21:37.000Z</time>
      </trkpt>
      <trkpt lat="47.13688" lon="-1.40278">
        <ele>90</ele>
        <time>2021-04-26T13:21:39.000Z</time>
      </trkpt>
      <trkpt lat="47.137" lon="-1.40276">
        <ele>90</ele>
        <time>2021-04-26T13:21:41.000Z</time>
      </trkpt>
      <trkpt lat="47.13712" lon="-1.40274">
        <ele>90</ele>
        <time>2021-04-26T13:21:43.000Z</time>
      </trkpt>
      <trkpt lat="47.13723" lon="-1.40272">
        <ele>90</ele>
        <time>2021-04-26T13:21:45.000Z</time>
      </trkpt>
      <trkpt lat="47.13734" lon="-1.4027">
        <ele>89</ele>
        <time>2021-04-26T13:21:47.000Z</time>
      </trkpt>
      <trkpt lat="47.13744" lon="-1.40268">
        <ele>90</ele>
        <time>2021-04-26T13:21:49.000Z</time>
      </trkpt>
      <trkpt lat="47.13756" lon="-1.40266">
        <ele>90</ele>
        <time>2021-04-26T13:21:51.000Z</time>
      </trkpt>
      <trkpt lat="47.13766" lon="-1.40264">
        <ele>90</ele>
        <time>2021-04-26T13:21:53.000Z</time>
      </trkpt>
      <trkpt lat="47.13777" lon="-1.40263">
        <ele>90</ele>
        <time>2021-04-26T13:21:55.000Z</time>
      </trkpt>
      <trkpt lat="47.13787" lon="-1.40261">
        <ele>90</ele>
        <time>2021-04-26T13:21:57.000Z</time>
      </trkpt>
      <trkpt lat="47.13798" lon="-1.40258">
        <ele>90</ele>
        <time>2021-04-26T13:21:59.000Z</time>
      </trkpt>
      <trkpt lat="47.13808" lon="-1.40256">
        <ele>89</ele>
        <time>2021-04-26T13:22:01.000Z</time>
      </trkpt>
      <trkpt lat="47.13817" lon="-1.40255">
        <ele>90</ele>
        <time>2021-04-26T13:22:03.000Z</time>
      </trkpt>
      <trkpt lat="47.13826" lon="-1.40253">
        <ele>90</ele>
        <time>2021-04-26T13:22:05.000Z</time>
      </trkpt>
      <trkpt lat="47.13836" lon="-1.40252">
        <ele>89</ele>
        <time>2021-04-26T13:22:07.000Z</time>
      </trkpt>
      <trkpt lat="47.13846" lon="-1.4025">
        <ele>89</ele>
        <time>2021-04-26T13:22:09.000Z</time>
      </trkpt>
      <trkpt lat="47.13856" lon="-1.40247">
        <ele>89</ele>
        <time>2021-04-26T13:22:11.000Z</time>
      </trkpt>
      <trkpt lat="47.13865" lon="-1.40246">
        <ele>89</ele>
        <time>2021-04-26T13:22:13.000Z</time>
      </trkpt>
      <trkpt lat="47.13874" lon="-1.40244">
        <ele>89</ele>
        <time>2021-04-26T13:22:15.000Z</time>
      </trkpt>
      <trkpt lat="47.13884" lon="-1.40243">
        <ele>89</ele>
        <time>2021-04-26T13:22:17.000Z</time>
      </trkpt>
      <trkpt lat="47.13894" lon="-1.40242">
        <ele>89</ele>
        <time>2021-04-26T13:22:19.000Z</time>
      </trkpt>
      <trkpt lat="47.13905" lon="-1.40242">
        <ele>89</ele>
        <time>2021-04-26T13:22:21.000Z</time>
      </trkpt>
      <trkpt lat="47.13915" lon="-1.40243">
        <ele>89</ele>
        <time>2021-04-26T13:22:23.000Z</time>
      </trkpt>
      <trkpt lat="47.13925" lon="-1.40246">
        <ele>89</ele>
        <time>2021-04-26T13:22:25.000Z</time>
      </trkpt>
      <trkpt lat="47.13935" lon="-1.40249">
        <ele>89</ele>
        <time>2021-04-26T13:22:27.000Z</time>
      </trkpt>
      <trkpt lat="47.13945" lon="-1.40253">
        <ele>89</ele>
        <time>2021-04-26T13:22:29.000Z</time>
      </trkpt>
      <trkpt lat="47.13955" lon="-1.40257">
        <ele>89</ele>
        <time>2021-04-26T13:22:31.000Z</time>
      </trkpt>
      <trkpt lat="47.13965" lon="-1.40262">
        <ele>89</ele>
        <time>2021-04-26T13:22:33.000Z</time>
      </trkpt>
      <trkpt lat="47.13974" lon="-1.40267">
        <ele>89</ele>
        <time>2021-04-26T13:22:35.000Z</time>
      </trkpt>
      <trkpt lat="47.13984" lon="-1.40274">
        <ele>89</ele>
        <time>2021-04-26T13:22:37.000Z</time>
      </trkpt>
      <trkpt lat="47.13993" lon="-1.40282">
        <ele>89</ele>
        <time>2021-04-26T13:22:39.000Z</time>
      </trkpt>
      <trkpt lat="47.14002" lon="-1.40291">
        <ele>89</ele>
        <time>2021-04-26T13:22:41.000Z</time>
      </trkpt>
      <trkpt lat="47.1401" lon="-1.40301">
        <ele>89</ele>
        <time>2021-04-26T13:22:43.000Z</time>
      </trkpt>
      <trkpt lat="47.14017" lon="-1.40313">
        <ele>89</ele>
        <time>2021-04-26T13:22:45.000Z</time>
      </trkpt>
      <trkpt lat="47.14025" lon="-1.40325">
        <ele>90</ele>
        <time>2021-04-26T13:22:47.000Z</time>
      </trkpt>
      <trkpt lat="47.14032" lon="-1.40339">
        <ele>90</ele>
        <time>2021-04-26T13:22:49.000Z</time>
      </trkpt>
      <trkpt lat="47.14038" lon="-1.40353">
        <ele>90</ele>
        <time>2021-04-26T13:22:51.000Z</time>
      </trkpt>
      <trkpt lat="47.14043" lon="-1.40368">
        <ele>90</ele>
        <time>2021-04-26T13:22:53.000Z</time>
      </trkpt>
      <trkpt lat="47.14048" lon="-1.40384">
        <ele>90</ele>
        <time>2021-04-26T13:22:55.000Z</time>
      </trkpt>
      <trkpt lat="47.14053" lon="-1.404">
        <ele>90</ele>
        <time>2021-04-26T13:22:57.000Z</time>
      </trkpt>
      <trkpt lat="47.14058" lon="-1.40416">
        <ele>90</ele>
        <time>2021-04-26T13:22:59.000Z</time>
      </trkpt>
      <trkpt lat="47.14064" lon="-1.40432">
        <ele>90</ele>
        <time>2021-04-26T13:23:01.000Z</time>
      </trkpt>
      <trkpt lat="47.1407" lon="-1.40447">
        <ele>90</ele>
        <time>2021-04-26T13:23:03.000Z</time>
      </trkpt>
      <trkpt lat="47.14077" lon="-1.40462">
        <ele>90</ele>
        <time>2021-04-26T13:23:05.000Z</time>
      </trkpt>
      <trkpt lat="47.14086" lon="-1.40475">
        <ele>90</ele>
        <time>2021-04-26T13:23:07.000Z</time>
      </trkpt>
      <trkpt lat="47.14095" lon="-1.40488">
        <ele>90</ele>
        <time>2021-04-26T13:23:09.000Z</time>
      </trkpt>
      <trkpt lat="47.14104" lon="-1.40501">
        <ele>90</ele>
        <time>2021-04-26T13:23:11.000Z</time>
      </trkpt>
      <trkpt lat="47.14112" lon="-1.40513">
        <ele>89</ele>
        <time>2021-04-26T13:23:13.000Z</time>
      </trkpt>
      <trkpt lat="47.14121" lon="-1.40526">
        <ele>89</ele>
        <time>2021-04-26T13:23:15.000Z</time>
      </trkpt>
      <trkpt lat="47.1413" lon="-1.40539">
        <ele>89</ele>
        <time>2021-04-26T13:23:17.000Z</time>
      </trkpt>
      <trkpt lat="47.14139" lon="-1.40551">
        <ele>88</ele>
        <time>2021-04-26T13:23:19.000Z</time>
      </trkpt>
      <trkpt lat="47.14147" lon="-1.40564">
        <ele>88</ele>
        <time>2021-04-26T13:23:21.000Z</time>
      </trkpt>
      <trkpt lat="47.14156" lon="-1.40576">
        <ele>88</ele>
        <time>2021-04-26T13:23:23.000Z</time>
      </trkpt>
      <trkpt lat="47.14165" lon="-1.40589">
        <ele>88</ele>
        <time>2021-04-26T13:23:25.000Z</time>
      </trkpt>
      <trkpt lat="47.14175" lon="-1.40602">
        <ele>87</ele>
        <time>2021-04-26T13:23:27.000Z</time>
      </trkpt>
      <trkpt lat="47.14184" lon="-1.40615">
        <ele>87</ele>
        <time>2021-04-26T13:23:29.000Z</time>
      </trkpt>
      <trkpt lat="47.14193" lon="-1.40628">
        <ele>87</ele>
        <time>2021-04-26T13:23:31.000Z</time>
      </trkpt>
      <trkpt lat="47.14202" lon="-1.40641">
        <ele>87</ele>
        <time>2021-04-26T13:23:33.000Z</time>
      </trkpt>
      <trkpt lat="47.14211" lon="-1.40653">
        <ele>87</ele>
        <time>2021-04-26T13:23:35.000Z</time>
      </trkpt>
      <trkpt lat="47.1422" lon="-1.40666">
        <ele>87</ele>
        <time>2021-04-26T13:23:37.000Z</time>
      </trkpt>
      <trkpt lat="47.14229" lon="-1.4068">
        <ele>87</ele>
        <time>2021-04-26T13:23:39.000Z</time>
      </trkpt>
      <trkpt lat="47.14237" lon="-1.40694">
        <ele>87</ele>
        <time>2021-04-26T13:23:41.000Z</time>
      </trkpt>
      <trkpt lat="47.14245" lon="-1.40708">
        <ele>87</ele>
        <time>2021-04-26T13:23:43.000Z</time>
      </trkpt>
      <trkpt lat="47.14254" lon="-1.40723">
        <ele>86</ele>
        <time>2021-04-26T13:23:45.000Z</time>
      </trkpt>
      <trkpt lat="47.14262" lon="-1.40737">
        <ele>86</ele>
        <time>2021-04-26T13:23:47.000Z</time>
      </trkpt>
      <trkpt lat="47.1427" lon="-1.40751">
        <ele>86</ele>
        <time>2021-04-26T13:23:49.000Z</time>
      </trkpt>
      <trkpt lat="47.14278" lon="-1.40766">
        <ele>86</ele>
        <time>2021-04-26T13:23:51.000Z</time>
      </trkpt>
      <trkpt lat="47.14286" lon="-1.4078">
        <ele>86</ele>
        <time>2021-04-26T13:23:53.000Z</time>
      </trkpt>
      <trkpt lat="47.14294" lon="-1.40795">
        <ele>86</ele>
        <time>2021-04-26T13:23:55.000Z</time>
      </trkpt>
      <trkpt lat="47.14302" lon="-1.40809">
        <ele>86</ele>
        <time>2021-04-26T13:23:57.000Z</time>
      </trkpt>
      <trkpt lat="47.14309" lon="-1.40823">
        <ele>86</ele>
        <time>2021-04-26T13:23:59.000Z</time>
      </trkpt>
      <trkpt lat="47.14317" lon="-1.40837">
        <ele>86</ele>
        <time>2021-04-26T13:24:01.000Z</time>
      </trkpt>
      <trkpt lat="47.14325" lon="-1.40851">
        <ele>86</ele>
        <time>2021-04-26T13:24:03.000Z</time>
      </trkpt>
      <trkpt lat="47.14333" lon="-1.40865">
        <ele>86</ele>
        <time>2021-04-26T13:24:05.000Z</time>
      </trkpt>
      <trkpt lat="47.1434" lon="-1.40879">
        <ele>86</ele>
        <time>2021-04-26T13:24:07.000Z</time>
      </trkpt>
      <trkpt lat="47.14348" lon="-1.40892">
        <ele>86</ele>
        <time>2021-04-26T13:24:09.000Z</time>
      </trkpt>
      <trkpt lat="47.14355" lon="-1.40905">
        <ele>87</ele>
        <time>2021-04-26T13:24:11.000Z</time>
      </trkpt>
      <trkpt lat="47.14363" lon="-1.40919">
        <ele>87</ele>
        <time>2021-04-26T13:24:13.000Z</time>
      </trkpt>
      <trkpt lat="47.1437" lon="-1.40933">
        <ele>87</ele>
        <time>2021-04-26T13:24:15.000Z</time>
      </trkpt>
      <trkpt lat="47.14378" lon="-1.40947">
        <ele>87</ele>
        <time>2021-04-26T13:24:17.000Z</time>
      </trkpt>
      <trkpt lat="47.14385" lon="-1.40961">
        <ele>88</ele>
        <time>2021-04-26T13:24:19.000Z</time>
      </trkpt>
      <trkpt lat="47.14393" lon="-1.40976">
        <ele>89</ele>
        <time>2021-04-26T13:24:21.000Z</time>
      </trkpt>
      <trkpt lat="47.144" lon="-1.40992">
        <ele>89</ele>
        <time>2021-04-26T13:24:23.000Z</time>
      </trkpt>
      <trkpt lat="47.14404" lon="-1.4101">
        <ele>89</ele>
        <time>2021-04-26T13:24:25.000Z</time>
      </trkpt>
      <trkpt lat="47.14407" lon="-1.41028">
        <ele>89</ele>
        <time>2021-04-26T13:24:27.000Z</time>
      </trkpt>
      <trkpt lat="47.14408" lon="-1.41046">
        <ele>89</ele>
        <time>2021-04-26T13:24:29.000Z</time>
      </trkpt>
      <trkpt lat="47.14407" lon="-1.41064">
        <ele>89</ele>
        <time>2021-04-26T13:24:31.000Z</time>
      </trkpt>
      <trkpt lat="47.14406" lon="-1.41091">
        <ele>90</ele>
        <time>2021-04-26T13:24:34.000Z</time>
      </trkpt>
      <trkpt lat="47.14405" lon="-1.4111">
        <ele>90</ele>
        <time>2021-04-26T13:24:36.000Z</time>
      </trkpt>
      <trkpt lat="47.14404" lon="-1.41128">
        <ele>90</ele>
        <time>2021-04-26T13:24:38.000Z</time>
      </trkpt>
      <trkpt lat="47.14402" lon="-1.41156">
        <ele>90</ele>
        <time>2021-04-26T13:24:41.000Z</time>
      </trkpt>
      <trkpt lat="47.14401" lon="-1.41174">
        <ele>90</ele>
        <time>2021-04-26T13:24:43.000Z</time>
      </trkpt>
      <trkpt lat="47.144" lon="-1.41192">
        <ele>90</ele>
        <time>2021-04-26T13:24:45.000Z</time>
      </trkpt>
      <trkpt lat="47.14399" lon="-1.4121">
        <ele>91</ele>
        <time>2021-04-26T13:24:47.000Z</time>
      </trkpt>
      <trkpt lat="47.14398" lon="-1.41229">
        <ele>91</ele>
        <time>2021-04-26T13:24:49.000Z</time>
      </trkpt>
      <trkpt lat="47.14397" lon="-1.41247">
        <ele>91</ele>
        <time>2021-04-26T13:24:51.000Z</time>
      </trkpt>
      <trkpt lat="47.14396" lon="-1.41265">
        <ele>91</ele>
        <time>2021-04-26T13:24:53.000Z</time>
      </trkpt>
      <trkpt lat="47.14395" lon="-1.41283">
        <ele>91</ele>
        <time>2021-04-26T13:24:55.000Z</time>
      </trkpt>
      <trkpt lat="47.14394" lon="-1.41301">
        <ele>91</ele>
        <time>2021-04-26T13:24:57.000Z</time>
      </trkpt>
      <trkpt lat="47.14394" lon="-1.41318">
        <ele>92</ele>
        <time>2021-04-26T13:24:59.000Z</time>
      </trkpt>
      <trkpt lat="47.14395" lon="-1.41344">
        <ele>92</ele>
        <time>2021-04-26T13:25:02.000Z</time>
      </trkpt>
      <trkpt lat="47.14395" lon="-1.4137">
        <ele>93</ele>
        <time>2021-04-26T13:25:05.000Z</time>
      </trkpt>
      <trkpt lat="47.14395" lon="-1.41388">
        <ele>93</ele>
        <time>2021-04-26T13:25:07.000Z</time>
      </trkpt>
      <trkpt lat="47.14396" lon="-1.41406">
        <ele>94</ele>
        <time>2021-04-26T13:25:09.000Z</time>
      </trkpt>
      <trkpt lat="47.14396" lon="-1.41423">
        <ele>94</ele>
        <time>2021-04-26T13:25:11.000Z</time>
      </trkpt>
      <trkpt lat="47.14396" lon="-1.4144">
        <ele>94</ele>
        <time>2021-04-26T13:25:13.000Z</time>
      </trkpt>
      <trkpt lat="47.14396" lon="-1.41457">
        <ele>94</ele>
        <time>2021-04-26T13:25:15.000Z</time>
      </trkpt>
      <trkpt lat="47.14396" lon="-1.41484">
        <ele>93</ele>
        <time>2021-04-26T13:25:18.000Z</time>
      </trkpt>
      <trkpt lat="47.14396" lon="-1.41501">
        <ele>93</ele>
        <time>2021-04-26T13:25:20.000Z</time>
      </trkpt>
      <trkpt lat="47.14397" lon="-1.41526">
        <ele>94</ele>
        <time>2021-04-26T13:25:23.000Z</time>
      </trkpt>
      <trkpt lat="47.14397" lon="-1.41544">
        <ele>94</ele>
        <time>2021-04-26T13:25:25.000Z</time>
      </trkpt>
      <trkpt lat="47.14398" lon="-1.41569">
        <ele>94</ele>
        <time>2021-04-26T13:25:28.000Z</time>
      </trkpt>
      <trkpt lat="47.14396" lon="-1.41594">
        <ele>95</ele>
        <time>2021-04-26T13:25:31.000Z</time>
      </trkpt>
      <trkpt lat="47.14392" lon="-1.4161">
        <ele>95</ele>
        <time>2021-04-26T13:25:33.000Z</time>
      </trkpt>
      <trkpt lat="47.14387" lon="-1.41626">
        <ele>96</ele>
        <time>2021-04-26T13:25:35.000Z</time>
      </trkpt>
      <trkpt lat="47.14383" lon="-1.41642">
        <ele>95</ele>
        <time>2021-04-26T13:25:37.000Z</time>
      </trkpt>
      <trkpt lat="47.14381" lon="-1.41659">
        <ele>95</ele>
        <time>2021-04-26T13:25:39.000Z</time>
      </trkpt>
      <trkpt lat="47.14384" lon="-1.41678">
        <ele>95</ele>
        <time>2021-04-26T13:25:41.000Z</time>
      </trkpt>
      <trkpt lat="47.14389" lon="-1.41697">
        <ele>95</ele>
        <time>2021-04-26T13:25:43.000Z</time>
      </trkpt>
      <trkpt lat="47.14394" lon="-1.41717">
        <ele>94</ele>
        <time>2021-04-26T13:25:45.000Z</time>
      </trkpt>
      <trkpt lat="47.14399" lon="-1.41738">
        <ele>94</ele>
        <time>2021-04-26T13:25:47.000Z</time>
      </trkpt>
      <trkpt lat="47.14402" lon="-1.4176">
        <ele>93</ele>
        <time>2021-04-26T13:25:49.000Z</time>
      </trkpt>
      <trkpt lat="47.14404" lon="-1.41784">
        <ele>92</ele>
        <time>2021-04-26T13:25:51.000Z</time>
      </trkpt>
      <trkpt lat="47.14405" lon="-1.4181">
        <ele>91</ele>
        <time>2021-04-26T13:25:53.000Z</time>
      </trkpt>
      <trkpt lat="47.14408" lon="-1.41847">
        <ele>89</ele>
        <time>2021-04-26T13:25:56.000Z</time>
      </trkpt>
      <trkpt lat="47.14413" lon="-1.41871">
        <ele>88</ele>
        <time>2021-04-26T13:25:58.000Z</time>
      </trkpt>
      <trkpt lat="47.14418" lon="-1.41895">
        <ele>87</ele>
        <time>2021-04-26T13:26:00.000Z</time>
      </trkpt>
      <trkpt lat="47.14424" lon="-1.4192">
        <ele>86</ele>
        <time>2021-04-26T13:26:02.000Z</time>
      </trkpt>
      <trkpt lat="47.14429" lon="-1.41943">
        <ele>85</ele>
        <time>2021-04-26T13:26:04.000Z</time>
      </trkpt>
      <trkpt lat="47.14435" lon="-1.41967">
        <ele>84</ele>
        <time>2021-04-26T13:26:06.000Z</time>
      </trkpt>
      <trkpt lat="47.14441" lon="-1.41992">
        <ele>83</ele>
        <time>2021-04-26T13:26:08.000Z</time>
      </trkpt>
      <trkpt lat="47.14445" lon="-1.42005">
        <ele>83</ele>
        <time>2021-04-26T13:26:09.000Z</time>
      </trkpt>
      <trkpt lat="47.14448" lon="-1.42019">
        <ele>82</ele>
        <time>2021-04-26T13:26:10.000Z</time>
      </trkpt>
      <trkpt lat="47.14452" lon="-1.42031">
        <ele>81</ele>
        <time>2021-04-26T13:26:11.000Z</time>
      </trkpt>
      <trkpt lat="47.14457" lon="-1.42045">
        <ele>80</ele>
        <time>2021-04-26T13:26:12.000Z</time>
      </trkpt>
      <trkpt lat="47.14462" lon="-1.42058">
        <ele>80</ele>
        <time>2021-04-26T13:26:13.000Z</time>
      </trkpt>
      <trkpt lat="47.14467" lon="-1.42071">
        <ele>79</ele>
        <time>2021-04-26T13:26:14.000Z</time>
      </trkpt>
      <trkpt lat="47.14477" lon="-1.42095">
        <ele>78</ele>
        <time>2021-04-26T13:26:16.000Z</time>
      </trkpt>
      <trkpt lat="47.14483" lon="-1.42108">
        <ele>77</ele>
        <time>2021-04-26T13:26:17.000Z</time>
      </trkpt>
      <trkpt lat="47.14488" lon="-1.42121">
        <ele>76</ele>
        <time>2021-04-26T13:26:18.000Z</time>
      </trkpt>
      <trkpt lat="47.14494" lon="-1.42134">
        <ele>76</ele>
        <time>2021-04-26T13:26:19.000Z</time>
      </trkpt>
      <trkpt lat="47.14499" lon="-1.42146">
        <ele>75</ele>
        <time>2021-04-26T13:26:20.000Z</time>
      </trkpt>
      <trkpt lat="47.14505" lon="-1.42159">
        <ele>75</ele>
        <time>2021-04-26T13:26:21.000Z</time>
      </trkpt>
      <trkpt lat="47.1451" lon="-1.42172">
        <ele>74</ele>
        <time>2021-04-26T13:26:22.000Z</time>
      </trkpt>
      <trkpt lat="47.14514" lon="-1.42186">
        <ele>74</ele>
        <time>2021-04-26T13:26:23.000Z</time>
      </trkpt>
      <trkpt lat="47.14519" lon="-1.42199">
        <ele>73</ele>
        <time>2021-04-26T13:26:24.000Z</time>
      </trkpt>
      <trkpt lat="47.14523" lon="-1.42212">
        <ele>73</ele>
        <time>2021-04-26T13:26:25.000Z</time>
      </trkpt>
      <trkpt lat="47.14528" lon="-1.42224">
        <ele>73</ele>
        <time>2021-04-26T13:26:26.000Z</time>
      </trkpt>
      <trkpt lat="47.14532" lon="-1.42237">
        <ele>73</ele>
        <time>2021-04-26T13:26:27.000Z</time>
      </trkpt>
      <trkpt lat="47.14537" lon="-1.4225">
        <ele>73</ele>
        <time>2021-04-26T13:26:28.000Z</time>
      </trkpt>
      <trkpt lat="47.14541" lon="-1.42261">
        <ele>73</ele>
        <time>2021-04-26T13:26:29.000Z</time>
      </trkpt>
      <trkpt lat="47.14546" lon="-1.42272">
        <ele>73</ele>
        <time>2021-04-26T13:26:30.000Z</time>
      </trkpt>
      <trkpt lat="47.14556" lon="-1.42292">
        <ele>73</ele>
        <time>2021-04-26T13:26:32.000Z</time>
      </trkpt>
      <trkpt lat="47.14567" lon="-1.42309">
        <ele>74</ele>
        <time>2021-04-26T13:26:34.000Z</time>
      </trkpt>
      <trkpt lat="47.14578" lon="-1.42324">
        <ele>74</ele>
        <time>2021-04-26T13:26:36.000Z</time>
      </trkpt>
      <trkpt lat="47.1459" lon="-1.42337">
        <ele>74</ele>
        <time>2021-04-26T13:26:38.000Z</time>
      </trkpt>
      <trkpt lat="47.14601" lon="-1.42348">
        <ele>75</ele>
        <time>2021-04-26T13:26:40.000Z</time>
      </trkpt>
      <trkpt lat="47.14611" lon="-1.4236">
        <ele>75</ele>
        <time>2021-04-26T13:26:42.000Z</time>
      </trkpt>
      <trkpt lat="47.14623" lon="-1.42373">
        <ele>75</ele>
        <time>2021-04-26T13:26:44.000Z</time>
      </trkpt>
      <trkpt lat="47.14635" lon="-1.42384">
        <ele>75</ele>
        <time>2021-04-26T13:26:46.000Z</time>
      </trkpt>
      <trkpt lat="47.14647" lon="-1.42395">
        <ele>76</ele>
        <time>2021-04-26T13:26:48.000Z</time>
      </trkpt>
      <trkpt lat="47.14659" lon="-1.42407">
        <ele>77</ele>
        <time>2021-04-26T13:26:50.000Z</time>
      </trkpt>
      <trkpt lat="47.14671" lon="-1.42419">
        <ele>78</ele>
        <time>2021-04-26T13:26:52.000Z</time>
      </trkpt>
      <trkpt lat="47.14683" lon="-1.4243">
        <ele>78</ele>
        <time>2021-04-26T13:26:54.000Z</time>
      </trkpt>
      <trkpt lat="47.14694" lon="-1.42442">
        <ele>79</ele>
        <time>2021-04-26T13:26:56.000Z</time>
      </trkpt>
      <trkpt lat="47.14706" lon="-1.42453">
        <ele>79</ele>
        <time>2021-04-26T13:26:58.000Z</time>
      </trkpt>
      <trkpt lat="47.14718" lon="-1.42465">
        <ele>80</ele>
        <time>2021-04-26T13:27:00.000Z</time>
      </trkpt>
      <trkpt lat="47.14729" lon="-1.42476">
        <ele>81</ele>
        <time>2021-04-26T13:27:02.000Z</time>
      </trkpt>
      <trkpt lat="47.14741" lon="-1.42487">
        <ele>81</ele>
        <time>2021-04-26T13:27:04.000Z</time>
      </trkpt>
      <trkpt lat="47.14753" lon="-1.42499">
        <ele>82</ele>
        <time>2021-04-26T13:27:06.000Z</time>
      </trkpt>
      <trkpt lat="47.14764" lon="-1.4251">
        <ele>83</ele>
        <time>2021-04-26T13:27:08.000Z</time>
      </trkpt>
      <trkpt lat="47.14776" lon="-1.42522">
        <ele>83</ele>
        <time>2021-04-26T13:27:10.000Z</time>
      </trkpt>
      <trkpt lat="47.14786" lon="-1.42533">
        <ele>84</ele>
        <time>2021-04-26T13:27:12.000Z</time>
      </trkpt>
      <trkpt lat="47.14797" lon="-1.42546">
        <ele>83</ele>
        <time>2021-04-26T13:27:14.000Z</time>
      </trkpt>
      <trkpt lat="47.14808" lon="-1.4256">
        <ele>83</ele>
        <time>2021-04-26T13:27:16.000Z</time>
      </trkpt>
      <trkpt lat="47.14819" lon="-1.42573">
        <ele>83</ele>
        <time>2021-04-26T13:27:18.000Z</time>
      </trkpt>
      <trkpt lat="47.14829" lon="-1.42587">
        <ele>83</ele>
        <time>2021-04-26T13:27:20.000Z</time>
      </trkpt>
      <trkpt lat="47.14841" lon="-1.42602">
        <ele>82</ele>
        <time>2021-04-26T13:27:22.000Z</time>
      </trkpt>
      <trkpt lat="47.14852" lon="-1.42617">
        <ele>82</ele>
        <time>2021-04-26T13:27:24.000Z</time>
      </trkpt>
      <trkpt lat="47.14864" lon="-1.42633">
        <ele>82</ele>
        <time>2021-04-26T13:27:26.000Z</time>
      </trkpt>
      <trkpt lat="47.14875" lon="-1.42649">
        <ele>81</ele>
        <time>2021-04-26T13:27:28.000Z</time>
      </trkpt>
      <trkpt lat="47.14887" lon="-1.42664">
        <ele>81</ele>
        <time>2021-04-26T13:27:30.000Z</time>
      </trkpt>
      <trkpt lat="47.14898" lon="-1.42681">
        <ele>80</ele>
        <time>2021-04-26T13:27:32.000Z</time>
      </trkpt>
      <trkpt lat="47.1491" lon="-1.42699">
        <ele>79</ele>
        <time>2021-04-26T13:27:34.000Z</time>
      </trkpt>
      <trkpt lat="47.14922" lon="-1.42717">
        <ele>79</ele>
        <time>2021-04-26T13:27:36.000Z</time>
      </trkpt>
      <trkpt lat="47.14934" lon="-1.42736">
        <ele>78</ele>
        <time>2021-04-26T13:27:38.000Z</time>
      </trkpt>
      <trkpt lat="47.14945" lon="-1.42754">
        <ele>78</ele>
        <time>2021-04-26T13:27:40.000Z</time>
      </trkpt>
      <trkpt lat="47.14962" lon="-1.42781">
        <ele>77</ele>
        <time>2021-04-26T13:27:43.000Z</time>
      </trkpt>
      <trkpt lat="47.14974" lon="-1.42799">
        <ele>77</ele>
        <time>2021-04-26T13:27:45.000Z</time>
      </trkpt>
      <trkpt lat="47.14985" lon="-1.42817">
        <ele>76</ele>
        <time>2021-04-26T13:27:47.000Z</time>
      </trkpt>
      <trkpt lat="47.14997" lon="-1.42834">
        <ele>76</ele>
        <time>2021-04-26T13:27:49.000Z</time>
      </trkpt>
      <trkpt lat="47.1501" lon="-1.42849">
        <ele>76</ele>
        <time>2021-04-26T13:27:51.000Z</time>
      </trkpt>
      <trkpt lat="47.15023" lon="-1.4286">
        <ele>76</ele>
        <time>2021-04-26T13:27:53.000Z</time>
      </trkpt>
      <trkpt lat="47.15038" lon="-1.42867">
        <ele>76</ele>
        <time>2021-04-26T13:27:55.000Z</time>
      </trkpt>
      <trkpt lat="47.15052" lon="-1.42871">
        <ele>76</ele>
        <time>2021-04-26T13:27:57.000Z</time>
      </trkpt>
      <trkpt lat="47.15067" lon="-1.42875">
        <ele>76</ele>
        <time>2021-04-26T13:27:59.000Z</time>
      </trkpt>
      <trkpt lat="47.15081" lon="-1.4288">
        <ele>76</ele>
        <time>2021-04-26T13:28:01.000Z</time>
      </trkpt>
      <trkpt lat="47.15095" lon="-1.42884">
        <ele>75</ele>
        <time>2021-04-26T13:28:03.000Z</time>
      </trkpt>
      <trkpt lat="47.15109" lon="-1.42888">
        <ele>75</ele>
        <time>2021-04-26T13:28:05.000Z</time>
      </trkpt>
      <trkpt lat="47.15123" lon="-1.42893">
        <ele>75</ele>
        <time>2021-04-26T13:28:07.000Z</time>
      </trkpt>
      <trkpt lat="47.15137" lon="-1.42901">
        <ele>75</ele>
        <time>2021-04-26T13:28:09.000Z</time>
      </trkpt>
      <trkpt lat="47.15151" lon="-1.42908">
        <ele>75</ele>
        <time>2021-04-26T13:28:11.000Z</time>
      </trkpt>
      <trkpt lat="47.15163" lon="-1.42916">
        <ele>75</ele>
        <time>2021-04-26T13:28:13.000Z</time>
      </trkpt>
      <trkpt lat="47.15177" lon="-1.42923">
        <ele>74</ele>
        <time>2021-04-26T13:28:15.000Z</time>
      </trkpt>
      <trkpt lat="47.15189" lon="-1.42934">
        <ele>74</ele>
        <time>2021-04-26T13:28:17.000Z</time>
      </trkpt>
      <trkpt lat="47.15202" lon="-1.4295">
        <ele>73</ele>
        <time>2021-04-26T13:28:19.000Z</time>
      </trkpt>
      <trkpt lat="47.15212" lon="-1.42968">
        <ele>72</ele>
        <time>2021-04-26T13:28:21.000Z</time>
      </trkpt>
      <trkpt lat="47.15223" lon="-1.42988">
        <ele>72</ele>
        <time>2021-04-26T13:28:23.000Z</time>
      </trkpt>
      <trkpt lat="47.15233" lon="-1.43009">
        <ele>71</ele>
        <time>2021-04-26T13:28:25.000Z</time>
      </trkpt>
      <trkpt lat="47.15238" lon="-1.43021">
        <ele>71</ele>
        <time>2021-04-26T13:28:26.000Z</time>
      </trkpt>
      <trkpt lat="47.15242" lon="-1.43033">
        <ele>70</ele>
        <time>2021-04-26T13:28:27.000Z</time>
      </trkpt>
      <trkpt lat="47.15246" lon="-1.43046">
        <ele>70</ele>
        <time>2021-04-26T13:28:28.000Z</time>
      </trkpt>
      <trkpt lat="47.15249" lon="-1.43059">
        <ele>69</ele>
        <time>2021-04-26T13:28:29.000Z</time>
      </trkpt>
      <trkpt lat="47.15251" lon="-1.43073">
        <ele>69</ele>
        <time>2021-04-26T13:28:30.000Z</time>
      </trkpt>
      <trkpt lat="47.15252" lon="-1.43088">
        <ele>68</ele>
        <time>2021-04-26T13:28:31.000Z</time>
      </trkpt>
      <trkpt lat="47.15253" lon="-1.43102">
        <ele>68</ele>
        <time>2021-04-26T13:28:32.000Z</time>
      </trkpt>
      <trkpt lat="47.15253" lon="-1.43117">
        <ele>67</ele>
        <time>2021-04-26T13:28:33.000Z</time>
      </trkpt>
      <trkpt lat="47.15253" lon="-1.43132">
        <ele>67</ele>
        <time>2021-04-26T13:28:34.000Z</time>
      </trkpt>
      <trkpt lat="47.15253" lon="-1.43147">
        <ele>67</ele>
        <time>2021-04-26T13:28:35.000Z</time>
      </trkpt>
      <trkpt lat="47.15253" lon="-1.43161">
        <ele>66</ele>
        <time>2021-04-26T13:28:36.000Z</time>
      </trkpt>
      <trkpt lat="47.15252" lon="-1.43176">
        <ele>66</ele>
        <time>2021-04-26T13:28:37.000Z</time>
      </trkpt>
      <trkpt lat="47.15252" lon="-1.43191">
        <ele>65</ele>
        <time>2021-04-26T13:28:38.000Z</time>
      </trkpt>
      <trkpt lat="47.15252" lon="-1.43206">
        <ele>64</ele>
        <time>2021-04-26T13:28:39.000Z</time>
      </trkpt>
      <trkpt lat="47.15251" lon="-1.43221">
        <ele>64</ele>
        <time>2021-04-26T13:28:40.000Z</time>
      </trkpt>
      <trkpt lat="47.15251" lon="-1.43237">
        <ele>63</ele>
        <time>2021-04-26T13:28:41.000Z</time>
      </trkpt>
      <trkpt lat="47.15251" lon="-1.43252">
        <ele>63</ele>
        <time>2021-04-26T13:28:42.000Z</time>
      </trkpt>
      <trkpt lat="47.1525" lon="-1.43267">
        <ele>62</ele>
        <time>2021-04-26T13:28:43.000Z</time>
      </trkpt>
      <trkpt lat="47.15249" lon="-1.43282">
        <ele>62</ele>
        <time>2021-04-26T13:28:44.000Z</time>
      </trkpt>
      <trkpt lat="47.15249" lon="-1.43297">
        <ele>62</ele>
        <time>2021-04-26T13:28:45.000Z</time>
      </trkpt>
      <trkpt lat="47.15249" lon="-1.43312">
        <ele>61</ele>
        <time>2021-04-26T13:28:46.000Z</time>
      </trkpt>
      <trkpt lat="47.15249" lon="-1.43326">
        <ele>61</ele>
        <time>2021-04-26T13:28:47.000Z</time>
      </trkpt>
      <trkpt lat="47.15248" lon="-1.43341">
        <ele>60</ele>
        <time>2021-04-26T13:28:48.000Z</time>
      </trkpt>
      <trkpt lat="47.15249" lon="-1.43355">
        <ele>60</ele>
        <time>2021-04-26T13:28:49.000Z</time>
      </trkpt>
      <trkpt lat="47.15249" lon="-1.43369">
        <ele>60</ele>
        <time>2021-04-26T13:28:50.000Z</time>
      </trkpt>
      <trkpt lat="47.1525" lon="-1.43383">
        <ele>60</ele>
        <time>2021-04-26T13:28:51.000Z</time>
      </trkpt>
      <trkpt lat="47.1525" lon="-1.43396">
        <ele>60</ele>
        <time>2021-04-26T13:28:52.000Z</time>
      </trkpt>
      <trkpt lat="47.15251" lon="-1.4341">
        <ele>60</ele>
        <time>2021-04-26T13:28:53.000Z</time>
      </trkpt>
      <trkpt lat="47.15252" lon="-1.43424">
        <ele>60</ele>
        <time>2021-04-26T13:28:54.000Z</time>
      </trkpt>
      <trkpt lat="47.15253" lon="-1.43438">
        <ele>60</ele>
        <time>2021-04-26T13:28:55.000Z</time>
      </trkpt>
      <trkpt lat="47.15254" lon="-1.43451">
        <ele>60</ele>
        <time>2021-04-26T13:28:56.000Z</time>
      </trkpt>
      <trkpt lat="47.15256" lon="-1.43464">
        <ele>60</ele>
        <time>2021-04-26T13:28:57.000Z</time>
      </trkpt>
      <trkpt lat="47.15259" lon="-1.43489">
        <ele>60</ele>
        <time>2021-04-26T13:28:59.000Z</time>
      </trkpt>
      <trkpt lat="47.15262" lon="-1.43515">
        <ele>61</ele>
        <time>2021-04-26T13:29:01.000Z</time>
      </trkpt>
      <trkpt lat="47.15264" lon="-1.43528">
        <ele>61</ele>
        <time>2021-04-26T13:29:02.000Z</time>
      </trkpt>
      <trkpt lat="47.15267" lon="-1.43553">
        <ele>62</ele>
        <time>2021-04-26T13:29:04.000Z</time>
      </trkpt>
      <trkpt lat="47.15268" lon="-1.43567">
        <ele>61</ele>
        <time>2021-04-26T13:29:05.000Z</time>
      </trkpt>
      <trkpt lat="47.15269" lon="-1.4358">
        <ele>61</ele>
        <time>2021-04-26T13:29:06.000Z</time>
      </trkpt>
      <trkpt lat="47.15271" lon="-1.43605">
        <ele>61</ele>
        <time>2021-04-26T13:29:08.000Z</time>
      </trkpt>
      <trkpt lat="47.15274" lon="-1.4363">
        <ele>61</ele>
        <time>2021-04-26T13:29:10.000Z</time>
      </trkpt>
      <trkpt lat="47.15276" lon="-1.43655">
        <ele>62</ele>
        <time>2021-04-26T13:29:12.000Z</time>
      </trkpt>
      <trkpt lat="47.15278" lon="-1.4368">
        <ele>62</ele>
        <time>2021-04-26T13:29:14.000Z</time>
      </trkpt>
      <trkpt lat="47.15279" lon="-1.43706">
        <ele>61</ele>
        <time>2021-04-26T13:29:16.000Z</time>
      </trkpt>
      <trkpt lat="47.15278" lon="-1.43732">
        <ele>60</ele>
        <time>2021-04-26T13:29:18.000Z</time>
      </trkpt>
      <trkpt lat="47.15276" lon="-1.43757">
        <ele>60</ele>
        <time>2021-04-26T13:29:20.000Z</time>
      </trkpt>
      <trkpt lat="47.15274" lon="-1.43782">
        <ele>59</ele>
        <time>2021-04-26T13:29:22.000Z</time>
      </trkpt>
      <trkpt lat="47.15272" lon="-1.43806">
        <ele>59</ele>
        <time>2021-04-26T13:29:24.000Z</time>
      </trkpt>
      <trkpt lat="47.1527" lon="-1.43831">
        <ele>59</ele>
        <time>2021-04-26T13:29:26.000Z</time>
      </trkpt>
      <trkpt lat="47.15272" lon="-1.43856">
        <ele>58</ele>
        <time>2021-04-26T13:29:28.000Z</time>
      </trkpt>
      <trkpt lat="47.15276" lon="-1.43878">
        <ele>58</ele>
        <time>2021-04-26T13:29:30.000Z</time>
      </trkpt>
      <trkpt lat="47.15283" lon="-1.43899">
        <ele>57</ele>
        <time>2021-04-26T13:29:32.000Z</time>
      </trkpt>
      <trkpt lat="47.15294" lon="-1.43917">
        <ele>57</ele>
        <time>2021-04-26T13:29:34.000Z</time>
      </trkpt>
      <trkpt lat="47.15305" lon="-1.43932">
        <ele>58</ele>
        <time>2021-04-26T13:29:36.000Z</time>
      </trkpt>
      <trkpt lat="47.15315" lon="-1.43946">
        <ele>59</ele>
        <time>2021-04-26T13:29:38.000Z</time>
      </trkpt>
      <trkpt lat="47.15324" lon="-1.4396">
        <ele>59</ele>
        <time>2021-04-26T13:29:40.000Z</time>
      </trkpt>
      <trkpt lat="47.15334" lon="-1.43973">
        <ele>60</ele>
        <time>2021-04-26T13:29:42.000Z</time>
      </trkpt>
      <trkpt lat="47.15343" lon="-1.43987">
        <ele>59</ele>
        <time>2021-04-26T13:29:44.000Z</time>
      </trkpt>
      <trkpt lat="47.15352" lon="-1.44">
        <ele>59</ele>
        <time>2021-04-26T13:29:46.000Z</time>
      </trkpt>
      <trkpt lat="47.15361" lon="-1.44013">
        <ele>58</ele>
        <time>2021-04-26T13:29:48.000Z</time>
      </trkpt>
      <trkpt lat="47.15371" lon="-1.44028">
        <ele>57</ele>
        <time>2021-04-26T13:29:50.000Z</time>
      </trkpt>
      <trkpt lat="47.15379" lon="-1.44046">
        <ele>56</ele>
        <time>2021-04-26T13:29:52.000Z</time>
      </trkpt>
      <trkpt lat="47.15383" lon="-1.44066">
        <ele>56</ele>
        <time>2021-04-26T13:29:54.000Z</time>
      </trkpt>
      <trkpt lat="47.15384" lon="-1.44087">
        <ele>57</ele>
        <time>2021-04-26T13:29:56.000Z</time>
      </trkpt>
      <trkpt lat="47.15381" lon="-1.44108">
        <ele>57</ele>
        <time>2021-04-26T13:29:58.000Z</time>
      </trkpt>
      <trkpt lat="47.15378" lon="-1.44128">
        <ele>58</ele>
        <time>2021-04-26T13:30:00.000Z</time>
      </trkpt>
      <trkpt lat="47.15375" lon="-1.44149">
        <ele>58</ele>
        <time>2021-04-26T13:30:02.000Z</time>
      </trkpt>
      <trkpt lat="47.15372" lon="-1.44169">
        <ele>58</ele>
        <time>2021-04-26T13:30:04.000Z</time>
      </trkpt>
      <trkpt lat="47.15369" lon="-1.44191">
        <ele>58</ele>
        <time>2021-04-26T13:30:06.000Z</time>
      </trkpt>
      <trkpt lat="47.15368" lon="-1.44212">
        <ele>57</ele>
        <time>2021-04-26T13:30:08.000Z</time>
      </trkpt>
      <trkpt lat="47.15368" lon="-1.44233">
        <ele>57</ele>
        <time>2021-04-26T13:30:10.000Z</time>
      </trkpt>
      <trkpt lat="47.15369" lon="-1.44253">
        <ele>58</ele>
        <time>2021-04-26T13:30:12.000Z</time>
      </trkpt>
      <trkpt lat="47.15371" lon="-1.44274">
        <ele>58</ele>
        <time>2021-04-26T13:30:14.000Z</time>
      </trkpt>
      <trkpt lat="47.15375" lon="-1.44294">
        <ele>58</ele>
        <time>2021-04-26T13:30:16.000Z</time>
      </trkpt>
      <trkpt lat="47.1538" lon="-1.44312">
        <ele>59</ele>
        <time>2021-04-26T13:30:18.000Z</time>
      </trkpt>
      <trkpt lat="47.15387" lon="-1.44329">
        <ele>59</ele>
        <time>2021-04-26T13:30:20.000Z</time>
      </trkpt>
      <trkpt lat="47.15395" lon="-1.44345">
        <ele>59</ele>
        <time>2021-04-26T13:30:22.000Z</time>
      </trkpt>
      <trkpt lat="47.15405" lon="-1.4436">
        <ele>59</ele>
        <time>2021-04-26T13:30:24.000Z</time>
      </trkpt>
      <trkpt lat="47.15416" lon="-1.44373">
        <ele>58</ele>
        <time>2021-04-26T13:30:26.000Z</time>
      </trkpt>
      <trkpt lat="47.15426" lon="-1.44384">
        <ele>59</ele>
        <time>2021-04-26T13:30:28.000Z</time>
      </trkpt>
      <trkpt lat="47.15438" lon="-1.44393">
        <ele>58</ele>
        <time>2021-04-26T13:30:30.000Z</time>
      </trkpt>
      <trkpt lat="47.15451" lon="-1.44401">
        <ele>58</ele>
        <time>2021-04-26T13:30:32.000Z</time>
      </trkpt>
      <trkpt lat="47.15463" lon="-1.44407">
        <ele>58</ele>
        <time>2021-04-26T13:30:34.000Z</time>
      </trkpt>
      <trkpt lat="47.15475" lon="-1.44412">
        <ele>59</ele>
        <time>2021-04-26T13:30:36.000Z</time>
      </trkpt>
      <trkpt lat="47.15488" lon="-1.44415">
        <ele>59</ele>
        <time>2021-04-26T13:30:38.000Z</time>
      </trkpt>
      <trkpt lat="47.155" lon="-1.44418">
        <ele>60</ele>
        <time>2021-04-26T13:30:40.000Z</time>
      </trkpt>
      <trkpt lat="47.15512" lon="-1.44419">
        <ele>61</ele>
        <time>2021-04-26T13:30:42.000Z</time>
      </trkpt>
      <trkpt lat="47.15524" lon="-1.4442">
        <ele>61</ele>
        <time>2021-04-26T13:30:44.000Z</time>
      </trkpt>
      <trkpt lat="47.15536" lon="-1.44422">
        <ele>63</ele>
        <time>2021-04-26T13:30:46.000Z</time>
      </trkpt>
      <trkpt lat="47.15549" lon="-1.44421">
        <ele>63</ele>
        <time>2021-04-26T13:30:48.000Z</time>
      </trkpt>
      <trkpt lat="47.15561" lon="-1.44419">
        <ele>64</ele>
        <time>2021-04-26T13:30:50.000Z</time>
      </trkpt>
      <trkpt lat="47.15572" lon="-1.44416">
        <ele>64</ele>
        <time>2021-04-26T13:30:52.000Z</time>
      </trkpt>
      <trkpt lat="47.15584" lon="-1.44412">
        <ele>64</ele>
        <time>2021-04-26T13:30:54.000Z</time>
      </trkpt>
      <trkpt lat="47.15595" lon="-1.44407">
        <ele>65</ele>
        <time>2021-04-26T13:30:56.000Z</time>
      </trkpt>
      <trkpt lat="47.15606" lon="-1.44403">
        <ele>66</ele>
        <time>2021-04-26T13:30:58.000Z</time>
      </trkpt>
      <trkpt lat="47.15617" lon="-1.44398">
        <ele>66</ele>
        <time>2021-04-26T13:31:00.000Z</time>
      </trkpt>
      <trkpt lat="47.15628" lon="-1.44393">
        <ele>66</ele>
        <time>2021-04-26T13:31:02.000Z</time>
      </trkpt>
      <trkpt lat="47.15638" lon="-1.44389">
        <ele>67</ele>
        <time>2021-04-26T13:31:04.000Z</time>
      </trkpt>
      <trkpt lat="47.15648" lon="-1.44384">
        <ele>68</ele>
        <time>2021-04-26T13:31:06.000Z</time>
      </trkpt>
      <trkpt lat="47.1566" lon="-1.44379">
        <ele>68</ele>
        <time>2021-04-26T13:31:08.000Z</time>
      </trkpt>
      <trkpt lat="47.15671" lon="-1.44373">
        <ele>69</ele>
        <time>2021-04-26T13:31:10.000Z</time>
      </trkpt>
      <trkpt lat="47.15682" lon="-1.44368">
        <ele>70</ele>
        <time>2021-04-26T13:31:12.000Z</time>
      </trkpt>
      <trkpt lat="47.15693" lon="-1.44364">
        <ele>71</ele>
        <time>2021-04-26T13:31:14.000Z</time>
      </trkpt>
      <trkpt lat="47.15704" lon="-1.44359">
        <ele>72</ele>
        <time>2021-04-26T13:31:16.000Z</time>
      </trkpt>
      <trkpt lat="47.15715" lon="-1.44353">
        <ele>72</ele>
        <time>2021-04-26T13:31:18.000Z</time>
      </trkpt>
      <trkpt lat="47.15726" lon="-1.44348">
        <ele>73</ele>
        <time>2021-04-26T13:31:20.000Z</time>
      </trkpt>
      <trkpt lat="47.15736" lon="-1.44345">
        <ele>73</ele>
        <time>2021-04-26T13:31:22.000Z</time>
      </trkpt>
      <trkpt lat="47.15746" lon="-1.44339">
        <ele>73</ele>
        <time>2021-04-26T13:31:24.000Z</time>
      </trkpt>
      <trkpt lat="47.15757" lon="-1.44335">
        <ele>74</ele>
        <time>2021-04-26T13:31:26.000Z</time>
      </trkpt>
      <trkpt lat="47.15767" lon="-1.4433">
        <ele>75</ele>
        <time>2021-04-26T13:31:28.000Z</time>
      </trkpt>
      <trkpt lat="47.15779" lon="-1.44327">
        <ele>75</ele>
        <time>2021-04-26T13:31:30.000Z</time>
      </trkpt>
      <trkpt lat="47.1579" lon="-1.44325">
        <ele>75</ele>
        <time>2021-04-26T13:31:32.000Z</time>
      </trkpt>
      <trkpt lat="47.15802" lon="-1.4433">
        <ele>74</ele>
        <time>2021-04-26T13:31:34.000Z</time>
      </trkpt>
      <trkpt lat="47.15812" lon="-1.44338">
        <ele>73</ele>
        <time>2021-04-26T13:31:36.000Z</time>
      </trkpt>
      <trkpt lat="47.15821" lon="-1.4435">
        <ele>73</ele>
        <time>2021-04-26T13:31:38.000Z</time>
      </trkpt>
      <trkpt lat="47.15828" lon="-1.44364">
        <ele>73</ele>
        <time>2021-04-26T13:31:40.000Z</time>
      </trkpt>
      <trkpt lat="47.15834" lon="-1.44378">
        <ele>73</ele>
        <time>2021-04-26T13:31:42.000Z</time>
      </trkpt>
      <trkpt lat="47.1584" lon="-1.44392">
        <ele>73</ele>
        <time>2021-04-26T13:31:44.000Z</time>
      </trkpt>
      <trkpt lat="47.15846" lon="-1.44406">
        <ele>73</ele>
        <time>2021-04-26T13:31:46.000Z</time>
      </trkpt>
      <trkpt lat="47.15851" lon="-1.44421">
        <ele>73</ele>
        <time>2021-04-26T13:31:48.000Z</time>
      </trkpt>
      <trkpt lat="47.15857" lon="-1.44435">
        <ele>73</ele>
        <time>2021-04-26T13:31:50.000Z</time>
      </trkpt>
      <trkpt lat="47.15863" lon="-1.4445">
        <ele>73</ele>
        <time>2021-04-26T13:31:52.000Z</time>
      </trkpt>
      <trkpt lat="47.15869" lon="-1.44465">
        <ele>74</ele>
        <time>2021-04-26T13:31:54.000Z</time>
      </trkpt>
      <trkpt lat="47.15874" lon="-1.4448">
        <ele>74</ele>
        <time>2021-04-26T13:31:56.000Z</time>
      </trkpt>
      <trkpt lat="47.1588" lon="-1.44495">
        <ele>74</ele>
        <time>2021-04-26T13:31:58.000Z</time>
      </trkpt>
      <trkpt lat="47.15886" lon="-1.44509">
        <ele>75</ele>
        <time>2021-04-26T13:32:00.000Z</time>
      </trkpt>
      <trkpt lat="47.15891" lon="-1.44523">
        <ele>75</ele>
        <time>2021-04-26T13:32:02.000Z</time>
      </trkpt>
      <trkpt lat="47.15896" lon="-1.44537">
        <ele>75</ele>
        <time>2021-04-26T13:32:04.000Z</time>
      </trkpt>
      <trkpt lat="47.15902" lon="-1.44552">
        <ele>76</ele>
        <time>2021-04-26T13:32:06.000Z</time>
      </trkpt>
      <trkpt lat="47.15907" lon="-1.44567">
        <ele>76</ele>
        <time>2021-04-26T13:32:08.000Z</time>
      </trkpt>
      <trkpt lat="47.15912" lon="-1.44582">
        <ele>77</ele>
        <time>2021-04-26T13:32:10.000Z</time>
      </trkpt>
      <trkpt lat="47.15917" lon="-1.44597">
        <ele>77</ele>
        <time>2021-04-26T13:32:12.000Z</time>
      </trkpt>
      <trkpt lat="47.15922" lon="-1.44612">
        <ele>78</ele>
        <time>2021-04-26T13:32:14.000Z</time>
      </trkpt>
      <trkpt lat="47.15926" lon="-1.44628">
        <ele>78</ele>
        <time>2021-04-26T13:32:16.000Z</time>
      </trkpt>
      <trkpt lat="47.15931" lon="-1.44644">
        <ele>79</ele>
        <time>2021-04-26T13:32:18.000Z</time>
      </trkpt>
      <trkpt lat="47.15936" lon="-1.4466">
        <ele>79</ele>
        <time>2021-04-26T13:32:20.000Z</time>
      </trkpt>
      <trkpt lat="47.15941" lon="-1.44678">
        <ele>79</ele>
        <time>2021-04-26T13:32:22.000Z</time>
      </trkpt>
      <trkpt lat="47.15947" lon="-1.44695">
        <ele>80</ele>
        <time>2021-04-26T13:32:24.000Z</time>
      </trkpt>
      <trkpt lat="47.15952" lon="-1.44711">
        <ele>81</ele>
        <time>2021-04-26T13:32:26.000Z</time>
      </trkpt>
      <trkpt lat="47.15956" lon="-1.44726">
        <ele>81</ele>
        <time>2021-04-26T13:32:28.000Z</time>
      </trkpt>
      <trkpt lat="47.15961" lon="-1.44741">
        <ele>80</ele>
        <time>2021-04-26T13:32:30.000Z</time>
      </trkpt>
      <trkpt lat="47.15966" lon="-1.44757">
        <ele>80</ele>
        <time>2021-04-26T13:32:32.000Z</time>
      </trkpt>
      <trkpt lat="47.15971" lon="-1.44774">
        <ele>80</ele>
        <time>2021-04-26T13:32:34.000Z</time>
      </trkpt>
      <trkpt lat="47.15977" lon="-1.44792">
        <ele>79</ele>
        <time>2021-04-26T13:32:36.000Z</time>
      </trkpt>
      <trkpt lat="47.15984" lon="-1.44808">
        <ele>79</ele>
        <time>2021-04-26T13:32:38.000Z</time>
      </trkpt>
      <trkpt lat="47.15992" lon="-1.44824">
        <ele>79</ele>
        <time>2021-04-26T13:32:40.000Z</time>
      </trkpt>
      <trkpt lat="47.16001" lon="-1.44839">
        <ele>79</ele>
        <time>2021-04-26T13:32:42.000Z</time>
      </trkpt>
      <trkpt lat="47.1601" lon="-1.44853">
        <ele>79</ele>
        <time>2021-04-26T13:32:44.000Z</time>
      </trkpt>
      <trkpt lat="47.1602" lon="-1.44866">
        <ele>79</ele>
        <time>2021-04-26T13:32:46.000Z</time>
      </trkpt>
      <trkpt lat="47.1603" lon="-1.44879">
        <ele>79</ele>
        <time>2021-04-26T13:32:48.000Z</time>
      </trkpt>
      <trkpt lat="47.1604" lon="-1.44891">
        <ele>79</ele>
        <time>2021-04-26T13:32:50.000Z</time>
      </trkpt>
      <trkpt lat="47.16051" lon="-1.44902">
        <ele>79</ele>
        <time>2021-04-26T13:32:52.000Z</time>
      </trkpt>
      <trkpt lat="47.16061" lon="-1.44913">
        <ele>79</ele>
        <time>2021-04-26T13:32:54.000Z</time>
      </trkpt>
      <trkpt lat="47.16071" lon="-1.44926">
        <ele>80</ele>
        <time>2021-04-26T13:32:56.000Z</time>
      </trkpt>
      <trkpt lat="47.1608" lon="-1.44939">
        <ele>79</ele>
        <time>2021-04-26T13:32:58.000Z</time>
      </trkpt>
      <trkpt lat="47.16088" lon="-1.44953">
        <ele>79</ele>
        <time>2021-04-26T13:33:00.000Z</time>
      </trkpt>
      <trkpt lat="47.16095" lon="-1.44968">
        <ele>79</ele>
        <time>2021-04-26T13:33:02.000Z</time>
      </trkpt>
      <trkpt lat="47.16102" lon="-1.44984">
        <ele>79</ele>
        <time>2021-04-26T13:33:04.000Z</time>
      </trkpt>
      <trkpt lat="47.16108" lon="-1.45">
        <ele>79</ele>
        <time>2021-04-26T13:33:06.000Z</time>
      </trkpt>
      <trkpt lat="47.16114" lon="-1.45016">
        <ele>80</ele>
        <time>2021-04-26T13:33:08.000Z</time>
      </trkpt>
      <trkpt lat="47.1612" lon="-1.45033">
        <ele>79</ele>
        <time>2021-04-26T13:33:10.000Z</time>
      </trkpt>
      <trkpt lat="47.16125" lon="-1.45049">
        <ele>80</ele>
        <time>2021-04-26T13:33:12.000Z</time>
      </trkpt>
      <trkpt lat="47.1613" lon="-1.45066">
        <ele>80</ele>
        <time>2021-04-26T13:33:14.000Z</time>
      </trkpt>
      <trkpt lat="47.16134" lon="-1.45082">
        <ele>80</ele>
        <time>2021-04-26T13:33:16.000Z</time>
      </trkpt>
      <trkpt lat="47.16138" lon="-1.45098">
        <ele>81</ele>
        <time>2021-04-26T13:33:18.000Z</time>
      </trkpt>
      <trkpt lat="47.16142" lon="-1.45114">
        <ele>81</ele>
        <time>2021-04-26T13:33:20.000Z</time>
      </trkpt>
      <trkpt lat="47.16145" lon="-1.4513">
        <ele>81</ele>
        <time>2021-04-26T13:33:22.000Z</time>
      </trkpt>
      <trkpt lat="47.16151" lon="-1.45145">
        <ele>81</ele>
        <time>2021-04-26T13:33:24.000Z</time>
      </trkpt>
      <trkpt lat="47.1616" lon="-1.45157">
        <ele>82</ele>
        <time>2021-04-26T13:33:26.000Z</time>
      </trkpt>
      <trkpt lat="47.16171" lon="-1.45165">
        <ele>82</ele>
        <time>2021-04-26T13:33:28.000Z</time>
      </trkpt>
      <trkpt lat="47.16182" lon="-1.45172">
        <ele>82</ele>
        <time>2021-04-26T13:33:30.000Z</time>
      </trkpt>
      <trkpt lat="47.16193" lon="-1.45178">
        <ele>83</ele>
        <time>2021-04-26T13:33:32.000Z</time>
      </trkpt>
      <trkpt lat="47.16204" lon="-1.45184">
        <ele>83</ele>
        <time>2021-04-26T13:33:34.000Z</time>
      </trkpt>
      <trkpt lat="47.16215" lon="-1.4519">
        <ele>83</ele>
        <time>2021-04-26T13:33:36.000Z</time>
      </trkpt>
      <trkpt lat="47.16225" lon="-1.45197">
        <ele>84</ele>
        <time>2021-04-26T13:33:38.000Z</time>
      </trkpt>
      <trkpt lat="47.16234" lon="-1.45205">
        <ele>84</ele>
        <time>2021-04-26T13:33:40.000Z</time>
      </trkpt>
      <trkpt lat="47.16243" lon="-1.45216">
        <ele>84</ele>
        <time>2021-04-26T13:33:42.000Z</time>
      </trkpt>
      <trkpt lat="47.16251" lon="-1.45228">
        <ele>84</ele>
        <time>2021-04-26T13:33:44.000Z</time>
      </trkpt>
      <trkpt lat="47.16257" lon="-1.45243">
        <ele>84</ele>
        <time>2021-04-26T13:33:46.000Z</time>
      </trkpt>
      <trkpt lat="47.16262" lon="-1.45259">
        <ele>84</ele>
        <time>2021-04-26T13:33:48.000Z</time>
      </trkpt>
      <trkpt lat="47.16267" lon="-1.45275">
        <ele>84</ele>
        <time>2021-04-26T13:33:50.000Z</time>
      </trkpt>
      <trkpt lat="47.16273" lon="-1.45291">
        <ele>83</ele>
        <time>2021-04-26T13:33:52.000Z</time>
      </trkpt>
      <trkpt lat="47.16279" lon="-1.45307">
        <ele>83</ele>
        <time>2021-04-26T13:33:54.000Z</time>
      </trkpt>
      <trkpt lat="47.16284" lon="-1.45325">
        <ele>82</ele>
        <time>2021-04-26T13:33:56.000Z</time>
      </trkpt>
      <trkpt lat="47.16289" lon="-1.45345">
        <ele>82</ele>
        <time>2021-04-26T13:33:58.000Z</time>
      </trkpt>
      <trkpt lat="47.16292" lon="-1.45367">
        <ele>81</ele>
        <time>2021-04-26T13:34:00.000Z</time>
      </trkpt>
      <trkpt lat="47.16296" lon="-1.45392">
        <ele>81</ele>
        <time>2021-04-26T13:34:02.000Z</time>
      </trkpt>
      <trkpt lat="47.16301" lon="-1.45415">
        <ele>80</ele>
        <time>2021-04-26T13:34:04.000Z</time>
      </trkpt>
      <trkpt lat="47.1631" lon="-1.45437">
        <ele>79</ele>
        <time>2021-04-26T13:34:06.000Z</time>
      </trkpt>
      <trkpt lat="47.16319" lon="-1.45456">
        <ele>79</ele>
        <time>2021-04-26T13:34:08.000Z</time>
      </trkpt>
      <trkpt lat="47.16329" lon="-1.45475">
        <ele>78</ele>
        <time>2021-04-26T13:34:10.000Z</time>
      </trkpt>
      <trkpt lat="47.16339" lon="-1.45493">
        <ele>77</ele>
        <time>2021-04-26T13:34:12.000Z</time>
      </trkpt>
      <trkpt lat="47.16348" lon="-1.4551">
        <ele>77</ele>
        <time>2021-04-26T13:34:14.000Z</time>
      </trkpt>
      <trkpt lat="47.16357" lon="-1.45527">
        <ele>76</ele>
        <time>2021-04-26T13:34:16.000Z</time>
      </trkpt>
      <trkpt lat="47.16366" lon="-1.45544">
        <ele>76</ele>
        <time>2021-04-26T13:34:18.000Z</time>
      </trkpt>
      <trkpt lat="47.16375" lon="-1.45561">
        <ele>76</ele>
        <time>2021-04-26T13:34:20.000Z</time>
      </trkpt>
      <trkpt lat="47.16384" lon="-1.45577">
        <ele>76</ele>
        <time>2021-04-26T13:34:22.000Z</time>
      </trkpt>
      <trkpt lat="47.16392" lon="-1.45594">
        <ele>76</ele>
        <time>2021-04-26T13:34:24.000Z</time>
      </trkpt>
      <trkpt lat="47.164" lon="-1.45612">
        <ele>76</ele>
        <time>2021-04-26T13:34:26.000Z</time>
      </trkpt>
      <trkpt lat="47.16406" lon="-1.4563">
        <ele>76</ele>
        <time>2021-04-26T13:34:28.000Z</time>
      </trkpt>
      <trkpt lat="47.16412" lon="-1.45649">
        <ele>76</ele>
        <time>2021-04-26T13:34:30.000Z</time>
      </trkpt>
      <trkpt lat="47.16417" lon="-1.45667">
        <ele>76</ele>
        <time>2021-04-26T13:34:32.000Z</time>
      </trkpt>
      <trkpt lat="47.16422" lon="-1.45685">
        <ele>76</ele>
        <time>2021-04-26T13:34:34.000Z</time>
      </trkpt>
      <trkpt lat="47.16426" lon="-1.45703">
        <ele>76</ele>
        <time>2021-04-26T13:34:36.000Z</time>
      </trkpt>
      <trkpt lat="47.1643" lon="-1.45721">
        <ele>76</ele>
        <time>2021-04-26T13:34:38.000Z</time>
      </trkpt>
      <trkpt lat="47.16435" lon="-1.45739">
        <ele>76</ele>
        <time>2021-04-26T13:34:40.000Z</time>
      </trkpt>
      <trkpt lat="47.16439" lon="-1.45757">
        <ele>75</ele>
        <time>2021-04-26T13:34:42.000Z</time>
      </trkpt>
      <trkpt lat="47.16443" lon="-1.45775">
        <ele>76</ele>
        <time>2021-04-26T13:34:44.000Z</time>
      </trkpt>
      <trkpt lat="47.16447" lon="-1.45793">
        <ele>76</ele>
        <time>2021-04-26T13:34:46.000Z</time>
      </trkpt>
      <trkpt lat="47.16452" lon="-1.45811">
        <ele>76</ele>
        <time>2021-04-26T13:34:48.000Z</time>
      </trkpt>
      <trkpt lat="47.16457" lon="-1.45829">
        <ele>77</ele>
        <time>2021-04-26T13:34:50.000Z</time>
      </trkpt>
      <trkpt lat="47.16462" lon="-1.45846">
        <ele>78</ele>
        <time>2021-04-26T13:34:52.000Z</time>
      </trkpt>
      <trkpt lat="47.16467" lon="-1.45863">
        <ele>78</ele>
        <time>2021-04-26T13:34:54.000Z</time>
      </trkpt>
      <trkpt lat="47.16472" lon="-1.4588">
        <ele>78</ele>
        <time>2021-04-26T13:34:56.000Z</time>
      </trkpt>
      <trkpt lat="47.16478" lon="-1.45897">
        <ele>78</ele>
        <time>2021-04-26T13:34:58.000Z</time>
      </trkpt>
      <trkpt lat="47.16482" lon="-1.45912">
        <ele>79</ele>
        <time>2021-04-26T13:35:00.000Z</time>
      </trkpt>
      <trkpt lat="47.16488" lon="-1.45929">
        <ele>79</ele>
        <time>2021-04-26T13:35:02.000Z</time>
      </trkpt>
      <trkpt lat="47.16493" lon="-1.45945">
        <ele>80</ele>
        <time>2021-04-26T13:35:04.000Z</time>
      </trkpt>
      <trkpt lat="47.16497" lon="-1.45961">
        <ele>80</ele>
        <time>2021-04-26T13:35:06.000Z</time>
      </trkpt>
      <trkpt lat="47.16503" lon="-1.45977">
        <ele>80</ele>
        <time>2021-04-26T13:35:08.000Z</time>
      </trkpt>
      <trkpt lat="47.16508" lon="-1.45994">
        <ele>80</ele>
        <time>2021-04-26T13:35:10.000Z</time>
      </trkpt>
      <trkpt lat="47.16514" lon="-1.46009">
        <ele>81</ele>
        <time>2021-04-26T13:35:12.000Z</time>
      </trkpt>
      <trkpt lat="47.16521" lon="-1.46023">
        <ele>81</ele>
        <time>2021-04-26T13:35:14.000Z</time>
      </trkpt>
      <trkpt lat="47.1653" lon="-1.46031">
        <ele>81</ele>
        <time>2021-04-26T13:35:16.000Z</time>
      </trkpt>
      <trkpt lat="47.16541" lon="-1.46036">
        <ele>82</ele>
        <time>2021-04-26T13:35:18.000Z</time>
      </trkpt>
      <trkpt lat="47.16549" lon="-1.46051">
        <ele>82</ele>
        <time>2021-04-26T13:35:20.000Z</time>
      </trkpt>
      <trkpt lat="47.16556" lon="-1.4607">
        <ele>82</ele>
        <time>2021-04-26T13:35:22.000Z</time>
      </trkpt>
      <trkpt lat="47.16558" lon="-1.46088">
        <ele>83</ele>
        <time>2021-04-26T13:35:24.000Z</time>
      </trkpt>
      <trkpt lat="47.16562" lon="-1.46105">
        <ele>83</ele>
        <time>2021-04-26T13:35:26.000Z</time>
      </trkpt>
      <trkpt lat="47.16568" lon="-1.46121">
        <ele>83</ele>
        <time>2021-04-26T13:35:28.000Z</time>
      </trkpt>
      <trkpt lat="47.16574" lon="-1.46137">
        <ele>83</ele>
        <time>2021-04-26T13:35:30.000Z</time>
      </trkpt>
      <trkpt lat="47.16581" lon="-1.46153">
        <ele>84</ele>
        <time>2021-04-26T13:35:32.000Z</time>
      </trkpt>
      <trkpt lat="47.16589" lon="-1.46167">
        <ele>84</ele>
        <time>2021-04-26T13:35:34.000Z</time>
      </trkpt>
      <trkpt lat="47.16596" lon="-1.46181">
        <ele>84</ele>
        <time>2021-04-26T13:35:36.000Z</time>
      </trkpt>
      <trkpt lat="47.16605" lon="-1.46195">
        <ele>84</ele>
        <time>2021-04-26T13:35:38.000Z</time>
      </trkpt>
      <trkpt lat="47.16616" lon="-1.46204">
        <ele>84</ele>
        <time>2021-04-26T13:35:40.000Z</time>
      </trkpt>
      <trkpt lat="47.16624" lon="-1.46216">
        <ele>84</ele>
        <time>2021-04-26T13:35:42.000Z</time>
      </trkpt>
      <trkpt lat="47.16627" lon="-1.46234">
        <ele>84</ele>
        <time>2021-04-26T13:35:44.000Z</time>
      </trkpt>
      <trkpt lat="47.16632" lon="-1.4625">
        <ele>84</ele>
        <time>2021-04-26T13:35:46.000Z</time>
      </trkpt>
      <trkpt lat="47.1664" lon="-1.46264">
        <ele>84</ele>
        <time>2021-04-26T13:35:48.000Z</time>
      </trkpt>
      <trkpt lat="47.16649" lon="-1.46277">
        <ele>84</ele>
        <time>2021-04-26T13:35:50.000Z</time>
      </trkpt>
      <trkpt lat="47.16657" lon="-1.46291">
        <ele>84</ele>
        <time>2021-04-26T13:35:52.000Z</time>
      </trkpt>
      <trkpt lat="47.16664" lon="-1.46307">
        <ele>84</ele>
        <time>2021-04-26T13:35:54.000Z</time>
      </trkpt>
      <trkpt lat="47.16671" lon="-1.46323">
        <ele>85</ele>
        <time>2021-04-26T13:35:56.000Z</time>
      </trkpt>
      <trkpt lat="47.16679" lon="-1.46339">
        <ele>85</ele>
        <time>2021-04-26T13:35:58.000Z</time>
      </trkpt>
      <trkpt lat="47.16686" lon="-1.46355">
        <ele>84</ele>
        <time>2021-04-26T13:36:00.000Z</time>
      </trkpt>
      <trkpt lat="47.16694" lon="-1.4637">
        <ele>85</ele>
        <time>2021-04-26T13:36:02.000Z</time>
      </trkpt>
      <trkpt lat="47.16702" lon="-1.46385">
        <ele>84</ele>
        <time>2021-04-26T13:36:04.000Z</time>
      </trkpt>
      <trkpt lat="47.16711" lon="-1.464">
        <ele>84</ele>
        <time>2021-04-26T13:36:06.000Z</time>
      </trkpt>
      <trkpt lat="47.1672" lon="-1.46414">
        <ele>84</ele>
        <time>2021-04-26T13:36:08.000Z</time>
      </trkpt>
      <trkpt lat="47.16729" lon="-1.46429">
        <ele>84</ele>
        <time>2021-04-26T13:36:10.000Z</time>
      </trkpt>
      <trkpt lat="47.16739" lon="-1.46444">
        <ele>84</ele>
        <time>2021-04-26T13:36:12.000Z</time>
      </trkpt>
      <trkpt lat="47.16748" lon="-1.46458">
        <ele>83</ele>
        <time>2021-04-26T13:36:14.000Z</time>
      </trkpt>
      <trkpt lat="47.16758" lon="-1.46472">
        <ele>83</ele>
        <time>2021-04-26T13:36:16.000Z</time>
      </trkpt>
      <trkpt lat="47.16768" lon="-1.46486">
        <ele>83</ele>
        <time>2021-04-26T13:36:18.000Z</time>
      </trkpt>
      <trkpt lat="47.16778" lon="-1.46499">
        <ele>82</ele>
        <time>2021-04-26T13:36:20.000Z</time>
      </trkpt>
      <trkpt lat="47.16788" lon="-1.4651">
        <ele>82</ele>
        <time>2021-04-26T13:36:22.000Z</time>
      </trkpt>
      <trkpt lat="47.16797" lon="-1.46522">
        <ele>82</ele>
        <time>2021-04-26T13:36:24.000Z</time>
      </trkpt>
      <trkpt lat="47.16807" lon="-1.46534">
        <ele>82</ele>
        <time>2021-04-26T13:36:26.000Z</time>
      </trkpt>
      <trkpt lat="47.16818" lon="-1.46545">
        <ele>82</ele>
        <time>2021-04-26T13:36:28.000Z</time>
      </trkpt>
      <trkpt lat="47.16828" lon="-1.46557">
        <ele>81</ele>
        <time>2021-04-26T13:36:30.000Z</time>
      </trkpt>
      <trkpt lat="47.16839" lon="-1.46569">
        <ele>80</ele>
        <time>2021-04-26T13:36:32.000Z</time>
      </trkpt>
      <trkpt lat="47.16851" lon="-1.4658">
        <ele>80</ele>
        <time>2021-04-26T13:36:34.000Z</time>
      </trkpt>
      <trkpt lat="47.16863" lon="-1.46591">
        <ele>80</ele>
        <time>2021-04-26T13:36:36.000Z</time>
      </trkpt>
      <trkpt lat="47.16874" lon="-1.46601">
        <ele>80</ele>
        <time>2021-04-26T13:36:38.000Z</time>
      </trkpt>
      <trkpt lat="47.16887" lon="-1.46611">
        <ele>80</ele>
        <time>2021-04-26T13:36:40.000Z</time>
      </trkpt>
      <trkpt lat="47.16898" lon="-1.46621">
        <ele>79</ele>
        <time>2021-04-26T13:36:42.000Z</time>
      </trkpt>
      <trkpt lat="47.1691" lon="-1.46631">
        <ele>78</ele>
        <time>2021-04-26T13:36:44.000Z</time>
      </trkpt>
      <trkpt lat="47.16921" lon="-1.4664">
        <ele>78</ele>
        <time>2021-04-26T13:36:46.000Z</time>
      </trkpt>
      <trkpt lat="47.16933" lon="-1.46649">
        <ele>78</ele>
        <time>2021-04-26T13:36:48.000Z</time>
      </trkpt>
      <trkpt lat="47.16944" lon="-1.46657">
        <ele>78</ele>
        <time>2021-04-26T13:36:50.000Z</time>
      </trkpt>
      <trkpt lat="47.16956" lon="-1.46662">
        <ele>78</ele>
        <time>2021-04-26T13:36:52.000Z</time>
      </trkpt>
      <trkpt lat="47.16968" lon="-1.46664">
        <ele>78</ele>
        <time>2021-04-26T13:36:54.000Z</time>
      </trkpt>
      <trkpt lat="47.16979" lon="-1.46676">
        <ele>77</ele>
        <time>2021-04-26T13:36:56.000Z</time>
      </trkpt>
      <trkpt lat="47.16988" lon="-1.46692">
        <ele>77</ele>
        <time>2021-04-26T13:36:58.000Z</time>
      </trkpt>
      <trkpt lat="47.17" lon="-1.46703">
        <ele>77</ele>
        <time>2021-04-26T13:37:00.000Z</time>
      </trkpt>
      <trkpt lat="47.17013" lon="-1.46713">
        <ele>76</ele>
        <time>2021-04-26T13:37:02.000Z</time>
      </trkpt>
      <trkpt lat="47.17025" lon="-1.46723">
        <ele>75</ele>
        <time>2021-04-26T13:37:04.000Z</time>
      </trkpt>
      <trkpt lat="47.17037" lon="-1.46734">
        <ele>74</ele>
        <time>2021-04-26T13:37:06.000Z</time>
      </trkpt>
      <trkpt lat="47.1705" lon="-1.46743">
        <ele>73</ele>
        <time>2021-04-26T13:37:08.000Z</time>
      </trkpt>
      <trkpt lat="47.17064" lon="-1.46754">
        <ele>73</ele>
        <time>2021-04-26T13:37:10.000Z</time>
      </trkpt>
      <trkpt lat="47.17077" lon="-1.46767">
        <ele>72</ele>
        <time>2021-04-26T13:37:12.000Z</time>
      </trkpt>
      <trkpt lat="47.17089" lon="-1.4678">
        <ele>72</ele>
        <time>2021-04-26T13:37:14.000Z</time>
      </trkpt>
      <trkpt lat="47.17101" lon="-1.46792">
        <ele>71</ele>
        <time>2021-04-26T13:37:16.000Z</time>
      </trkpt>
      <trkpt lat="47.17112" lon="-1.46803">
        <ele>70</ele>
        <time>2021-04-26T13:37:18.000Z</time>
      </trkpt>
      <trkpt lat="47.17126" lon="-1.46807">
        <ele>70</ele>
        <time>2021-04-26T13:37:20.000Z</time>
      </trkpt>
      <trkpt lat="47.17135" lon="-1.46819">
        <ele>70</ele>
        <time>2021-04-26T13:37:22.000Z</time>
      </trkpt>
      <trkpt lat="47.17141" lon="-1.4684">
        <ele>70</ele>
        <time>2021-04-26T13:37:24.000Z</time>
      </trkpt>
      <trkpt lat="47.17152" lon="-1.46855">
        <ele>70</ele>
        <time>2021-04-26T13:37:26.000Z</time>
      </trkpt>
      <trkpt lat="47.17162" lon="-1.4687">
        <ele>69</ele>
        <time>2021-04-26T13:37:28.000Z</time>
      </trkpt>
      <trkpt lat="47.1717" lon="-1.46886">
        <ele>70</ele>
        <time>2021-04-26T13:37:30.000Z</time>
      </trkpt>
      <trkpt lat="47.17179" lon="-1.46903">
        <ele>70</ele>
        <time>2021-04-26T13:37:32.000Z</time>
      </trkpt>
      <trkpt lat="47.17187" lon="-1.46922">
        <ele>69</ele>
        <time>2021-04-26T13:37:34.000Z</time>
      </trkpt>
      <trkpt lat="47.17195" lon="-1.46938">
        <ele>69</ele>
        <time>2021-04-26T13:37:36.000Z</time>
      </trkpt>
      <trkpt lat="47.17203" lon="-1.46957">
        <ele>69</ele>
        <time>2021-04-26T13:37:38.000Z</time>
      </trkpt>
      <trkpt lat="47.17212" lon="-1.46978">
        <ele>68</ele>
        <time>2021-04-26T13:37:40.000Z</time>
      </trkpt>
      <trkpt lat="47.17221" lon="-1.46999">
        <ele>68</ele>
        <time>2021-04-26T13:37:42.000Z</time>
      </trkpt>
      <trkpt lat="47.17229" lon="-1.47021">
        <ele>68</ele>
        <time>2021-04-26T13:37:44.000Z</time>
      </trkpt>
      <trkpt lat="47.17236" lon="-1.47043">
        <ele>67</ele>
        <time>2021-04-26T13:37:46.000Z</time>
      </trkpt>
      <trkpt lat="47.17242" lon="-1.47064">
        <ele>67</ele>
        <time>2021-04-26T13:37:48.000Z</time>
      </trkpt>
      <trkpt lat="47.17248" lon="-1.47085">
        <ele>67</ele>
        <time>2021-04-26T13:37:50.000Z</time>
      </trkpt>
      <trkpt lat="47.17254" lon="-1.47107">
        <ele>66</ele>
        <time>2021-04-26T13:37:52.000Z</time>
      </trkpt>
      <trkpt lat="47.17259" lon="-1.47129">
        <ele>66</ele>
        <time>2021-04-26T13:37:54.000Z</time>
      </trkpt>
      <trkpt lat="47.17263" lon="-1.47151">
        <ele>66</ele>
        <time>2021-04-26T13:37:56.000Z</time>
      </trkpt>
      <trkpt lat="47.17268" lon="-1.47173">
        <ele>64</ele>
        <time>2021-04-26T13:37:58.000Z</time>
      </trkpt>
      <trkpt lat="47.17273" lon="-1.47195">
        <ele>63</ele>
        <time>2021-04-26T13:38:00.000Z</time>
      </trkpt>
      <trkpt lat="47.17277" lon="-1.47217">
        <ele>63</ele>
        <time>2021-04-26T13:38:02.000Z</time>
      </trkpt>
      <trkpt lat="47.17281" lon="-1.47239">
        <ele>63</ele>
        <time>2021-04-26T13:38:04.000Z</time>
      </trkpt>
      <trkpt lat="47.17284" lon="-1.47259">
        <ele>62</ele>
        <time>2021-04-26T13:38:06.000Z</time>
      </trkpt>
      <trkpt lat="47.17288" lon="-1.47276">
        <ele>61</ele>
        <time>2021-04-26T13:38:08.000Z</time>
      </trkpt>
      <trkpt lat="47.17291" lon="-1.47295">
        <ele>61</ele>
        <time>2021-04-26T13:38:10.000Z</time>
      </trkpt>
      <trkpt lat="47.17294" lon="-1.47315">
        <ele>60</ele>
        <time>2021-04-26T13:38:12.000Z</time>
      </trkpt>
      <trkpt lat="47.17298" lon="-1.47336">
        <ele>60</ele>
        <time>2021-04-26T13:38:14.000Z</time>
      </trkpt>
      <trkpt lat="47.17303" lon="-1.47354">
        <ele>59</ele>
        <time>2021-04-26T13:38:16.000Z</time>
      </trkpt>
      <trkpt lat="47.17315" lon="-1.47366">
        <ele>59</ele>
        <time>2021-04-26T13:38:18.000Z</time>
      </trkpt>
      <trkpt lat="47.17331" lon="-1.47365">
        <ele>59</ele>
        <time>2021-04-26T13:38:20.000Z</time>
      </trkpt>
      <trkpt lat="47.17346" lon="-1.47362">
        <ele>59</ele>
        <time>2021-04-26T13:38:22.000Z</time>
      </trkpt>
      <trkpt lat="47.17361" lon="-1.47358">
        <ele>60</ele>
        <time>2021-04-26T13:38:24.000Z</time>
      </trkpt>
      <trkpt lat="47.17375" lon="-1.47356">
        <ele>60</ele>
        <time>2021-04-26T13:38:26.000Z</time>
      </trkpt>
      <trkpt lat="47.17389" lon="-1.47354">
        <ele>60</ele>
        <time>2021-04-26T13:38:28.000Z</time>
      </trkpt>
      <trkpt lat="47.17401" lon="-1.47352">
        <ele>59</ele>
        <time>2021-04-26T13:38:30.000Z</time>
      </trkpt>
      <trkpt lat="47.17414" lon="-1.4735">
        <ele>59</ele>
        <time>2021-04-26T13:38:32.000Z</time>
      </trkpt>
      <trkpt lat="47.17428" lon="-1.47349">
        <ele>58</ele>
        <time>2021-04-26T13:38:34.000Z</time>
      </trkpt>
      <trkpt lat="47.17441" lon="-1.47349">
        <ele>58</ele>
        <time>2021-04-26T13:38:36.000Z</time>
      </trkpt>
      <trkpt lat="47.17454" lon="-1.47349">
        <ele>57</ele>
        <time>2021-04-26T13:38:38.000Z</time>
      </trkpt>
      <trkpt lat="47.17469" lon="-1.47349">
        <ele>57</ele>
        <time>2021-04-26T13:38:40.000Z</time>
      </trkpt>
      <trkpt lat="47.17482" lon="-1.4735">
        <ele>57</ele>
        <time>2021-04-26T13:38:42.000Z</time>
      </trkpt>
      <trkpt lat="47.17496" lon="-1.47351">
        <ele>57</ele>
        <time>2021-04-26T13:38:44.000Z</time>
      </trkpt>
      <trkpt lat="47.1751" lon="-1.47351">
        <ele>57</ele>
        <time>2021-04-26T13:38:46.000Z</time>
      </trkpt>
      <trkpt lat="47.17523" lon="-1.4735">
        <ele>56</ele>
        <time>2021-04-26T13:38:48.000Z</time>
      </trkpt>
      <trkpt lat="47.17537" lon="-1.47351">
        <ele>56</ele>
        <time>2021-04-26T13:38:50.000Z</time>
      </trkpt>
      <trkpt lat="47.17551" lon="-1.47351">
        <ele>56</ele>
        <time>2021-04-26T13:38:52.000Z</time>
      </trkpt>
      <trkpt lat="47.17564" lon="-1.47352">
        <ele>55</ele>
        <time>2021-04-26T13:38:54.000Z</time>
      </trkpt>
      <trkpt lat="47.17577" lon="-1.47355">
        <ele>55</ele>
        <time>2021-04-26T13:38:56.000Z</time>
      </trkpt>
      <trkpt lat="47.1759" lon="-1.47358">
        <ele>55</ele>
        <time>2021-04-26T13:38:58.000Z</time>
      </trkpt>
      <trkpt lat="47.17603" lon="-1.47361">
        <ele>54</ele>
        <time>2021-04-26T13:39:00.000Z</time>
      </trkpt>
      <trkpt lat="47.17616" lon="-1.47364">
        <ele>54</ele>
        <time>2021-04-26T13:39:02.000Z</time>
      </trkpt>
      <trkpt lat="47.17629" lon="-1.47368">
        <ele>54</ele>
        <time>2021-04-26T13:39:04.000Z</time>
      </trkpt>
      <trkpt lat="47.17641" lon="-1.47373">
        <ele>54</ele>
        <time>2021-04-26T13:39:06.000Z</time>
      </trkpt>
      <trkpt lat="47.17653" lon="-1.47379">
        <ele>54</ele>
        <time>2021-04-26T13:39:08.000Z</time>
      </trkpt>
      <trkpt lat="47.17665" lon="-1.47385">
        <ele>54</ele>
        <time>2021-04-26T13:39:10.000Z</time>
      </trkpt>
      <trkpt lat="47.17677" lon="-1.47391">
        <ele>54</ele>
        <time>2021-04-26T13:39:12.000Z</time>
      </trkpt>
      <trkpt lat="47.17688" lon="-1.47397">
        <ele>55</ele>
        <time>2021-04-26T13:39:14.000Z</time>
      </trkpt>
      <trkpt lat="47.17698" lon="-1.47403">
        <ele>55</ele>
        <time>2021-04-26T13:39:16.000Z</time>
      </trkpt>
      <trkpt lat="47.17709" lon="-1.47407">
        <ele>55</ele>
        <time>2021-04-26T13:39:18.000Z</time>
      </trkpt>
      <trkpt lat="47.17721" lon="-1.47412">
        <ele>55</ele>
        <time>2021-04-26T13:39:20.000Z</time>
      </trkpt>
      <trkpt lat="47.17731" lon="-1.47418">
        <ele>55</ele>
        <time>2021-04-26T13:39:22.000Z</time>
      </trkpt>
      <trkpt lat="47.17742" lon="-1.47424">
        <ele>55</ele>
        <time>2021-04-26T13:39:24.000Z</time>
      </trkpt>
      <trkpt lat="47.17754" lon="-1.47431">
        <ele>55</ele>
        <time>2021-04-26T13:39:26.000Z</time>
      </trkpt>
      <trkpt lat="47.17765" lon="-1.47436">
        <ele>54</ele>
        <time>2021-04-26T13:39:28.000Z</time>
      </trkpt>
      <trkpt lat="47.17777" lon="-1.47442">
        <ele>54</ele>
        <time>2021-04-26T13:39:30.000Z</time>
      </trkpt>
      <trkpt lat="47.17789" lon="-1.47447">
        <ele>54</ele>
        <time>2021-04-26T13:39:32.000Z</time>
      </trkpt>
      <trkpt lat="47.17801" lon="-1.47452">
        <ele>53</ele>
        <time>2021-04-26T13:39:34.000Z</time>
      </trkpt>
      <trkpt lat="47.17813" lon="-1.47456">
        <ele>54</ele>
        <time>2021-04-26T13:39:36.000Z</time>
      </trkpt>
      <trkpt lat="47.17824" lon="-1.4746">
        <ele>54</ele>
        <time>2021-04-26T13:39:38.000Z</time>
      </trkpt>
      <trkpt lat="47.17837" lon="-1.47464">
        <ele>54</ele>
        <time>2021-04-26T13:39:40.000Z</time>
      </trkpt>
      <trkpt lat="47.17848" lon="-1.47467">
        <ele>54</ele>
        <time>2021-04-26T13:39:42.000Z</time>
      </trkpt>
      <trkpt lat="47.1786" lon="-1.47471">
        <ele>54</ele>
        <time>2021-04-26T13:39:44.000Z</time>
      </trkpt>
      <trkpt lat="47.17871" lon="-1.47473">
        <ele>54</ele>
        <time>2021-04-26T13:39:46.000Z</time>
      </trkpt>
      <trkpt lat="47.17882" lon="-1.47474">
        <ele>55</ele>
        <time>2021-04-26T13:39:48.000Z</time>
      </trkpt>
      <trkpt lat="47.17894" lon="-1.4747">
        <ele>55</ele>
        <time>2021-04-26T13:39:51.000Z</time>
      </trkpt>
      <trkpt lat="47.17904" lon="-1.47465">
        <ele>55</ele>
        <time>2021-04-26T13:39:53.000Z</time>
      </trkpt>
      <trkpt lat="47.17916" lon="-1.47468">
        <ele>55</ele>
        <time>2021-04-26T13:39:55.000Z</time>
      </trkpt>
      <trkpt lat="47.17925" lon="-1.47478">
        <ele>54</ele>
        <time>2021-04-26T13:39:57.000Z</time>
      </trkpt>
      <trkpt lat="47.17934" lon="-1.47488">
        <ele>55</ele>
        <time>2021-04-26T13:39:59.000Z</time>
      </trkpt>
      <trkpt lat="47.17946" lon="-1.47492">
        <ele>55</ele>
        <time>2021-04-26T13:40:01.000Z</time>
      </trkpt>
      <trkpt lat="47.17958" lon="-1.47495">
        <ele>54</ele>
        <time>2021-04-26T13:40:03.000Z</time>
      </trkpt>
      <trkpt lat="47.17969" lon="-1.47498">
        <ele>55</ele>
        <time>2021-04-26T13:40:05.000Z</time>
      </trkpt>
      <trkpt lat="47.1798" lon="-1.47501">
        <ele>55</ele>
        <time>2021-04-26T13:40:07.000Z</time>
      </trkpt>
      <trkpt lat="47.17991" lon="-1.47503">
        <ele>55</ele>
        <time>2021-04-26T13:40:09.000Z</time>
      </trkpt>
      <trkpt lat="47.18002" lon="-1.47505">
        <ele>55</ele>
        <time>2021-04-26T13:40:11.000Z</time>
      </trkpt>
      <trkpt lat="47.18013" lon="-1.47509">
        <ele>55</ele>
        <time>2021-04-26T13:40:13.000Z</time>
      </trkpt>
      <trkpt lat="47.18024" lon="-1.47512">
        <ele>56</ele>
        <time>2021-04-26T13:40:15.000Z</time>
      </trkpt>
      <trkpt lat="47.18036" lon="-1.47514">
        <ele>55</ele>
        <time>2021-04-26T13:40:17.000Z</time>
      </trkpt>
      <trkpt lat="47.18047" lon="-1.47517">
        <ele>55</ele>
        <time>2021-04-26T13:40:19.000Z</time>
      </trkpt>
      <trkpt lat="47.18058" lon="-1.4752">
        <ele>56</ele>
        <time>2021-04-26T13:40:21.000Z</time>
      </trkpt>
      <trkpt lat="47.18068" lon="-1.47523">
        <ele>56</ele>
        <time>2021-04-26T13:40:23.000Z</time>
      </trkpt>
      <trkpt lat="47.18079" lon="-1.47525">
        <ele>56</ele>
        <time>2021-04-26T13:40:25.000Z</time>
      </trkpt>
      <trkpt lat="47.1809" lon="-1.47528">
        <ele>56</ele>
        <time>2021-04-26T13:40:27.000Z</time>
      </trkpt>
      <trkpt lat="47.18101" lon="-1.47532">
        <ele>57</ele>
        <time>2021-04-26T13:40:29.000Z</time>
      </trkpt>
      <trkpt lat="47.18112" lon="-1.47535">
        <ele>57</ele>
        <time>2021-04-26T13:40:31.000Z</time>
      </trkpt>
      <trkpt lat="47.18123" lon="-1.47538">
        <ele>57</ele>
        <time>2021-04-26T13:40:33.000Z</time>
      </trkpt>
      <trkpt lat="47.18135" lon="-1.4754">
        <ele>57</ele>
        <time>2021-04-26T13:40:35.000Z</time>
      </trkpt>
      <trkpt lat="47.18146" lon="-1.47543">
        <ele>58</ele>
        <time>2021-04-26T13:40:37.000Z</time>
      </trkpt>
      <trkpt lat="47.18158" lon="-1.47546">
        <ele>59</ele>
        <time>2021-04-26T13:40:39.000Z</time>
      </trkpt>
      <trkpt lat="47.18169" lon="-1.47549">
        <ele>59</ele>
        <time>2021-04-26T13:40:41.000Z</time>
      </trkpt>
      <trkpt lat="47.1818" lon="-1.47551">
        <ele>59</ele>
        <time>2021-04-26T13:40:43.000Z</time>
      </trkpt>
      <trkpt lat="47.18191" lon="-1.47554">
        <ele>60</ele>
        <time>2021-04-26T13:40:45.000Z</time>
      </trkpt>
      <trkpt lat="47.18202" lon="-1.47556">
        <ele>60</ele>
        <time>2021-04-26T13:40:47.000Z</time>
      </trkpt>
      <trkpt lat="47.18213" lon="-1.4756">
        <ele>61</ele>
        <time>2021-04-26T13:40:49.000Z</time>
      </trkpt>
      <trkpt lat="47.18223" lon="-1.47563">
        <ele>61</ele>
        <time>2021-04-26T13:40:51.000Z</time>
      </trkpt>
      <trkpt lat="47.18234" lon="-1.47565">
        <ele>61</ele>
        <time>2021-04-26T13:40:53.000Z</time>
      </trkpt>
      <trkpt lat="47.18244" lon="-1.47568">
        <ele>61</ele>
        <time>2021-04-26T13:40:55.000Z</time>
      </trkpt>
      <trkpt lat="47.18255" lon="-1.47571">
        <ele>61</ele>
        <time>2021-04-26T13:40:57.000Z</time>
      </trkpt>
      <trkpt lat="47.18265" lon="-1.47574">
        <ele>61</ele>
        <time>2021-04-26T13:40:59.000Z</time>
      </trkpt>
      <trkpt lat="47.18275" lon="-1.47576">
        <ele>61</ele>
        <time>2021-04-26T13:41:01.000Z</time>
      </trkpt>
      <trkpt lat="47.18285" lon="-1.47579">
        <ele>61</ele>
        <time>2021-04-26T13:41:03.000Z</time>
      </trkpt>
      <trkpt lat="47.18295" lon="-1.47583">
        <ele>61</ele>
        <time>2021-04-26T13:41:05.000Z</time>
      </trkpt>
      <trkpt lat="47.18304" lon="-1.47586">
        <ele>62</ele>
        <time>2021-04-26T13:41:07.000Z</time>
      </trkpt>
      <trkpt lat="47.18314" lon="-1.47588">
        <ele>61</ele>
        <time>2021-04-26T13:41:09.000Z</time>
      </trkpt>
      <trkpt lat="47.18327" lon="-1.47592">
        <ele>62</ele>
        <time>2021-04-26T13:41:12.000Z</time>
      </trkpt>
      <trkpt lat="47.18336" lon="-1.47595">
        <ele>63</ele>
        <time>2021-04-26T13:41:14.000Z</time>
      </trkpt>
      <trkpt lat="47.18346" lon="-1.47597">
        <ele>63</ele>
        <time>2021-04-26T13:41:16.000Z</time>
      </trkpt>
      <trkpt lat="47.18356" lon="-1.476">
        <ele>63</ele>
        <time>2021-04-26T13:41:18.000Z</time>
      </trkpt>
      <trkpt lat="47.18366" lon="-1.47601">
        <ele>63</ele>
        <time>2021-04-26T13:41:20.000Z</time>
      </trkpt>
      <trkpt lat="47.18376" lon="-1.47603">
        <ele>63</ele>
        <time>2021-04-26T13:41:22.000Z</time>
      </trkpt>
      <trkpt lat="47.18385" lon="-1.47605">
        <ele>64</ele>
        <time>2021-04-26T13:41:24.000Z</time>
      </trkpt>
      <trkpt lat="47.18395" lon="-1.47607">
        <ele>64</ele>
        <time>2021-04-26T13:41:26.000Z</time>
      </trkpt>
      <trkpt lat="47.18405" lon="-1.4761">
        <ele>64</ele>
        <time>2021-04-26T13:41:28.000Z</time>
      </trkpt>
      <trkpt lat="47.18415" lon="-1.47612">
        <ele>65</ele>
        <time>2021-04-26T13:41:30.000Z</time>
      </trkpt>
      <trkpt lat="47.18425" lon="-1.47615">
        <ele>65</ele>
        <time>2021-04-26T13:41:32.000Z</time>
      </trkpt>
      <trkpt lat="47.18434" lon="-1.47617">
        <ele>65</ele>
        <time>2021-04-26T13:41:34.000Z</time>
      </trkpt>
      <trkpt lat="47.18443" lon="-1.47619">
        <ele>66</ele>
        <time>2021-04-26T13:41:36.000Z</time>
      </trkpt>
      <trkpt lat="47.18456" lon="-1.47623">
        <ele>67</ele>
        <time>2021-04-26T13:41:39.000Z</time>
      </trkpt>
      <trkpt lat="47.18465" lon="-1.47627">
        <ele>67</ele>
        <time>2021-04-26T13:41:41.000Z</time>
      </trkpt>
      <trkpt lat="47.18478" lon="-1.47631">
        <ele>68</ele>
        <time>2021-04-26T13:41:44.000Z</time>
      </trkpt>
      <trkpt lat="47.1849" lon="-1.47635">
        <ele>69</ele>
        <time>2021-04-26T13:41:47.000Z</time>
      </trkpt>
      <trkpt lat="47.18499" lon="-1.47638">
        <ele>69</ele>
        <time>2021-04-26T13:41:49.000Z</time>
      </trkpt>
      <trkpt lat="47.18508" lon="-1.4764">
        <ele>70</ele>
        <time>2021-04-26T13:41:51.000Z</time>
      </trkpt>
      <trkpt lat="47.18517" lon="-1.47641">
        <ele>70</ele>
        <time>2021-04-26T13:41:53.000Z</time>
      </trkpt>
      <trkpt lat="47.1853" lon="-1.47644">
        <ele>71</ele>
        <time>2021-04-26T13:41:56.000Z</time>
      </trkpt>
      <trkpt lat="47.18539" lon="-1.47647">
        <ele>71</ele>
        <time>2021-04-26T13:41:58.000Z</time>
      </trkpt>
      <trkpt lat="47.18548" lon="-1.47649">
        <ele>71</ele>
        <time>2021-04-26T13:42:00.000Z</time>
      </trkpt>
      <trkpt lat="47.18557" lon="-1.47652">
        <ele>71</ele>
        <time>2021-04-26T13:42:02.000Z</time>
      </trkpt>
      <trkpt lat="47.18566" lon="-1.47656">
        <ele>72</ele>
        <time>2021-04-26T13:42:04.000Z</time>
      </trkpt>
      <trkpt lat="47.18579" lon="-1.4766">
        <ele>72</ele>
        <time>2021-04-26T13:42:07.000Z</time>
      </trkpt>
      <trkpt lat="47.18588" lon="-1.47663">
        <ele>73</ele>
        <time>2021-04-26T13:42:09.000Z</time>
      </trkpt>
      <trkpt lat="47.186" lon="-1.47666">
        <ele>72</ele>
        <time>2021-04-26T13:42:12.000Z</time>
      </trkpt>
      <trkpt lat="47.18613" lon="-1.4767">
        <ele>73</ele>
        <time>2021-04-26T13:42:15.000Z</time>
      </trkpt>
      <trkpt lat="47.18623" lon="-1.47672">
        <ele>73</ele>
        <time>2021-04-26T13:42:17.000Z</time>
      </trkpt>
      <trkpt lat="47.18632" lon="-1.47675">
        <ele>75</ele>
        <time>2021-04-26T13:42:19.000Z</time>
      </trkpt>
      <trkpt lat="47.18644" lon="-1.47676">
        <ele>76</ele>
        <time>2021-04-26T13:42:22.000Z</time>
      </trkpt>
      <trkpt lat="47.18655" lon="-1.47679">
        <ele>77</ele>
        <time>2021-04-26T13:42:25.000Z</time>
      </trkpt>
      <trkpt lat="47.18665" lon="-1.47681">
        <ele>77</ele>
        <time>2021-04-26T13:42:29.000Z</time>
      </trkpt>
      <trkpt lat="47.18675" lon="-1.47683">
        <ele>77</ele>
        <time>2021-04-26T13:42:39.000Z</time>
      </trkpt>
      <trkpt lat="47.18687" lon="-1.47684">
        <ele>78</ele>
        <time>2021-04-26T13:42:54.000Z</time>
      </trkpt>
      <trkpt lat="47.18696" lon="-1.47681">
        <ele>79</ele>
        <time>2021-04-26T13:42:56.000Z</time>
      </trkpt>
      <trkpt lat="47.18705" lon="-1.47677">
        <ele>79</ele>
        <time>2021-04-26T13:42:58.000Z</time>
      </trkpt>
      <trkpt lat="47.18711" lon="-1.47665">
        <ele>78</ele>
        <time>2021-04-26T13:43:00.000Z</time>
      </trkpt>
      <trkpt lat="47.18717" lon="-1.4765">
        <ele>78</ele>
        <time>2021-04-26T13:43:02.000Z</time>
      </trkpt>
      <trkpt lat="47.18723" lon="-1.47636">
        <ele>78</ele>
        <time>2021-04-26T13:43:04.000Z</time>
      </trkpt>
      <trkpt lat="47.18729" lon="-1.47624">
        <ele>78</ele>
        <time>2021-04-26T13:43:06.000Z</time>
      </trkpt>
      <trkpt lat="47.18735" lon="-1.47611">
        <ele>78</ele>
        <time>2021-04-26T13:43:08.000Z</time>
      </trkpt>
      <trkpt lat="47.18741" lon="-1.47599">
        <ele>79</ele>
        <time>2021-04-26T13:43:10.000Z</time>
      </trkpt>
      <trkpt lat="47.18747" lon="-1.47586">
        <ele>79</ele>
        <time>2021-04-26T13:43:12.000Z</time>
      </trkpt>
      <trkpt lat="47.18753" lon="-1.47573">
        <ele>79</ele>
        <time>2021-04-26T13:43:14.000Z</time>
      </trkpt>
      <trkpt lat="47.18759" lon="-1.47561">
        <ele>79</ele>
        <time>2021-04-26T13:43:16.000Z</time>
      </trkpt>
      <trkpt lat="47.18765" lon="-1.47549">
        <ele>79</ele>
        <time>2021-04-26T13:43:18.000Z</time>
      </trkpt>
      <trkpt lat="47.18771" lon="-1.47536">
        <ele>80</ele>
        <time>2021-04-26T13:43:20.000Z</time>
      </trkpt>
      <trkpt lat="47.18778" lon="-1.47524">
        <ele>80</ele>
        <time>2021-04-26T13:43:22.000Z</time>
      </trkpt>
      <trkpt lat="47.18784" lon="-1.47511">
        <ele>80</ele>
        <time>2021-04-26T13:43:24.000Z</time>
      </trkpt>
      <trkpt lat="47.1879" lon="-1.47498">
        <ele>81</ele>
        <time>2021-04-26T13:43:26.000Z</time>
      </trkpt>
      <trkpt lat="47.18796" lon="-1.47484">
        <ele>81</ele>
        <time>2021-04-26T13:43:28.000Z</time>
      </trkpt>
      <trkpt lat="47.18802" lon="-1.47471">
        <ele>81</ele>
        <time>2021-04-26T13:43:30.000Z</time>
      </trkpt>
      <trkpt lat="47.18808" lon="-1.47458">
        <ele>82</ele>
        <time>2021-04-26T13:43:32.000Z</time>
      </trkpt>
      <trkpt lat="47.18814" lon="-1.47445">
        <ele>81</ele>
        <time>2021-04-26T13:43:34.000Z</time>
      </trkpt>
      <trkpt lat="47.1882" lon="-1.47432">
        <ele>81</ele>
        <time>2021-04-26T13:43:36.000Z</time>
      </trkpt>
      <trkpt lat="47.18827" lon="-1.47419">
        <ele>82</ele>
        <time>2021-04-26T13:43:38.000Z</time>
      </trkpt>
      <trkpt lat="47.18834" lon="-1.47406">
        <ele>82</ele>
        <time>2021-04-26T13:43:40.000Z</time>
      </trkpt>
      <trkpt lat="47.1884" lon="-1.47393">
        <ele>82</ele>
        <time>2021-04-26T13:43:42.000Z</time>
      </trkpt>
      <trkpt lat="47.18845" lon="-1.4738">
        <ele>82</ele>
        <time>2021-04-26T13:43:44.000Z</time>
      </trkpt>
      <trkpt lat="47.18851" lon="-1.47366">
        <ele>82</ele>
        <time>2021-04-26T13:43:46.000Z</time>
      </trkpt>
      <trkpt lat="47.18858" lon="-1.47352">
        <ele>82</ele>
        <time>2021-04-26T13:43:48.000Z</time>
      </trkpt>
      <trkpt lat="47.18865" lon="-1.47339">
        <ele>82</ele>
        <time>2021-04-26T13:43:50.000Z</time>
      </trkpt>
      <trkpt lat="47.18871" lon="-1.47326">
        <ele>82</ele>
        <time>2021-04-26T13:43:52.000Z</time>
      </trkpt>
      <trkpt lat="47.18876" lon="-1.47312">
        <ele>83</ele>
        <time>2021-04-26T13:43:54.000Z</time>
      </trkpt>
      <trkpt lat="47.18883" lon="-1.47297">
        <ele>84</ele>
        <time>2021-04-26T13:43:56.000Z</time>
      </trkpt>
      <trkpt lat="47.18889" lon="-1.47284">
        <ele>84</ele>
        <time>2021-04-26T13:43:58.000Z</time>
      </trkpt>
      <trkpt lat="47.18895" lon="-1.47272">
        <ele>84</ele>
        <time>2021-04-26T13:44:00.000Z</time>
      </trkpt>
      <trkpt lat="47.18901" lon="-1.47259">
        <ele>84</ele>
        <time>2021-04-26T13:44:02.000Z</time>
      </trkpt>
      <trkpt lat="47.18907" lon="-1.47247">
        <ele>84</ele>
        <time>2021-04-26T13:44:04.000Z</time>
      </trkpt>
      <trkpt lat="47.18913" lon="-1.47235">
        <ele>84</ele>
        <time>2021-04-26T13:44:06.000Z</time>
      </trkpt>
      <trkpt lat="47.18919" lon="-1.47222">
        <ele>83</ele>
        <time>2021-04-26T13:44:08.000Z</time>
      </trkpt>
      <trkpt lat="47.18924" lon="-1.4721">
        <ele>83</ele>
        <time>2021-04-26T13:44:12.000Z</time>
      </trkpt>
      <trkpt lat="47.18924" lon="-1.47196">
        <ele>84</ele>
        <time>2021-04-26T13:44:17.000Z</time>
      </trkpt>
      <trkpt lat="47.18928" lon="-1.47182">
        <ele>84</ele>
        <time>2021-04-26T13:44:19.000Z</time>
      </trkpt>
      <trkpt lat="47.18937" lon="-1.47171">
        <ele>85</ele>
        <time>2021-04-26T13:44:21.000Z</time>
      </trkpt>
      <trkpt lat="47.18947" lon="-1.4716">
        <ele>84</ele>
        <time>2021-04-26T13:44:23.000Z</time>
      </trkpt>
      <trkpt lat="47.18955" lon="-1.47148">
        <ele>84</ele>
        <time>2021-04-26T13:44:25.000Z</time>
      </trkpt>
      <trkpt lat="47.18962" lon="-1.47134">
        <ele>85</ele>
        <time>2021-04-26T13:44:27.000Z</time>
      </trkpt>
      <trkpt lat="47.1897" lon="-1.47118">
        <ele>85</ele>
        <time>2021-04-26T13:44:29.000Z</time>
      </trkpt>
      <trkpt lat="47.18977" lon="-1.47102">
        <ele>85</ele>
        <time>2021-04-26T13:44:31.000Z</time>
      </trkpt>
      <trkpt lat="47.18985" lon="-1.47086">
        <ele>84</ele>
        <time>2021-04-26T13:44:33.000Z</time>
      </trkpt>
      <trkpt lat="47.18994" lon="-1.47068">
        <ele>83</ele>
        <time>2021-04-26T13:44:35.000Z</time>
      </trkpt>
      <trkpt lat="47.19002" lon="-1.47052">
        <ele>82</ele>
        <time>2021-04-26T13:44:37.000Z</time>
      </trkpt>
      <trkpt lat="47.1901" lon="-1.47036">
        <ele>82</ele>
        <time>2021-04-26T13:44:39.000Z</time>
      </trkpt>
      <trkpt lat="47.19018" lon="-1.4702">
        <ele>81</ele>
        <time>2021-04-26T13:44:41.000Z</time>
      </trkpt>
      <trkpt lat="47.19026" lon="-1.47005">
        <ele>80</ele>
        <time>2021-04-26T13:44:43.000Z</time>
      </trkpt>
      <trkpt lat="47.19033" lon="-1.4699">
        <ele>79</ele>
        <time>2021-04-26T13:44:45.000Z</time>
      </trkpt>
      <trkpt lat="47.1904" lon="-1.46975">
        <ele>79</ele>
        <time>2021-04-26T13:44:47.000Z</time>
      </trkpt>
      <trkpt lat="47.19047" lon="-1.4696">
        <ele>79</ele>
        <time>2021-04-26T13:44:49.000Z</time>
      </trkpt>
      <trkpt lat="47.19054" lon="-1.46945">
        <ele>79</ele>
        <time>2021-04-26T13:44:51.000Z</time>
      </trkpt>
      <trkpt lat="47.19061" lon="-1.4693">
        <ele>79</ele>
        <time>2021-04-26T13:44:53.000Z</time>
      </trkpt>
      <trkpt lat="47.19068" lon="-1.46916">
        <ele>79</ele>
        <time>2021-04-26T13:44:55.000Z</time>
      </trkpt>
      <trkpt lat="47.19074" lon="-1.46901">
        <ele>79</ele>
        <time>2021-04-26T13:44:57.000Z</time>
      </trkpt>
      <trkpt lat="47.19081" lon="-1.46887">
        <ele>79</ele>
        <time>2021-04-26T13:44:59.000Z</time>
      </trkpt>
      <trkpt lat="47.19087" lon="-1.46874">
        <ele>79</ele>
        <time>2021-04-26T13:45:01.000Z</time>
      </trkpt>
      <trkpt lat="47.19094" lon="-1.4686">
        <ele>79</ele>
        <time>2021-04-26T13:45:03.000Z</time>
      </trkpt>
      <trkpt lat="47.191" lon="-1.46846">
        <ele>79</ele>
        <time>2021-04-26T13:45:05.000Z</time>
      </trkpt>
      <trkpt lat="47.19107" lon="-1.46832">
        <ele>79</ele>
        <time>2021-04-26T13:45:07.000Z</time>
      </trkpt>
      <trkpt lat="47.19114" lon="-1.46818">
        <ele>79</ele>
        <time>2021-04-26T13:45:09.000Z</time>
      </trkpt>
      <trkpt lat="47.19121" lon="-1.46804">
        <ele>79</ele>
        <time>2021-04-26T13:45:11.000Z</time>
      </trkpt>
      <trkpt lat="47.19128" lon="-1.4679">
        <ele>78</ele>
        <time>2021-04-26T13:45:13.000Z</time>
      </trkpt>
      <trkpt lat="47.19134" lon="-1.46777">
        <ele>79</ele>
        <time>2021-04-26T13:45:15.000Z</time>
      </trkpt>
      <trkpt lat="47.19141" lon="-1.46762">
        <ele>78</ele>
        <time>2021-04-26T13:45:17.000Z</time>
      </trkpt>
      <trkpt lat="47.19147" lon="-1.46749">
        <ele>79</ele>
        <time>2021-04-26T13:45:19.000Z</time>
      </trkpt>
      <trkpt lat="47.19154" lon="-1.46736">
        <ele>79</ele>
        <time>2021-04-26T13:45:21.000Z</time>
      </trkpt>
      <trkpt lat="47.1916" lon="-1.46722">
        <ele>79</ele>
        <time>2021-04-26T13:45:23.000Z</time>
      </trkpt>
      <trkpt lat="47.19167" lon="-1.46708">
        <ele>79</ele>
        <time>2021-04-26T13:45:25.000Z</time>
      </trkpt>
      <trkpt lat="47.19173" lon="-1.46694">
        <ele>79</ele>
        <time>2021-04-26T13:45:27.000Z</time>
      </trkpt>
      <trkpt lat="47.1918" lon="-1.46679">
        <ele>79</ele>
        <time>2021-04-26T13:45:29.000Z</time>
      </trkpt>
      <trkpt lat="47.19187" lon="-1.46666">
        <ele>79</ele>
        <time>2021-04-26T13:45:31.000Z</time>
      </trkpt>
      <trkpt lat="47.19193" lon="-1.46652">
        <ele>79</ele>
        <time>2021-04-26T13:45:33.000Z</time>
      </trkpt>
      <trkpt lat="47.192" lon="-1.46638">
        <ele>79</ele>
        <time>2021-04-26T13:45:35.000Z</time>
      </trkpt>
      <trkpt lat="47.19207" lon="-1.46624">
        <ele>79</ele>
        <time>2021-04-26T13:45:37.000Z</time>
      </trkpt>
      <trkpt lat="47.19213" lon="-1.46611">
        <ele>79</ele>
        <time>2021-04-26T13:45:39.000Z</time>
      </trkpt>
      <trkpt lat="47.1922" lon="-1.46597">
        <ele>79</ele>
        <time>2021-04-26T13:45:41.000Z</time>
      </trkpt>
      <trkpt lat="47.19226" lon="-1.46584">
        <ele>79</ele>
        <time>2021-04-26T13:45:43.000Z</time>
      </trkpt>
      <trkpt lat="47.19233" lon="-1.46571">
        <ele>79</ele>
        <time>2021-04-26T13:45:45.000Z</time>
      </trkpt>
      <trkpt lat="47.19239" lon="-1.46558">
        <ele>79</ele>
        <time>2021-04-26T13:45:47.000Z</time>
      </trkpt>
      <trkpt lat="47.19245" lon="-1.46544">
        <ele>80</ele>
        <time>2021-04-26T13:45:49.000Z</time>
      </trkpt>
      <trkpt lat="47.19251" lon="-1.46532">
        <ele>80</ele>
        <time>2021-04-26T13:45:51.000Z</time>
      </trkpt>
      <trkpt lat="47.19257" lon="-1.46519">
        <ele>80</ele>
        <time>2021-04-26T13:45:53.000Z</time>
      </trkpt>
      <trkpt lat="47.19263" lon="-1.46506">
        <ele>80</ele>
        <time>2021-04-26T13:45:55.000Z</time>
      </trkpt>
      <trkpt lat="47.1927" lon="-1.46493">
        <ele>80</ele>
        <time>2021-04-26T13:45:57.000Z</time>
      </trkpt>
      <trkpt lat="47.19276" lon="-1.46479">
        <ele>80</ele>
        <time>2021-04-26T13:45:59.000Z</time>
      </trkpt>
      <trkpt lat="47.19283" lon="-1.46466">
        <ele>80</ele>
        <time>2021-04-26T13:46:01.000Z</time>
      </trkpt>
      <trkpt lat="47.19289" lon="-1.46452">
        <ele>80</ele>
        <time>2021-04-26T13:46:03.000Z</time>
      </trkpt>
      <trkpt lat="47.19295" lon="-1.46439">
        <ele>79</ele>
        <time>2021-04-26T13:46:05.000Z</time>
      </trkpt>
      <trkpt lat="47.19301" lon="-1.46427">
        <ele>80</ele>
        <time>2021-04-26T13:46:07.000Z</time>
      </trkpt>
      <trkpt lat="47.19308" lon="-1.46413">
        <ele>80</ele>
        <time>2021-04-26T13:46:09.000Z</time>
      </trkpt>
      <trkpt lat="47.19314" lon="-1.464">
        <ele>80</ele>
        <time>2021-04-26T13:46:11.000Z</time>
      </trkpt>
      <trkpt lat="47.1932" lon="-1.46386">
        <ele>80</ele>
        <time>2021-04-26T13:46:13.000Z</time>
      </trkpt>
      <trkpt lat="47.19326" lon="-1.46372">
        <ele>80</ele>
        <time>2021-04-26T13:46:15.000Z</time>
      </trkpt>
      <trkpt lat="47.19333" lon="-1.46357">
        <ele>80</ele>
        <time>2021-04-26T13:46:17.000Z</time>
      </trkpt>
      <trkpt lat="47.19338" lon="-1.46344">
        <ele>80</ele>
        <time>2021-04-26T13:46:19.000Z</time>
      </trkpt>
      <trkpt lat="47.19344" lon="-1.46331">
        <ele>80</ele>
        <time>2021-04-26T13:46:21.000Z</time>
      </trkpt>
      <trkpt lat="47.1935" lon="-1.46315">
        <ele>80</ele>
        <time>2021-04-26T13:46:24.000Z</time>
      </trkpt>
      <trkpt lat="47.19353" lon="-1.46301">
        <ele>80</ele>
        <time>2021-04-26T13:46:26.000Z</time>
      </trkpt>
      <trkpt lat="47.1936" lon="-1.46289">
        <ele>80</ele>
        <time>2021-04-26T13:46:28.000Z</time>
      </trkpt>
      <trkpt lat="47.19371" lon="-1.46289">
        <ele>80</ele>
        <time>2021-04-26T13:46:30.000Z</time>
      </trkpt>
      <trkpt lat="47.1938" lon="-1.46299">
        <ele>80</ele>
        <time>2021-04-26T13:46:32.000Z</time>
      </trkpt>
      <trkpt lat="47.19389" lon="-1.4631">
        <ele>80</ele>
        <time>2021-04-26T13:46:34.000Z</time>
      </trkpt>
      <trkpt lat="47.19399" lon="-1.46318">
        <ele>79</ele>
        <time>2021-04-26T13:46:36.000Z</time>
      </trkpt>
      <trkpt lat="47.1941" lon="-1.46323">
        <ele>79</ele>
        <time>2021-04-26T13:46:38.000Z</time>
      </trkpt>
      <trkpt lat="47.19421" lon="-1.46329">
        <ele>78</ele>
        <time>2021-04-26T13:46:40.000Z</time>
      </trkpt>
      <trkpt lat="47.19432" lon="-1.46334">
        <ele>79</ele>
        <time>2021-04-26T13:46:42.000Z</time>
      </trkpt>
      <trkpt lat="47.19443" lon="-1.46339">
        <ele>78</ele>
        <time>2021-04-26T13:46:44.000Z</time>
      </trkpt>
      <trkpt lat="47.19454" lon="-1.46345">
        <ele>78</ele>
        <time>2021-04-26T13:46:46.000Z</time>
      </trkpt>
      <trkpt lat="47.19465" lon="-1.46351">
        <ele>78</ele>
        <time>2021-04-26T13:46:48.000Z</time>
      </trkpt>
      <trkpt lat="47.19475" lon="-1.46355">
        <ele>78</ele>
        <time>2021-04-26T13:46:50.000Z</time>
      </trkpt>
      <trkpt lat="47.19487" lon="-1.46361">
        <ele>78</ele>
        <time>2021-04-26T13:46:52.000Z</time>
      </trkpt>
      <trkpt lat="47.19498" lon="-1.46366">
        <ele>78</ele>
        <time>2021-04-26T13:46:54.000Z</time>
      </trkpt>
      <trkpt lat="47.19509" lon="-1.46371">
        <ele>78</ele>
        <time>2021-04-26T13:46:56.000Z</time>
      </trkpt>
      <trkpt lat="47.1952" lon="-1.46376">
        <ele>78</ele>
        <time>2021-04-26T13:46:58.000Z</time>
      </trkpt>
      <trkpt lat="47.1953" lon="-1.46381">
        <ele>79</ele>
        <time>2021-04-26T13:47:00.000Z</time>
      </trkpt>
      <trkpt lat="47.19542" lon="-1.46386">
        <ele>79</ele>
        <time>2021-04-26T13:47:02.000Z</time>
      </trkpt>
      <trkpt lat="47.19553" lon="-1.46392">
        <ele>78</ele>
        <time>2021-04-26T13:47:04.000Z</time>
      </trkpt>
      <trkpt lat="47.19565" lon="-1.46398">
        <ele>79</ele>
        <time>2021-04-26T13:47:06.000Z</time>
      </trkpt>
      <trkpt lat="47.19577" lon="-1.46404">
        <ele>80</ele>
        <time>2021-04-26T13:47:08.000Z</time>
      </trkpt>
      <trkpt lat="47.19588" lon="-1.4641">
        <ele>79</ele>
        <time>2021-04-26T13:47:10.000Z</time>
      </trkpt>
      <trkpt lat="47.196" lon="-1.46415">
        <ele>79</ele>
        <time>2021-04-26T13:47:12.000Z</time>
      </trkpt>
      <trkpt lat="47.19613" lon="-1.46421">
        <ele>78</ele>
        <time>2021-04-26T13:47:14.000Z</time>
      </trkpt>
      <trkpt lat="47.19625" lon="-1.46427">
        <ele>78</ele>
        <time>2021-04-26T13:47:16.000Z</time>
      </trkpt>
      <trkpt lat="47.19637" lon="-1.46433">
        <ele>78</ele>
        <time>2021-04-26T13:47:18.000Z</time>
      </trkpt>
      <trkpt lat="47.19648" lon="-1.46438">
        <ele>78</ele>
        <time>2021-04-26T13:47:20.000Z</time>
      </trkpt>
      <trkpt lat="47.1966" lon="-1.46444">
        <ele>78</ele>
        <time>2021-04-26T13:47:22.000Z</time>
      </trkpt>
      <trkpt lat="47.19672" lon="-1.4645">
        <ele>77</ele>
        <time>2021-04-26T13:47:24.000Z</time>
      </trkpt>
      <trkpt lat="47.19685" lon="-1.46456">
        <ele>77</ele>
        <time>2021-04-26T13:47:26.000Z</time>
      </trkpt>
      <trkpt lat="47.19698" lon="-1.46462">
        <ele>76</ele>
        <time>2021-04-26T13:47:28.000Z</time>
      </trkpt>
      <trkpt lat="47.1971" lon="-1.46468">
        <ele>76</ele>
        <time>2021-04-26T13:47:30.000Z</time>
      </trkpt>
      <trkpt lat="47.19723" lon="-1.46475">
        <ele>76</ele>
        <time>2021-04-26T13:47:32.000Z</time>
      </trkpt>
      <trkpt lat="47.19736" lon="-1.46481">
        <ele>75</ele>
        <time>2021-04-26T13:47:34.000Z</time>
      </trkpt>
      <trkpt lat="47.19749" lon="-1.46486">
        <ele>74</ele>
        <time>2021-04-26T13:47:36.000Z</time>
      </trkpt>
      <trkpt lat="47.19761" lon="-1.46493">
        <ele>74</ele>
        <time>2021-04-26T13:47:38.000Z</time>
      </trkpt>
      <trkpt lat="47.19774" lon="-1.46499">
        <ele>73</ele>
        <time>2021-04-26T13:47:40.000Z</time>
      </trkpt>
      <trkpt lat="47.19787" lon="-1.46506">
        <ele>73</ele>
        <time>2021-04-26T13:47:42.000Z</time>
      </trkpt>
      <trkpt lat="47.198" lon="-1.46511">
        <ele>73</ele>
        <time>2021-04-26T13:47:44.000Z</time>
      </trkpt>
      <trkpt lat="47.19813" lon="-1.46518">
        <ele>73</ele>
        <time>2021-04-26T13:47:46.000Z</time>
      </trkpt>
      <trkpt lat="47.19826" lon="-1.46524">
        <ele>72</ele>
        <time>2021-04-26T13:47:48.000Z</time>
      </trkpt>
      <trkpt lat="47.19839" lon="-1.46529">
        <ele>72</ele>
        <time>2021-04-26T13:47:50.000Z</time>
      </trkpt>
      <trkpt lat="47.19852" lon="-1.46536">
        <ele>72</ele>
        <time>2021-04-26T13:47:52.000Z</time>
      </trkpt>
      <trkpt lat="47.19864" lon="-1.46542">
        <ele>71</ele>
        <time>2021-04-26T13:47:54.000Z</time>
      </trkpt>
      <trkpt lat="47.19877" lon="-1.46547">
        <ele>71</ele>
        <time>2021-04-26T13:47:56.000Z</time>
      </trkpt>
      <trkpt lat="47.19889" lon="-1.46553">
        <ele>71</ele>
        <time>2021-04-26T13:47:58.000Z</time>
      </trkpt>
      <trkpt lat="47.19901" lon="-1.46559">
        <ele>71</ele>
        <time>2021-04-26T13:48:00.000Z</time>
      </trkpt>
      <trkpt lat="47.19913" lon="-1.46565">
        <ele>71</ele>
        <time>2021-04-26T13:48:02.000Z</time>
      </trkpt>
      <trkpt lat="47.19926" lon="-1.46571">
        <ele>71</ele>
        <time>2021-04-26T13:48:04.000Z</time>
      </trkpt>
      <trkpt lat="47.19939" lon="-1.46576">
        <ele>71</ele>
        <time>2021-04-26T13:48:06.000Z</time>
      </trkpt>
      <trkpt lat="47.19952" lon="-1.46582">
        <ele>70</ele>
        <time>2021-04-26T13:48:08.000Z</time>
      </trkpt>
      <trkpt lat="47.19965" lon="-1.46587">
        <ele>70</ele>
        <time>2021-04-26T13:48:10.000Z</time>
      </trkpt>
      <trkpt lat="47.19978" lon="-1.46593">
        <ele>69</ele>
        <time>2021-04-26T13:48:12.000Z</time>
      </trkpt>
      <trkpt lat="47.1999" lon="-1.46598">
        <ele>70</ele>
        <time>2021-04-26T13:48:14.000Z</time>
      </trkpt>
      <trkpt lat="47.20003" lon="-1.46603">
        <ele>70</ele>
        <time>2021-04-26T13:48:16.000Z</time>
      </trkpt>
      <trkpt lat="47.20015" lon="-1.46609">
        <ele>71</ele>
        <time>2021-04-26T13:48:18.000Z</time>
      </trkpt>
      <trkpt lat="47.20028" lon="-1.46614">
        <ele>71</ele>
        <time>2021-04-26T13:48:20.000Z</time>
      </trkpt>
      <trkpt lat="47.20041" lon="-1.46619">
        <ele>71</ele>
        <time>2021-04-26T13:48:22.000Z</time>
      </trkpt>
      <trkpt lat="47.20053" lon="-1.46624">
        <ele>71</ele>
        <time>2021-04-26T13:48:24.000Z</time>
      </trkpt>
      <trkpt lat="47.20066" lon="-1.46629">
        <ele>71</ele>
        <time>2021-04-26T13:48:26.000Z</time>
      </trkpt>
      <trkpt lat="47.20079" lon="-1.46634">
        <ele>72</ele>
        <time>2021-04-26T13:48:28.000Z</time>
      </trkpt>
      <trkpt lat="47.20091" lon="-1.46639">
        <ele>71</ele>
        <time>2021-04-26T13:48:30.000Z</time>
      </trkpt>
      <trkpt lat="47.20103" lon="-1.46645">
        <ele>71</ele>
        <time>2021-04-26T13:48:32.000Z</time>
      </trkpt>
      <trkpt lat="47.20114" lon="-1.46652">
        <ele>71</ele>
        <time>2021-04-26T13:48:34.000Z</time>
      </trkpt>
      <trkpt lat="47.20126" lon="-1.46658">
        <ele>71</ele>
        <time>2021-04-26T13:48:36.000Z</time>
      </trkpt>
      <trkpt lat="47.20138" lon="-1.46666">
        <ele>71</ele>
        <time>2021-04-26T13:48:38.000Z</time>
      </trkpt>
      <trkpt lat="47.20151" lon="-1.46669">
        <ele>70</ele>
        <time>2021-04-26T13:48:40.000Z</time>
      </trkpt>
      <trkpt lat="47.20164" lon="-1.4667">
        <ele>69</ele>
        <time>2021-04-26T13:48:42.000Z</time>
      </trkpt>
      <trkpt lat="47.20177" lon="-1.46672">
        <ele>69</ele>
        <time>2021-04-26T13:48:44.000Z</time>
      </trkpt>
      <trkpt lat="47.20189" lon="-1.46677">
        <ele>69</ele>
        <time>2021-04-26T13:48:46.000Z</time>
      </trkpt>
      <trkpt lat="47.20201" lon="-1.46681">
        <ele>68</ele>
        <time>2021-04-26T13:48:48.000Z</time>
      </trkpt>
      <trkpt lat="47.20214" lon="-1.46684">
        <ele>68</ele>
        <time>2021-04-26T13:48:50.000Z</time>
      </trkpt>
      <trkpt lat="47.20226" lon="-1.46685">
        <ele>68</ele>
        <time>2021-04-26T13:48:52.000Z</time>
      </trkpt>
      <trkpt lat="47.20238" lon="-1.46689">
        <ele>69</ele>
        <time>2021-04-26T13:48:54.000Z</time>
      </trkpt>
      <trkpt lat="47.20251" lon="-1.46692">
        <ele>69</ele>
        <time>2021-04-26T13:48:56.000Z</time>
      </trkpt>
      <trkpt lat="47.20264" lon="-1.46694">
        <ele>68</ele>
        <time>2021-04-26T13:48:58.000Z</time>
      </trkpt>
      <trkpt lat="47.20277" lon="-1.46696">
        <ele>68</ele>
        <time>2021-04-26T13:49:00.000Z</time>
      </trkpt>
      <trkpt lat="47.20289" lon="-1.46698">
        <ele>68</ele>
        <time>2021-04-26T13:49:02.000Z</time>
      </trkpt>
      <trkpt lat="47.20301" lon="-1.467">
        <ele>68</ele>
        <time>2021-04-26T13:49:04.000Z</time>
      </trkpt>
      <trkpt lat="47.20314" lon="-1.46702">
        <ele>67</ele>
        <time>2021-04-26T13:49:06.000Z</time>
      </trkpt>
      <trkpt lat="47.20326" lon="-1.46705">
        <ele>67</ele>
        <time>2021-04-26T13:49:08.000Z</time>
      </trkpt>
      <trkpt lat="47.20339" lon="-1.46707">
        <ele>67</ele>
        <time>2021-04-26T13:49:10.000Z</time>
      </trkpt>
      <trkpt lat="47.20351" lon="-1.46709">
        <ele>67</ele>
        <time>2021-04-26T13:49:12.000Z</time>
      </trkpt>
      <trkpt lat="47.20363" lon="-1.46712">
        <ele>67</ele>
        <time>2021-04-26T13:49:14.000Z</time>
      </trkpt>
      <trkpt lat="47.20375" lon="-1.46713">
        <ele>68</ele>
        <time>2021-04-26T13:49:16.000Z</time>
      </trkpt>
      <trkpt lat="47.20387" lon="-1.46715">
        <ele>68</ele>
        <time>2021-04-26T13:49:18.000Z</time>
      </trkpt>
      <trkpt lat="47.20398" lon="-1.46716">
        <ele>69</ele>
        <time>2021-04-26T13:49:20.000Z</time>
      </trkpt>
      <trkpt lat="47.20409" lon="-1.46718">
        <ele>69</ele>
        <time>2021-04-26T13:49:22.000Z</time>
      </trkpt>
      <trkpt lat="47.2042" lon="-1.46719">
        <ele>69</ele>
        <time>2021-04-26T13:49:24.000Z</time>
      </trkpt>
      <trkpt lat="47.20431" lon="-1.46721">
        <ele>69</ele>
        <time>2021-04-26T13:49:26.000Z</time>
      </trkpt>
      <trkpt lat="47.20442" lon="-1.46723">
        <ele>69</ele>
        <time>2021-04-26T13:49:28.000Z</time>
      </trkpt>
      <trkpt lat="47.20452" lon="-1.46724">
        <ele>69</ele>
        <time>2021-04-26T13:49:30.000Z</time>
      </trkpt>
      <trkpt lat="47.20462" lon="-1.46726">
        <ele>69</ele>
        <time>2021-04-26T13:49:32.000Z</time>
      </trkpt>
      <trkpt lat="47.20473" lon="-1.46727">
        <ele>69</ele>
        <time>2021-04-26T13:49:34.000Z</time>
      </trkpt>
      <trkpt lat="47.20484" lon="-1.46729">
        <ele>69</ele>
        <time>2021-04-26T13:49:36.000Z</time>
      </trkpt>
      <trkpt lat="47.20495" lon="-1.4673">
        <ele>69</ele>
        <time>2021-04-26T13:49:38.000Z</time>
      </trkpt>
      <trkpt lat="47.20506" lon="-1.46732">
        <ele>69</ele>
        <time>2021-04-26T13:49:40.000Z</time>
      </trkpt>
      <trkpt lat="47.20517" lon="-1.46734">
        <ele>69</ele>
        <time>2021-04-26T13:49:42.000Z</time>
      </trkpt>
      <trkpt lat="47.20528" lon="-1.46735">
        <ele>69</ele>
        <time>2021-04-26T13:49:44.000Z</time>
      </trkpt>
      <trkpt lat="47.20539" lon="-1.46736">
        <ele>69</ele>
        <time>2021-04-26T13:49:46.000Z</time>
      </trkpt>
      <trkpt lat="47.2055" lon="-1.46736">
        <ele>70</ele>
        <time>2021-04-26T13:49:48.000Z</time>
      </trkpt>
      <trkpt lat="47.20561" lon="-1.46735">
        <ele>70</ele>
        <time>2021-04-26T13:49:50.000Z</time>
      </trkpt>
      <trkpt lat="47.20571" lon="-1.46734">
        <ele>70</ele>
        <time>2021-04-26T13:49:52.000Z</time>
      </trkpt>
      <trkpt lat="47.2058" lon="-1.46732">
        <ele>70</ele>
        <time>2021-04-26T13:49:54.000Z</time>
      </trkpt>
      <trkpt lat="47.2059" lon="-1.4673">
        <ele>71</ele>
        <time>2021-04-26T13:49:56.000Z</time>
      </trkpt>
      <trkpt lat="47.206" lon="-1.46729">
        <ele>71</ele>
        <time>2021-04-26T13:49:58.000Z</time>
      </trkpt>
      <trkpt lat="47.20611" lon="-1.46726">
        <ele>71</ele>
        <time>2021-04-26T13:50:00.000Z</time>
      </trkpt>
      <trkpt lat="47.20621" lon="-1.46724">
        <ele>71</ele>
        <time>2021-04-26T13:50:02.000Z</time>
      </trkpt>
      <trkpt lat="47.20632" lon="-1.46722">
        <ele>71</ele>
        <time>2021-04-26T13:50:04.000Z</time>
      </trkpt>
      <trkpt lat="47.20643" lon="-1.4672">
        <ele>70</ele>
        <time>2021-04-26T13:50:06.000Z</time>
      </trkpt>
      <trkpt lat="47.20654" lon="-1.46718">
        <ele>70</ele>
        <time>2021-04-26T13:50:08.000Z</time>
      </trkpt>
      <trkpt lat="47.20663" lon="-1.46716">
        <ele>71</ele>
        <time>2021-04-26T13:50:10.000Z</time>
      </trkpt>
      <trkpt lat="47.20674" lon="-1.46714">
        <ele>70</ele>
        <time>2021-04-26T13:50:12.000Z</time>
      </trkpt>
      <trkpt lat="47.20685" lon="-1.46713">
        <ele>70</ele>
        <time>2021-04-26T13:50:14.000Z</time>
      </trkpt>
      <trkpt lat="47.20695" lon="-1.4671">
        <ele>71</ele>
        <time>2021-04-26T13:50:16.000Z</time>
      </trkpt>
      <trkpt lat="47.20705" lon="-1.46709">
        <ele>71</ele>
        <time>2021-04-26T13:50:18.000Z</time>
      </trkpt>
      <trkpt lat="47.20716" lon="-1.46707">
        <ele>71</ele>
        <time>2021-04-26T13:50:20.000Z</time>
      </trkpt>
      <trkpt lat="47.20726" lon="-1.46706">
        <ele>71</ele>
        <time>2021-04-26T13:50:22.000Z</time>
      </trkpt>
      <trkpt lat="47.20737" lon="-1.46703">
        <ele>71</ele>
        <time>2021-04-26T13:50:24.000Z</time>
      </trkpt>
      <trkpt lat="47.20748" lon="-1.46702">
        <ele>71</ele>
        <time>2021-04-26T13:50:26.000Z</time>
      </trkpt>
      <trkpt lat="47.20759" lon="-1.46701">
        <ele>72</ele>
        <time>2021-04-26T13:50:28.000Z</time>
      </trkpt>
      <trkpt lat="47.2077" lon="-1.46699">
        <ele>72</ele>
        <time>2021-04-26T13:50:30.000Z</time>
      </trkpt>
      <trkpt lat="47.20781" lon="-1.46697">
        <ele>72</ele>
        <time>2021-04-26T13:50:32.000Z</time>
      </trkpt>
      <trkpt lat="47.20791" lon="-1.46695">
        <ele>72</ele>
        <time>2021-04-26T13:50:34.000Z</time>
      </trkpt>
      <trkpt lat="47.20802" lon="-1.46695">
        <ele>72</ele>
        <time>2021-04-26T13:50:36.000Z</time>
      </trkpt>
      <trkpt lat="47.20813" lon="-1.46694">
        <ele>71</ele>
        <time>2021-04-26T13:50:38.000Z</time>
      </trkpt>
      <trkpt lat="47.20824" lon="-1.46692">
        <ele>71</ele>
        <time>2021-04-26T13:50:40.000Z</time>
      </trkpt>
      <trkpt lat="47.20834" lon="-1.4669">
        <ele>71</ele>
        <time>2021-04-26T13:50:42.000Z</time>
      </trkpt>
      <trkpt lat="47.20844" lon="-1.46685">
        <ele>71</ele>
        <time>2021-04-26T13:50:44.000Z</time>
      </trkpt>
      <trkpt lat="47.20854" lon="-1.46679">
        <ele>71</ele>
        <time>2021-04-26T13:50:46.000Z</time>
      </trkpt>
      <trkpt lat="47.20865" lon="-1.46679">
        <ele>71</ele>
        <time>2021-04-26T13:50:48.000Z</time>
      </trkpt>
      <trkpt lat="47.20876" lon="-1.46679">
        <ele>71</ele>
        <time>2021-04-26T13:50:50.000Z</time>
      </trkpt>
      <trkpt lat="47.20886" lon="-1.46673">
        <ele>71</ele>
        <time>2021-04-26T13:50:52.000Z</time>
      </trkpt>
      <trkpt lat="47.20896" lon="-1.46667">
        <ele>71</ele>
        <time>2021-04-26T13:50:54.000Z</time>
      </trkpt>
      <trkpt lat="47.20907" lon="-1.46662">
        <ele>71</ele>
        <time>2021-04-26T13:50:56.000Z</time>
      </trkpt>
      <trkpt lat="47.20916" lon="-1.46656">
        <ele>71</ele>
        <time>2021-04-26T13:50:58.000Z</time>
      </trkpt>
      <trkpt lat="47.20925" lon="-1.4665">
        <ele>71</ele>
        <time>2021-04-26T13:51:00.000Z</time>
      </trkpt>
      <trkpt lat="47.20934" lon="-1.46643">
        <ele>71</ele>
        <time>2021-04-26T13:51:02.000Z</time>
      </trkpt>
      <trkpt lat="47.20944" lon="-1.46638">
        <ele>71</ele>
        <time>2021-04-26T13:51:04.000Z</time>
      </trkpt>
      <trkpt lat="47.20954" lon="-1.46632">
        <ele>71</ele>
        <time>2021-04-26T13:51:06.000Z</time>
      </trkpt>
      <trkpt lat="47.20964" lon="-1.46627">
        <ele>71</ele>
        <time>2021-04-26T13:51:08.000Z</time>
      </trkpt>
      <trkpt lat="47.20975" lon="-1.46623">
        <ele>71</ele>
        <time>2021-04-26T13:51:10.000Z</time>
      </trkpt>
      <trkpt lat="47.20986" lon="-1.46621">
        <ele>72</ele>
        <time>2021-04-26T13:51:12.000Z</time>
      </trkpt>
      <trkpt lat="47.20997" lon="-1.46617">
        <ele>72</ele>
        <time>2021-04-26T13:51:14.000Z</time>
      </trkpt>
      <trkpt lat="47.21008" lon="-1.46614">
        <ele>72</ele>
        <time>2021-04-26T13:51:16.000Z</time>
      </trkpt>
      <trkpt lat="47.21018" lon="-1.4661">
        <ele>73</ele>
        <time>2021-04-26T13:51:18.000Z</time>
      </trkpt>
      <trkpt lat="47.21028" lon="-1.46605">
        <ele>73</ele>
        <time>2021-04-26T13:51:20.000Z</time>
      </trkpt>
      <trkpt lat="47.21038" lon="-1.46601">
        <ele>72</ele>
        <time>2021-04-26T13:51:22.000Z</time>
      </trkpt>
      <trkpt lat="47.21048" lon="-1.46594">
        <ele>72</ele>
        <time>2021-04-26T13:51:24.000Z</time>
      </trkpt>
      <trkpt lat="47.21052" lon="-1.46582">
        <ele>72</ele>
        <time>2021-04-26T13:51:26.000Z</time>
      </trkpt>
      <trkpt lat="47.21058" lon="-1.46569">
        <ele>71</ele>
        <time>2021-04-26T13:51:28.000Z</time>
      </trkpt>
      <trkpt lat="47.21064" lon="-1.46557">
        <ele>71</ele>
        <time>2021-04-26T13:51:30.000Z</time>
      </trkpt>
      <trkpt lat="47.2107" lon="-1.46545">
        <ele>71</ele>
        <time>2021-04-26T13:51:32.000Z</time>
      </trkpt>
      <trkpt lat="47.21079" lon="-1.46536">
        <ele>70</ele>
        <time>2021-04-26T13:51:34.000Z</time>
      </trkpt>
      <trkpt lat="47.2109" lon="-1.46536">
        <ele>70</ele>
        <time>2021-04-26T13:51:36.000Z</time>
      </trkpt>
      <trkpt lat="47.211" lon="-1.46542">
        <ele>70</ele>
        <time>2021-04-26T13:51:38.000Z</time>
      </trkpt>
      <trkpt lat="47.21109" lon="-1.46552">
        <ele>69</ele>
        <time>2021-04-26T13:51:40.000Z</time>
      </trkpt>
      <trkpt lat="47.21119" lon="-1.4656">
        <ele>70</ele>
        <time>2021-04-26T13:51:42.000Z</time>
      </trkpt>
      <trkpt lat="47.21127" lon="-1.46571">
        <ele>70</ele>
        <time>2021-04-26T13:51:44.000Z</time>
      </trkpt>
      <trkpt lat="47.21136" lon="-1.46582">
        <ele>70</ele>
        <time>2021-04-26T13:51:46.000Z</time>
      </trkpt>
      <trkpt lat="47.21146" lon="-1.46588">
        <ele>70</ele>
        <time>2021-04-26T13:51:48.000Z</time>
      </trkpt>
      <trkpt lat="47.21157" lon="-1.46591">
        <ele>70</ele>
        <time>2021-04-26T13:51:50.000Z</time>
      </trkpt>
      <trkpt lat="47.21168" lon="-1.46597">
        <ele>70</ele>
        <time>2021-04-26T13:51:52.000Z</time>
      </trkpt>
      <trkpt lat="47.21179" lon="-1.46603">
        <ele>70</ele>
        <time>2021-04-26T13:51:54.000Z</time>
      </trkpt>
      <trkpt lat="47.2119" lon="-1.46608">
        <ele>70</ele>
        <time>2021-04-26T13:51:56.000Z</time>
      </trkpt>
      <trkpt lat="47.212" lon="-1.46614">
        <ele>70</ele>
        <time>2021-04-26T13:51:58.000Z</time>
      </trkpt>
      <trkpt lat="47.21211" lon="-1.46619">
        <ele>69</ele>
        <time>2021-04-26T13:52:00.000Z</time>
      </trkpt>
      <trkpt lat="47.21222" lon="-1.46623">
        <ele>69</ele>
        <time>2021-04-26T13:52:02.000Z</time>
      </trkpt>
      <trkpt lat="47.21233" lon="-1.46626">
        <ele>69</ele>
        <time>2021-04-26T13:52:04.000Z</time>
      </trkpt>
      <trkpt lat="47.21244" lon="-1.46628">
        <ele>68</ele>
        <time>2021-04-26T13:52:06.000Z</time>
      </trkpt>
      <trkpt lat="47.21255" lon="-1.46629">
        <ele>68</ele>
        <time>2021-04-26T13:52:08.000Z</time>
      </trkpt>
      <trkpt lat="47.21267" lon="-1.46631">
        <ele>68</ele>
        <time>2021-04-26T13:52:10.000Z</time>
      </trkpt>
      <trkpt lat="47.21278" lon="-1.46632">
        <ele>68</ele>
        <time>2021-04-26T13:52:12.000Z</time>
      </trkpt>
      <trkpt lat="47.21289" lon="-1.46633">
        <ele>69</ele>
        <time>2021-04-26T13:52:14.000Z</time>
      </trkpt>
      <trkpt lat="47.21299" lon="-1.46634">
        <ele>69</ele>
        <time>2021-04-26T13:52:16.000Z</time>
      </trkpt>
      <trkpt lat="47.2131" lon="-1.46634">
        <ele>70</ele>
        <time>2021-04-26T13:52:18.000Z</time>
      </trkpt>
      <trkpt lat="47.21321" lon="-1.46635">
        <ele>70</ele>
        <time>2021-04-26T13:52:20.000Z</time>
      </trkpt>
      <trkpt lat="47.21333" lon="-1.46635">
        <ele>69</ele>
        <time>2021-04-26T13:52:22.000Z</time>
      </trkpt>
      <trkpt lat="47.21344" lon="-1.46635">
        <ele>69</ele>
        <time>2021-04-26T13:52:24.000Z</time>
      </trkpt>
      <trkpt lat="47.21355" lon="-1.46636">
        <ele>68</ele>
        <time>2021-04-26T13:52:26.000Z</time>
      </trkpt>
      <trkpt lat="47.21366" lon="-1.46636">
        <ele>68</ele>
        <time>2021-04-26T13:52:28.000Z</time>
      </trkpt>
      <trkpt lat="47.21378" lon="-1.46636">
        <ele>68</ele>
        <time>2021-04-26T13:52:30.000Z</time>
      </trkpt>
      <trkpt lat="47.21389" lon="-1.46636">
        <ele>67</ele>
        <time>2021-04-26T13:52:32.000Z</time>
      </trkpt>
      <trkpt lat="47.21401" lon="-1.46636">
        <ele>67</ele>
        <time>2021-04-26T13:52:34.000Z</time>
      </trkpt>
      <trkpt lat="47.21413" lon="-1.46637">
        <ele>67</ele>
        <time>2021-04-26T13:52:36.000Z</time>
      </trkpt>
      <trkpt lat="47.21425" lon="-1.46637">
        <ele>67</ele>
        <time>2021-04-26T13:52:38.000Z</time>
      </trkpt>
      <trkpt lat="47.21436" lon="-1.46636">
        <ele>67</ele>
        <time>2021-04-26T13:52:40.000Z</time>
      </trkpt>
      <trkpt lat="47.21448" lon="-1.46632">
        <ele>67</ele>
        <time>2021-04-26T13:52:42.000Z</time>
      </trkpt>
      <trkpt lat="47.21459" lon="-1.46626">
        <ele>67</ele>
        <time>2021-04-26T13:52:44.000Z</time>
      </trkpt>
      <trkpt lat="47.21471" lon="-1.46618">
        <ele>66</ele>
        <time>2021-04-26T13:52:46.000Z</time>
      </trkpt>
      <trkpt lat="47.21482" lon="-1.46608">
        <ele>64</ele>
        <time>2021-04-26T13:52:48.000Z</time>
      </trkpt>
      <trkpt lat="47.21494" lon="-1.46597">
        <ele>64</ele>
        <time>2021-04-26T13:52:50.000Z</time>
      </trkpt>
      <trkpt lat="47.21504" lon="-1.46584">
        <ele>63</ele>
        <time>2021-04-26T13:52:52.000Z</time>
      </trkpt>
      <trkpt lat="47.21514" lon="-1.4657">
        <ele>62</ele>
        <time>2021-04-26T13:52:54.000Z</time>
      </trkpt>
      <trkpt lat="47.21523" lon="-1.46558">
        <ele>62</ele>
        <time>2021-04-26T13:52:56.000Z</time>
      </trkpt>
      <trkpt lat="47.21533" lon="-1.46548">
        <ele>62</ele>
        <time>2021-04-26T13:52:58.000Z</time>
      </trkpt>
      <trkpt lat="47.21545" lon="-1.46539">
        <ele>62</ele>
        <time>2021-04-26T13:53:00.000Z</time>
      </trkpt>
      <trkpt lat="47.21557" lon="-1.46536">
        <ele>62</ele>
        <time>2021-04-26T13:53:02.000Z</time>
      </trkpt>
      <trkpt lat="47.21571" lon="-1.46534">
        <ele>61</ele>
        <time>2021-04-26T13:53:04.000Z</time>
      </trkpt>
      <trkpt lat="47.21584" lon="-1.46533">
        <ele>60</ele>
        <time>2021-04-26T13:53:06.000Z</time>
      </trkpt>
      <trkpt lat="47.21596" lon="-1.46532">
        <ele>60</ele>
        <time>2021-04-26T13:53:08.000Z</time>
      </trkpt>
      <trkpt lat="47.2161" lon="-1.46532">
        <ele>59</ele>
        <time>2021-04-26T13:53:10.000Z</time>
      </trkpt>
      <trkpt lat="47.21624" lon="-1.46532">
        <ele>58</ele>
        <time>2021-04-26T13:53:12.000Z</time>
      </trkpt>
      <trkpt lat="47.21637" lon="-1.4653">
        <ele>57</ele>
        <time>2021-04-26T13:53:14.000Z</time>
      </trkpt>
      <trkpt lat="47.21645" lon="-1.46519">
        <ele>57</ele>
        <time>2021-04-26T13:53:16.000Z</time>
      </trkpt>
      <trkpt lat="47.21645" lon="-1.46499">
        <ele>56</ele>
        <time>2021-04-26T13:53:18.000Z</time>
      </trkpt>
      <trkpt lat="47.21645" lon="-1.46482">
        <ele>56</ele>
        <time>2021-04-26T13:53:20.000Z</time>
      </trkpt>
      <trkpt lat="47.21648" lon="-1.46466">
        <ele>55</ele>
        <time>2021-04-26T13:53:22.000Z</time>
      </trkpt>
      <trkpt lat="47.21653" lon="-1.4645">
        <ele>54</ele>
        <time>2021-04-26T13:53:24.000Z</time>
      </trkpt>
      <trkpt lat="47.21656" lon="-1.46433">
        <ele>53</ele>
        <time>2021-04-26T13:53:26.000Z</time>
      </trkpt>
      <trkpt lat="47.21658" lon="-1.46415">
        <ele>53</ele>
        <time>2021-04-26T13:53:28.000Z</time>
      </trkpt>
      <trkpt lat="47.21659" lon="-1.46398">
        <ele>52</ele>
        <time>2021-04-26T13:53:30.000Z</time>
      </trkpt>
      <trkpt lat="47.2166" lon="-1.46382">
        <ele>52</ele>
        <time>2021-04-26T13:53:32.000Z</time>
      </trkpt>
      <trkpt lat="47.21661" lon="-1.46365">
        <ele>52</ele>
        <time>2021-04-26T13:53:34.000Z</time>
      </trkpt>
      <trkpt lat="47.21663" lon="-1.46349">
        <ele>51</ele>
        <time>2021-04-26T13:53:36.000Z</time>
      </trkpt>
      <trkpt lat="47.21664" lon="-1.46332">
        <ele>52</ele>
        <time>2021-04-26T13:53:38.000Z</time>
      </trkpt>
      <trkpt lat="47.21665" lon="-1.46316">
        <ele>52</ele>
        <time>2021-04-26T13:53:40.000Z</time>
      </trkpt>
      <trkpt lat="47.21666" lon="-1.463">
        <ele>51</ele>
        <time>2021-04-26T13:53:42.000Z</time>
      </trkpt>
      <trkpt lat="47.21667" lon="-1.46284">
        <ele>51</ele>
        <time>2021-04-26T13:53:44.000Z</time>
      </trkpt>
      <trkpt lat="47.21669" lon="-1.46268">
        <ele>52</ele>
        <time>2021-04-26T13:53:46.000Z</time>
      </trkpt>
      <trkpt lat="47.2167" lon="-1.46253">
        <ele>52</ele>
        <time>2021-04-26T13:53:48.000Z</time>
      </trkpt>
      <trkpt lat="47.2167" lon="-1.46238">
        <ele>52</ele>
        <time>2021-04-26T13:53:50.000Z</time>
      </trkpt>
      <trkpt lat="47.21669" lon="-1.46223">
        <ele>53</ele>
        <time>2021-04-26T13:53:52.000Z</time>
      </trkpt>
      <trkpt lat="47.21667" lon="-1.46208">
        <ele>53</ele>
        <time>2021-04-26T13:53:54.000Z</time>
      </trkpt>
      <trkpt lat="47.21666" lon="-1.46193">
        <ele>54</ele>
        <time>2021-04-26T13:53:56.000Z</time>
      </trkpt>
      <trkpt lat="47.2167" lon="-1.46181">
        <ele>53</ele>
        <time>2021-04-26T13:53:58.000Z</time>
      </trkpt>
      <trkpt lat="47.21681" lon="-1.46183">
        <ele>52</ele>
        <time>2021-04-26T13:54:00.000Z</time>
      </trkpt>
      <trkpt lat="47.2169" lon="-1.46178">
        <ele>52</ele>
        <time>2021-04-26T13:54:02.000Z</time>
      </trkpt>
      <trkpt lat="47.21695" lon="-1.46162">
        <ele>51</ele>
        <time>2021-04-26T13:54:04.000Z</time>
      </trkpt>
      <trkpt lat="47.21699" lon="-1.46145">
        <ele>51</ele>
        <time>2021-04-26T13:54:06.000Z</time>
      </trkpt>
      <trkpt lat="47.21704" lon="-1.4613">
        <ele>51</ele>
        <time>2021-04-26T13:54:08.000Z</time>
      </trkpt>
      <trkpt lat="47.21709" lon="-1.46115">
        <ele>51</ele>
        <time>2021-04-26T13:54:10.000Z</time>
      </trkpt>
      <trkpt lat="47.21714" lon="-1.461">
        <ele>51</ele>
        <time>2021-04-26T13:54:12.000Z</time>
      </trkpt>
      <trkpt lat="47.21718" lon="-1.46085">
        <ele>51</ele>
        <time>2021-04-26T13:54:14.000Z</time>
      </trkpt>
      <trkpt lat="47.21722" lon="-1.4607">
        <ele>51</ele>
        <time>2021-04-26T13:54:16.000Z</time>
      </trkpt>
      <trkpt lat="47.21727" lon="-1.46054">
        <ele>51</ele>
        <time>2021-04-26T13:54:18.000Z</time>
      </trkpt>
      <trkpt lat="47.21732" lon="-1.46038">
        <ele>51</ele>
        <time>2021-04-26T13:54:20.000Z</time>
      </trkpt>
      <trkpt lat="47.21735" lon="-1.46021">
        <ele>51</ele>
        <time>2021-04-26T13:54:22.000Z</time>
      </trkpt>
      <trkpt lat="47.21736" lon="-1.46003">
        <ele>51</ele>
        <time>2021-04-26T13:54:24.000Z</time>
      </trkpt>
      <trkpt lat="47.21738" lon="-1.45986">
        <ele>51</ele>
        <time>2021-04-26T13:54:26.000Z</time>
      </trkpt>
      <trkpt lat="47.2174" lon="-1.45969">
        <ele>51</ele>
        <time>2021-04-26T13:54:28.000Z</time>
      </trkpt>
      <trkpt lat="47.21741" lon="-1.45951">
        <ele>51</ele>
        <time>2021-04-26T13:54:30.000Z</time>
      </trkpt>
      <trkpt lat="47.21743" lon="-1.45934">
        <ele>51</ele>
        <time>2021-04-26T13:54:32.000Z</time>
      </trkpt>
      <trkpt lat="47.21744" lon="-1.45916">
        <ele>50</ele>
        <time>2021-04-26T13:54:34.000Z</time>
      </trkpt>
      <trkpt lat="47.21746" lon="-1.45898">
        <ele>51</ele>
        <time>2021-04-26T13:54:36.000Z</time>
      </trkpt>
      <trkpt lat="47.21747" lon="-1.45881">
        <ele>51</ele>
        <time>2021-04-26T13:54:38.000Z</time>
      </trkpt>
      <trkpt lat="47.21748" lon="-1.45862">
        <ele>51</ele>
        <time>2021-04-26T13:54:40.000Z</time>
      </trkpt>
      <trkpt lat="47.2175" lon="-1.45845">
        <ele>51</ele>
        <time>2021-04-26T13:54:42.000Z</time>
      </trkpt>
      <trkpt lat="47.21752" lon="-1.45827">
        <ele>51</ele>
        <time>2021-04-26T13:54:44.000Z</time>
      </trkpt>
      <trkpt lat="47.21753" lon="-1.45809">
        <ele>51</ele>
        <time>2021-04-26T13:54:46.000Z</time>
      </trkpt>
      <trkpt lat="47.21754" lon="-1.45791">
        <ele>51</ele>
        <time>2021-04-26T13:54:48.000Z</time>
      </trkpt>
      <trkpt lat="47.21756" lon="-1.45773">
        <ele>51</ele>
        <time>2021-04-26T13:54:50.000Z</time>
      </trkpt>
      <trkpt lat="47.21756" lon="-1.45756">
        <ele>51</ele>
        <time>2021-04-26T13:54:52.000Z</time>
      </trkpt>
      <trkpt lat="47.21758" lon="-1.4574">
        <ele>52</ele>
        <time>2021-04-26T13:54:54.000Z</time>
      </trkpt>
      <trkpt lat="47.2176" lon="-1.45724">
        <ele>52</ele>
        <time>2021-04-26T13:54:56.000Z</time>
      </trkpt>
      <trkpt lat="47.21765" lon="-1.4571">
        <ele>52</ele>
        <time>2021-04-26T13:54:58.000Z</time>
      </trkpt>
      <trkpt lat="47.21774" lon="-1.45698">
        <ele>52</ele>
        <time>2021-04-26T13:55:00.000Z</time>
      </trkpt>
      <trkpt lat="47.21781" lon="-1.45683">
        <ele>52</ele>
        <time>2021-04-26T13:55:02.000Z</time>
      </trkpt>
      <trkpt lat="47.21787" lon="-1.45668">
        <ele>53</ele>
        <time>2021-04-26T13:55:04.000Z</time>
      </trkpt>
      <trkpt lat="47.21794" lon="-1.45653">
        <ele>53</ele>
        <time>2021-04-26T13:55:06.000Z</time>
      </trkpt>
      <trkpt lat="47.21802" lon="-1.45639">
        <ele>53</ele>
        <time>2021-04-26T13:55:08.000Z</time>
      </trkpt>
      <trkpt lat="47.21809" lon="-1.45626">
        <ele>54</ele>
        <time>2021-04-26T13:55:10.000Z</time>
      </trkpt>
      <trkpt lat="47.21816" lon="-1.45612">
        <ele>54</ele>
        <time>2021-04-26T13:55:12.000Z</time>
      </trkpt>
      <trkpt lat="47.21823" lon="-1.456">
        <ele>55</ele>
        <time>2021-04-26T13:55:14.000Z</time>
      </trkpt>
      <trkpt lat="47.2183" lon="-1.45587">
        <ele>55</ele>
        <time>2021-04-26T13:55:16.000Z</time>
      </trkpt>
      <trkpt lat="47.21837" lon="-1.45575">
        <ele>55</ele>
        <time>2021-04-26T13:55:18.000Z</time>
      </trkpt>
      <trkpt lat="47.21844" lon="-1.45561">
        <ele>56</ele>
        <time>2021-04-26T13:55:20.000Z</time>
      </trkpt>
      <trkpt lat="47.21851" lon="-1.45547">
        <ele>56</ele>
        <time>2021-04-26T13:55:22.000Z</time>
      </trkpt>
      <trkpt lat="47.21858" lon="-1.45533">
        <ele>57</ele>
        <time>2021-04-26T13:55:24.000Z</time>
      </trkpt>
      <trkpt lat="47.21865" lon="-1.45521">
        <ele>57</ele>
        <time>2021-04-26T13:55:26.000Z</time>
      </trkpt>
      <trkpt lat="47.2187" lon="-1.4551">
        <ele>57</ele>
        <time>2021-04-26T13:55:28.000Z</time>
      </trkpt>
      <trkpt lat="47.21876" lon="-1.45499">
        <ele>58</ele>
        <time>2021-04-26T13:55:30.000Z</time>
      </trkpt>
      <trkpt lat="47.21881" lon="-1.45487">
        <ele>58</ele>
        <time>2021-04-26T13:55:32.000Z</time>
      </trkpt>
      <trkpt lat="47.21887" lon="-1.45475">
        <ele>58</ele>
        <time>2021-04-26T13:55:34.000Z</time>
      </trkpt>
      <trkpt lat="47.21892" lon="-1.45464">
        <ele>59</ele>
        <time>2021-04-26T13:55:36.000Z</time>
      </trkpt>
      <trkpt lat="47.21899" lon="-1.45452">
        <ele>58</ele>
        <time>2021-04-26T13:55:38.000Z</time>
      </trkpt>
      <trkpt lat="47.21907" lon="-1.45439">
        <ele>58</ele>
        <time>2021-04-26T13:55:40.000Z</time>
      </trkpt>
      <trkpt lat="47.21915" lon="-1.45425">
        <ele>57</ele>
        <time>2021-04-26T13:55:42.000Z</time>
      </trkpt>
      <trkpt lat="47.21926" lon="-1.45414">
        <ele>57</ele>
        <time>2021-04-26T13:55:44.000Z</time>
      </trkpt>
      <trkpt lat="47.21939" lon="-1.45404">
        <ele>56</ele>
        <time>2021-04-26T13:55:46.000Z</time>
      </trkpt>
      <trkpt lat="47.21938" lon="-1.45384">
        <ele>55</ele>
        <time>2021-04-26T13:55:48.000Z</time>
      </trkpt>
      <trkpt lat="47.2193" lon="-1.45354">
        <ele>55</ele>
        <time>2021-04-26T13:55:51.000Z</time>
      </trkpt>
      <trkpt lat="47.21931" lon="-1.45334">
        <ele>55</ele>
        <time>2021-04-26T13:55:53.000Z</time>
      </trkpt>
      <trkpt lat="47.21935" lon="-1.45315">
        <ele>54</ele>
        <time>2021-04-26T13:55:55.000Z</time>
      </trkpt>
      <trkpt lat="47.2194" lon="-1.45295">
        <ele>54</ele>
        <time>2021-04-26T13:55:57.000Z</time>
      </trkpt>
      <trkpt lat="47.21946" lon="-1.45279">
        <ele>54</ele>
        <time>2021-04-26T13:55:59.000Z</time>
      </trkpt>
      <trkpt lat="47.21955" lon="-1.45269">
        <ele>53</ele>
        <time>2021-04-26T13:56:01.000Z</time>
      </trkpt>
      <trkpt lat="47.21965" lon="-1.45259">
        <ele>53</ele>
        <time>2021-04-26T13:56:03.000Z</time>
      </trkpt>
      <trkpt lat="47.2197" lon="-1.45242">
        <ele>52</ele>
        <time>2021-04-26T13:56:05.000Z</time>
      </trkpt>
      <trkpt lat="47.21973" lon="-1.45225">
        <ele>51</ele>
        <time>2021-04-26T13:56:07.000Z</time>
      </trkpt>
      <trkpt lat="47.21976" lon="-1.45207">
        <ele>51</ele>
        <time>2021-04-26T13:56:09.000Z</time>
      </trkpt>
      <trkpt lat="47.21978" lon="-1.4519">
        <ele>50</ele>
        <time>2021-04-26T13:56:11.000Z</time>
      </trkpt>
      <trkpt lat="47.21982" lon="-1.45173">
        <ele>50</ele>
        <time>2021-04-26T13:56:13.000Z</time>
      </trkpt>
      <trkpt lat="47.2199" lon="-1.45168">
        <ele>51</ele>
        <time>2021-04-26T13:56:15.000Z</time>
      </trkpt>
      <trkpt lat="47.22" lon="-1.45169">
        <ele>51</ele>
        <time>2021-04-26T13:56:20.000Z</time>
      </trkpt>
      <trkpt lat="47.22008" lon="-1.45184">
        <ele>51</ele>
        <time>2021-04-26T13:56:23.000Z</time>
      </trkpt>
      <trkpt lat="47.22014" lon="-1.45198">
        <ele>51</ele>
        <time>2021-04-26T13:56:25.000Z</time>
      </trkpt>
      <trkpt lat="47.2202" lon="-1.45213">
        <ele>51</ele>
        <time>2021-04-26T13:56:27.000Z</time>
      </trkpt>
      <trkpt lat="47.22027" lon="-1.45228">
        <ele>51</ele>
        <time>2021-04-26T13:56:29.000Z</time>
      </trkpt>
      <trkpt lat="47.22034" lon="-1.45243">
        <ele>52</ele>
        <time>2021-04-26T13:56:31.000Z</time>
      </trkpt>
      <trkpt lat="47.22042" lon="-1.45256">
        <ele>52</ele>
        <time>2021-04-26T13:56:33.000Z</time>
      </trkpt>
      <trkpt lat="47.22055" lon="-1.45265">
        <ele>51</ele>
        <time>2021-04-26T13:56:35.000Z</time>
      </trkpt>
      <trkpt lat="47.22065" lon="-1.45277">
        <ele>51</ele>
        <time>2021-04-26T13:56:37.000Z</time>
      </trkpt>
      <trkpt lat="47.22071" lon="-1.45294">
        <ele>50</ele>
        <time>2021-04-26T13:56:39.000Z</time>
      </trkpt>
      <trkpt lat="47.22073" lon="-1.45311">
        <ele>50</ele>
        <time>2021-04-26T13:56:41.000Z</time>
      </trkpt>
      <trkpt lat="47.22072" lon="-1.45329">
        <ele>50</ele>
        <time>2021-04-26T13:56:43.000Z</time>
      </trkpt>
      <trkpt lat="47.22069" lon="-1.45346">
        <ele>51</ele>
        <time>2021-04-26T13:56:45.000Z</time>
      </trkpt>
      <trkpt lat="47.2207" lon="-1.45365">
        <ele>51</ele>
        <time>2021-04-26T13:56:47.000Z</time>
      </trkpt>
      <trkpt lat="47.2207" lon="-1.45383">
        <ele>51</ele>
        <time>2021-04-26T13:56:49.000Z</time>
      </trkpt>
      <trkpt lat="47.22069" lon="-1.454">
        <ele>50</ele>
        <time>2021-04-26T13:56:51.000Z</time>
      </trkpt>
      <trkpt lat="47.22068" lon="-1.45418">
        <ele>50</ele>
        <time>2021-04-26T13:56:53.000Z</time>
      </trkpt>
      <trkpt lat="47.22067" lon="-1.45437">
        <ele>50</ele>
        <time>2021-04-26T13:56:55.000Z</time>
      </trkpt>
      <trkpt lat="47.22066" lon="-1.45455">
        <ele>50</ele>
        <time>2021-04-26T13:56:57.000Z</time>
      </trkpt>
      <trkpt lat="47.22063" lon="-1.45474">
        <ele>50</ele>
        <time>2021-04-26T13:56:59.000Z</time>
      </trkpt>
      <trkpt lat="47.2206" lon="-1.45492">
        <ele>51</ele>
        <time>2021-04-26T13:57:01.000Z</time>
      </trkpt>
      <trkpt lat="47.22057" lon="-1.45509">
        <ele>50</ele>
        <time>2021-04-26T13:57:03.000Z</time>
      </trkpt>
      <trkpt lat="47.22054" lon="-1.45524">
        <ele>51</ele>
        <time>2021-04-26T13:57:05.000Z</time>
      </trkpt>
      <trkpt lat="47.22057" lon="-1.45538">
        <ele>51</ele>
        <time>2021-04-26T13:57:07.000Z</time>
      </trkpt>
      <trkpt lat="47.22067" lon="-1.45548">
        <ele>51</ele>
        <time>2021-04-26T13:57:09.000Z</time>
      </trkpt>
      <trkpt lat="47.22077" lon="-1.45558">
        <ele>51</ele>
        <time>2021-04-26T13:57:11.000Z</time>
      </trkpt>
      <trkpt lat="47.22088" lon="-1.45568">
        <ele>50</ele>
        <time>2021-04-26T13:57:13.000Z</time>
      </trkpt>
      <trkpt lat="47.22099" lon="-1.45578">
        <ele>50</ele>
        <time>2021-04-26T13:57:15.000Z</time>
      </trkpt>
      <trkpt lat="47.22109" lon="-1.45589">
        <ele>50</ele>
        <time>2021-04-26T13:57:17.000Z</time>
      </trkpt>
      <trkpt lat="47.22121" lon="-1.45597">
        <ele>50</ele>
        <time>2021-04-26T13:57:19.000Z</time>
      </trkpt>
      <trkpt lat="47.22133" lon="-1.45603">
        <ele>49</ele>
        <time>2021-04-26T13:57:21.000Z</time>
      </trkpt>
      <trkpt lat="47.22145" lon="-1.45607">
        <ele>49</ele>
        <time>2021-04-26T13:57:23.000Z</time>
      </trkpt>
      <trkpt lat="47.22157" lon="-1.45612">
        <ele>49</ele>
        <time>2021-04-26T13:57:25.000Z</time>
      </trkpt>
      <trkpt lat="47.22169" lon="-1.45616">
        <ele>49</ele>
        <time>2021-04-26T13:57:27.000Z</time>
      </trkpt>
      <trkpt lat="47.22181" lon="-1.4562">
        <ele>49</ele>
        <time>2021-04-26T13:57:29.000Z</time>
      </trkpt>
      <trkpt lat="47.22193" lon="-1.45624">
        <ele>49</ele>
        <time>2021-04-26T13:57:31.000Z</time>
      </trkpt>
      <trkpt lat="47.22204" lon="-1.45628">
        <ele>49</ele>
        <time>2021-04-26T13:57:33.000Z</time>
      </trkpt>
      <trkpt lat="47.22216" lon="-1.45633">
        <ele>49</ele>
        <time>2021-04-26T13:57:35.000Z</time>
      </trkpt>
      <trkpt lat="47.22228" lon="-1.45638">
        <ele>49</ele>
        <time>2021-04-26T13:57:37.000Z</time>
      </trkpt>
      <trkpt lat="47.22239" lon="-1.45642">
        <ele>49</ele>
        <time>2021-04-26T13:57:39.000Z</time>
      </trkpt>
      <trkpt lat="47.22251" lon="-1.45646">
        <ele>49</ele>
        <time>2021-04-26T13:57:41.000Z</time>
      </trkpt>
      <trkpt lat="47.22264" lon="-1.45651">
        <ele>49</ele>
        <time>2021-04-26T13:57:43.000Z</time>
      </trkpt>
      <trkpt lat="47.22276" lon="-1.45655">
        <ele>49</ele>
        <time>2021-04-26T13:57:45.000Z</time>
      </trkpt>
      <trkpt lat="47.22288" lon="-1.45659">
        <ele>49</ele>
        <time>2021-04-26T13:57:47.000Z</time>
      </trkpt>
      <trkpt lat="47.223" lon="-1.45663">
        <ele>49</ele>
        <time>2021-04-26T13:57:49.000Z</time>
      </trkpt>
      <trkpt lat="47.22312" lon="-1.45667">
        <ele>49</ele>
        <time>2021-04-26T13:57:51.000Z</time>
      </trkpt>
      <trkpt lat="47.22324" lon="-1.45672">
        <ele>49</ele>
        <time>2021-04-26T13:57:53.000Z</time>
      </trkpt>
      <trkpt lat="47.22336" lon="-1.45676">
        <ele>50</ele>
        <time>2021-04-26T13:57:55.000Z</time>
      </trkpt>
      <trkpt lat="47.22349" lon="-1.4568">
        <ele>50</ele>
        <time>2021-04-26T13:57:57.000Z</time>
      </trkpt>
      <trkpt lat="47.22362" lon="-1.45685">
        <ele>50</ele>
        <time>2021-04-26T13:57:59.000Z</time>
      </trkpt>
      <trkpt lat="47.22374" lon="-1.45689">
        <ele>50</ele>
        <time>2021-04-26T13:58:01.000Z</time>
      </trkpt>
      <trkpt lat="47.22386" lon="-1.45692">
        <ele>51</ele>
        <time>2021-04-26T13:58:03.000Z</time>
      </trkpt>
      <trkpt lat="47.22399" lon="-1.45697">
        <ele>51</ele>
        <time>2021-04-26T13:58:05.000Z</time>
      </trkpt>
      <trkpt lat="47.22411" lon="-1.45702">
        <ele>51</ele>
        <time>2021-04-26T13:58:07.000Z</time>
      </trkpt>
      <trkpt lat="47.22422" lon="-1.45706">
        <ele>51</ele>
        <time>2021-04-26T13:58:09.000Z</time>
      </trkpt>
      <trkpt lat="47.22433" lon="-1.4571">
        <ele>51</ele>
        <time>2021-04-26T13:58:11.000Z</time>
      </trkpt>
      <trkpt lat="47.22444" lon="-1.45713">
        <ele>52</ele>
        <time>2021-04-26T13:58:13.000Z</time>
      </trkpt>
      <trkpt lat="47.22457" lon="-1.45718">
        <ele>52</ele>
        <time>2021-04-26T13:58:15.000Z</time>
      </trkpt>
      <trkpt lat="47.22471" lon="-1.45724">
        <ele>53</ele>
        <time>2021-04-26T13:58:17.000Z</time>
      </trkpt>
      <trkpt lat="47.22484" lon="-1.45729">
        <ele>53</ele>
        <time>2021-04-26T13:58:19.000Z</time>
      </trkpt>
      <trkpt lat="47.22497" lon="-1.45734">
        <ele>54</ele>
        <time>2021-04-26T13:58:21.000Z</time>
      </trkpt>
      <trkpt lat="47.22509" lon="-1.4574">
        <ele>54</ele>
        <time>2021-04-26T13:58:23.000Z</time>
      </trkpt>
      <trkpt lat="47.22521" lon="-1.45744">
        <ele>54</ele>
        <time>2021-04-26T13:58:25.000Z</time>
      </trkpt>
      <trkpt lat="47.22533" lon="-1.45748">
        <ele>54</ele>
        <time>2021-04-26T13:58:27.000Z</time>
      </trkpt>
      <trkpt lat="47.22546" lon="-1.45753">
        <ele>54</ele>
        <time>2021-04-26T13:58:29.000Z</time>
      </trkpt>
      <trkpt lat="47.22558" lon="-1.45756">
        <ele>54</ele>
        <time>2021-04-26T13:58:31.000Z</time>
      </trkpt>
      <trkpt lat="47.2257" lon="-1.4576">
        <ele>54</ele>
        <time>2021-04-26T13:58:33.000Z</time>
      </trkpt>
      <trkpt lat="47.22582" lon="-1.45765">
        <ele>54</ele>
        <time>2021-04-26T13:58:35.000Z</time>
      </trkpt>
      <trkpt lat="47.22594" lon="-1.4577">
        <ele>54</ele>
        <time>2021-04-26T13:58:37.000Z</time>
      </trkpt>
      <trkpt lat="47.22607" lon="-1.45773">
        <ele>54</ele>
        <time>2021-04-26T13:58:39.000Z</time>
      </trkpt>
      <trkpt lat="47.2262" lon="-1.45778">
        <ele>54</ele>
        <time>2021-04-26T13:58:41.000Z</time>
      </trkpt>
      <trkpt lat="47.22632" lon="-1.45783">
        <ele>54</ele>
        <time>2021-04-26T13:58:43.000Z</time>
      </trkpt>
      <trkpt lat="47.22644" lon="-1.45787">
        <ele>54</ele>
        <time>2021-04-26T13:58:45.000Z</time>
      </trkpt>
      <trkpt lat="47.22656" lon="-1.45791">
        <ele>54</ele>
        <time>2021-04-26T13:58:47.000Z</time>
      </trkpt>
      <trkpt lat="47.22669" lon="-1.45796">
        <ele>54</ele>
        <time>2021-04-26T13:58:49.000Z</time>
      </trkpt>
      <trkpt lat="47.2268" lon="-1.45801">
        <ele>54</ele>
        <time>2021-04-26T13:58:51.000Z</time>
      </trkpt>
      <trkpt lat="47.22691" lon="-1.45805">
        <ele>54</ele>
        <time>2021-04-26T13:58:53.000Z</time>
      </trkpt>
      <trkpt lat="47.22702" lon="-1.45809">
        <ele>54</ele>
        <time>2021-04-26T13:58:55.000Z</time>
      </trkpt>
      <trkpt lat="47.22715" lon="-1.45812">
        <ele>54</ele>
        <time>2021-04-26T13:58:57.000Z</time>
      </trkpt>
      <trkpt lat="47.22726" lon="-1.45815">
        <ele>54</ele>
        <time>2021-04-26T13:58:59.000Z</time>
      </trkpt>
      <trkpt lat="47.22737" lon="-1.45819">
        <ele>54</ele>
        <time>2021-04-26T13:59:01.000Z</time>
      </trkpt>
      <trkpt lat="47.22749" lon="-1.45823">
        <ele>55</ele>
        <time>2021-04-26T13:59:03.000Z</time>
      </trkpt>
      <trkpt lat="47.22761" lon="-1.45826">
        <ele>55</ele>
        <time>2021-04-26T13:59:05.000Z</time>
      </trkpt>
      <trkpt lat="47.22774" lon="-1.45831">
        <ele>55</ele>
        <time>2021-04-26T13:59:07.000Z</time>
      </trkpt>
      <trkpt lat="47.22787" lon="-1.45837">
        <ele>55</ele>
        <time>2021-04-26T13:59:09.000Z</time>
      </trkpt>
      <trkpt lat="47.22799" lon="-1.45842">
        <ele>54</ele>
        <time>2021-04-26T13:59:11.000Z</time>
      </trkpt>
      <trkpt lat="47.22811" lon="-1.45847">
        <ele>53</ele>
        <time>2021-04-26T13:59:13.000Z</time>
      </trkpt>
      <trkpt lat="47.22823" lon="-1.45852">
        <ele>52</ele>
        <time>2021-04-26T13:59:15.000Z</time>
      </trkpt>
      <trkpt lat="47.22834" lon="-1.45856">
        <ele>52</ele>
        <time>2021-04-26T13:59:17.000Z</time>
      </trkpt>
      <trkpt lat="47.22846" lon="-1.45861">
        <ele>52</ele>
        <time>2021-04-26T13:59:19.000Z</time>
      </trkpt>
      <trkpt lat="47.22859" lon="-1.45865">
        <ele>52</ele>
        <time>2021-04-26T13:59:21.000Z</time>
      </trkpt>
      <trkpt lat="47.2287" lon="-1.45869">
        <ele>52</ele>
        <time>2021-04-26T13:59:23.000Z</time>
      </trkpt>
      <trkpt lat="47.22882" lon="-1.45873">
        <ele>52</ele>
        <time>2021-04-26T13:59:25.000Z</time>
      </trkpt>
      <trkpt lat="47.22893" lon="-1.45876">
        <ele>52</ele>
        <time>2021-04-26T13:59:27.000Z</time>
      </trkpt>
      <trkpt lat="47.22903" lon="-1.4588">
        <ele>52</ele>
        <time>2021-04-26T13:59:29.000Z</time>
      </trkpt>
      <trkpt lat="47.22915" lon="-1.45885">
        <ele>53</ele>
        <time>2021-04-26T13:59:31.000Z</time>
      </trkpt>
      <trkpt lat="47.22926" lon="-1.4589">
        <ele>54</ele>
        <time>2021-04-26T13:59:33.000Z</time>
      </trkpt>
      <trkpt lat="47.22939" lon="-1.45893">
        <ele>53</ele>
        <time>2021-04-26T13:59:35.000Z</time>
      </trkpt>
      <trkpt lat="47.22949" lon="-1.45897">
        <ele>53</ele>
        <time>2021-04-26T13:59:37.000Z</time>
      </trkpt>
      <trkpt lat="47.22961" lon="-1.45902">
        <ele>53</ele>
        <time>2021-04-26T13:59:39.000Z</time>
      </trkpt>
      <trkpt lat="47.22973" lon="-1.45907">
        <ele>52</ele>
        <time>2021-04-26T13:59:41.000Z</time>
      </trkpt>
      <trkpt lat="47.22984" lon="-1.45911">
        <ele>52</ele>
        <time>2021-04-26T13:59:43.000Z</time>
      </trkpt>
      <trkpt lat="47.22996" lon="-1.45915">
        <ele>52</ele>
        <time>2021-04-26T13:59:45.000Z</time>
      </trkpt>
      <trkpt lat="47.23007" lon="-1.45919">
        <ele>51</ele>
        <time>2021-04-26T13:59:47.000Z</time>
      </trkpt>
      <trkpt lat="47.23018" lon="-1.45923">
        <ele>51</ele>
        <time>2021-04-26T13:59:49.000Z</time>
      </trkpt>
      <trkpt lat="47.2303" lon="-1.45927">
        <ele>51</ele>
        <time>2021-04-26T13:59:51.000Z</time>
      </trkpt>
      <trkpt lat="47.23041" lon="-1.45928">
        <ele>51</ele>
        <time>2021-04-26T13:59:53.000Z</time>
      </trkpt>
      <trkpt lat="47.23051" lon="-1.4592">
        <ele>50</ele>
        <time>2021-04-26T13:59:55.000Z</time>
      </trkpt>
      <trkpt lat="47.2306" lon="-1.45898">
        <ele>50</ele>
        <time>2021-04-26T13:59:58.000Z</time>
      </trkpt>
      <trkpt lat="47.23064" lon="-1.45881">
        <ele>50</ele>
        <time>2021-04-26T14:00:00.000Z</time>
      </trkpt>
      <trkpt lat="47.23068" lon="-1.45866">
        <ele>50</ele>
        <time>2021-04-26T14:00:02.000Z</time>
      </trkpt>
      <trkpt lat="47.23072" lon="-1.45849">
        <ele>50</ele>
        <time>2021-04-26T14:00:04.000Z</time>
      </trkpt>
      <trkpt lat="47.23076" lon="-1.45833">
        <ele>51</ele>
        <time>2021-04-26T14:00:06.000Z</time>
      </trkpt>
      <trkpt lat="47.23079" lon="-1.45817">
        <ele>51</ele>
        <time>2021-04-26T14:00:08.000Z</time>
      </trkpt>
      <trkpt lat="47.23083" lon="-1.45801">
        <ele>51</ele>
        <time>2021-04-26T14:00:10.000Z</time>
      </trkpt>
      <trkpt lat="47.23086" lon="-1.45784">
        <ele>51</ele>
        <time>2021-04-26T14:00:12.000Z</time>
      </trkpt>
      <trkpt lat="47.23092" lon="-1.4576">
        <ele>50</ele>
        <time>2021-04-26T14:00:15.000Z</time>
      </trkpt>
      <trkpt lat="47.23096" lon="-1.45744">
        <ele>50</ele>
        <time>2021-04-26T14:00:17.000Z</time>
      </trkpt>
      <trkpt lat="47.23099" lon="-1.45728">
        <ele>50</ele>
        <time>2021-04-26T14:00:19.000Z</time>
      </trkpt>
      <trkpt lat="47.23104" lon="-1.45713">
        <ele>51</ele>
        <time>2021-04-26T14:00:21.000Z</time>
      </trkpt>
      <trkpt lat="47.23109" lon="-1.45698">
        <ele>51</ele>
        <time>2021-04-26T14:00:23.000Z</time>
      </trkpt>
      <trkpt lat="47.23116" lon="-1.45684">
        <ele>50</ele>
        <time>2021-04-26T14:00:25.000Z</time>
      </trkpt>
      <trkpt lat="47.23125" lon="-1.45672">
        <ele>50</ele>
        <time>2021-04-26T14:00:27.000Z</time>
      </trkpt>
      <trkpt lat="47.23134" lon="-1.45659">
        <ele>50</ele>
        <time>2021-04-26T14:00:29.000Z</time>
      </trkpt>
      <trkpt lat="47.23142" lon="-1.45647">
        <ele>51</ele>
        <time>2021-04-26T14:00:31.000Z</time>
      </trkpt>
      <trkpt lat="47.23155" lon="-1.45631">
        <ele>51</ele>
        <time>2021-04-26T14:00:34.000Z</time>
      </trkpt>
      <trkpt lat="47.23169" lon="-1.45615">
        <ele>51</ele>
        <time>2021-04-26T14:00:37.000Z</time>
      </trkpt>
      <trkpt lat="47.23178" lon="-1.45605">
        <ele>52</ele>
        <time>2021-04-26T14:00:39.000Z</time>
      </trkpt>
      <trkpt lat="47.23192" lon="-1.45589">
        <ele>52</ele>
        <time>2021-04-26T14:00:42.000Z</time>
      </trkpt>
      <trkpt lat="47.23205" lon="-1.45572">
        <ele>52</ele>
        <time>2021-04-26T14:00:45.000Z</time>
      </trkpt>
      <trkpt lat="47.23215" lon="-1.45562">
        <ele>53</ele>
        <time>2021-04-26T14:00:47.000Z</time>
      </trkpt>
      <trkpt lat="47.23228" lon="-1.45546">
        <ele>53</ele>
        <time>2021-04-26T14:00:50.000Z</time>
      </trkpt>
      <trkpt lat="47.23236" lon="-1.45535">
        <ele>54</ele>
        <time>2021-04-26T14:00:52.000Z</time>
      </trkpt>
      <trkpt lat="47.23245" lon="-1.45524">
        <ele>54</ele>
        <time>2021-04-26T14:00:54.000Z</time>
      </trkpt>
      <trkpt lat="47.23254" lon="-1.45512">
        <ele>54</ele>
        <time>2021-04-26T14:00:56.000Z</time>
      </trkpt>
      <trkpt lat="47.23269" lon="-1.45495">
        <ele>53</ele>
        <time>2021-04-26T14:00:59.000Z</time>
      </trkpt>
      <trkpt lat="47.23282" lon="-1.45479">
        <ele>53</ele>
        <time>2021-04-26T14:01:02.000Z</time>
      </trkpt>
      <trkpt lat="47.23294" lon="-1.45463">
        <ele>52</ele>
        <time>2021-04-26T14:01:05.000Z</time>
      </trkpt>
      <trkpt lat="47.23307" lon="-1.45447">
        <ele>52</ele>
        <time>2021-04-26T14:01:08.000Z</time>
      </trkpt>
      <trkpt lat="47.23316" lon="-1.45436">
        <ele>52</ele>
        <time>2021-04-26T14:01:10.000Z</time>
      </trkpt>
      <trkpt lat="47.23325" lon="-1.45426">
        <ele>52</ele>
        <time>2021-04-26T14:01:12.000Z</time>
      </trkpt>
      <trkpt lat="47.23333" lon="-1.45416">
        <ele>52</ele>
        <time>2021-04-26T14:01:14.000Z</time>
      </trkpt>
      <trkpt lat="47.23342" lon="-1.45405">
        <ele>51</ele>
        <time>2021-04-26T14:01:16.000Z</time>
      </trkpt>
      <trkpt lat="47.23355" lon="-1.45388">
        <ele>51</ele>
        <time>2021-04-26T14:01:19.000Z</time>
      </trkpt>
      <trkpt lat="47.23369" lon="-1.45372">
        <ele>51</ele>
        <time>2021-04-26T14:01:22.000Z</time>
      </trkpt>
      <trkpt lat="47.23383" lon="-1.45357">
        <ele>51</ele>
        <time>2021-04-26T14:01:25.000Z</time>
      </trkpt>
      <trkpt lat="47.23396" lon="-1.45342">
        <ele>51</ele>
        <time>2021-04-26T14:01:28.000Z</time>
      </trkpt>
      <trkpt lat="47.23406" lon="-1.45332">
        <ele>51</ele>
        <time>2021-04-26T14:01:30.000Z</time>
      </trkpt>
      <trkpt lat="47.23415" lon="-1.45322">
        <ele>51</ele>
        <time>2021-04-26T14:01:32.000Z</time>
      </trkpt>
      <trkpt lat="47.23424" lon="-1.45311">
        <ele>51</ele>
        <time>2021-04-26T14:01:34.000Z</time>
      </trkpt>
      <trkpt lat="47.23434" lon="-1.453">
        <ele>51</ele>
        <time>2021-04-26T14:01:36.000Z</time>
      </trkpt>
      <trkpt lat="47.23443" lon="-1.4529">
        <ele>51</ele>
        <time>2021-04-26T14:01:38.000Z</time>
      </trkpt>
      <trkpt lat="47.23452" lon="-1.45279">
        <ele>51</ele>
        <time>2021-04-26T14:01:40.000Z</time>
      </trkpt>
      <trkpt lat="47.23461" lon="-1.45268">
        <ele>51</ele>
        <time>2021-04-26T14:01:42.000Z</time>
      </trkpt>
      <trkpt lat="47.23469" lon="-1.45255">
        <ele>51</ele>
        <time>2021-04-26T14:01:44.000Z</time>
      </trkpt>
      <trkpt lat="47.23477" lon="-1.45243">
        <ele>51</ele>
        <time>2021-04-26T14:01:46.000Z</time>
      </trkpt>
      <trkpt lat="47.23485" lon="-1.45231">
        <ele>52</ele>
        <time>2021-04-26T14:01:48.000Z</time>
      </trkpt>
      <trkpt lat="47.23492" lon="-1.45219">
        <ele>52</ele>
        <time>2021-04-26T14:01:50.000Z</time>
      </trkpt>
      <trkpt lat="47.23499" lon="-1.45207">
        <ele>52</ele>
        <time>2021-04-26T14:01:52.000Z</time>
      </trkpt>
      <trkpt lat="47.23509" lon="-1.45188">
        <ele>52</ele>
        <time>2021-04-26T14:01:55.000Z</time>
      </trkpt>
      <trkpt lat="47.23516" lon="-1.45175">
        <ele>52</ele>
        <time>2021-04-26T14:01:57.000Z</time>
      </trkpt>
      <trkpt lat="47.23524" lon="-1.45163">
        <ele>52</ele>
        <time>2021-04-26T14:01:59.000Z</time>
      </trkpt>
      <trkpt lat="47.23531" lon="-1.4515">
        <ele>51</ele>
        <time>2021-04-26T14:02:01.000Z</time>
      </trkpt>
      <trkpt lat="47.23537" lon="-1.45137">
        <ele>51</ele>
        <time>2021-04-26T14:02:03.000Z</time>
      </trkpt>
      <trkpt lat="47.23544" lon="-1.45124">
        <ele>51</ele>
        <time>2021-04-26T14:02:05.000Z</time>
      </trkpt>
      <trkpt lat="47.2355" lon="-1.45111">
        <ele>51</ele>
        <time>2021-04-26T14:02:07.000Z</time>
      </trkpt>
      <trkpt lat="47.23556" lon="-1.45098">
        <ele>51</ele>
        <time>2021-04-26T14:02:09.000Z</time>
      </trkpt>
      <trkpt lat="47.23561" lon="-1.45086">
        <ele>51</ele>
        <time>2021-04-26T14:02:11.000Z</time>
      </trkpt>
      <trkpt lat="47.23567" lon="-1.45073">
        <ele>51</ele>
        <time>2021-04-26T14:02:13.000Z</time>
      </trkpt>
      <trkpt lat="47.23573" lon="-1.4506">
        <ele>51</ele>
        <time>2021-04-26T14:02:15.000Z</time>
      </trkpt>
      <trkpt lat="47.23579" lon="-1.45047">
        <ele>51</ele>
        <time>2021-04-26T14:02:17.000Z</time>
      </trkpt>
      <trkpt lat="47.23585" lon="-1.45035">
        <ele>51</ele>
        <time>2021-04-26T14:02:19.000Z</time>
      </trkpt>
      <trkpt lat="47.2359" lon="-1.45023">
        <ele>51</ele>
        <time>2021-04-26T14:02:21.000Z</time>
      </trkpt>
      <trkpt lat="47.23596" lon="-1.45009">
        <ele>51</ele>
        <time>2021-04-26T14:02:23.000Z</time>
      </trkpt>
      <trkpt lat="47.23601" lon="-1.44995">
        <ele>51</ele>
        <time>2021-04-26T14:02:25.000Z</time>
      </trkpt>
      <trkpt lat="47.23608" lon="-1.44981">
        <ele>51</ele>
        <time>2021-04-26T14:02:27.000Z</time>
      </trkpt>
      <trkpt lat="47.23614" lon="-1.44966">
        <ele>50</ele>
        <time>2021-04-26T14:02:29.000Z</time>
      </trkpt>
      <trkpt lat="47.2362" lon="-1.44951">
        <ele>50</ele>
        <time>2021-04-26T14:02:31.000Z</time>
      </trkpt>
      <trkpt lat="47.23626" lon="-1.44935">
        <ele>51</ele>
        <time>2021-04-26T14:02:33.000Z</time>
      </trkpt>
      <trkpt lat="47.23632" lon="-1.4492">
        <ele>51</ele>
        <time>2021-04-26T14:02:35.000Z</time>
      </trkpt>
      <trkpt lat="47.23638" lon="-1.44904">
        <ele>52</ele>
        <time>2021-04-26T14:02:37.000Z</time>
      </trkpt>
      <trkpt lat="47.23644" lon="-1.44889">
        <ele>51</ele>
        <time>2021-04-26T14:02:39.000Z</time>
      </trkpt>
      <trkpt lat="47.2365" lon="-1.44873">
        <ele>52</ele>
        <time>2021-04-26T14:02:41.000Z</time>
      </trkpt>
      <trkpt lat="47.23656" lon="-1.44858">
        <ele>51</ele>
        <time>2021-04-26T14:02:43.000Z</time>
      </trkpt>
      <trkpt lat="47.23662" lon="-1.44843">
        <ele>52</ele>
        <time>2021-04-26T14:02:45.000Z</time>
      </trkpt>
      <trkpt lat="47.23667" lon="-1.44829">
        <ele>52</ele>
        <time>2021-04-26T14:02:47.000Z</time>
      </trkpt>
      <trkpt lat="47.23674" lon="-1.44814">
        <ele>53</ele>
        <time>2021-04-26T14:02:49.000Z</time>
      </trkpt>
      <trkpt lat="47.2368" lon="-1.44798">
        <ele>53</ele>
        <time>2021-04-26T14:02:51.000Z</time>
      </trkpt>
      <trkpt lat="47.23686" lon="-1.44783">
        <ele>53</ele>
        <time>2021-04-26T14:02:53.000Z</time>
      </trkpt>
      <trkpt lat="47.23692" lon="-1.44768">
        <ele>53</ele>
        <time>2021-04-26T14:02:55.000Z</time>
      </trkpt>
      <trkpt lat="47.23698" lon="-1.44753">
        <ele>53</ele>
        <time>2021-04-26T14:02:57.000Z</time>
      </trkpt>
      <trkpt lat="47.23704" lon="-1.44738">
        <ele>53</ele>
        <time>2021-04-26T14:02:59.000Z</time>
      </trkpt>
      <trkpt lat="47.2371" lon="-1.44722">
        <ele>53</ele>
        <time>2021-04-26T14:03:01.000Z</time>
      </trkpt>
      <trkpt lat="47.23716" lon="-1.44708">
        <ele>52</ele>
        <time>2021-04-26T14:03:03.000Z</time>
      </trkpt>
      <trkpt lat="47.23722" lon="-1.44693">
        <ele>52</ele>
        <time>2021-04-26T14:03:05.000Z</time>
      </trkpt>
      <trkpt lat="47.23729" lon="-1.44678">
        <ele>53</ele>
        <time>2021-04-26T14:03:07.000Z</time>
      </trkpt>
      <trkpt lat="47.23735" lon="-1.44663">
        <ele>53</ele>
        <time>2021-04-26T14:03:09.000Z</time>
      </trkpt>
      <trkpt lat="47.2374" lon="-1.44649">
        <ele>53</ele>
        <time>2021-04-26T14:03:11.000Z</time>
      </trkpt>
      <trkpt lat="47.23746" lon="-1.44635">
        <ele>53</ele>
        <time>2021-04-26T14:03:13.000Z</time>
      </trkpt>
      <trkpt lat="47.23752" lon="-1.44623">
        <ele>53</ele>
        <time>2021-04-26T14:03:15.000Z</time>
      </trkpt>
      <trkpt lat="47.23758" lon="-1.44608">
        <ele>53</ele>
        <time>2021-04-26T14:03:18.000Z</time>
      </trkpt>
      <trkpt lat="47.23763" lon="-1.44595">
        <ele>52</ele>
        <time>2021-04-26T14:03:21.000Z</time>
      </trkpt>
      <trkpt lat="47.23768" lon="-1.44582">
        <ele>52</ele>
        <time>2021-04-26T14:03:24.000Z</time>
      </trkpt>
      <trkpt lat="47.23773" lon="-1.44571">
        <ele>51</ele>
        <time>2021-04-26T14:03:26.000Z</time>
      </trkpt>
      <trkpt lat="47.2378" lon="-1.44558">
        <ele>51</ele>
        <time>2021-04-26T14:03:28.000Z</time>
      </trkpt>
      <trkpt lat="47.23785" lon="-1.44546">
        <ele>50</ele>
        <time>2021-04-26T14:03:30.000Z</time>
      </trkpt>
      <trkpt lat="47.23791" lon="-1.44533">
        <ele>51</ele>
        <time>2021-04-26T14:03:32.000Z</time>
      </trkpt>
      <trkpt lat="47.23797" lon="-1.44522">
        <ele>50</ele>
        <time>2021-04-26T14:03:34.000Z</time>
      </trkpt>
      <trkpt lat="47.23805" lon="-1.44505">
        <ele>50</ele>
        <time>2021-04-26T14:03:37.000Z</time>
      </trkpt>
      <trkpt lat="47.2381" lon="-1.44494">
        <ele>51</ele>
        <time>2021-04-26T14:03:39.000Z</time>
      </trkpt>
      <trkpt lat="47.23815" lon="-1.44483">
        <ele>51</ele>
        <time>2021-04-26T14:03:41.000Z</time>
      </trkpt>
      <trkpt lat="47.23821" lon="-1.4447">
        <ele>51</ele>
        <time>2021-04-26T14:03:43.000Z</time>
      </trkpt>
      <trkpt lat="47.23826" lon="-1.44458">
        <ele>51</ele>
        <time>2021-04-26T14:03:45.000Z</time>
      </trkpt>
      <trkpt lat="47.23831" lon="-1.44447">
        <ele>50</ele>
        <time>2021-04-26T14:03:47.000Z</time>
      </trkpt>
      <trkpt lat="47.23836" lon="-1.44434">
        <ele>50</ele>
        <time>2021-04-26T14:03:49.000Z</time>
      </trkpt>
      <trkpt lat="47.23841" lon="-1.44422">
        <ele>51</ele>
        <time>2021-04-26T14:03:51.000Z</time>
      </trkpt>
      <trkpt lat="47.23847" lon="-1.4441">
        <ele>50</ele>
        <time>2021-04-26T14:03:53.000Z</time>
      </trkpt>
      <trkpt lat="47.23852" lon="-1.44398">
        <ele>50</ele>
        <time>2021-04-26T14:03:55.000Z</time>
      </trkpt>
      <trkpt lat="47.23858" lon="-1.44386">
        <ele>50</ele>
        <time>2021-04-26T14:03:57.000Z</time>
      </trkpt>
      <trkpt lat="47.23863" lon="-1.44374">
        <ele>50</ele>
        <time>2021-04-26T14:03:59.000Z</time>
      </trkpt>
      <trkpt lat="47.23869" lon="-1.44362">
        <ele>50</ele>
        <time>2021-04-26T14:04:01.000Z</time>
      </trkpt>
      <trkpt lat="47.23874" lon="-1.4435">
        <ele>50</ele>
        <time>2021-04-26T14:04:03.000Z</time>
      </trkpt>
      <trkpt lat="47.23879" lon="-1.44338">
        <ele>50</ele>
        <time>2021-04-26T14:04:05.000Z</time>
      </trkpt>
      <trkpt lat="47.23884" lon="-1.44326">
        <ele>51</ele>
        <time>2021-04-26T14:04:07.000Z</time>
      </trkpt>
      <trkpt lat="47.23889" lon="-1.44314">
        <ele>51</ele>
        <time>2021-04-26T14:04:09.000Z</time>
      </trkpt>
      <trkpt lat="47.23895" lon="-1.44302">
        <ele>51</ele>
        <time>2021-04-26T14:04:11.000Z</time>
      </trkpt>
      <trkpt lat="47.239" lon="-1.44289">
        <ele>50</ele>
        <time>2021-04-26T14:04:13.000Z</time>
      </trkpt>
      <trkpt lat="47.23905" lon="-1.44277">
        <ele>50</ele>
        <time>2021-04-26T14:04:15.000Z</time>
      </trkpt>
      <trkpt lat="47.23911" lon="-1.44264">
        <ele>50</ele>
        <time>2021-04-26T14:04:17.000Z</time>
      </trkpt>
      <trkpt lat="47.23916" lon="-1.44252">
        <ele>50</ele>
        <time>2021-04-26T14:04:19.000Z</time>
      </trkpt>
      <trkpt lat="47.23922" lon="-1.44239">
        <ele>50</ele>
        <time>2021-04-26T14:04:21.000Z</time>
      </trkpt>
      <trkpt lat="47.23927" lon="-1.44226">
        <ele>50</ele>
        <time>2021-04-26T14:04:23.000Z</time>
      </trkpt>
      <trkpt lat="47.23933" lon="-1.44214">
        <ele>51</ele>
        <time>2021-04-26T14:04:25.000Z</time>
      </trkpt>
      <trkpt lat="47.23938" lon="-1.44201">
        <ele>51</ele>
        <time>2021-04-26T14:04:27.000Z</time>
      </trkpt>
      <trkpt lat="47.23944" lon="-1.44187">
        <ele>51</ele>
        <time>2021-04-26T14:04:29.000Z</time>
      </trkpt>
      <trkpt lat="47.2395" lon="-1.44174">
        <ele>51</ele>
        <time>2021-04-26T14:04:31.000Z</time>
      </trkpt>
      <trkpt lat="47.23955" lon="-1.44161">
        <ele>52</ele>
        <time>2021-04-26T14:04:33.000Z</time>
      </trkpt>
      <trkpt lat="47.23961" lon="-1.44147">
        <ele>52</ele>
        <time>2021-04-26T14:04:35.000Z</time>
      </trkpt>
      <trkpt lat="47.23968" lon="-1.44134">
        <ele>52</ele>
        <time>2021-04-26T14:04:37.000Z</time>
      </trkpt>
      <trkpt lat="47.23973" lon="-1.44121">
        <ele>52</ele>
        <time>2021-04-26T14:04:39.000Z</time>
      </trkpt>
      <trkpt lat="47.23979" lon="-1.44108">
        <ele>52</ele>
        <time>2021-04-26T14:04:41.000Z</time>
      </trkpt>
      <trkpt lat="47.23985" lon="-1.44095">
        <ele>52</ele>
        <time>2021-04-26T14:04:43.000Z</time>
      </trkpt>
      <trkpt lat="47.23991" lon="-1.44082">
        <ele>52</ele>
        <time>2021-04-26T14:04:45.000Z</time>
      </trkpt>
      <trkpt lat="47.23997" lon="-1.44069">
        <ele>52</ele>
        <time>2021-04-26T14:04:47.000Z</time>
      </trkpt>
      <trkpt lat="47.24002" lon="-1.44055">
        <ele>52</ele>
        <time>2021-04-26T14:04:49.000Z</time>
      </trkpt>
      <trkpt lat="47.24008" lon="-1.44043">
        <ele>52</ele>
        <time>2021-04-26T14:04:51.000Z</time>
      </trkpt>
      <trkpt lat="47.24014" lon="-1.44031">
        <ele>51</ele>
        <time>2021-04-26T14:04:53.000Z</time>
      </trkpt>
      <trkpt lat="47.24019" lon="-1.44018">
        <ele>51</ele>
        <time>2021-04-26T14:04:55.000Z</time>
      </trkpt>
      <trkpt lat="47.24025" lon="-1.44005">
        <ele>51</ele>
        <time>2021-04-26T14:04:57.000Z</time>
      </trkpt>
      <trkpt lat="47.24031" lon="-1.43991">
        <ele>51</ele>
        <time>2021-04-26T14:04:59.000Z</time>
      </trkpt>
      <trkpt lat="47.24037" lon="-1.43978">
        <ele>51</ele>
        <time>2021-04-26T14:05:01.000Z</time>
      </trkpt>
      <trkpt lat="47.24043" lon="-1.43965">
        <ele>50</ele>
        <time>2021-04-26T14:05:03.000Z</time>
      </trkpt>
      <trkpt lat="47.24049" lon="-1.43951">
        <ele>51</ele>
        <time>2021-04-26T14:05:05.000Z</time>
      </trkpt>
      <trkpt lat="47.24055" lon="-1.43938">
        <ele>50</ele>
        <time>2021-04-26T14:05:07.000Z</time>
      </trkpt>
      <trkpt lat="47.24061" lon="-1.43925">
        <ele>50</ele>
        <time>2021-04-26T14:05:09.000Z</time>
      </trkpt>
      <trkpt lat="47.24067" lon="-1.43912">
        <ele>50</ele>
        <time>2021-04-26T14:05:11.000Z</time>
      </trkpt>
      <trkpt lat="47.24072" lon="-1.439">
        <ele>50</ele>
        <time>2021-04-26T14:05:13.000Z</time>
      </trkpt>
      <trkpt lat="47.24078" lon="-1.43888">
        <ele>50</ele>
        <time>2021-04-26T14:05:15.000Z</time>
      </trkpt>
      <trkpt lat="47.24083" lon="-1.43876">
        <ele>50</ele>
        <time>2021-04-26T14:05:17.000Z</time>
      </trkpt>
      <trkpt lat="47.24089" lon="-1.43863">
        <ele>50</ele>
        <time>2021-04-26T14:05:19.000Z</time>
      </trkpt>
      <trkpt lat="47.24095" lon="-1.43851">
        <ele>50</ele>
        <time>2021-04-26T14:05:21.000Z</time>
      </trkpt>
      <trkpt lat="47.24101" lon="-1.43839">
        <ele>50</ele>
        <time>2021-04-26T14:05:23.000Z</time>
      </trkpt>
      <trkpt lat="47.24106" lon="-1.43828">
        <ele>50</ele>
        <time>2021-04-26T14:05:25.000Z</time>
      </trkpt>
      <trkpt lat="47.24111" lon="-1.43815">
        <ele>50</ele>
        <time>2021-04-26T14:05:27.000Z</time>
      </trkpt>
      <trkpt lat="47.24116" lon="-1.43802">
        <ele>50</ele>
        <time>2021-04-26T14:05:29.000Z</time>
      </trkpt>
      <trkpt lat="47.24121" lon="-1.4379">
        <ele>50</ele>
        <time>2021-04-26T14:05:31.000Z</time>
      </trkpt>
      <trkpt lat="47.24126" lon="-1.43778">
        <ele>50</ele>
        <time>2021-04-26T14:05:33.000Z</time>
      </trkpt>
      <trkpt lat="47.24132" lon="-1.43766">
        <ele>50</ele>
        <time>2021-04-26T14:05:35.000Z</time>
      </trkpt>
      <trkpt lat="47.24137" lon="-1.43753">
        <ele>50</ele>
        <time>2021-04-26T14:05:37.000Z</time>
      </trkpt>
      <trkpt lat="47.24143" lon="-1.43741">
        <ele>50</ele>
        <time>2021-04-26T14:05:39.000Z</time>
      </trkpt>
      <trkpt lat="47.24149" lon="-1.43728">
        <ele>50</ele>
        <time>2021-04-26T14:05:41.000Z</time>
      </trkpt>
      <trkpt lat="47.24154" lon="-1.43717">
        <ele>50</ele>
        <time>2021-04-26T14:05:43.000Z</time>
      </trkpt>
      <trkpt lat="47.2416" lon="-1.43704">
        <ele>50</ele>
        <time>2021-04-26T14:05:45.000Z</time>
      </trkpt>
      <trkpt lat="47.24165" lon="-1.43692">
        <ele>50</ele>
        <time>2021-04-26T14:05:47.000Z</time>
      </trkpt>
      <trkpt lat="47.2417" lon="-1.4368">
        <ele>50</ele>
        <time>2021-04-26T14:05:49.000Z</time>
      </trkpt>
      <trkpt lat="47.24176" lon="-1.43667">
        <ele>50</ele>
        <time>2021-04-26T14:05:51.000Z</time>
      </trkpt>
      <trkpt lat="47.24181" lon="-1.43655">
        <ele>50</ele>
        <time>2021-04-26T14:05:53.000Z</time>
      </trkpt>
      <trkpt lat="47.24186" lon="-1.43643">
        <ele>50</ele>
        <time>2021-04-26T14:05:55.000Z</time>
      </trkpt>
      <trkpt lat="47.24191" lon="-1.4363">
        <ele>50</ele>
        <time>2021-04-26T14:05:57.000Z</time>
      </trkpt>
      <trkpt lat="47.24197" lon="-1.43618">
        <ele>50</ele>
        <time>2021-04-26T14:05:59.000Z</time>
      </trkpt>
      <trkpt lat="47.24203" lon="-1.43605">
        <ele>50</ele>
        <time>2021-04-26T14:06:01.000Z</time>
      </trkpt>
      <trkpt lat="47.24209" lon="-1.43592">
        <ele>50</ele>
        <time>2021-04-26T14:06:03.000Z</time>
      </trkpt>
      <trkpt lat="47.24215" lon="-1.43579">
        <ele>50</ele>
        <time>2021-04-26T14:06:05.000Z</time>
      </trkpt>
      <trkpt lat="47.24221" lon="-1.43567">
        <ele>50</ele>
        <time>2021-04-26T14:06:07.000Z</time>
      </trkpt>
      <trkpt lat="47.24227" lon="-1.43555">
        <ele>50</ele>
        <time>2021-04-26T14:06:09.000Z</time>
      </trkpt>
      <trkpt lat="47.24232" lon="-1.43543">
        <ele>50</ele>
        <time>2021-04-26T14:06:11.000Z</time>
      </trkpt>
      <trkpt lat="47.24237" lon="-1.43531">
        <ele>50</ele>
        <time>2021-04-26T14:06:13.000Z</time>
      </trkpt>
      <trkpt lat="47.24241" lon="-1.43518">
        <ele>50</ele>
        <time>2021-04-26T14:06:15.000Z</time>
      </trkpt>
      <trkpt lat="47.24247" lon="-1.43505">
        <ele>50</ele>
        <time>2021-04-26T14:06:17.000Z</time>
      </trkpt>
      <trkpt lat="47.24253" lon="-1.43492">
        <ele>50</ele>
        <time>2021-04-26T14:06:19.000Z</time>
      </trkpt>
      <trkpt lat="47.24258" lon="-1.4348">
        <ele>50</ele>
        <time>2021-04-26T14:06:21.000Z</time>
      </trkpt>
      <trkpt lat="47.24264" lon="-1.43467">
        <ele>51</ele>
        <time>2021-04-26T14:06:23.000Z</time>
      </trkpt>
      <trkpt lat="47.2427" lon="-1.43455">
        <ele>51</ele>
        <time>2021-04-26T14:06:25.000Z</time>
      </trkpt>
      <trkpt lat="47.24275" lon="-1.43443">
        <ele>51</ele>
        <time>2021-04-26T14:06:27.000Z</time>
      </trkpt>
      <trkpt lat="47.24281" lon="-1.4343">
        <ele>51</ele>
        <time>2021-04-26T14:06:29.000Z</time>
      </trkpt>
      <trkpt lat="47.24287" lon="-1.43417">
        <ele>51</ele>
        <time>2021-04-26T14:06:31.000Z</time>
      </trkpt>
      <trkpt lat="47.24293" lon="-1.43404">
        <ele>51</ele>
        <time>2021-04-26T14:06:33.000Z</time>
      </trkpt>
      <trkpt lat="47.24298" lon="-1.43391">
        <ele>51</ele>
        <time>2021-04-26T14:06:35.000Z</time>
      </trkpt>
      <trkpt lat="47.24304" lon="-1.43378">
        <ele>51</ele>
        <time>2021-04-26T14:06:37.000Z</time>
      </trkpt>
      <trkpt lat="47.2431" lon="-1.43365">
        <ele>51</ele>
        <time>2021-04-26T14:06:39.000Z</time>
      </trkpt>
      <trkpt lat="47.24316" lon="-1.43352">
        <ele>51</ele>
        <time>2021-04-26T14:06:41.000Z</time>
      </trkpt>
      <trkpt lat="47.24322" lon="-1.43339">
        <ele>50</ele>
        <time>2021-04-26T14:06:43.000Z</time>
      </trkpt>
      <trkpt lat="47.24327" lon="-1.43327">
        <ele>50</ele>
        <time>2021-04-26T14:06:45.000Z</time>
      </trkpt>
      <trkpt lat="47.24333" lon="-1.43314">
        <ele>50</ele>
        <time>2021-04-26T14:06:47.000Z</time>
      </trkpt>
      <trkpt lat="47.24339" lon="-1.43301">
        <ele>50</ele>
        <time>2021-04-26T14:06:49.000Z</time>
      </trkpt>
      <trkpt lat="47.24345" lon="-1.43289">
        <ele>50</ele>
        <time>2021-04-26T14:06:51.000Z</time>
      </trkpt>
      <trkpt lat="47.24351" lon="-1.43277">
        <ele>50</ele>
        <time>2021-04-26T14:06:53.000Z</time>
      </trkpt>
      <trkpt lat="47.24356" lon="-1.43265">
        <ele>50</ele>
        <time>2021-04-26T14:06:55.000Z</time>
      </trkpt>
      <trkpt lat="47.24363" lon="-1.43254">
        <ele>49</ele>
        <time>2021-04-26T14:06:57.000Z</time>
      </trkpt>
      <trkpt lat="47.24368" lon="-1.43242">
        <ele>49</ele>
        <time>2021-04-26T14:06:59.000Z</time>
      </trkpt>
      <trkpt lat="47.24373" lon="-1.43231">
        <ele>49</ele>
        <time>2021-04-26T14:07:01.000Z</time>
      </trkpt>
      <trkpt lat="47.24379" lon="-1.4322">
        <ele>49</ele>
        <time>2021-04-26T14:07:03.000Z</time>
      </trkpt>
      <trkpt lat="47.24385" lon="-1.4321">
        <ele>49</ele>
        <time>2021-04-26T14:07:05.000Z</time>
      </trkpt>
      <trkpt lat="47.24393" lon="-1.43195">
        <ele>49</ele>
        <time>2021-04-26T14:07:08.000Z</time>
      </trkpt>
      <trkpt lat="47.24402" lon="-1.43182">
        <ele>49</ele>
        <time>2021-04-26T14:07:11.000Z</time>
      </trkpt>
      <trkpt lat="47.24414" lon="-1.43184">
        <ele>49</ele>
        <time>2021-04-26T14:07:14.000Z</time>
      </trkpt>
      <trkpt lat="47.24416" lon="-1.43199">
        <ele>49</ele>
        <time>2021-04-26T14:07:16.000Z</time>
      </trkpt>
      <trkpt lat="47.24417" lon="-1.43215">
        <ele>49</ele>
        <time>2021-04-26T14:07:18.000Z</time>
      </trkpt>
      <trkpt lat="47.24422" lon="-1.4323">
        <ele>49</ele>
        <time>2021-04-26T14:07:20.000Z</time>
      </trkpt>
      <trkpt lat="47.24427" lon="-1.43243">
        <ele>49</ele>
        <time>2021-04-26T14:07:22.000Z</time>
      </trkpt>
      <trkpt lat="47.24433" lon="-1.43257">
        <ele>49</ele>
        <time>2021-04-26T14:07:24.000Z</time>
      </trkpt>
      <trkpt lat="47.24438" lon="-1.43272">
        <ele>49</ele>
        <time>2021-04-26T14:07:26.000Z</time>
      </trkpt>
      <trkpt lat="47.24442" lon="-1.43287">
        <ele>49</ele>
        <time>2021-04-26T14:07:28.000Z</time>
      </trkpt>
      <trkpt lat="47.24446" lon="-1.43302">
        <ele>49</ele>
        <time>2021-04-26T14:07:30.000Z</time>
      </trkpt>
      <trkpt lat="47.2445" lon="-1.43317">
        <ele>49</ele>
        <time>2021-04-26T14:07:32.000Z</time>
      </trkpt>
      <trkpt lat="47.24454" lon="-1.43332">
        <ele>49</ele>
        <time>2021-04-26T14:07:34.000Z</time>
      </trkpt>
      <trkpt lat="47.24458" lon="-1.43349">
        <ele>49</ele>
        <time>2021-04-26T14:07:36.000Z</time>
      </trkpt>
      <trkpt lat="47.24461" lon="-1.43364">
        <ele>49</ele>
        <time>2021-04-26T14:07:38.000Z</time>
      </trkpt>
      <trkpt lat="47.24465" lon="-1.43379">
        <ele>49</ele>
        <time>2021-04-26T14:07:40.000Z</time>
      </trkpt>
      <trkpt lat="47.24469" lon="-1.43395">
        <ele>49</ele>
        <time>2021-04-26T14:07:42.000Z</time>
      </trkpt>
      <trkpt lat="47.24474" lon="-1.4341">
        <ele>49</ele>
        <time>2021-04-26T14:07:44.000Z</time>
      </trkpt>
      <trkpt lat="47.24478" lon="-1.43426">
        <ele>50</ele>
        <time>2021-04-26T14:07:46.000Z</time>
      </trkpt>
      <trkpt lat="47.24482" lon="-1.43441">
        <ele>50</ele>
        <time>2021-04-26T14:07:48.000Z</time>
      </trkpt>
      <trkpt lat="47.24486" lon="-1.43456">
        <ele>50</ele>
        <time>2021-04-26T14:07:50.000Z</time>
      </trkpt>
      <trkpt lat="47.24492" lon="-1.43471">
        <ele>50</ele>
        <time>2021-04-26T14:07:52.000Z</time>
      </trkpt>
      <trkpt lat="47.24497" lon="-1.43486">
        <ele>50</ele>
        <time>2021-04-26T14:07:54.000Z</time>
      </trkpt>
      <trkpt lat="47.24501" lon="-1.43502">
        <ele>50</ele>
        <time>2021-04-26T14:07:56.000Z</time>
      </trkpt>
      <trkpt lat="47.24506" lon="-1.43517">
        <ele>50</ele>
        <time>2021-04-26T14:07:58.000Z</time>
      </trkpt>
      <trkpt lat="47.24511" lon="-1.43532">
        <ele>50</ele>
        <time>2021-04-26T14:08:00.000Z</time>
      </trkpt>
      <trkpt lat="47.24516" lon="-1.43548">
        <ele>50</ele>
        <time>2021-04-26T14:08:02.000Z</time>
      </trkpt>
      <trkpt lat="47.2452" lon="-1.43564">
        <ele>50</ele>
        <time>2021-04-26T14:08:04.000Z</time>
      </trkpt>
      <trkpt lat="47.24525" lon="-1.4358">
        <ele>50</ele>
        <time>2021-04-26T14:08:06.000Z</time>
      </trkpt>
      <trkpt lat="47.24529" lon="-1.43595">
        <ele>50</ele>
        <time>2021-04-26T14:08:08.000Z</time>
      </trkpt>
      <trkpt lat="47.24535" lon="-1.4361">
        <ele>50</ele>
        <time>2021-04-26T14:08:10.000Z</time>
      </trkpt>
      <trkpt lat="47.2454" lon="-1.43622">
        <ele>50</ele>
        <time>2021-04-26T14:08:12.000Z</time>
      </trkpt>
      <trkpt lat="47.24546" lon="-1.43634">
        <ele>50</ele>
        <time>2021-04-26T14:08:14.000Z</time>
      </trkpt>
      <trkpt lat="47.24553" lon="-1.43645">
        <ele>50</ele>
        <time>2021-04-26T14:08:16.000Z</time>
      </trkpt>
      <trkpt lat="47.24561" lon="-1.43657">
        <ele>50</ele>
        <time>2021-04-26T14:08:19.000Z</time>
      </trkpt>
      <trkpt lat="47.24571" lon="-1.43652">
        <ele>51</ele>
        <time>2021-04-26T14:08:26.000Z</time>
      </trkpt>
      <trkpt lat="47.24579" lon="-1.43645">
        <ele>51</ele>
        <time>2021-04-26T14:08:28.000Z</time>
      </trkpt>
      <trkpt lat="47.24587" lon="-1.43636">
        <ele>51</ele>
        <time>2021-04-26T14:08:30.000Z</time>
      </trkpt>
      <trkpt lat="47.24596" lon="-1.43627">
        <ele>51</ele>
        <time>2021-04-26T14:08:32.000Z</time>
      </trkpt>
      <trkpt lat="47.24605" lon="-1.43618">
        <ele>52</ele>
        <time>2021-04-26T14:08:34.000Z</time>
      </trkpt>
      <trkpt lat="47.24614" lon="-1.43609">
        <ele>51</ele>
        <time>2021-04-26T14:08:36.000Z</time>
      </trkpt>
      <trkpt lat="47.24623" lon="-1.43601">
        <ele>51</ele>
        <time>2021-04-26T14:08:38.000Z</time>
      </trkpt>
      <trkpt lat="47.24633" lon="-1.43593">
        <ele>51</ele>
        <time>2021-04-26T14:08:40.000Z</time>
      </trkpt>
      <trkpt lat="47.24642" lon="-1.43585">
        <ele>52</ele>
        <time>2021-04-26T14:08:42.000Z</time>
      </trkpt>
      <trkpt lat="47.2465" lon="-1.43576">
        <ele>52</ele>
        <time>2021-04-26T14:08:44.000Z</time>
      </trkpt>
      <trkpt lat="47.24658" lon="-1.43566">
        <ele>52</ele>
        <time>2021-04-26T14:08:46.000Z</time>
      </trkpt>
      <trkpt lat="47.24665" lon="-1.43556">
        <ele>52</ele>
        <time>2021-04-26T14:08:48.000Z</time>
      </trkpt>
      <trkpt lat="47.24672" lon="-1.43545">
        <ele>53</ele>
        <time>2021-04-26T14:08:50.000Z</time>
      </trkpt>
      <trkpt lat="47.24678" lon="-1.43533">
        <ele>52</ele>
        <time>2021-04-26T14:08:52.000Z</time>
      </trkpt>
      <trkpt lat="47.24683" lon="-1.43521">
        <ele>53</ele>
        <time>2021-04-26T14:08:54.000Z</time>
      </trkpt>
      <trkpt lat="47.24689" lon="-1.43508">
        <ele>52</ele>
        <time>2021-04-26T14:08:56.000Z</time>
      </trkpt>
      <trkpt lat="47.24694" lon="-1.43494">
        <ele>52</ele>
        <time>2021-04-26T14:08:58.000Z</time>
      </trkpt>
      <trkpt lat="47.247" lon="-1.43482">
        <ele>52</ele>
        <time>2021-04-26T14:09:00.000Z</time>
      </trkpt>
      <trkpt lat="47.24705" lon="-1.43468">
        <ele>52</ele>
        <time>2021-04-26T14:09:02.000Z</time>
      </trkpt>
      <trkpt lat="47.2471" lon="-1.43455">
        <ele>52</ele>
        <time>2021-04-26T14:09:04.000Z</time>
      </trkpt>
      <trkpt lat="47.24716" lon="-1.43441">
        <ele>52</ele>
        <time>2021-04-26T14:09:06.000Z</time>
      </trkpt>
      <trkpt lat="47.24723" lon="-1.43429">
        <ele>52</ele>
        <time>2021-04-26T14:09:08.000Z</time>
      </trkpt>
      <trkpt lat="47.2473" lon="-1.43418">
        <ele>53</ele>
        <time>2021-04-26T14:09:10.000Z</time>
      </trkpt>
      <trkpt lat="47.24737" lon="-1.43406">
        <ele>53</ele>
        <time>2021-04-26T14:09:12.000Z</time>
      </trkpt>
      <trkpt lat="47.24745" lon="-1.43396">
        <ele>53</ele>
        <time>2021-04-26T14:09:14.000Z</time>
      </trkpt>
      <trkpt lat="47.24753" lon="-1.43386">
        <ele>53</ele>
        <time>2021-04-26T14:09:16.000Z</time>
      </trkpt>
      <trkpt lat="47.24762" lon="-1.43377">
        <ele>53</ele>
        <time>2021-04-26T14:09:18.000Z</time>
      </trkpt>
      <trkpt lat="47.24771" lon="-1.43369">
        <ele>52</ele>
        <time>2021-04-26T14:09:20.000Z</time>
      </trkpt>
      <trkpt lat="47.2478" lon="-1.43362">
        <ele>52</ele>
        <time>2021-04-26T14:09:22.000Z</time>
      </trkpt>
      <trkpt lat="47.2479" lon="-1.43357">
        <ele>53</ele>
        <time>2021-04-26T14:09:24.000Z</time>
      </trkpt>
      <trkpt lat="47.24799" lon="-1.43356">
        <ele>53</ele>
        <time>2021-04-26T14:09:26.000Z</time>
      </trkpt>
      <trkpt lat="47.2481" lon="-1.43354">
        <ele>52</ele>
        <time>2021-04-26T14:09:28.000Z</time>
      </trkpt>
      <trkpt lat="47.24819" lon="-1.43346">
        <ele>53</ele>
        <time>2021-04-26T14:09:30.000Z</time>
      </trkpt>
      <trkpt lat="47.24829" lon="-1.4334">
        <ele>53</ele>
        <time>2021-04-26T14:09:32.000Z</time>
      </trkpt>
      <trkpt lat="47.24839" lon="-1.43333">
        <ele>53</ele>
        <time>2021-04-26T14:09:34.000Z</time>
      </trkpt>
      <trkpt lat="47.24848" lon="-1.43327">
        <ele>53</ele>
        <time>2021-04-26T14:09:36.000Z</time>
      </trkpt>
      <trkpt lat="47.24858" lon="-1.4332">
        <ele>53</ele>
        <time>2021-04-26T14:09:38.000Z</time>
      </trkpt>
      <trkpt lat="47.24868" lon="-1.43314">
        <ele>53</ele>
        <time>2021-04-26T14:09:40.000Z</time>
      </trkpt>
      <trkpt lat="47.24877" lon="-1.43307">
        <ele>53</ele>
        <time>2021-04-26T14:09:42.000Z</time>
      </trkpt>
      <trkpt lat="47.24887" lon="-1.43301">
        <ele>53</ele>
        <time>2021-04-26T14:09:44.000Z</time>
      </trkpt>
      <trkpt lat="47.24897" lon="-1.43294">
        <ele>53</ele>
        <time>2021-04-26T14:09:46.000Z</time>
      </trkpt>
      <trkpt lat="47.24907" lon="-1.43286">
        <ele>52</ele>
        <time>2021-04-26T14:09:48.000Z</time>
      </trkpt>
      <trkpt lat="47.24918" lon="-1.4328">
        <ele>52</ele>
        <time>2021-04-26T14:09:50.000Z</time>
      </trkpt>
      <trkpt lat="47.24928" lon="-1.43273">
        <ele>52</ele>
        <time>2021-04-26T14:09:52.000Z</time>
      </trkpt>
      <trkpt lat="47.24938" lon="-1.43264">
        <ele>52</ele>
        <time>2021-04-26T14:09:54.000Z</time>
      </trkpt>
      <trkpt lat="47.24949" lon="-1.43258">
        <ele>51</ele>
        <time>2021-04-26T14:09:56.000Z</time>
      </trkpt>
      <trkpt lat="47.2496" lon="-1.43251">
        <ele>51</ele>
        <time>2021-04-26T14:09:58.000Z</time>
      </trkpt>
      <trkpt lat="47.2497" lon="-1.43245">
        <ele>51</ele>
        <time>2021-04-26T14:10:00.000Z</time>
      </trkpt>
      <trkpt lat="47.2498" lon="-1.4324">
        <ele>51</ele>
        <time>2021-04-26T14:10:02.000Z</time>
      </trkpt>
      <trkpt lat="47.2499" lon="-1.43234">
        <ele>51</ele>
        <time>2021-04-26T14:10:04.000Z</time>
      </trkpt>
      <trkpt lat="47.24999" lon="-1.43227">
        <ele>51</ele>
        <time>2021-04-26T14:10:06.000Z</time>
      </trkpt>
      <trkpt lat="47.25008" lon="-1.4322">
        <ele>51</ele>
        <time>2021-04-26T14:10:08.000Z</time>
      </trkpt>
      <trkpt lat="47.25017" lon="-1.43212">
        <ele>51</ele>
        <time>2021-04-26T14:10:10.000Z</time>
      </trkpt>
      <trkpt lat="47.25025" lon="-1.43204">
        <ele>51</ele>
        <time>2021-04-26T14:10:12.000Z</time>
      </trkpt>
      <trkpt lat="47.25034" lon="-1.43198">
        <ele>50</ele>
        <time>2021-04-26T14:10:14.000Z</time>
      </trkpt>
      <trkpt lat="47.25043" lon="-1.4319">
        <ele>50</ele>
        <time>2021-04-26T14:10:16.000Z</time>
      </trkpt>
      <trkpt lat="47.25052" lon="-1.43181">
        <ele>50</ele>
        <time>2021-04-26T14:10:18.000Z</time>
      </trkpt>
      <trkpt lat="47.2506" lon="-1.43173">
        <ele>50</ele>
        <time>2021-04-26T14:10:20.000Z</time>
      </trkpt>
      <trkpt lat="47.25069" lon="-1.43164">
        <ele>51</ele>
        <time>2021-04-26T14:10:22.000Z</time>
      </trkpt>
      <trkpt lat="47.25077" lon="-1.43154">
        <ele>50</ele>
        <time>2021-04-26T14:10:24.000Z</time>
      </trkpt>
      <trkpt lat="47.25084" lon="-1.43145">
        <ele>50</ele>
        <time>2021-04-26T14:10:26.000Z</time>
      </trkpt>
      <trkpt lat="47.25091" lon="-1.43135">
        <ele>50</ele>
        <time>2021-04-26T14:10:28.000Z</time>
      </trkpt>
      <trkpt lat="47.25099" lon="-1.43126">
        <ele>50</ele>
        <time>2021-04-26T14:10:30.000Z</time>
      </trkpt>
      <trkpt lat="47.25106" lon="-1.43117">
        <ele>50</ele>
        <time>2021-04-26T14:10:32.000Z</time>
      </trkpt>
      <trkpt lat="47.25114" lon="-1.43106">
        <ele>50</ele>
        <time>2021-04-26T14:10:34.000Z</time>
      </trkpt>
      <trkpt lat="47.25121" lon="-1.43097">
        <ele>50</ele>
        <time>2021-04-26T14:10:36.000Z</time>
      </trkpt>
      <trkpt lat="47.25128" lon="-1.43087">
        <ele>50</ele>
        <time>2021-04-26T14:10:38.000Z</time>
      </trkpt>
      <trkpt lat="47.25136" lon="-1.43077">
        <ele>50</ele>
        <time>2021-04-26T14:10:40.000Z</time>
      </trkpt>
      <trkpt lat="47.25144" lon="-1.43067">
        <ele>50</ele>
        <time>2021-04-26T14:10:42.000Z</time>
      </trkpt>
      <trkpt lat="47.25151" lon="-1.43058">
        <ele>50</ele>
        <time>2021-04-26T14:10:44.000Z</time>
      </trkpt>
      <trkpt lat="47.25159" lon="-1.4305">
        <ele>50</ele>
        <time>2021-04-26T14:10:46.000Z</time>
      </trkpt>
      <trkpt lat="47.25169" lon="-1.43041">
        <ele>50</ele>
        <time>2021-04-26T14:10:48.000Z</time>
      </trkpt>
      <trkpt lat="47.25177" lon="-1.43032">
        <ele>50</ele>
        <time>2021-04-26T14:10:50.000Z</time>
      </trkpt>
      <trkpt lat="47.25186" lon="-1.43022">
        <ele>49</ele>
        <time>2021-04-26T14:10:52.000Z</time>
      </trkpt>
      <trkpt lat="47.25194" lon="-1.43011">
        <ele>49</ele>
        <time>2021-04-26T14:10:54.000Z</time>
      </trkpt>
      <trkpt lat="47.25202" lon="-1.43001">
        <ele>50</ele>
        <time>2021-04-26T14:10:56.000Z</time>
      </trkpt>
      <trkpt lat="47.25211" lon="-1.42992">
        <ele>50</ele>
        <time>2021-04-26T14:10:58.000Z</time>
      </trkpt>
      <trkpt lat="47.25221" lon="-1.42983">
        <ele>50</ele>
        <time>2021-04-26T14:11:00.000Z</time>
      </trkpt>
      <trkpt lat="47.25231" lon="-1.42975">
        <ele>51</ele>
        <time>2021-04-26T14:11:02.000Z</time>
      </trkpt>
      <trkpt lat="47.25241" lon="-1.42969">
        <ele>51</ele>
        <time>2021-04-26T14:11:04.000Z</time>
      </trkpt>
      <trkpt lat="47.25251" lon="-1.42963">
        <ele>51</ele>
        <time>2021-04-26T14:11:06.000Z</time>
      </trkpt>
      <trkpt lat="47.25261" lon="-1.42958">
        <ele>51</ele>
        <time>2021-04-26T14:11:08.000Z</time>
      </trkpt>
      <trkpt lat="47.25271" lon="-1.42952">
        <ele>51</ele>
        <time>2021-04-26T14:11:10.000Z</time>
      </trkpt>
      <trkpt lat="47.25281" lon="-1.42946">
        <ele>51</ele>
        <time>2021-04-26T14:11:12.000Z</time>
      </trkpt>
      <trkpt lat="47.25291" lon="-1.4294">
        <ele>51</ele>
        <time>2021-04-26T14:11:14.000Z</time>
      </trkpt>
      <trkpt lat="47.25301" lon="-1.42935">
        <ele>51</ele>
        <time>2021-04-26T14:11:16.000Z</time>
      </trkpt>
      <trkpt lat="47.25311" lon="-1.42929">
        <ele>50</ele>
        <time>2021-04-26T14:11:18.000Z</time>
      </trkpt>
      <trkpt lat="47.2532" lon="-1.42923">
        <ele>50</ele>
        <time>2021-04-26T14:11:20.000Z</time>
      </trkpt>
      <trkpt lat="47.2533" lon="-1.42917">
        <ele>50</ele>
        <time>2021-04-26T14:11:22.000Z</time>
      </trkpt>
      <trkpt lat="47.25339" lon="-1.42912">
        <ele>51</ele>
        <time>2021-04-26T14:11:24.000Z</time>
      </trkpt>
      <trkpt lat="47.25349" lon="-1.42908">
        <ele>51</ele>
        <time>2021-04-26T14:11:26.000Z</time>
      </trkpt>
      <trkpt lat="47.25359" lon="-1.42902">
        <ele>50</ele>
        <time>2021-04-26T14:11:28.000Z</time>
      </trkpt>
      <trkpt lat="47.25369" lon="-1.42896">
        <ele>51</ele>
        <time>2021-04-26T14:11:30.000Z</time>
      </trkpt>
      <trkpt lat="47.25379" lon="-1.42889">
        <ele>51</ele>
        <time>2021-04-26T14:11:32.000Z</time>
      </trkpt>
      <trkpt lat="47.25388" lon="-1.42882">
        <ele>51</ele>
        <time>2021-04-26T14:11:34.000Z</time>
      </trkpt>
      <trkpt lat="47.25397" lon="-1.42876">
        <ele>51</ele>
        <time>2021-04-26T14:11:36.000Z</time>
      </trkpt>
      <trkpt lat="47.25406" lon="-1.4287">
        <ele>51</ele>
        <time>2021-04-26T14:11:38.000Z</time>
      </trkpt>
      <trkpt lat="47.25415" lon="-1.42864">
        <ele>51</ele>
        <time>2021-04-26T14:11:40.000Z</time>
      </trkpt>
      <trkpt lat="47.25424" lon="-1.42858">
        <ele>51</ele>
        <time>2021-04-26T14:11:42.000Z</time>
      </trkpt>
      <trkpt lat="47.25433" lon="-1.42853">
        <ele>51</ele>
        <time>2021-04-26T14:11:44.000Z</time>
      </trkpt>
      <trkpt lat="47.25442" lon="-1.42847">
        <ele>51</ele>
        <time>2021-04-26T14:11:46.000Z</time>
      </trkpt>
      <trkpt lat="47.25452" lon="-1.4284">
        <ele>51</ele>
        <time>2021-04-26T14:11:48.000Z</time>
      </trkpt>
      <trkpt lat="47.25461" lon="-1.42833">
        <ele>51</ele>
        <time>2021-04-26T14:11:50.000Z</time>
      </trkpt>
      <trkpt lat="47.2547" lon="-1.42826">
        <ele>51</ele>
        <time>2021-04-26T14:11:52.000Z</time>
      </trkpt>
      <trkpt lat="47.25479" lon="-1.42819">
        <ele>51</ele>
        <time>2021-04-26T14:11:54.000Z</time>
      </trkpt>
      <trkpt lat="47.25488" lon="-1.42812">
        <ele>51</ele>
        <time>2021-04-26T14:11:56.000Z</time>
      </trkpt>
      <trkpt lat="47.25497" lon="-1.42805">
        <ele>51</ele>
        <time>2021-04-26T14:11:58.000Z</time>
      </trkpt>
      <trkpt lat="47.25506" lon="-1.42798">
        <ele>51</ele>
        <time>2021-04-26T14:12:00.000Z</time>
      </trkpt>
      <trkpt lat="47.25515" lon="-1.42791">
        <ele>51</ele>
        <time>2021-04-26T14:12:02.000Z</time>
      </trkpt>
      <trkpt lat="47.25524" lon="-1.42784">
        <ele>51</ele>
        <time>2021-04-26T14:12:04.000Z</time>
      </trkpt>
      <trkpt lat="47.25532" lon="-1.42776">
        <ele>51</ele>
        <time>2021-04-26T14:12:06.000Z</time>
      </trkpt>
      <trkpt lat="47.2554" lon="-1.42769">
        <ele>51</ele>
        <time>2021-04-26T14:12:08.000Z</time>
      </trkpt>
      <trkpt lat="47.25549" lon="-1.42761">
        <ele>51</ele>
        <time>2021-04-26T14:12:10.000Z</time>
      </trkpt>
      <trkpt lat="47.25558" lon="-1.42754">
        <ele>51</ele>
        <time>2021-04-26T14:12:12.000Z</time>
      </trkpt>
      <trkpt lat="47.25567" lon="-1.42746">
        <ele>51</ele>
        <time>2021-04-26T14:12:14.000Z</time>
      </trkpt>
      <trkpt lat="47.25576" lon="-1.42739">
        <ele>51</ele>
        <time>2021-04-26T14:12:16.000Z</time>
      </trkpt>
      <trkpt lat="47.25586" lon="-1.42731">
        <ele>51</ele>
        <time>2021-04-26T14:12:18.000Z</time>
      </trkpt>
      <trkpt lat="47.25595" lon="-1.42724">
        <ele>51</ele>
        <time>2021-04-26T14:12:20.000Z</time>
      </trkpt>
      <trkpt lat="47.25604" lon="-1.42717">
        <ele>51</ele>
        <time>2021-04-26T14:12:22.000Z</time>
      </trkpt>
      <trkpt lat="47.25612" lon="-1.4271">
        <ele>51</ele>
        <time>2021-04-26T14:12:24.000Z</time>
      </trkpt>
      <trkpt lat="47.25621" lon="-1.42703">
        <ele>51</ele>
        <time>2021-04-26T14:12:26.000Z</time>
      </trkpt>
      <trkpt lat="47.2563" lon="-1.42697">
        <ele>51</ele>
        <time>2021-04-26T14:12:28.000Z</time>
      </trkpt>
      <trkpt lat="47.25639" lon="-1.4269">
        <ele>51</ele>
        <time>2021-04-26T14:12:30.000Z</time>
      </trkpt>
      <trkpt lat="47.25648" lon="-1.42682">
        <ele>50</ele>
        <time>2021-04-26T14:12:32.000Z</time>
      </trkpt>
      <trkpt lat="47.25656" lon="-1.42675">
        <ele>51</ele>
        <time>2021-04-26T14:12:34.000Z</time>
      </trkpt>
      <trkpt lat="47.25664" lon="-1.42668">
        <ele>51</ele>
        <time>2021-04-26T14:12:36.000Z</time>
      </trkpt>
      <trkpt lat="47.25672" lon="-1.42659">
        <ele>53</ele>
        <time>2021-04-26T14:12:39.000Z</time>
      </trkpt>
      <trkpt lat="47.2568" lon="-1.42652">
        <ele>53</ele>
        <time>2021-04-26T14:12:42.000Z</time>
      </trkpt>
      <trkpt lat="47.25689" lon="-1.42642">
        <ele>53</ele>
        <time>2021-04-26T14:12:45.000Z</time>
      </trkpt>
      <trkpt lat="47.25698" lon="-1.42628">
        <ele>53</ele>
        <time>2021-04-26T14:12:48.000Z</time>
      </trkpt>
      <trkpt lat="47.25707" lon="-1.4262">
        <ele>53</ele>
        <time>2021-04-26T14:12:51.000Z</time>
      </trkpt>
      <trkpt lat="47.25713" lon="-1.4261">
        <ele>53</ele>
        <time>2021-04-26T14:12:55.000Z</time>
      </trkpt>
      <trkpt lat="47.25725" lon="-1.42609">
        <ele>54</ele>
        <time>2021-04-26T14:12:58.000Z</time>
      </trkpt>
      <trkpt lat="47.25731" lon="-1.42622">
        <ele>54</ele>
        <time>2021-04-26T14:13:00.000Z</time>
      </trkpt>
      <trkpt lat="47.25736" lon="-1.42637">
        <ele>55</ele>
        <time>2021-04-26T14:13:02.000Z</time>
      </trkpt>
      <trkpt lat="47.25741" lon="-1.4265">
        <ele>55</ele>
        <time>2021-04-26T14:13:04.000Z</time>
      </trkpt>
      <trkpt lat="47.25747" lon="-1.42663">
        <ele>56</ele>
        <time>2021-04-26T14:13:06.000Z</time>
      </trkpt>
      <trkpt lat="47.25752" lon="-1.42676">
        <ele>56</ele>
        <time>2021-04-26T14:13:08.000Z</time>
      </trkpt>
      <trkpt lat="47.25758" lon="-1.42691">
        <ele>56</ele>
        <time>2021-04-26T14:13:10.000Z</time>
      </trkpt>
      <trkpt lat="47.25763" lon="-1.42704">
        <ele>57</ele>
        <time>2021-04-26T14:13:12.000Z</time>
      </trkpt>
      <trkpt lat="47.25769" lon="-1.42718">
        <ele>57</ele>
        <time>2021-04-26T14:13:14.000Z</time>
      </trkpt>
      <trkpt lat="47.25775" lon="-1.42731">
        <ele>58</ele>
        <time>2021-04-26T14:13:16.000Z</time>
      </trkpt>
      <trkpt lat="47.2578" lon="-1.42744">
        <ele>58</ele>
        <time>2021-04-26T14:13:18.000Z</time>
      </trkpt>
      <trkpt lat="47.25785" lon="-1.42757">
        <ele>58</ele>
        <time>2021-04-26T14:13:20.000Z</time>
      </trkpt>
      <trkpt lat="47.25791" lon="-1.42772">
        <ele>57</ele>
        <time>2021-04-26T14:13:22.000Z</time>
      </trkpt>
      <trkpt lat="47.25797" lon="-1.42786">
        <ele>58</ele>
        <time>2021-04-26T14:13:24.000Z</time>
      </trkpt>
      <trkpt lat="47.25803" lon="-1.428">
        <ele>59</ele>
        <time>2021-04-26T14:13:26.000Z</time>
      </trkpt>
      <trkpt lat="47.25809" lon="-1.42813">
        <ele>59</ele>
        <time>2021-04-26T14:13:28.000Z</time>
      </trkpt>
      <trkpt lat="47.25815" lon="-1.42828">
        <ele>59</ele>
        <time>2021-04-26T14:13:30.000Z</time>
      </trkpt>
      <trkpt lat="47.2582" lon="-1.42843">
        <ele>59</ele>
        <time>2021-04-26T14:13:32.000Z</time>
      </trkpt>
      <trkpt lat="47.25826" lon="-1.42857">
        <ele>60</ele>
        <time>2021-04-26T14:13:34.000Z</time>
      </trkpt>
      <trkpt lat="47.25832" lon="-1.42872">
        <ele>60</ele>
        <time>2021-04-26T14:13:36.000Z</time>
      </trkpt>
      <trkpt lat="47.25839" lon="-1.42885">
        <ele>60</ele>
        <time>2021-04-26T14:13:38.000Z</time>
      </trkpt>
      <trkpt lat="47.25845" lon="-1.429">
        <ele>60</ele>
        <time>2021-04-26T14:13:40.000Z</time>
      </trkpt>
      <trkpt lat="47.25851" lon="-1.42916">
        <ele>59</ele>
        <time>2021-04-26T14:13:42.000Z</time>
      </trkpt>
      <trkpt lat="47.25858" lon="-1.42933">
        <ele>57</ele>
        <time>2021-04-26T14:13:44.000Z</time>
      </trkpt>
      <trkpt lat="47.25864" lon="-1.4295">
        <ele>56</ele>
        <time>2021-04-26T14:13:46.000Z</time>
      </trkpt>
      <trkpt lat="47.25872" lon="-1.42967">
        <ele>56</ele>
        <time>2021-04-26T14:13:48.000Z</time>
      </trkpt>
      <trkpt lat="47.2588" lon="-1.42985">
        <ele>55</ele>
        <time>2021-04-26T14:13:50.000Z</time>
      </trkpt>
      <trkpt lat="47.25886" lon="-1.43004">
        <ele>54</ele>
        <time>2021-04-26T14:13:52.000Z</time>
      </trkpt>
      <trkpt lat="47.25894" lon="-1.43022">
        <ele>54</ele>
        <time>2021-04-26T14:13:54.000Z</time>
      </trkpt>
      <trkpt lat="47.25901" lon="-1.4304">
        <ele>54</ele>
        <time>2021-04-26T14:13:56.000Z</time>
      </trkpt>
      <trkpt lat="47.25908" lon="-1.43058">
        <ele>53</ele>
        <time>2021-04-26T14:13:58.000Z</time>
      </trkpt>
      <trkpt lat="47.25915" lon="-1.43074">
        <ele>53</ele>
        <time>2021-04-26T14:14:00.000Z</time>
      </trkpt>
      <trkpt lat="47.25921" lon="-1.43091">
        <ele>53</ele>
        <time>2021-04-26T14:14:02.000Z</time>
      </trkpt>
      <trkpt lat="47.25929" lon="-1.43107">
        <ele>53</ele>
        <time>2021-04-26T14:14:04.000Z</time>
      </trkpt>
      <trkpt lat="47.25937" lon="-1.43122">
        <ele>53</ele>
        <time>2021-04-26T14:14:06.000Z</time>
      </trkpt>
      <trkpt lat="47.25947" lon="-1.43136">
        <ele>53</ele>
        <time>2021-04-26T14:14:08.000Z</time>
      </trkpt>
      <trkpt lat="47.25956" lon="-1.43149">
        <ele>53</ele>
        <time>2021-04-26T14:14:10.000Z</time>
      </trkpt>
      <trkpt lat="47.25964" lon="-1.43162">
        <ele>54</ele>
        <time>2021-04-26T14:14:12.000Z</time>
      </trkpt>
      <trkpt lat="47.25972" lon="-1.43174">
        <ele>55</ele>
        <time>2021-04-26T14:14:14.000Z</time>
      </trkpt>
      <trkpt lat="47.2598" lon="-1.43186">
        <ele>55</ele>
        <time>2021-04-26T14:14:16.000Z</time>
      </trkpt>
      <trkpt lat="47.25989" lon="-1.43198">
        <ele>55</ele>
        <time>2021-04-26T14:14:18.000Z</time>
      </trkpt>
      <trkpt lat="47.25997" lon="-1.43211">
        <ele>55</ele>
        <time>2021-04-26T14:14:20.000Z</time>
      </trkpt>
      <trkpt lat="47.26006" lon="-1.43224">
        <ele>55</ele>
        <time>2021-04-26T14:14:22.000Z</time>
      </trkpt>
      <trkpt lat="47.26014" lon="-1.43235">
        <ele>55</ele>
        <time>2021-04-26T14:14:24.000Z</time>
      </trkpt>
      <trkpt lat="47.26023" lon="-1.43247">
        <ele>56</ele>
        <time>2021-04-26T14:14:26.000Z</time>
      </trkpt>
      <trkpt lat="47.26031" lon="-1.43259">
        <ele>56</ele>
        <time>2021-04-26T14:14:28.000Z</time>
      </trkpt>
      <trkpt lat="47.2604" lon="-1.4327">
        <ele>57</ele>
        <time>2021-04-26T14:14:30.000Z</time>
      </trkpt>
      <trkpt lat="47.26048" lon="-1.43281">
        <ele>57</ele>
        <time>2021-04-26T14:14:32.000Z</time>
      </trkpt>
      <trkpt lat="47.26056" lon="-1.43293">
        <ele>58</ele>
        <time>2021-04-26T14:14:34.000Z</time>
      </trkpt>
      <trkpt lat="47.26065" lon="-1.43306">
        <ele>58</ele>
        <time>2021-04-26T14:14:36.000Z</time>
      </trkpt>
      <trkpt lat="47.26074" lon="-1.43319">
        <ele>58</ele>
        <time>2021-04-26T14:14:38.000Z</time>
      </trkpt>
      <trkpt lat="47.26083" lon="-1.43331">
        <ele>58</ele>
        <time>2021-04-26T14:14:40.000Z</time>
      </trkpt>
      <trkpt lat="47.26091" lon="-1.43343">
        <ele>59</ele>
        <time>2021-04-26T14:14:42.000Z</time>
      </trkpt>
      <trkpt lat="47.26099" lon="-1.43354">
        <ele>59</ele>
        <time>2021-04-26T14:14:44.000Z</time>
      </trkpt>
      <trkpt lat="47.26108" lon="-1.43366">
        <ele>59</ele>
        <time>2021-04-26T14:14:46.000Z</time>
      </trkpt>
      <trkpt lat="47.26116" lon="-1.43378">
        <ele>58</ele>
        <time>2021-04-26T14:14:48.000Z</time>
      </trkpt>
      <trkpt lat="47.26124" lon="-1.43391">
        <ele>58</ele>
        <time>2021-04-26T14:14:50.000Z</time>
      </trkpt>
      <trkpt lat="47.26132" lon="-1.43404">
        <ele>58</ele>
        <time>2021-04-26T14:14:52.000Z</time>
      </trkpt>
      <trkpt lat="47.26141" lon="-1.43416">
        <ele>58</ele>
        <time>2021-04-26T14:14:54.000Z</time>
      </trkpt>
      <trkpt lat="47.2615" lon="-1.43429">
        <ele>57</ele>
        <time>2021-04-26T14:14:56.000Z</time>
      </trkpt>
      <trkpt lat="47.26159" lon="-1.43442">
        <ele>56</ele>
        <time>2021-04-26T14:14:58.000Z</time>
      </trkpt>
      <trkpt lat="47.26168" lon="-1.43456">
        <ele>56</ele>
        <time>2021-04-26T14:15:00.000Z</time>
      </trkpt>
      <trkpt lat="47.26177" lon="-1.43468">
        <ele>57</ele>
        <time>2021-04-26T14:15:02.000Z</time>
      </trkpt>
      <trkpt lat="47.26186" lon="-1.43481">
        <ele>57</ele>
        <time>2021-04-26T14:15:04.000Z</time>
      </trkpt>
      <trkpt lat="47.26195" lon="-1.43494">
        <ele>57</ele>
        <time>2021-04-26T14:15:06.000Z</time>
      </trkpt>
      <trkpt lat="47.26204" lon="-1.43507">
        <ele>57</ele>
        <time>2021-04-26T14:15:08.000Z</time>
      </trkpt>
      <trkpt lat="47.26214" lon="-1.43519">
        <ele>58</ele>
        <time>2021-04-26T14:15:10.000Z</time>
      </trkpt>
      <trkpt lat="47.26222" lon="-1.43532">
        <ele>58</ele>
        <time>2021-04-26T14:15:12.000Z</time>
      </trkpt>
      <trkpt lat="47.2623" lon="-1.43546">
        <ele>58</ele>
        <time>2021-04-26T14:15:14.000Z</time>
      </trkpt>
      <trkpt lat="47.26232" lon="-1.43564">
        <ele>57</ele>
        <time>2021-04-26T14:15:16.000Z</time>
      </trkpt>
      <trkpt lat="47.26222" lon="-1.43579">
        <ele>56</ele>
        <time>2021-04-26T14:15:18.000Z</time>
      </trkpt>
      <trkpt lat="47.26211" lon="-1.43594">
        <ele>55</ele>
        <time>2021-04-26T14:15:20.000Z</time>
      </trkpt>
      <trkpt lat="47.26199" lon="-1.43611">
        <ele>54</ele>
        <time>2021-04-26T14:15:22.000Z</time>
      </trkpt>
      <trkpt lat="47.26187" lon="-1.43627">
        <ele>53</ele>
        <time>2021-04-26T14:15:24.000Z</time>
      </trkpt>
      <trkpt lat="47.26175" lon="-1.43644">
        <ele>52</ele>
        <time>2021-04-26T14:15:26.000Z</time>
      </trkpt>
      <trkpt lat="47.26164" lon="-1.4366">
        <ele>52</ele>
        <time>2021-04-26T14:15:28.000Z</time>
      </trkpt>
      <trkpt lat="47.26154" lon="-1.43676">
        <ele>52</ele>
        <time>2021-04-26T14:15:30.000Z</time>
      </trkpt>
      <trkpt lat="47.26144" lon="-1.43693">
        <ele>51</ele>
        <time>2021-04-26T14:15:32.000Z</time>
      </trkpt>
      <trkpt lat="47.26133" lon="-1.43707">
        <ele>52</ele>
        <time>2021-04-26T14:15:34.000Z</time>
      </trkpt>
      <trkpt lat="47.26122" lon="-1.43723">
        <ele>52</ele>
        <time>2021-04-26T14:15:36.000Z</time>
      </trkpt>
      <trkpt lat="47.26111" lon="-1.4374">
        <ele>52</ele>
        <time>2021-04-26T14:15:38.000Z</time>
      </trkpt>
      <trkpt lat="47.26099" lon="-1.43754">
        <ele>52</ele>
        <time>2021-04-26T14:15:40.000Z</time>
      </trkpt>
      <trkpt lat="47.26087" lon="-1.43768">
        <ele>51</ele>
        <time>2021-04-26T14:15:42.000Z</time>
      </trkpt>
      <trkpt lat="47.26075" lon="-1.43784">
        <ele>51</ele>
        <time>2021-04-26T14:15:44.000Z</time>
      </trkpt>
      <trkpt lat="47.26063" lon="-1.43799">
        <ele>51</ele>
        <time>2021-04-26T14:15:46.000Z</time>
      </trkpt>
      <trkpt lat="47.26053" lon="-1.43816">
        <ele>51</ele>
        <time>2021-04-26T14:15:48.000Z</time>
      </trkpt>
      <trkpt lat="47.26044" lon="-1.43834">
        <ele>52</ele>
        <time>2021-04-26T14:15:50.000Z</time>
      </trkpt>
      <trkpt lat="47.26036" lon="-1.43854">
        <ele>52</ele>
        <time>2021-04-26T14:15:52.000Z</time>
      </trkpt>
      <trkpt lat="47.26025" lon="-1.43869">
        <ele>52</ele>
        <time>2021-04-26T14:15:54.000Z</time>
      </trkpt>
      <trkpt lat="47.26013" lon="-1.43881">
        <ele>52</ele>
        <time>2021-04-26T14:15:56.000Z</time>
      </trkpt>
      <trkpt lat="47.26001" lon="-1.43893">
        <ele>52</ele>
        <time>2021-04-26T14:15:58.000Z</time>
      </trkpt>
      <trkpt lat="47.25989" lon="-1.43906">
        <ele>53</ele>
        <time>2021-04-26T14:16:00.000Z</time>
      </trkpt>
      <trkpt lat="47.25977" lon="-1.4392">
        <ele>54</ele>
        <time>2021-04-26T14:16:02.000Z</time>
      </trkpt>
      <trkpt lat="47.25965" lon="-1.43934">
        <ele>53</ele>
        <time>2021-04-26T14:16:04.000Z</time>
      </trkpt>
      <trkpt lat="47.25953" lon="-1.43948">
        <ele>54</ele>
        <time>2021-04-26T14:16:06.000Z</time>
      </trkpt>
      <trkpt lat="47.25941" lon="-1.43962">
        <ele>54</ele>
        <time>2021-04-26T14:16:08.000Z</time>
      </trkpt>
      <trkpt lat="47.25929" lon="-1.43977">
        <ele>54</ele>
        <time>2021-04-26T14:16:10.000Z</time>
      </trkpt>
      <trkpt lat="47.25918" lon="-1.43991">
        <ele>54</ele>
        <time>2021-04-26T14:16:12.000Z</time>
      </trkpt>
      <trkpt lat="47.25906" lon="-1.44004">
        <ele>54</ele>
        <time>2021-04-26T14:16:14.000Z</time>
      </trkpt>
      <trkpt lat="47.25894" lon="-1.44017">
        <ele>54</ele>
        <time>2021-04-26T14:16:16.000Z</time>
      </trkpt>
      <trkpt lat="47.25883" lon="-1.44032">
        <ele>53</ele>
        <time>2021-04-26T14:16:18.000Z</time>
      </trkpt>
      <trkpt lat="47.25873" lon="-1.44049">
        <ele>53</ele>
        <time>2021-04-26T14:16:20.000Z</time>
      </trkpt>
      <trkpt lat="47.25867" lon="-1.44069">
        <ele>52</ele>
        <time>2021-04-26T14:16:22.000Z</time>
      </trkpt>
      <trkpt lat="47.2586" lon="-1.44085">
        <ele>53</ele>
        <time>2021-04-26T14:16:24.000Z</time>
      </trkpt>
      <trkpt lat="47.2585" lon="-1.44099">
        <ele>53</ele>
        <time>2021-04-26T14:16:26.000Z</time>
      </trkpt>
      <trkpt lat="47.2584" lon="-1.44112">
        <ele>53</ele>
        <time>2021-04-26T14:16:28.000Z</time>
      </trkpt>
      <trkpt lat="47.2583" lon="-1.44124">
        <ele>54</ele>
        <time>2021-04-26T14:16:30.000Z</time>
      </trkpt>
      <trkpt lat="47.25818" lon="-1.44136">
        <ele>54</ele>
        <time>2021-04-26T14:16:32.000Z</time>
      </trkpt>
      <trkpt lat="47.25807" lon="-1.44148">
        <ele>54</ele>
        <time>2021-04-26T14:16:34.000Z</time>
      </trkpt>
      <trkpt lat="47.25795" lon="-1.4416">
        <ele>54</ele>
        <time>2021-04-26T14:16:36.000Z</time>
      </trkpt>
      <trkpt lat="47.25784" lon="-1.44172">
        <ele>54</ele>
        <time>2021-04-26T14:16:38.000Z</time>
      </trkpt>
      <trkpt lat="47.25772" lon="-1.44186">
        <ele>53</ele>
        <time>2021-04-26T14:16:40.000Z</time>
      </trkpt>
      <trkpt lat="47.25762" lon="-1.44199">
        <ele>53</ele>
        <time>2021-04-26T14:16:42.000Z</time>
      </trkpt>
      <trkpt lat="47.25751" lon="-1.44213">
        <ele>53</ele>
        <time>2021-04-26T14:16:44.000Z</time>
      </trkpt>
      <trkpt lat="47.25741" lon="-1.44227">
        <ele>53</ele>
        <time>2021-04-26T14:16:46.000Z</time>
      </trkpt>
      <trkpt lat="47.2573" lon="-1.44241">
        <ele>53</ele>
        <time>2021-04-26T14:16:48.000Z</time>
      </trkpt>
      <trkpt lat="47.25719" lon="-1.44255">
        <ele>53</ele>
        <time>2021-04-26T14:16:50.000Z</time>
      </trkpt>
      <trkpt lat="47.25709" lon="-1.44268">
        <ele>53</ele>
        <time>2021-04-26T14:16:52.000Z</time>
      </trkpt>
      <trkpt lat="47.25698" lon="-1.44281">
        <ele>52</ele>
        <time>2021-04-26T14:16:54.000Z</time>
      </trkpt>
      <trkpt lat="47.25687" lon="-1.44293">
        <ele>52</ele>
        <time>2021-04-26T14:16:56.000Z</time>
      </trkpt>
      <trkpt lat="47.25677" lon="-1.44306">
        <ele>52</ele>
        <time>2021-04-26T14:16:58.000Z</time>
      </trkpt>
      <trkpt lat="47.25668" lon="-1.44318">
        <ele>52</ele>
        <time>2021-04-26T14:17:00.000Z</time>
      </trkpt>
      <trkpt lat="47.25659" lon="-1.44327">
        <ele>51</ele>
        <time>2021-04-26T14:17:02.000Z</time>
      </trkpt>
      <trkpt lat="47.25651" lon="-1.44337">
        <ele>52</ele>
        <time>2021-04-26T14:17:04.000Z</time>
      </trkpt>
      <trkpt lat="47.25641" lon="-1.44348">
        <ele>52</ele>
        <time>2021-04-26T14:17:06.000Z</time>
      </trkpt>
      <trkpt lat="47.2563" lon="-1.4436">
        <ele>53</ele>
        <time>2021-04-26T14:17:08.000Z</time>
      </trkpt>
      <trkpt lat="47.25618" lon="-1.44372">
        <ele>52</ele>
        <time>2021-04-26T14:17:10.000Z</time>
      </trkpt>
      <trkpt lat="47.25606" lon="-1.44386">
        <ele>52</ele>
        <time>2021-04-26T14:17:12.000Z</time>
      </trkpt>
      <trkpt lat="47.25595" lon="-1.44399">
        <ele>52</ele>
        <time>2021-04-26T14:17:14.000Z</time>
      </trkpt>
      <trkpt lat="47.25583" lon="-1.44412">
        <ele>52</ele>
        <time>2021-04-26T14:17:16.000Z</time>
      </trkpt>
      <trkpt lat="47.25572" lon="-1.44425">
        <ele>53</ele>
        <time>2021-04-26T14:17:18.000Z</time>
      </trkpt>
      <trkpt lat="47.25561" lon="-1.44439">
        <ele>52</ele>
        <time>2021-04-26T14:17:20.000Z</time>
      </trkpt>
      <trkpt lat="47.25551" lon="-1.44455">
        <ele>53</ele>
        <time>2021-04-26T14:17:22.000Z</time>
      </trkpt>
      <trkpt lat="47.25541" lon="-1.44471">
        <ele>53</ele>
        <time>2021-04-26T14:17:24.000Z</time>
      </trkpt>
      <trkpt lat="47.25531" lon="-1.44487">
        <ele>54</ele>
        <time>2021-04-26T14:17:26.000Z</time>
      </trkpt>
      <trkpt lat="47.25521" lon="-1.44502">
        <ele>53</ele>
        <time>2021-04-26T14:17:28.000Z</time>
      </trkpt>
      <trkpt lat="47.25511" lon="-1.44517">
        <ele>53</ele>
        <time>2021-04-26T14:17:30.000Z</time>
      </trkpt>
      <trkpt lat="47.255" lon="-1.44531">
        <ele>52</ele>
        <time>2021-04-26T14:17:32.000Z</time>
      </trkpt>
      <trkpt lat="47.25488" lon="-1.44544">
        <ele>52</ele>
        <time>2021-04-26T14:17:34.000Z</time>
      </trkpt>
      <trkpt lat="47.25478" lon="-1.44559">
        <ele>51</ele>
        <time>2021-04-26T14:17:36.000Z</time>
      </trkpt>
      <trkpt lat="47.25468" lon="-1.44575">
        <ele>51</ele>
        <time>2021-04-26T14:17:38.000Z</time>
      </trkpt>
      <trkpt lat="47.25459" lon="-1.44591">
        <ele>50</ele>
        <time>2021-04-26T14:17:40.000Z</time>
      </trkpt>
      <trkpt lat="47.25449" lon="-1.44606">
        <ele>51</ele>
        <time>2021-04-26T14:17:42.000Z</time>
      </trkpt>
      <trkpt lat="47.25439" lon="-1.4462">
        <ele>51</ele>
        <time>2021-04-26T14:17:44.000Z</time>
      </trkpt>
      <trkpt lat="47.25429" lon="-1.44635">
        <ele>50</ele>
        <time>2021-04-26T14:17:46.000Z</time>
      </trkpt>
      <trkpt lat="47.25419" lon="-1.44649">
        <ele>50</ele>
        <time>2021-04-26T14:17:48.000Z</time>
      </trkpt>
      <trkpt lat="47.25408" lon="-1.44664">
        <ele>50</ele>
        <time>2021-04-26T14:17:50.000Z</time>
      </trkpt>
      <trkpt lat="47.25396" lon="-1.44678">
        <ele>50</ele>
        <time>2021-04-26T14:17:52.000Z</time>
      </trkpt>
      <trkpt lat="47.25386" lon="-1.44692">
        <ele>50</ele>
        <time>2021-04-26T14:17:54.000Z</time>
      </trkpt>
      <trkpt lat="47.25375" lon="-1.44706">
        <ele>50</ele>
        <time>2021-04-26T14:17:56.000Z</time>
      </trkpt>
      <trkpt lat="47.25364" lon="-1.44719">
        <ele>51</ele>
        <time>2021-04-26T14:17:58.000Z</time>
      </trkpt>
      <trkpt lat="47.25353" lon="-1.4473">
        <ele>51</ele>
        <time>2021-04-26T14:18:00.000Z</time>
      </trkpt>
      <trkpt lat="47.2534" lon="-1.44742">
        <ele>51</ele>
        <time>2021-04-26T14:18:02.000Z</time>
      </trkpt>
      <trkpt lat="47.25329" lon="-1.44753">
        <ele>51</ele>
        <time>2021-04-26T14:18:04.000Z</time>
      </trkpt>
      <trkpt lat="47.25317" lon="-1.44765">
        <ele>50</ele>
        <time>2021-04-26T14:18:06.000Z</time>
      </trkpt>
      <trkpt lat="47.25306" lon="-1.44777">
        <ele>50</ele>
        <time>2021-04-26T14:18:08.000Z</time>
      </trkpt>
      <trkpt lat="47.25295" lon="-1.4479">
        <ele>51</ele>
        <time>2021-04-26T14:18:10.000Z</time>
      </trkpt>
      <trkpt lat="47.25284" lon="-1.44802">
        <ele>51</ele>
        <time>2021-04-26T14:18:12.000Z</time>
      </trkpt>
      <trkpt lat="47.25273" lon="-1.44815">
        <ele>52</ele>
        <time>2021-04-26T14:18:14.000Z</time>
      </trkpt>
      <trkpt lat="47.25262" lon="-1.44829">
        <ele>52</ele>
        <time>2021-04-26T14:18:16.000Z</time>
      </trkpt>
      <trkpt lat="47.25251" lon="-1.44842">
        <ele>52</ele>
        <time>2021-04-26T14:18:18.000Z</time>
      </trkpt>
      <trkpt lat="47.25239" lon="-1.44855">
        <ele>52</ele>
        <time>2021-04-26T14:18:20.000Z</time>
      </trkpt>
      <trkpt lat="47.25228" lon="-1.44867">
        <ele>53</ele>
        <time>2021-04-26T14:18:22.000Z</time>
      </trkpt>
      <trkpt lat="47.25215" lon="-1.44878">
        <ele>53</ele>
        <time>2021-04-26T14:18:24.000Z</time>
      </trkpt>
      <trkpt lat="47.25202" lon="-1.44888">
        <ele>53</ele>
        <time>2021-04-26T14:18:26.000Z</time>
      </trkpt>
      <trkpt lat="47.2519" lon="-1.44897">
        <ele>53</ele>
        <time>2021-04-26T14:18:28.000Z</time>
      </trkpt>
      <trkpt lat="47.25177" lon="-1.44907">
        <ele>54</ele>
        <time>2021-04-26T14:18:30.000Z</time>
      </trkpt>
      <trkpt lat="47.25164" lon="-1.44917">
        <ele>53</ele>
        <time>2021-04-26T14:18:32.000Z</time>
      </trkpt>
      <trkpt lat="47.25152" lon="-1.44928">
        <ele>53</ele>
        <time>2021-04-26T14:18:34.000Z</time>
      </trkpt>
      <trkpt lat="47.2514" lon="-1.44939">
        <ele>53</ele>
        <time>2021-04-26T14:18:36.000Z</time>
      </trkpt>
      <trkpt lat="47.25129" lon="-1.44951">
        <ele>53</ele>
        <time>2021-04-26T14:18:38.000Z</time>
      </trkpt>
      <trkpt lat="47.25117" lon="-1.44963">
        <ele>52</ele>
        <time>2021-04-26T14:18:40.000Z</time>
      </trkpt>
      <trkpt lat="47.25106" lon="-1.44974">
        <ele>52</ele>
        <time>2021-04-26T14:18:42.000Z</time>
      </trkpt>
      <trkpt lat="47.25094" lon="-1.44984">
        <ele>52</ele>
        <time>2021-04-26T14:18:44.000Z</time>
      </trkpt>
      <trkpt lat="47.25083" lon="-1.44994">
        <ele>52</ele>
        <time>2021-04-26T14:18:46.000Z</time>
      </trkpt>
      <trkpt lat="47.25071" lon="-1.45004">
        <ele>51</ele>
        <time>2021-04-26T14:18:48.000Z</time>
      </trkpt>
      <trkpt lat="47.25059" lon="-1.45014">
        <ele>50</ele>
        <time>2021-04-26T14:18:50.000Z</time>
      </trkpt>
      <trkpt lat="47.25047" lon="-1.45023">
        <ele>49</ele>
        <time>2021-04-26T14:18:52.000Z</time>
      </trkpt>
      <trkpt lat="47.25035" lon="-1.45031">
        <ele>49</ele>
        <time>2021-04-26T14:18:54.000Z</time>
      </trkpt>
      <trkpt lat="47.25022" lon="-1.4504">
        <ele>47</ele>
        <time>2021-04-26T14:18:56.000Z</time>
      </trkpt>
      <trkpt lat="47.2501" lon="-1.4505">
        <ele>47</ele>
        <time>2021-04-26T14:18:58.000Z</time>
      </trkpt>
      <trkpt lat="47.24998" lon="-1.45062">
        <ele>46</ele>
        <time>2021-04-26T14:19:00.000Z</time>
      </trkpt>
      <trkpt lat="47.24987" lon="-1.45075">
        <ele>46</ele>
        <time>2021-04-26T14:19:02.000Z</time>
      </trkpt>
      <trkpt lat="47.24975" lon="-1.45089">
        <ele>47</ele>
        <time>2021-04-26T14:19:04.000Z</time>
      </trkpt>
      <trkpt lat="47.24964" lon="-1.45101">
        <ele>47</ele>
        <time>2021-04-26T14:19:06.000Z</time>
      </trkpt>
      <trkpt lat="47.24952" lon="-1.45114">
        <ele>47</ele>
        <time>2021-04-26T14:19:08.000Z</time>
      </trkpt>
      <trkpt lat="47.24941" lon="-1.45126">
        <ele>47</ele>
        <time>2021-04-26T14:19:10.000Z</time>
      </trkpt>
      <trkpt lat="47.2493" lon="-1.45138">
        <ele>47</ele>
        <time>2021-04-26T14:19:12.000Z</time>
      </trkpt>
      <trkpt lat="47.24919" lon="-1.4515">
        <ele>48</ele>
        <time>2021-04-26T14:19:14.000Z</time>
      </trkpt>
      <trkpt lat="47.24908" lon="-1.45162">
        <ele>47</ele>
        <time>2021-04-26T14:19:16.000Z</time>
      </trkpt>
      <trkpt lat="47.24898" lon="-1.45174">
        <ele>48</ele>
        <time>2021-04-26T14:19:18.000Z</time>
      </trkpt>
      <trkpt lat="47.24888" lon="-1.45188">
        <ele>49</ele>
        <time>2021-04-26T14:19:20.000Z</time>
      </trkpt>
      <trkpt lat="47.24879" lon="-1.45201">
        <ele>49</ele>
        <time>2021-04-26T14:19:22.000Z</time>
      </trkpt>
      <trkpt lat="47.24869" lon="-1.45213">
        <ele>49</ele>
        <time>2021-04-26T14:19:24.000Z</time>
      </trkpt>
      <trkpt lat="47.24859" lon="-1.45228">
        <ele>49</ele>
        <time>2021-04-26T14:19:26.000Z</time>
      </trkpt>
      <trkpt lat="47.2485" lon="-1.45243">
        <ele>50</ele>
        <time>2021-04-26T14:19:28.000Z</time>
      </trkpt>
      <trkpt lat="47.24842" lon="-1.45259">
        <ele>50</ele>
        <time>2021-04-26T14:19:30.000Z</time>
      </trkpt>
      <trkpt lat="47.24835" lon="-1.45275">
        <ele>50</ele>
        <time>2021-04-26T14:19:32.000Z</time>
      </trkpt>
      <trkpt lat="47.24826" lon="-1.4529">
        <ele>50</ele>
        <time>2021-04-26T14:19:34.000Z</time>
      </trkpt>
      <trkpt lat="47.24818" lon="-1.45305">
        <ele>51</ele>
        <time>2021-04-26T14:19:36.000Z</time>
      </trkpt>
      <trkpt lat="47.24809" lon="-1.45322">
        <ele>51</ele>
        <time>2021-04-26T14:19:38.000Z</time>
      </trkpt>
      <trkpt lat="47.24801" lon="-1.45339">
        <ele>51</ele>
        <time>2021-04-26T14:19:40.000Z</time>
      </trkpt>
      <trkpt lat="47.24794" lon="-1.45355">
        <ele>50</ele>
        <time>2021-04-26T14:19:42.000Z</time>
      </trkpt>
      <trkpt lat="47.24786" lon="-1.45371">
        <ele>51</ele>
        <time>2021-04-26T14:19:44.000Z</time>
      </trkpt>
      <trkpt lat="47.24779" lon="-1.45387">
        <ele>51</ele>
        <time>2021-04-26T14:19:46.000Z</time>
      </trkpt>
      <trkpt lat="47.24772" lon="-1.45404">
        <ele>51</ele>
        <time>2021-04-26T14:19:48.000Z</time>
      </trkpt>
      <trkpt lat="47.24766" lon="-1.4542">
        <ele>51</ele>
        <time>2021-04-26T14:19:50.000Z</time>
      </trkpt>
      <trkpt lat="47.24759" lon="-1.45438">
        <ele>51</ele>
        <time>2021-04-26T14:19:52.000Z</time>
      </trkpt>
      <trkpt lat="47.24754" lon="-1.45457">
        <ele>51</ele>
        <time>2021-04-26T14:19:54.000Z</time>
      </trkpt>
      <trkpt lat="47.24748" lon="-1.45474">
        <ele>51</ele>
        <time>2021-04-26T14:19:56.000Z</time>
      </trkpt>
      <trkpt lat="47.24742" lon="-1.4549">
        <ele>50</ele>
        <time>2021-04-26T14:19:58.000Z</time>
      </trkpt>
      <trkpt lat="47.24734" lon="-1.45507">
        <ele>50</ele>
        <time>2021-04-26T14:20:00.000Z</time>
      </trkpt>
      <trkpt lat="47.24727" lon="-1.45524">
        <ele>49</ele>
        <time>2021-04-26T14:20:02.000Z</time>
      </trkpt>
      <trkpt lat="47.2472" lon="-1.45542">
        <ele>49</ele>
        <time>2021-04-26T14:20:04.000Z</time>
      </trkpt>
      <trkpt lat="47.24713" lon="-1.45561">
        <ele>49</ele>
        <time>2021-04-26T14:20:06.000Z</time>
      </trkpt>
      <trkpt lat="47.24708" lon="-1.45579">
        <ele>49</ele>
        <time>2021-04-26T14:20:08.000Z</time>
      </trkpt>
      <trkpt lat="47.24702" lon="-1.45598">
        <ele>49</ele>
        <time>2021-04-26T14:20:10.000Z</time>
      </trkpt>
      <trkpt lat="47.24697" lon="-1.45616">
        <ele>49</ele>
        <time>2021-04-26T14:20:12.000Z</time>
      </trkpt>
      <trkpt lat="47.24692" lon="-1.45633">
        <ele>48</ele>
        <time>2021-04-26T14:20:14.000Z</time>
      </trkpt>
      <trkpt lat="47.24686" lon="-1.45651">
        <ele>49</ele>
        <time>2021-04-26T14:20:16.000Z</time>
      </trkpt>
      <trkpt lat="47.2468" lon="-1.45669">
        <ele>49</ele>
        <time>2021-04-26T14:20:18.000Z</time>
      </trkpt>
      <trkpt lat="47.24676" lon="-1.45689">
        <ele>49</ele>
        <time>2021-04-26T14:20:20.000Z</time>
      </trkpt>
      <trkpt lat="47.2467" lon="-1.45708">
        <ele>49</ele>
        <time>2021-04-26T14:20:22.000Z</time>
      </trkpt>
      <trkpt lat="47.24665" lon="-1.45728">
        <ele>49</ele>
        <time>2021-04-26T14:20:24.000Z</time>
      </trkpt>
      <trkpt lat="47.24661" lon="-1.45747">
        <ele>49</ele>
        <time>2021-04-26T14:20:26.000Z</time>
      </trkpt>
      <trkpt lat="47.24657" lon="-1.45766">
        <ele>50</ele>
        <time>2021-04-26T14:20:28.000Z</time>
      </trkpt>
      <trkpt lat="47.24652" lon="-1.45785">
        <ele>50</ele>
        <time>2021-04-26T14:20:30.000Z</time>
      </trkpt>
      <trkpt lat="47.24647" lon="-1.45803">
        <ele>50</ele>
        <time>2021-04-26T14:20:32.000Z</time>
      </trkpt>
      <trkpt lat="47.2464" lon="-1.45821">
        <ele>50</ele>
        <time>2021-04-26T14:20:34.000Z</time>
      </trkpt>
      <trkpt lat="47.24634" lon="-1.4584">
        <ele>51</ele>
        <time>2021-04-26T14:20:36.000Z</time>
      </trkpt>
      <trkpt lat="47.2463" lon="-1.45859">
        <ele>51</ele>
        <time>2021-04-26T14:20:38.000Z</time>
      </trkpt>
      <trkpt lat="47.24625" lon="-1.45878">
        <ele>51</ele>
        <time>2021-04-26T14:20:40.000Z</time>
      </trkpt>
      <trkpt lat="47.2462" lon="-1.45897">
        <ele>51</ele>
        <time>2021-04-26T14:20:42.000Z</time>
      </trkpt>
      <trkpt lat="47.24614" lon="-1.45915">
        <ele>52</ele>
        <time>2021-04-26T14:20:44.000Z</time>
      </trkpt>
      <trkpt lat="47.24607" lon="-1.45934">
        <ele>52</ele>
        <time>2021-04-26T14:20:46.000Z</time>
      </trkpt>
      <trkpt lat="47.246" lon="-1.45951">
        <ele>52</ele>
        <time>2021-04-26T14:20:48.000Z</time>
      </trkpt>
      <trkpt lat="47.24591" lon="-1.45967">
        <ele>53</ele>
        <time>2021-04-26T14:20:50.000Z</time>
      </trkpt>
      <trkpt lat="47.24583" lon="-1.45984">
        <ele>53</ele>
        <time>2021-04-26T14:20:52.000Z</time>
      </trkpt>
      <trkpt lat="47.24575" lon="-1.46002">
        <ele>53</ele>
        <time>2021-04-26T14:20:54.000Z</time>
      </trkpt>
      <trkpt lat="47.24568" lon="-1.46019">
        <ele>53</ele>
        <time>2021-04-26T14:20:56.000Z</time>
      </trkpt>
      <trkpt lat="47.2456" lon="-1.46035">
        <ele>53</ele>
        <time>2021-04-26T14:20:58.000Z</time>
      </trkpt>
      <trkpt lat="47.24552" lon="-1.46049">
        <ele>54</ele>
        <time>2021-04-26T14:21:00.000Z</time>
      </trkpt>
      <trkpt lat="47.24544" lon="-1.46063">
        <ele>54</ele>
        <time>2021-04-26T14:21:02.000Z</time>
      </trkpt>
      <trkpt lat="47.24538" lon="-1.46075">
        <ele>53</ele>
        <time>2021-04-26T14:21:04.000Z</time>
      </trkpt>
      <trkpt lat="47.24533" lon="-1.46085">
        <ele>53</ele>
        <time>2021-04-26T14:21:06.000Z</time>
      </trkpt>
      <trkpt lat="47.24526" lon="-1.46095">
        <ele>52</ele>
        <time>2021-04-26T14:21:08.000Z</time>
      </trkpt>
      <trkpt lat="47.24519" lon="-1.46108">
        <ele>53</ele>
        <time>2021-04-26T14:21:11.000Z</time>
      </trkpt>
      <trkpt lat="47.24509" lon="-1.46115">
        <ele>53</ele>
        <time>2021-04-26T14:21:13.000Z</time>
      </trkpt>
      <trkpt lat="47.245" lon="-1.46127">
        <ele>52</ele>
        <time>2021-04-26T14:21:15.000Z</time>
      </trkpt>
      <trkpt lat="47.24489" lon="-1.46142">
        <ele>51</ele>
        <time>2021-04-26T14:21:17.000Z</time>
      </trkpt>
      <trkpt lat="47.24478" lon="-1.46156">
        <ele>49</ele>
        <time>2021-04-26T14:21:19.000Z</time>
      </trkpt>
      <trkpt lat="47.24466" lon="-1.4617">
        <ele>48</ele>
        <time>2021-04-26T14:21:21.000Z</time>
      </trkpt>
      <trkpt lat="47.24454" lon="-1.46183">
        <ele>47</ele>
        <time>2021-04-26T14:21:23.000Z</time>
      </trkpt>
      <trkpt lat="47.24441" lon="-1.46198">
        <ele>47</ele>
        <time>2021-04-26T14:21:25.000Z</time>
      </trkpt>
      <trkpt lat="47.24429" lon="-1.46212">
        <ele>47</ele>
        <time>2021-04-26T14:21:27.000Z</time>
      </trkpt>
      <trkpt lat="47.24418" lon="-1.46228">
        <ele>47</ele>
        <time>2021-04-26T14:21:29.000Z</time>
      </trkpt>
      <trkpt lat="47.24407" lon="-1.46244">
        <ele>47</ele>
        <time>2021-04-26T14:21:31.000Z</time>
      </trkpt>
      <trkpt lat="47.24396" lon="-1.46259">
        <ele>47</ele>
        <time>2021-04-26T14:21:33.000Z</time>
      </trkpt>
      <trkpt lat="47.24386" lon="-1.46275">
        <ele>46</ele>
        <time>2021-04-26T14:21:35.000Z</time>
      </trkpt>
      <trkpt lat="47.24375" lon="-1.46291">
        <ele>46</ele>
        <time>2021-04-26T14:21:37.000Z</time>
      </trkpt>
      <trkpt lat="47.24365" lon="-1.46307">
        <ele>47</ele>
        <time>2021-04-26T14:21:39.000Z</time>
      </trkpt>
      <trkpt lat="47.24355" lon="-1.46322">
        <ele>46</ele>
        <time>2021-04-26T14:21:41.000Z</time>
      </trkpt>
      <trkpt lat="47.24345" lon="-1.46338">
        <ele>46</ele>
        <time>2021-04-26T14:21:43.000Z</time>
      </trkpt>
      <trkpt lat="47.24336" lon="-1.46355">
        <ele>47</ele>
        <time>2021-04-26T14:21:45.000Z</time>
      </trkpt>
      <trkpt lat="47.24326" lon="-1.46372">
        <ele>47</ele>
        <time>2021-04-26T14:21:47.000Z</time>
      </trkpt>
      <trkpt lat="47.24316" lon="-1.46389">
        <ele>47</ele>
        <time>2021-04-26T14:21:49.000Z</time>
      </trkpt>
      <trkpt lat="47.24306" lon="-1.46406">
        <ele>48</ele>
        <time>2021-04-26T14:21:51.000Z</time>
      </trkpt>
      <trkpt lat="47.24297" lon="-1.46422">
        <ele>48</ele>
        <time>2021-04-26T14:21:53.000Z</time>
      </trkpt>
      <trkpt lat="47.24288" lon="-1.46438">
        <ele>49</ele>
        <time>2021-04-26T14:21:55.000Z</time>
      </trkpt>
      <trkpt lat="47.24277" lon="-1.46454">
        <ele>49</ele>
        <time>2021-04-26T14:21:57.000Z</time>
      </trkpt>
      <trkpt lat="47.24266" lon="-1.46468">
        <ele>50</ele>
        <time>2021-04-26T14:21:59.000Z</time>
      </trkpt>
      <trkpt lat="47.24256" lon="-1.4648">
        <ele>50</ele>
        <time>2021-04-26T14:22:01.000Z</time>
      </trkpt>
      <trkpt lat="47.24245" lon="-1.46494">
        <ele>50</ele>
        <time>2021-04-26T14:22:03.000Z</time>
      </trkpt>
      <trkpt lat="47.24235" lon="-1.46507">
        <ele>49</ele>
        <time>2021-04-26T14:22:05.000Z</time>
      </trkpt>
      <trkpt lat="47.24224" lon="-1.4652">
        <ele>49</ele>
        <time>2021-04-26T14:22:07.000Z</time>
      </trkpt>
      <trkpt lat="47.24214" lon="-1.46532">
        <ele>48</ele>
        <time>2021-04-26T14:22:09.000Z</time>
      </trkpt>
      <trkpt lat="47.24204" lon="-1.46544">
        <ele>47</ele>
        <time>2021-04-26T14:22:11.000Z</time>
      </trkpt>
      <trkpt lat="47.24194" lon="-1.46558">
        <ele>47</ele>
        <time>2021-04-26T14:22:13.000Z</time>
      </trkpt>
      <trkpt lat="47.24183" lon="-1.46571">
        <ele>47</ele>
        <time>2021-04-26T14:22:15.000Z</time>
      </trkpt>
      <trkpt lat="47.24172" lon="-1.46584">
        <ele>47</ele>
        <time>2021-04-26T14:22:17.000Z</time>
      </trkpt>
      <trkpt lat="47.24162" lon="-1.46597">
        <ele>47</ele>
        <time>2021-04-26T14:22:19.000Z</time>
      </trkpt>
      <trkpt lat="47.24152" lon="-1.4661">
        <ele>46</ele>
        <time>2021-04-26T14:22:21.000Z</time>
      </trkpt>
      <trkpt lat="47.24142" lon="-1.46624">
        <ele>46</ele>
        <time>2021-04-26T14:22:23.000Z</time>
      </trkpt>
      <trkpt lat="47.24132" lon="-1.46637">
        <ele>46</ele>
        <time>2021-04-26T14:22:25.000Z</time>
      </trkpt>
      <trkpt lat="47.24122" lon="-1.46652">
        <ele>46</ele>
        <time>2021-04-26T14:22:27.000Z</time>
      </trkpt>
      <trkpt lat="47.24112" lon="-1.46666">
        <ele>47</ele>
        <time>2021-04-26T14:22:29.000Z</time>
      </trkpt>
      <trkpt lat="47.24102" lon="-1.46681">
        <ele>47</ele>
        <time>2021-04-26T14:22:31.000Z</time>
      </trkpt>
      <trkpt lat="47.24092" lon="-1.46696">
        <ele>47</ele>
        <time>2021-04-26T14:22:33.000Z</time>
      </trkpt>
      <trkpt lat="47.24084" lon="-1.46711">
        <ele>47</ele>
        <time>2021-04-26T14:22:35.000Z</time>
      </trkpt>
      <trkpt lat="47.24074" lon="-1.46724">
        <ele>48</ele>
        <time>2021-04-26T14:22:37.000Z</time>
      </trkpt>
      <trkpt lat="47.24064" lon="-1.46739">
        <ele>48</ele>
        <time>2021-04-26T14:22:39.000Z</time>
      </trkpt>
      <trkpt lat="47.24052" lon="-1.46752">
        <ele>48</ele>
        <time>2021-04-26T14:22:41.000Z</time>
      </trkpt>
      <trkpt lat="47.2404" lon="-1.46764">
        <ele>47</ele>
        <time>2021-04-26T14:22:43.000Z</time>
      </trkpt>
      <trkpt lat="47.24028" lon="-1.46776">
        <ele>47</ele>
        <time>2021-04-26T14:22:45.000Z</time>
      </trkpt>
      <trkpt lat="47.24016" lon="-1.46789">
        <ele>48</ele>
        <time>2021-04-26T14:22:47.000Z</time>
      </trkpt>
      <trkpt lat="47.24005" lon="-1.46802">
        <ele>48</ele>
        <time>2021-04-26T14:22:49.000Z</time>
      </trkpt>
      <trkpt lat="47.23993" lon="-1.46814">
        <ele>48</ele>
        <time>2021-04-26T14:22:51.000Z</time>
      </trkpt>
      <trkpt lat="47.23982" lon="-1.46827">
        <ele>48</ele>
        <time>2021-04-26T14:22:53.000Z</time>
      </trkpt>
      <trkpt lat="47.2397" lon="-1.46839">
        <ele>47</ele>
        <time>2021-04-26T14:22:55.000Z</time>
      </trkpt>
      <trkpt lat="47.23959" lon="-1.4685">
        <ele>47</ele>
        <time>2021-04-26T14:22:57.000Z</time>
      </trkpt>
      <trkpt lat="47.23947" lon="-1.4686">
        <ele>47</ele>
        <time>2021-04-26T14:22:59.000Z</time>
      </trkpt>
      <trkpt lat="47.23935" lon="-1.46869">
        <ele>47</ele>
        <time>2021-04-26T14:23:01.000Z</time>
      </trkpt>
      <trkpt lat="47.23923" lon="-1.46881">
        <ele>47</ele>
        <time>2021-04-26T14:23:03.000Z</time>
      </trkpt>
      <trkpt lat="47.23911" lon="-1.46896">
        <ele>47</ele>
        <time>2021-04-26T14:23:05.000Z</time>
      </trkpt>
      <trkpt lat="47.239" lon="-1.4691">
        <ele>47</ele>
        <time>2021-04-26T14:23:07.000Z</time>
      </trkpt>
      <trkpt lat="47.2389" lon="-1.46925">
        <ele>47</ele>
        <time>2021-04-26T14:23:09.000Z</time>
      </trkpt>
      <trkpt lat="47.23879" lon="-1.4694">
        <ele>48</ele>
        <time>2021-04-26T14:23:11.000Z</time>
      </trkpt>
      <trkpt lat="47.23868" lon="-1.46955">
        <ele>48</ele>
        <time>2021-04-26T14:23:13.000Z</time>
      </trkpt>
      <trkpt lat="47.23856" lon="-1.4697">
        <ele>48</ele>
        <time>2021-04-26T14:23:15.000Z</time>
      </trkpt>
      <trkpt lat="47.23845" lon="-1.46985">
        <ele>48</ele>
        <time>2021-04-26T14:23:17.000Z</time>
      </trkpt>
      <trkpt lat="47.23834" lon="-1.47001">
        <ele>49</ele>
        <time>2021-04-26T14:23:19.000Z</time>
      </trkpt>
      <trkpt lat="47.23824" lon="-1.47016">
        <ele>49</ele>
        <time>2021-04-26T14:23:21.000Z</time>
      </trkpt>
      <trkpt lat="47.23814" lon="-1.47031">
        <ele>49</ele>
        <time>2021-04-26T14:23:23.000Z</time>
      </trkpt>
      <trkpt lat="47.23803" lon="-1.47046">
        <ele>50</ele>
        <time>2021-04-26T14:23:25.000Z</time>
      </trkpt>
      <trkpt lat="47.23793" lon="-1.4706">
        <ele>50</ele>
        <time>2021-04-26T14:23:27.000Z</time>
      </trkpt>
      <trkpt lat="47.23782" lon="-1.47075">
        <ele>50</ele>
        <time>2021-04-26T14:23:29.000Z</time>
      </trkpt>
      <trkpt lat="47.23772" lon="-1.47089">
        <ele>50</ele>
        <time>2021-04-26T14:23:31.000Z</time>
      </trkpt>
      <trkpt lat="47.23761" lon="-1.47104">
        <ele>50</ele>
        <time>2021-04-26T14:23:33.000Z</time>
      </trkpt>
      <trkpt lat="47.23751" lon="-1.47118">
        <ele>51</ele>
        <time>2021-04-26T14:23:35.000Z</time>
      </trkpt>
      <trkpt lat="47.2374" lon="-1.47131">
        <ele>51</ele>
        <time>2021-04-26T14:23:37.000Z</time>
      </trkpt>
      <trkpt lat="47.23728" lon="-1.47144">
        <ele>51</ele>
        <time>2021-04-26T14:23:39.000Z</time>
      </trkpt>
      <trkpt lat="47.23718" lon="-1.47158">
        <ele>50</ele>
        <time>2021-04-26T14:23:41.000Z</time>
      </trkpt>
      <trkpt lat="47.23708" lon="-1.47173">
        <ele>50</ele>
        <time>2021-04-26T14:23:43.000Z</time>
      </trkpt>
      <trkpt lat="47.23698" lon="-1.47188">
        <ele>50</ele>
        <time>2021-04-26T14:23:45.000Z</time>
      </trkpt>
      <trkpt lat="47.23688" lon="-1.47202">
        <ele>50</ele>
        <time>2021-04-26T14:23:47.000Z</time>
      </trkpt>
      <trkpt lat="47.23678" lon="-1.47219">
        <ele>50</ele>
        <time>2021-04-26T14:23:49.000Z</time>
      </trkpt>
      <trkpt lat="47.23666" lon="-1.47233">
        <ele>50</ele>
        <time>2021-04-26T14:23:51.000Z</time>
      </trkpt>
      <trkpt lat="47.23653" lon="-1.47247">
        <ele>49</ele>
        <time>2021-04-26T14:23:53.000Z</time>
      </trkpt>
      <trkpt lat="47.23642" lon="-1.4726">
        <ele>49</ele>
        <time>2021-04-26T14:23:55.000Z</time>
      </trkpt>
      <trkpt lat="47.2363" lon="-1.47274">
        <ele>50</ele>
        <time>2021-04-26T14:23:57.000Z</time>
      </trkpt>
      <trkpt lat="47.23619" lon="-1.47286">
        <ele>50</ele>
        <time>2021-04-26T14:23:59.000Z</time>
      </trkpt>
      <trkpt lat="47.23607" lon="-1.47298">
        <ele>50</ele>
        <time>2021-04-26T14:24:01.000Z</time>
      </trkpt>
      <trkpt lat="47.23596" lon="-1.4731">
        <ele>50</ele>
        <time>2021-04-26T14:24:03.000Z</time>
      </trkpt>
      <trkpt lat="47.23584" lon="-1.47322">
        <ele>50</ele>
        <time>2021-04-26T14:24:05.000Z</time>
      </trkpt>
      <trkpt lat="47.23571" lon="-1.47333">
        <ele>50</ele>
        <time>2021-04-26T14:24:07.000Z</time>
      </trkpt>
      <trkpt lat="47.23558" lon="-1.47342">
        <ele>50</ele>
        <time>2021-04-26T14:24:09.000Z</time>
      </trkpt>
      <trkpt lat="47.23546" lon="-1.47353">
        <ele>49</ele>
        <time>2021-04-26T14:24:11.000Z</time>
      </trkpt>
      <trkpt lat="47.23534" lon="-1.47363">
        <ele>49</ele>
        <time>2021-04-26T14:24:13.000Z</time>
      </trkpt>
      <trkpt lat="47.23522" lon="-1.47374">
        <ele>49</ele>
        <time>2021-04-26T14:24:15.000Z</time>
      </trkpt>
      <trkpt lat="47.2351" lon="-1.47384">
        <ele>48</ele>
        <time>2021-04-26T14:24:17.000Z</time>
      </trkpt>
      <trkpt lat="47.23497" lon="-1.47394">
        <ele>48</ele>
        <time>2021-04-26T14:24:19.000Z</time>
      </trkpt>
      <trkpt lat="47.23484" lon="-1.47402">
        <ele>48</ele>
        <time>2021-04-26T14:24:21.000Z</time>
      </trkpt>
      <trkpt lat="47.23471" lon="-1.47407">
        <ele>48</ele>
        <time>2021-04-26T14:24:23.000Z</time>
      </trkpt>
      <trkpt lat="47.23458" lon="-1.47412">
        <ele>48</ele>
        <time>2021-04-26T14:24:25.000Z</time>
      </trkpt>
      <trkpt lat="47.23444" lon="-1.47415">
        <ele>47</ele>
        <time>2021-04-26T14:24:27.000Z</time>
      </trkpt>
      <trkpt lat="47.23432" lon="-1.47421">
        <ele>47</ele>
        <time>2021-04-26T14:24:29.000Z</time>
      </trkpt>
      <trkpt lat="47.2342" lon="-1.4743">
        <ele>47</ele>
        <time>2021-04-26T14:24:31.000Z</time>
      </trkpt>
      <trkpt lat="47.23408" lon="-1.4744">
        <ele>47</ele>
        <time>2021-04-26T14:24:33.000Z</time>
      </trkpt>
      <trkpt lat="47.23394" lon="-1.47448">
        <ele>48</ele>
        <time>2021-04-26T14:24:35.000Z</time>
      </trkpt>
      <trkpt lat="47.23381" lon="-1.47455">
        <ele>48</ele>
        <time>2021-04-26T14:24:37.000Z</time>
      </trkpt>
      <trkpt lat="47.23367" lon="-1.47462">
        <ele>48</ele>
        <time>2021-04-26T14:24:39.000Z</time>
      </trkpt>
      <trkpt lat="47.23353" lon="-1.47469">
        <ele>48</ele>
        <time>2021-04-26T14:24:41.000Z</time>
      </trkpt>
      <trkpt lat="47.23341" lon="-1.47476">
        <ele>48</ele>
        <time>2021-04-26T14:24:43.000Z</time>
      </trkpt>
      <trkpt lat="47.23328" lon="-1.47486">
        <ele>48</ele>
        <time>2021-04-26T14:24:45.000Z</time>
      </trkpt>
      <trkpt lat="47.23316" lon="-1.47497">
        <ele>49</ele>
        <time>2021-04-26T14:24:47.000Z</time>
      </trkpt>
      <trkpt lat="47.23303" lon="-1.47504">
        <ele>48</ele>
        <time>2021-04-26T14:24:49.000Z</time>
      </trkpt>
      <trkpt lat="47.2329" lon="-1.47511">
        <ele>49</ele>
        <time>2021-04-26T14:24:51.000Z</time>
      </trkpt>
      <trkpt lat="47.23277" lon="-1.47519">
        <ele>48</ele>
        <time>2021-04-26T14:24:53.000Z</time>
      </trkpt>
      <trkpt lat="47.23266" lon="-1.47529">
        <ele>48</ele>
        <time>2021-04-26T14:24:55.000Z</time>
      </trkpt>
      <trkpt lat="47.23257" lon="-1.47544">
        <ele>48</ele>
        <time>2021-04-26T14:24:57.000Z</time>
      </trkpt>
      <trkpt lat="47.23248" lon="-1.4756">
        <ele>49</ele>
        <time>2021-04-26T14:24:59.000Z</time>
      </trkpt>
      <trkpt lat="47.23239" lon="-1.47576">
        <ele>50</ele>
        <time>2021-04-26T14:25:01.000Z</time>
      </trkpt>
      <trkpt lat="47.2323" lon="-1.47591">
        <ele>50</ele>
        <time>2021-04-26T14:25:03.000Z</time>
      </trkpt>
      <trkpt lat="47.23221" lon="-1.47607">
        <ele>51</ele>
        <time>2021-04-26T14:25:05.000Z</time>
      </trkpt>
      <trkpt lat="47.23214" lon="-1.47625">
        <ele>50</ele>
        <time>2021-04-26T14:25:07.000Z</time>
      </trkpt>
      <trkpt lat="47.23207" lon="-1.47642">
        <ele>50</ele>
        <time>2021-04-26T14:25:09.000Z</time>
      </trkpt>
      <trkpt lat="47.23201" lon="-1.47659">
        <ele>51</ele>
        <time>2021-04-26T14:25:11.000Z</time>
      </trkpt>
      <trkpt lat="47.23194" lon="-1.47676">
        <ele>51</ele>
        <time>2021-04-26T14:25:13.000Z</time>
      </trkpt>
      <trkpt lat="47.23187" lon="-1.47693">
        <ele>50</ele>
        <time>2021-04-26T14:25:15.000Z</time>
      </trkpt>
      <trkpt lat="47.23179" lon="-1.47711">
        <ele>51</ele>
        <time>2021-04-26T14:25:17.000Z</time>
      </trkpt>
      <trkpt lat="47.23171" lon="-1.47729">
        <ele>50</ele>
        <time>2021-04-26T14:25:19.000Z</time>
      </trkpt>
      <trkpt lat="47.23164" lon="-1.47745">
        <ele>50</ele>
        <time>2021-04-26T14:25:21.000Z</time>
      </trkpt>
      <trkpt lat="47.23156" lon="-1.47764">
        <ele>49</ele>
        <time>2021-04-26T14:25:23.000Z</time>
      </trkpt>
      <trkpt lat="47.23149" lon="-1.47781">
        <ele>50</ele>
        <time>2021-04-26T14:25:25.000Z</time>
      </trkpt>
      <trkpt lat="47.23142" lon="-1.47798">
        <ele>51</ele>
        <time>2021-04-26T14:25:27.000Z</time>
      </trkpt>
      <trkpt lat="47.23136" lon="-1.47815">
        <ele>51</ele>
        <time>2021-04-26T14:25:29.000Z</time>
      </trkpt>
      <trkpt lat="47.23129" lon="-1.47833">
        <ele>51</ele>
        <time>2021-04-26T14:25:31.000Z</time>
      </trkpt>
      <trkpt lat="47.23121" lon="-1.4785">
        <ele>50</ele>
        <time>2021-04-26T14:25:33.000Z</time>
      </trkpt>
      <trkpt lat="47.23113" lon="-1.47866">
        <ele>49</ele>
        <time>2021-04-26T14:25:35.000Z</time>
      </trkpt>
      <trkpt lat="47.23102" lon="-1.47881">
        <ele>48</ele>
        <time>2021-04-26T14:25:37.000Z</time>
      </trkpt>
      <trkpt lat="47.23092" lon="-1.47895">
        <ele>47</ele>
        <time>2021-04-26T14:25:39.000Z</time>
      </trkpt>
      <trkpt lat="47.23082" lon="-1.47909">
        <ele>46</ele>
        <time>2021-04-26T14:25:41.000Z</time>
      </trkpt>
      <trkpt lat="47.23072" lon="-1.47922">
        <ele>46</ele>
        <time>2021-04-26T14:25:43.000Z</time>
      </trkpt>
      <trkpt lat="47.23061" lon="-1.47935">
        <ele>46</ele>
        <time>2021-04-26T14:25:45.000Z</time>
      </trkpt>
      <trkpt lat="47.2305" lon="-1.47949">
        <ele>46</ele>
        <time>2021-04-26T14:25:47.000Z</time>
      </trkpt>
      <trkpt lat="47.23039" lon="-1.47963">
        <ele>47</ele>
        <time>2021-04-26T14:25:49.000Z</time>
      </trkpt>
      <trkpt lat="47.23029" lon="-1.47977">
        <ele>47</ele>
        <time>2021-04-26T14:25:51.000Z</time>
      </trkpt>
      <trkpt lat="47.2302" lon="-1.47991">
        <ele>47</ele>
        <time>2021-04-26T14:25:53.000Z</time>
      </trkpt>
      <trkpt lat="47.23011" lon="-1.48005">
        <ele>47</ele>
        <time>2021-04-26T14:25:55.000Z</time>
      </trkpt>
      <trkpt lat="47.23001" lon="-1.4802">
        <ele>47</ele>
        <time>2021-04-26T14:25:57.000Z</time>
      </trkpt>
      <trkpt lat="47.22992" lon="-1.48035">
        <ele>46</ele>
        <time>2021-04-26T14:25:59.000Z</time>
      </trkpt>
      <trkpt lat="47.22983" lon="-1.4805">
        <ele>46</ele>
        <time>2021-04-26T14:26:01.000Z</time>
      </trkpt>
      <trkpt lat="47.22974" lon="-1.48064">
        <ele>46</ele>
        <time>2021-04-26T14:26:03.000Z</time>
      </trkpt>
      <trkpt lat="47.22965" lon="-1.48079">
        <ele>46</ele>
        <time>2021-04-26T14:26:05.000Z</time>
      </trkpt>
      <trkpt lat="47.22956" lon="-1.48093">
        <ele>46</ele>
        <time>2021-04-26T14:26:07.000Z</time>
      </trkpt>
      <trkpt lat="47.22947" lon="-1.48106">
        <ele>46</ele>
        <time>2021-04-26T14:26:09.000Z</time>
      </trkpt>
      <trkpt lat="47.22933" lon="-1.48111">
        <ele>47</ele>
        <time>2021-04-26T14:26:11.000Z</time>
      </trkpt>
      <trkpt lat="47.2292" lon="-1.48114">
        <ele>47</ele>
        <time>2021-04-26T14:26:13.000Z</time>
      </trkpt>
      <trkpt lat="47.22907" lon="-1.4812">
        <ele>47</ele>
        <time>2021-04-26T14:26:15.000Z</time>
      </trkpt>
      <trkpt lat="47.22896" lon="-1.48133">
        <ele>47</ele>
        <time>2021-04-26T14:26:17.000Z</time>
      </trkpt>
      <trkpt lat="47.22886" lon="-1.48147">
        <ele>47</ele>
        <time>2021-04-26T14:26:19.000Z</time>
      </trkpt>
      <trkpt lat="47.22877" lon="-1.48162">
        <ele>47</ele>
        <time>2021-04-26T14:26:21.000Z</time>
      </trkpt>
      <trkpt lat="47.22867" lon="-1.48177">
        <ele>47</ele>
        <time>2021-04-26T14:26:23.000Z</time>
      </trkpt>
      <trkpt lat="47.22857" lon="-1.48193">
        <ele>48</ele>
        <time>2021-04-26T14:26:25.000Z</time>
      </trkpt>
      <trkpt lat="47.22848" lon="-1.48208">
        <ele>47</ele>
        <time>2021-04-26T14:26:27.000Z</time>
      </trkpt>
      <trkpt lat="47.22838" lon="-1.48223">
        <ele>48</ele>
        <time>2021-04-26T14:26:29.000Z</time>
      </trkpt>
      <trkpt lat="47.22828" lon="-1.48238">
        <ele>48</ele>
        <time>2021-04-26T14:26:31.000Z</time>
      </trkpt>
      <trkpt lat="47.22818" lon="-1.48252">
        <ele>48</ele>
        <time>2021-04-26T14:26:33.000Z</time>
      </trkpt>
      <trkpt lat="47.22809" lon="-1.48267">
        <ele>47</ele>
        <time>2021-04-26T14:26:35.000Z</time>
      </trkpt>
      <trkpt lat="47.22799" lon="-1.48283">
        <ele>47</ele>
        <time>2021-04-26T14:26:37.000Z</time>
      </trkpt>
      <trkpt lat="47.2279" lon="-1.483">
        <ele>48</ele>
        <time>2021-04-26T14:26:39.000Z</time>
      </trkpt>
      <trkpt lat="47.22781" lon="-1.48316">
        <ele>48</ele>
        <time>2021-04-26T14:26:41.000Z</time>
      </trkpt>
      <trkpt lat="47.22771" lon="-1.48331">
        <ele>48</ele>
        <time>2021-04-26T14:26:43.000Z</time>
      </trkpt>
      <trkpt lat="47.22761" lon="-1.48345">
        <ele>49</ele>
        <time>2021-04-26T14:26:45.000Z</time>
      </trkpt>
      <trkpt lat="47.2275" lon="-1.48358">
        <ele>49</ele>
        <time>2021-04-26T14:26:47.000Z</time>
      </trkpt>
      <trkpt lat="47.2274" lon="-1.48372">
        <ele>50</ele>
        <time>2021-04-26T14:26:49.000Z</time>
      </trkpt>
      <trkpt lat="47.22729" lon="-1.48385">
        <ele>50</ele>
        <time>2021-04-26T14:26:51.000Z</time>
      </trkpt>
      <trkpt lat="47.22719" lon="-1.48399">
        <ele>49</ele>
        <time>2021-04-26T14:26:53.000Z</time>
      </trkpt>
      <trkpt lat="47.2271" lon="-1.48413">
        <ele>49</ele>
        <time>2021-04-26T14:26:55.000Z</time>
      </trkpt>
      <trkpt lat="47.22702" lon="-1.48431">
        <ele>49</ele>
        <time>2021-04-26T14:26:57.000Z</time>
      </trkpt>
      <trkpt lat="47.22696" lon="-1.48449">
        <ele>49</ele>
        <time>2021-04-26T14:26:59.000Z</time>
      </trkpt>
      <trkpt lat="47.22689" lon="-1.48468">
        <ele>50</ele>
        <time>2021-04-26T14:27:01.000Z</time>
      </trkpt>
      <trkpt lat="47.22681" lon="-1.48484">
        <ele>50</ele>
        <time>2021-04-26T14:27:03.000Z</time>
      </trkpt>
      <trkpt lat="47.22673" lon="-1.48502">
        <ele>49</ele>
        <time>2021-04-26T14:27:05.000Z</time>
      </trkpt>
      <trkpt lat="47.22666" lon="-1.4852">
        <ele>50</ele>
        <time>2021-04-26T14:27:07.000Z</time>
      </trkpt>
      <trkpt lat="47.2266" lon="-1.48539">
        <ele>50</ele>
        <time>2021-04-26T14:27:09.000Z</time>
      </trkpt>
      <trkpt lat="47.22654" lon="-1.48557">
        <ele>49</ele>
        <time>2021-04-26T14:27:11.000Z</time>
      </trkpt>
      <trkpt lat="47.22647" lon="-1.48575">
        <ele>49</ele>
        <time>2021-04-26T14:27:13.000Z</time>
      </trkpt>
      <trkpt lat="47.2264" lon="-1.48593">
        <ele>49</ele>
        <time>2021-04-26T14:27:15.000Z</time>
      </trkpt>
      <trkpt lat="47.22633" lon="-1.4861">
        <ele>49</ele>
        <time>2021-04-26T14:27:17.000Z</time>
      </trkpt>
      <trkpt lat="47.22628" lon="-1.48628">
        <ele>50</ele>
        <time>2021-04-26T14:27:19.000Z</time>
      </trkpt>
      <trkpt lat="47.22621" lon="-1.48646">
        <ele>50</ele>
        <time>2021-04-26T14:27:21.000Z</time>
      </trkpt>
      <trkpt lat="47.22615" lon="-1.48665">
        <ele>50</ele>
        <time>2021-04-26T14:27:23.000Z</time>
      </trkpt>
      <trkpt lat="47.22609" lon="-1.48684">
        <ele>51</ele>
        <time>2021-04-26T14:27:25.000Z</time>
      </trkpt>
      <trkpt lat="47.22603" lon="-1.48703">
        <ele>51</ele>
        <time>2021-04-26T14:27:27.000Z</time>
      </trkpt>
      <trkpt lat="47.22598" lon="-1.48722">
        <ele>51</ele>
        <time>2021-04-26T14:27:29.000Z</time>
      </trkpt>
      <trkpt lat="47.22594" lon="-1.48741">
        <ele>52</ele>
        <time>2021-04-26T14:27:31.000Z</time>
      </trkpt>
      <trkpt lat="47.22589" lon="-1.4876">
        <ele>52</ele>
        <time>2021-04-26T14:27:33.000Z</time>
      </trkpt>
      <trkpt lat="47.22584" lon="-1.48779">
        <ele>52</ele>
        <time>2021-04-26T14:27:35.000Z</time>
      </trkpt>
      <trkpt lat="47.22578" lon="-1.48799">
        <ele>51</ele>
        <time>2021-04-26T14:27:37.000Z</time>
      </trkpt>
      <trkpt lat="47.22571" lon="-1.48817">
        <ele>52</ele>
        <time>2021-04-26T14:27:39.000Z</time>
      </trkpt>
      <trkpt lat="47.22565" lon="-1.48835">
        <ele>52</ele>
        <time>2021-04-26T14:27:41.000Z</time>
      </trkpt>
      <trkpt lat="47.2256" lon="-1.48852">
        <ele>52</ele>
        <time>2021-04-26T14:27:43.000Z</time>
      </trkpt>
      <trkpt lat="47.22554" lon="-1.4887">
        <ele>52</ele>
        <time>2021-04-26T14:27:45.000Z</time>
      </trkpt>
      <trkpt lat="47.22549" lon="-1.48889">
        <ele>53</ele>
        <time>2021-04-26T14:27:47.000Z</time>
      </trkpt>
      <trkpt lat="47.22542" lon="-1.48908">
        <ele>53</ele>
        <time>2021-04-26T14:27:49.000Z</time>
      </trkpt>
      <trkpt lat="47.22536" lon="-1.48929">
        <ele>52</ele>
        <time>2021-04-26T14:27:51.000Z</time>
      </trkpt>
      <trkpt lat="47.2253" lon="-1.48948">
        <ele>51</ele>
        <time>2021-04-26T14:27:53.000Z</time>
      </trkpt>
      <trkpt lat="47.22524" lon="-1.48966">
        <ele>51</ele>
        <time>2021-04-26T14:27:55.000Z</time>
      </trkpt>
      <trkpt lat="47.22517" lon="-1.48985">
        <ele>51</ele>
        <time>2021-04-26T14:27:57.000Z</time>
      </trkpt>
      <trkpt lat="47.22511" lon="-1.49004">
        <ele>51</ele>
        <time>2021-04-26T14:27:59.000Z</time>
      </trkpt>
      <trkpt lat="47.22505" lon="-1.49023">
        <ele>51</ele>
        <time>2021-04-26T14:28:01.000Z</time>
      </trkpt>
      <trkpt lat="47.22498" lon="-1.49042">
        <ele>51</ele>
        <time>2021-04-26T14:28:03.000Z</time>
      </trkpt>
      <trkpt lat="47.22493" lon="-1.49062">
        <ele>51</ele>
        <time>2021-04-26T14:28:05.000Z</time>
      </trkpt>
      <trkpt lat="47.22487" lon="-1.49082">
        <ele>52</ele>
        <time>2021-04-26T14:28:07.000Z</time>
      </trkpt>
      <trkpt lat="47.22482" lon="-1.49102">
        <ele>52</ele>
        <time>2021-04-26T14:28:09.000Z</time>
      </trkpt>
      <trkpt lat="47.22476" lon="-1.49124">
        <ele>52</ele>
        <time>2021-04-26T14:28:11.000Z</time>
      </trkpt>
      <trkpt lat="47.22471" lon="-1.49144">
        <ele>51</ele>
        <time>2021-04-26T14:28:13.000Z</time>
      </trkpt>
      <trkpt lat="47.22464" lon="-1.49164">
        <ele>51</ele>
        <time>2021-04-26T14:28:15.000Z</time>
      </trkpt>
      <trkpt lat="47.22456" lon="-1.49182">
        <ele>52</ele>
        <time>2021-04-26T14:28:17.000Z</time>
      </trkpt>
      <trkpt lat="47.22449" lon="-1.49201">
        <ele>52</ele>
        <time>2021-04-26T14:28:19.000Z</time>
      </trkpt>
      <trkpt lat="47.22442" lon="-1.4922">
        <ele>52</ele>
        <time>2021-04-26T14:28:21.000Z</time>
      </trkpt>
      <trkpt lat="47.22435" lon="-1.49239">
        <ele>52</ele>
        <time>2021-04-26T14:28:23.000Z</time>
      </trkpt>
      <trkpt lat="47.22427" lon="-1.49257">
        <ele>52</ele>
        <time>2021-04-26T14:28:25.000Z</time>
      </trkpt>
      <trkpt lat="47.22419" lon="-1.49275">
        <ele>52</ele>
        <time>2021-04-26T14:28:27.000Z</time>
      </trkpt>
      <trkpt lat="47.22412" lon="-1.49294">
        <ele>52</ele>
        <time>2021-04-26T14:28:29.000Z</time>
      </trkpt>
      <trkpt lat="47.22405" lon="-1.49313">
        <ele>52</ele>
        <time>2021-04-26T14:28:31.000Z</time>
      </trkpt>
      <trkpt lat="47.22399" lon="-1.49332">
        <ele>52</ele>
        <time>2021-04-26T14:28:33.000Z</time>
      </trkpt>
      <trkpt lat="47.22392" lon="-1.49351">
        <ele>52</ele>
        <time>2021-04-26T14:28:35.000Z</time>
      </trkpt>
      <trkpt lat="47.22384" lon="-1.49368">
        <ele>52</ele>
        <time>2021-04-26T14:28:37.000Z</time>
      </trkpt>
      <trkpt lat="47.22376" lon="-1.49386">
        <ele>53</ele>
        <time>2021-04-26T14:28:39.000Z</time>
      </trkpt>
      <trkpt lat="47.22368" lon="-1.49404">
        <ele>54</ele>
        <time>2021-04-26T14:28:41.000Z</time>
      </trkpt>
      <trkpt lat="47.2236" lon="-1.49421">
        <ele>55</ele>
        <time>2021-04-26T14:28:43.000Z</time>
      </trkpt>
      <trkpt lat="47.22353" lon="-1.49439">
        <ele>55</ele>
        <time>2021-04-26T14:28:45.000Z</time>
      </trkpt>
      <trkpt lat="47.22347" lon="-1.49457">
        <ele>56</ele>
        <time>2021-04-26T14:28:47.000Z</time>
      </trkpt>
      <trkpt lat="47.22342" lon="-1.49475">
        <ele>56</ele>
        <time>2021-04-26T14:28:49.000Z</time>
      </trkpt>
      <trkpt lat="47.22336" lon="-1.49494">
        <ele>57</ele>
        <time>2021-04-26T14:28:51.000Z</time>
      </trkpt>
      <trkpt lat="47.22331" lon="-1.49512">
        <ele>57</ele>
        <time>2021-04-26T14:28:53.000Z</time>
      </trkpt>
      <trkpt lat="47.22325" lon="-1.49532">
        <ele>56</ele>
        <time>2021-04-26T14:28:55.000Z</time>
      </trkpt>
      <trkpt lat="47.22318" lon="-1.4955">
        <ele>57</ele>
        <time>2021-04-26T14:28:57.000Z</time>
      </trkpt>
      <trkpt lat="47.22312" lon="-1.49568">
        <ele>57</ele>
        <time>2021-04-26T14:28:59.000Z</time>
      </trkpt>
      <trkpt lat="47.22306" lon="-1.49586">
        <ele>57</ele>
        <time>2021-04-26T14:29:01.000Z</time>
      </trkpt>
      <trkpt lat="47.22299" lon="-1.49604">
        <ele>57</ele>
        <time>2021-04-26T14:29:03.000Z</time>
      </trkpt>
      <trkpt lat="47.22294" lon="-1.49623">
        <ele>56</ele>
        <time>2021-04-26T14:29:05.000Z</time>
      </trkpt>
      <trkpt lat="47.22289" lon="-1.49641">
        <ele>56</ele>
        <time>2021-04-26T14:29:07.000Z</time>
      </trkpt>
      <trkpt lat="47.22284" lon="-1.4966">
        <ele>56</ele>
        <time>2021-04-26T14:29:09.000Z</time>
      </trkpt>
      <trkpt lat="47.22278" lon="-1.49678">
        <ele>55</ele>
        <time>2021-04-26T14:29:11.000Z</time>
      </trkpt>
      <trkpt lat="47.22272" lon="-1.49696">
        <ele>55</ele>
        <time>2021-04-26T14:29:13.000Z</time>
      </trkpt>
      <trkpt lat="47.22265" lon="-1.49714">
        <ele>55</ele>
        <time>2021-04-26T14:29:15.000Z</time>
      </trkpt>
      <trkpt lat="47.2226" lon="-1.49732">
        <ele>55</ele>
        <time>2021-04-26T14:29:17.000Z</time>
      </trkpt>
      <trkpt lat="47.22255" lon="-1.49751">
        <ele>56</ele>
        <time>2021-04-26T14:29:19.000Z</time>
      </trkpt>
      <trkpt lat="47.22252" lon="-1.49771">
        <ele>56</ele>
        <time>2021-04-26T14:29:21.000Z</time>
      </trkpt>
      <trkpt lat="47.2225" lon="-1.49791">
        <ele>55</ele>
        <time>2021-04-26T14:29:23.000Z</time>
      </trkpt>
      <trkpt lat="47.22246" lon="-1.49811">
        <ele>54</ele>
        <time>2021-04-26T14:29:25.000Z</time>
      </trkpt>
      <trkpt lat="47.22242" lon="-1.49831">
        <ele>54</ele>
        <time>2021-04-26T14:29:27.000Z</time>
      </trkpt>
      <trkpt lat="47.22237" lon="-1.49849">
        <ele>54</ele>
        <time>2021-04-26T14:29:29.000Z</time>
      </trkpt>
      <trkpt lat="47.22232" lon="-1.49868">
        <ele>54</ele>
        <time>2021-04-26T14:29:31.000Z</time>
      </trkpt>
      <trkpt lat="47.22228" lon="-1.49888">
        <ele>55</ele>
        <time>2021-04-26T14:29:33.000Z</time>
      </trkpt>
      <trkpt lat="47.22224" lon="-1.49907">
        <ele>54</ele>
        <time>2021-04-26T14:29:35.000Z</time>
      </trkpt>
      <trkpt lat="47.22219" lon="-1.49926">
        <ele>55</ele>
        <time>2021-04-26T14:29:37.000Z</time>
      </trkpt>
      <trkpt lat="47.22214" lon="-1.49946">
        <ele>55</ele>
        <time>2021-04-26T14:29:39.000Z</time>
      </trkpt>
      <trkpt lat="47.2221" lon="-1.49965">
        <ele>56</ele>
        <time>2021-04-26T14:29:41.000Z</time>
      </trkpt>
      <trkpt lat="47.22205" lon="-1.49983">
        <ele>56</ele>
        <time>2021-04-26T14:29:43.000Z</time>
      </trkpt>
      <trkpt lat="47.22199" lon="-1.50001">
        <ele>56</ele>
        <time>2021-04-26T14:29:45.000Z</time>
      </trkpt>
      <trkpt lat="47.22193" lon="-1.5002">
        <ele>55</ele>
        <time>2021-04-26T14:29:47.000Z</time>
      </trkpt>
      <trkpt lat="47.22189" lon="-1.5004">
        <ele>55</ele>
        <time>2021-04-26T14:29:49.000Z</time>
      </trkpt>
      <trkpt lat="47.22185" lon="-1.5006">
        <ele>55</ele>
        <time>2021-04-26T14:29:51.000Z</time>
      </trkpt>
      <trkpt lat="47.22181" lon="-1.5008">
        <ele>54</ele>
        <time>2021-04-26T14:29:53.000Z</time>
      </trkpt>
      <trkpt lat="47.22176" lon="-1.501">
        <ele>54</ele>
        <time>2021-04-26T14:29:55.000Z</time>
      </trkpt>
      <trkpt lat="47.2217" lon="-1.50118">
        <ele>55</ele>
        <time>2021-04-26T14:29:57.000Z</time>
      </trkpt>
      <trkpt lat="47.22163" lon="-1.50135">
        <ele>55</ele>
        <time>2021-04-26T14:29:59.000Z</time>
      </trkpt>
      <trkpt lat="47.22157" lon="-1.50153">
        <ele>54</ele>
        <time>2021-04-26T14:30:01.000Z</time>
      </trkpt>
      <trkpt lat="47.22151" lon="-1.50172">
        <ele>54</ele>
        <time>2021-04-26T14:30:03.000Z</time>
      </trkpt>
      <trkpt lat="47.22148" lon="-1.50192">
        <ele>54</ele>
        <time>2021-04-26T14:30:05.000Z</time>
      </trkpt>
      <trkpt lat="47.22144" lon="-1.50212">
        <ele>53</ele>
        <time>2021-04-26T14:30:07.000Z</time>
      </trkpt>
      <trkpt lat="47.22139" lon="-1.50231">
        <ele>53</ele>
        <time>2021-04-26T14:30:09.000Z</time>
      </trkpt>
      <trkpt lat="47.22132" lon="-1.50249">
        <ele>53</ele>
        <time>2021-04-26T14:30:11.000Z</time>
      </trkpt>
      <trkpt lat="47.22127" lon="-1.50268">
        <ele>52</ele>
        <time>2021-04-26T14:30:13.000Z</time>
      </trkpt>
      <trkpt lat="47.2212" lon="-1.50287">
        <ele>53</ele>
        <time>2021-04-26T14:30:15.000Z</time>
      </trkpt>
      <trkpt lat="47.22111" lon="-1.50305">
        <ele>54</ele>
        <time>2021-04-26T14:30:17.000Z</time>
      </trkpt>
      <trkpt lat="47.22102" lon="-1.50321">
        <ele>55</ele>
        <time>2021-04-26T14:30:19.000Z</time>
      </trkpt>
      <trkpt lat="47.22094" lon="-1.50337">
        <ele>55</ele>
        <time>2021-04-26T14:30:21.000Z</time>
      </trkpt>
      <trkpt lat="47.22088" lon="-1.50356">
        <ele>55</ele>
        <time>2021-04-26T14:30:23.000Z</time>
      </trkpt>
      <trkpt lat="47.22084" lon="-1.50376">
        <ele>55</ele>
        <time>2021-04-26T14:30:25.000Z</time>
      </trkpt>
      <trkpt lat="47.22078" lon="-1.50395">
        <ele>54</ele>
        <time>2021-04-26T14:30:27.000Z</time>
      </trkpt>
      <trkpt lat="47.22073" lon="-1.50415">
        <ele>54</ele>
        <time>2021-04-26T14:30:29.000Z</time>
      </trkpt>
      <trkpt lat="47.22069" lon="-1.50435">
        <ele>54</ele>
        <time>2021-04-26T14:30:31.000Z</time>
      </trkpt>
      <trkpt lat="47.22065" lon="-1.50456">
        <ele>53</ele>
        <time>2021-04-26T14:30:33.000Z</time>
      </trkpt>
      <trkpt lat="47.22062" lon="-1.50476">
        <ele>53</ele>
        <time>2021-04-26T14:30:35.000Z</time>
      </trkpt>
      <trkpt lat="47.22061" lon="-1.50495">
        <ele>53</ele>
        <time>2021-04-26T14:30:37.000Z</time>
      </trkpt>
      <trkpt lat="47.2206" lon="-1.50514">
        <ele>53</ele>
        <time>2021-04-26T14:30:39.000Z</time>
      </trkpt>
      <trkpt lat="47.22058" lon="-1.50535">
        <ele>53</ele>
        <time>2021-04-26T14:30:41.000Z</time>
      </trkpt>
      <trkpt lat="47.22057" lon="-1.50556">
        <ele>53</ele>
        <time>2021-04-26T14:30:43.000Z</time>
      </trkpt>
      <trkpt lat="47.22056" lon="-1.50576">
        <ele>54</ele>
        <time>2021-04-26T14:30:45.000Z</time>
      </trkpt>
      <trkpt lat="47.22056" lon="-1.50596">
        <ele>53</ele>
        <time>2021-04-26T14:30:47.000Z</time>
      </trkpt>
      <trkpt lat="47.22054" lon="-1.50616">
        <ele>53</ele>
        <time>2021-04-26T14:30:49.000Z</time>
      </trkpt>
      <trkpt lat="47.22053" lon="-1.50637">
        <ele>53</ele>
        <time>2021-04-26T14:30:51.000Z</time>
      </trkpt>
      <trkpt lat="47.22052" lon="-1.50658">
        <ele>54</ele>
        <time>2021-04-26T14:30:53.000Z</time>
      </trkpt>
      <trkpt lat="47.2205" lon="-1.50678">
        <ele>54</ele>
        <time>2021-04-26T14:30:55.000Z</time>
      </trkpt>
      <trkpt lat="47.22048" lon="-1.50698">
        <ele>54</ele>
        <time>2021-04-26T14:30:57.000Z</time>
      </trkpt>
      <trkpt lat="47.22047" lon="-1.50718">
        <ele>53</ele>
        <time>2021-04-26T14:30:59.000Z</time>
      </trkpt>
      <trkpt lat="47.22045" lon="-1.50739">
        <ele>53</ele>
        <time>2021-04-26T14:31:01.000Z</time>
      </trkpt>
      <trkpt lat="47.22043" lon="-1.5076">
        <ele>53</ele>
        <time>2021-04-26T14:31:03.000Z</time>
      </trkpt>
      <trkpt lat="47.22041" lon="-1.5078">
        <ele>54</ele>
        <time>2021-04-26T14:31:05.000Z</time>
      </trkpt>
      <trkpt lat="47.22035" lon="-1.50799">
        <ele>54</ele>
        <time>2021-04-26T14:31:07.000Z</time>
      </trkpt>
      <trkpt lat="47.22029" lon="-1.50817">
        <ele>54</ele>
        <time>2021-04-26T14:31:09.000Z</time>
      </trkpt>
      <trkpt lat="47.22021" lon="-1.50833">
        <ele>53</ele>
        <time>2021-04-26T14:31:11.000Z</time>
      </trkpt>
      <trkpt lat="47.22013" lon="-1.50851">
        <ele>54</ele>
        <time>2021-04-26T14:31:13.000Z</time>
      </trkpt>
      <trkpt lat="47.22004" lon="-1.50869">
        <ele>54</ele>
        <time>2021-04-26T14:31:15.000Z</time>
      </trkpt>
      <trkpt lat="47.21997" lon="-1.50887">
        <ele>54</ele>
        <time>2021-04-26T14:31:17.000Z</time>
      </trkpt>
      <trkpt lat="47.21991" lon="-1.50905">
        <ele>54</ele>
        <time>2021-04-26T14:31:19.000Z</time>
      </trkpt>
      <trkpt lat="47.21985" lon="-1.50923">
        <ele>54</ele>
        <time>2021-04-26T14:31:21.000Z</time>
      </trkpt>
      <trkpt lat="47.2198" lon="-1.50943">
        <ele>53</ele>
        <time>2021-04-26T14:31:23.000Z</time>
      </trkpt>
      <trkpt lat="47.21975" lon="-1.50961">
        <ele>53</ele>
        <time>2021-04-26T14:31:25.000Z</time>
      </trkpt>
      <trkpt lat="47.2197" lon="-1.5098">
        <ele>53</ele>
        <time>2021-04-26T14:31:27.000Z</time>
      </trkpt>
      <trkpt lat="47.21964" lon="-1.50998">
        <ele>52</ele>
        <time>2021-04-26T14:31:29.000Z</time>
      </trkpt>
      <trkpt lat="47.21959" lon="-1.51016">
        <ele>52</ele>
        <time>2021-04-26T14:31:31.000Z</time>
      </trkpt>
      <trkpt lat="47.21954" lon="-1.51035">
        <ele>52</ele>
        <time>2021-04-26T14:31:33.000Z</time>
      </trkpt>
      <trkpt lat="47.21949" lon="-1.51053">
        <ele>52</ele>
        <time>2021-04-26T14:31:35.000Z</time>
      </trkpt>
      <trkpt lat="47.21941" lon="-1.51066">
        <ele>53</ele>
        <time>2021-04-26T14:31:37.000Z</time>
      </trkpt>
      <trkpt lat="47.21932" lon="-1.51081">
        <ele>53</ele>
        <time>2021-04-26T14:31:39.000Z</time>
      </trkpt>
      <trkpt lat="47.21925" lon="-1.51099">
        <ele>52</ele>
        <time>2021-04-26T14:31:41.000Z</time>
      </trkpt>
      <trkpt lat="47.21919" lon="-1.51118">
        <ele>52</ele>
        <time>2021-04-26T14:31:43.000Z</time>
      </trkpt>
      <trkpt lat="47.21913" lon="-1.51138">
        <ele>52</ele>
        <time>2021-04-26T14:31:45.000Z</time>
      </trkpt>
      <trkpt lat="47.21907" lon="-1.51157">
        <ele>53</ele>
        <time>2021-04-26T14:31:47.000Z</time>
      </trkpt>
      <trkpt lat="47.21901" lon="-1.51176">
        <ele>53</ele>
        <time>2021-04-26T14:31:49.000Z</time>
      </trkpt>
      <trkpt lat="47.21895" lon="-1.51194">
        <ele>53</ele>
        <time>2021-04-26T14:31:51.000Z</time>
      </trkpt>
      <trkpt lat="47.21889" lon="-1.51214">
        <ele>52</ele>
        <time>2021-04-26T14:31:53.000Z</time>
      </trkpt>
      <trkpt lat="47.21882" lon="-1.51234">
        <ele>52</ele>
        <time>2021-04-26T14:31:55.000Z</time>
      </trkpt>
      <trkpt lat="47.21875" lon="-1.51253">
        <ele>53</ele>
        <time>2021-04-26T14:31:57.000Z</time>
      </trkpt>
      <trkpt lat="47.21869" lon="-1.51273">
        <ele>52</ele>
        <time>2021-04-26T14:31:59.000Z</time>
      </trkpt>
      <trkpt lat="47.21863" lon="-1.51293">
        <ele>52</ele>
        <time>2021-04-26T14:32:01.000Z</time>
      </trkpt>
      <trkpt lat="47.21857" lon="-1.51312">
        <ele>52</ele>
        <time>2021-04-26T14:32:03.000Z</time>
      </trkpt>
      <trkpt lat="47.21851" lon="-1.51331">
        <ele>52</ele>
        <time>2021-04-26T14:32:05.000Z</time>
      </trkpt>
      <trkpt lat="47.21846" lon="-1.5135">
        <ele>52</ele>
        <time>2021-04-26T14:32:07.000Z</time>
      </trkpt>
      <trkpt lat="47.21841" lon="-1.51369">
        <ele>52</ele>
        <time>2021-04-26T14:32:09.000Z</time>
      </trkpt>
      <trkpt lat="47.21835" lon="-1.51388">
        <ele>52</ele>
        <time>2021-04-26T14:32:11.000Z</time>
      </trkpt>
      <trkpt lat="47.21831" lon="-1.51407">
        <ele>52</ele>
        <time>2021-04-26T14:32:13.000Z</time>
      </trkpt>
      <trkpt lat="47.21827" lon="-1.51427">
        <ele>52</ele>
        <time>2021-04-26T14:32:15.000Z</time>
      </trkpt>
      <trkpt lat="47.21823" lon="-1.51446">
        <ele>52</ele>
        <time>2021-04-26T14:32:17.000Z</time>
      </trkpt>
      <trkpt lat="47.2182" lon="-1.51465">
        <ele>52</ele>
        <time>2021-04-26T14:32:19.000Z</time>
      </trkpt>
      <trkpt lat="47.21816" lon="-1.51484">
        <ele>52</ele>
        <time>2021-04-26T14:32:21.000Z</time>
      </trkpt>
      <trkpt lat="47.2181" lon="-1.51502">
        <ele>52</ele>
        <time>2021-04-26T14:32:23.000Z</time>
      </trkpt>
      <trkpt lat="47.21802" lon="-1.51518">
        <ele>52</ele>
        <time>2021-04-26T14:32:25.000Z</time>
      </trkpt>
      <trkpt lat="47.21795" lon="-1.51536">
        <ele>52</ele>
        <time>2021-04-26T14:32:27.000Z</time>
      </trkpt>
      <trkpt lat="47.21788" lon="-1.51554">
        <ele>53</ele>
        <time>2021-04-26T14:32:29.000Z</time>
      </trkpt>
      <trkpt lat="47.2178" lon="-1.5157">
        <ele>53</ele>
        <time>2021-04-26T14:32:31.000Z</time>
      </trkpt>
      <trkpt lat="47.21772" lon="-1.51586">
        <ele>53</ele>
        <time>2021-04-26T14:32:33.000Z</time>
      </trkpt>
      <trkpt lat="47.21761" lon="-1.51599">
        <ele>53</ele>
        <time>2021-04-26T14:32:35.000Z</time>
      </trkpt>
      <trkpt lat="47.21752" lon="-1.51614">
        <ele>53</ele>
        <time>2021-04-26T14:32:37.000Z</time>
      </trkpt>
      <trkpt lat="47.21743" lon="-1.5163">
        <ele>53</ele>
        <time>2021-04-26T14:32:39.000Z</time>
      </trkpt>
      <trkpt lat="47.21736" lon="-1.51647">
        <ele>53</ele>
        <time>2021-04-26T14:32:41.000Z</time>
      </trkpt>
      <trkpt lat="47.21728" lon="-1.51663">
        <ele>53</ele>
        <time>2021-04-26T14:32:43.000Z</time>
      </trkpt>
      <trkpt lat="47.21721" lon="-1.51681">
        <ele>53</ele>
        <time>2021-04-26T14:32:45.000Z</time>
      </trkpt>
      <trkpt lat="47.21713" lon="-1.51698">
        <ele>53</ele>
        <time>2021-04-26T14:32:47.000Z</time>
      </trkpt>
      <trkpt lat="47.21706" lon="-1.51715">
        <ele>53</ele>
        <time>2021-04-26T14:32:49.000Z</time>
      </trkpt>
      <trkpt lat="47.21698" lon="-1.51733">
        <ele>53</ele>
        <time>2021-04-26T14:32:51.000Z</time>
      </trkpt>
      <trkpt lat="47.21691" lon="-1.51751">
        <ele>53</ele>
        <time>2021-04-26T14:32:53.000Z</time>
      </trkpt>
      <trkpt lat="47.21683" lon="-1.51768">
        <ele>53</ele>
        <time>2021-04-26T14:32:55.000Z</time>
      </trkpt>
      <trkpt lat="47.21675" lon="-1.51785">
        <ele>53</ele>
        <time>2021-04-26T14:32:57.000Z</time>
      </trkpt>
      <trkpt lat="47.21668" lon="-1.51802">
        <ele>53</ele>
        <time>2021-04-26T14:32:59.000Z</time>
      </trkpt>
      <trkpt lat="47.2166" lon="-1.51818">
        <ele>54</ele>
        <time>2021-04-26T14:33:01.000Z</time>
      </trkpt>
      <trkpt lat="47.21653" lon="-1.51837">
        <ele>53</ele>
        <time>2021-04-26T14:33:03.000Z</time>
      </trkpt>
      <trkpt lat="47.21648" lon="-1.51856">
        <ele>54</ele>
        <time>2021-04-26T14:33:05.000Z</time>
      </trkpt>
      <trkpt lat="47.21644" lon="-1.51875">
        <ele>54</ele>
        <time>2021-04-26T14:33:07.000Z</time>
      </trkpt>
      <trkpt lat="47.21638" lon="-1.51893">
        <ele>54</ele>
        <time>2021-04-26T14:33:09.000Z</time>
      </trkpt>
      <trkpt lat="47.2163" lon="-1.5191">
        <ele>54</ele>
        <time>2021-04-26T14:33:11.000Z</time>
      </trkpt>
      <trkpt lat="47.21625" lon="-1.51927">
        <ele>54</ele>
        <time>2021-04-26T14:33:13.000Z</time>
      </trkpt>
      <trkpt lat="47.21621" lon="-1.51946">
        <ele>53</ele>
        <time>2021-04-26T14:33:15.000Z</time>
      </trkpt>
      <trkpt lat="47.21618" lon="-1.51965">
        <ele>53</ele>
        <time>2021-04-26T14:33:17.000Z</time>
      </trkpt>
      <trkpt lat="47.2161" lon="-1.51983">
        <ele>53</ele>
        <time>2021-04-26T14:33:19.000Z</time>
      </trkpt>
      <trkpt lat="47.21601" lon="-1.52001">
        <ele>53</ele>
        <time>2021-04-26T14:33:21.000Z</time>
      </trkpt>
      <trkpt lat="47.21594" lon="-1.52022">
        <ele>54</ele>
        <time>2021-04-26T14:33:23.000Z</time>
      </trkpt>
      <trkpt lat="47.21587" lon="-1.52043">
        <ele>53</ele>
        <time>2021-04-26T14:33:25.000Z</time>
      </trkpt>
      <trkpt lat="47.2158" lon="-1.52064">
        <ele>52</ele>
        <time>2021-04-26T14:33:27.000Z</time>
      </trkpt>
      <trkpt lat="47.21574" lon="-1.52084">
        <ele>52</ele>
        <time>2021-04-26T14:33:29.000Z</time>
      </trkpt>
      <trkpt lat="47.21567" lon="-1.52105">
        <ele>52</ele>
        <time>2021-04-26T14:33:31.000Z</time>
      </trkpt>
      <trkpt lat="47.21561" lon="-1.52125">
        <ele>53</ele>
        <time>2021-04-26T14:33:33.000Z</time>
      </trkpt>
      <trkpt lat="47.21554" lon="-1.52145">
        <ele>53</ele>
        <time>2021-04-26T14:33:35.000Z</time>
      </trkpt>
      <trkpt lat="47.21547" lon="-1.52165">
        <ele>53</ele>
        <time>2021-04-26T14:33:37.000Z</time>
      </trkpt>
      <trkpt lat="47.21541" lon="-1.52185">
        <ele>53</ele>
        <time>2021-04-26T14:33:39.000Z</time>
      </trkpt>
      <trkpt lat="47.21534" lon="-1.52205">
        <ele>53</ele>
        <time>2021-04-26T14:33:41.000Z</time>
      </trkpt>
      <trkpt lat="47.21528" lon="-1.52225">
        <ele>53</ele>
        <time>2021-04-26T14:33:43.000Z</time>
      </trkpt>
      <trkpt lat="47.21522" lon="-1.52245">
        <ele>53</ele>
        <time>2021-04-26T14:33:45.000Z</time>
      </trkpt>
      <trkpt lat="47.21516" lon="-1.52265">
        <ele>53</ele>
        <time>2021-04-26T14:33:47.000Z</time>
      </trkpt>
      <trkpt lat="47.21511" lon="-1.52286">
        <ele>54</ele>
        <time>2021-04-26T14:33:49.000Z</time>
      </trkpt>
      <trkpt lat="47.21505" lon="-1.52305">
        <ele>54</ele>
        <time>2021-04-26T14:33:51.000Z</time>
      </trkpt>
      <trkpt lat="47.21499" lon="-1.52324">
        <ele>55</ele>
        <time>2021-04-26T14:33:53.000Z</time>
      </trkpt>
      <trkpt lat="47.21493" lon="-1.52343">
        <ele>55</ele>
        <time>2021-04-26T14:33:55.000Z</time>
      </trkpt>
      <trkpt lat="47.21487" lon="-1.52362">
        <ele>56</ele>
        <time>2021-04-26T14:33:57.000Z</time>
      </trkpt>
      <trkpt lat="47.21481" lon="-1.52382">
        <ele>56</ele>
        <time>2021-04-26T14:33:59.000Z</time>
      </trkpt>
      <trkpt lat="47.21474" lon="-1.52401">
        <ele>56</ele>
        <time>2021-04-26T14:34:01.000Z</time>
      </trkpt>
      <trkpt lat="47.21467" lon="-1.52421">
        <ele>56</ele>
        <time>2021-04-26T14:34:03.000Z</time>
      </trkpt>
      <trkpt lat="47.21461" lon="-1.52439">
        <ele>56</ele>
        <time>2021-04-26T14:34:05.000Z</time>
      </trkpt>
      <trkpt lat="47.21456" lon="-1.52458">
        <ele>56</ele>
        <time>2021-04-26T14:34:07.000Z</time>
      </trkpt>
      <trkpt lat="47.2145" lon="-1.52477">
        <ele>56</ele>
        <time>2021-04-26T14:34:09.000Z</time>
      </trkpt>
      <trkpt lat="47.21443" lon="-1.52496">
        <ele>56</ele>
        <time>2021-04-26T14:34:11.000Z</time>
      </trkpt>
      <trkpt lat="47.21437" lon="-1.52515">
        <ele>56</ele>
        <time>2021-04-26T14:34:13.000Z</time>
      </trkpt>
      <trkpt lat="47.21431" lon="-1.52534">
        <ele>56</ele>
        <time>2021-04-26T14:34:15.000Z</time>
      </trkpt>
      <trkpt lat="47.21425" lon="-1.52553">
        <ele>56</ele>
        <time>2021-04-26T14:34:17.000Z</time>
      </trkpt>
      <trkpt lat="47.21419" lon="-1.52572">
        <ele>56</ele>
        <time>2021-04-26T14:34:19.000Z</time>
      </trkpt>
      <trkpt lat="47.21412" lon="-1.5259">
        <ele>55</ele>
        <time>2021-04-26T14:34:21.000Z</time>
      </trkpt>
      <trkpt lat="47.21405" lon="-1.52609">
        <ele>55</ele>
        <time>2021-04-26T14:34:23.000Z</time>
      </trkpt>
      <trkpt lat="47.21399" lon="-1.52628">
        <ele>56</ele>
        <time>2021-04-26T14:34:25.000Z</time>
      </trkpt>
      <trkpt lat="47.21393" lon="-1.52647">
        <ele>56</ele>
        <time>2021-04-26T14:34:27.000Z</time>
      </trkpt>
      <trkpt lat="47.21388" lon="-1.52667">
        <ele>55</ele>
        <time>2021-04-26T14:34:29.000Z</time>
      </trkpt>
      <trkpt lat="47.21384" lon="-1.52689">
        <ele>56</ele>
        <time>2021-04-26T14:34:31.000Z</time>
      </trkpt>
      <trkpt lat="47.21378" lon="-1.52709">
        <ele>55</ele>
        <time>2021-04-26T14:34:33.000Z</time>
      </trkpt>
      <trkpt lat="47.21374" lon="-1.52728">
        <ele>55</ele>
        <time>2021-04-26T14:34:35.000Z</time>
      </trkpt>
      <trkpt lat="47.2137" lon="-1.5275">
        <ele>55</ele>
        <time>2021-04-26T14:34:37.000Z</time>
      </trkpt>
      <trkpt lat="47.21365" lon="-1.52769">
        <ele>53</ele>
        <time>2021-04-26T14:34:39.000Z</time>
      </trkpt>
      <trkpt lat="47.21363" lon="-1.52791">
        <ele>53</ele>
        <time>2021-04-26T14:34:41.000Z</time>
      </trkpt>
      <trkpt lat="47.2136" lon="-1.52811">
        <ele>53</ele>
        <time>2021-04-26T14:34:43.000Z</time>
      </trkpt>
      <trkpt lat="47.21356" lon="-1.52833">
        <ele>52</ele>
        <time>2021-04-26T14:34:45.000Z</time>
      </trkpt>
      <trkpt lat="47.21351" lon="-1.52855">
        <ele>52</ele>
        <time>2021-04-26T14:34:47.000Z</time>
      </trkpt>
      <trkpt lat="47.21346" lon="-1.52877">
        <ele>52</ele>
        <time>2021-04-26T14:34:49.000Z</time>
      </trkpt>
      <trkpt lat="47.21342" lon="-1.52899">
        <ele>51</ele>
        <time>2021-04-26T14:34:51.000Z</time>
      </trkpt>
      <trkpt lat="47.21339" lon="-1.52922">
        <ele>51</ele>
        <time>2021-04-26T14:34:53.000Z</time>
      </trkpt>
      <trkpt lat="47.21336" lon="-1.52943">
        <ele>51</ele>
        <time>2021-04-26T14:34:55.000Z</time>
      </trkpt>
      <trkpt lat="47.21333" lon="-1.52963">
        <ele>51</ele>
        <time>2021-04-26T14:34:57.000Z</time>
      </trkpt>
      <trkpt lat="47.21331" lon="-1.52986">
        <ele>51</ele>
        <time>2021-04-26T14:34:59.000Z</time>
      </trkpt>
      <trkpt lat="47.2133" lon="-1.53008">
        <ele>51</ele>
        <time>2021-04-26T14:35:01.000Z</time>
      </trkpt>
      <trkpt lat="47.21329" lon="-1.53031">
        <ele>52</ele>
        <time>2021-04-26T14:35:03.000Z</time>
      </trkpt>
      <trkpt lat="47.21328" lon="-1.53051">
        <ele>52</ele>
        <time>2021-04-26T14:35:05.000Z</time>
      </trkpt>
      <trkpt lat="47.21327" lon="-1.53071">
        <ele>52</ele>
        <time>2021-04-26T14:35:07.000Z</time>
      </trkpt>
      <trkpt lat="47.21325" lon="-1.53091">
        <ele>52</ele>
        <time>2021-04-26T14:35:09.000Z</time>
      </trkpt>
      <trkpt lat="47.21323" lon="-1.5311">
        <ele>52</ele>
        <time>2021-04-26T14:35:11.000Z</time>
      </trkpt>
      <trkpt lat="47.2132" lon="-1.5313">
        <ele>52</ele>
        <time>2021-04-26T14:35:13.000Z</time>
      </trkpt>
      <trkpt lat="47.21317" lon="-1.53151">
        <ele>53</ele>
        <time>2021-04-26T14:35:15.000Z</time>
      </trkpt>
      <trkpt lat="47.21314" lon="-1.53171">
        <ele>53</ele>
        <time>2021-04-26T14:35:17.000Z</time>
      </trkpt>
      <trkpt lat="47.21312" lon="-1.53191">
        <ele>52</ele>
        <time>2021-04-26T14:35:19.000Z</time>
      </trkpt>
      <trkpt lat="47.21309" lon="-1.53211">
        <ele>52</ele>
        <time>2021-04-26T14:35:21.000Z</time>
      </trkpt>
      <trkpt lat="47.21308" lon="-1.53232">
        <ele>53</ele>
        <time>2021-04-26T14:35:23.000Z</time>
      </trkpt>
      <trkpt lat="47.21308" lon="-1.53253">
        <ele>53</ele>
        <time>2021-04-26T14:35:25.000Z</time>
      </trkpt>
      <trkpt lat="47.21308" lon="-1.53273">
        <ele>53</ele>
        <time>2021-04-26T14:35:27.000Z</time>
      </trkpt>
      <trkpt lat="47.21308" lon="-1.53293">
        <ele>53</ele>
        <time>2021-04-26T14:35:29.000Z</time>
      </trkpt>
      <trkpt lat="47.21307" lon="-1.53313">
        <ele>53</ele>
        <time>2021-04-26T14:35:31.000Z</time>
      </trkpt>
      <trkpt lat="47.21304" lon="-1.53333">
        <ele>52</ele>
        <time>2021-04-26T14:35:33.000Z</time>
      </trkpt>
      <trkpt lat="47.21301" lon="-1.53353">
        <ele>52</ele>
        <time>2021-04-26T14:35:35.000Z</time>
      </trkpt>
      <trkpt lat="47.21297" lon="-1.53373">
        <ele>52</ele>
        <time>2021-04-26T14:35:37.000Z</time>
      </trkpt>
      <trkpt lat="47.21293" lon="-1.53393">
        <ele>51</ele>
        <time>2021-04-26T14:35:39.000Z</time>
      </trkpt>
      <trkpt lat="47.21291" lon="-1.53413">
        <ele>51</ele>
        <time>2021-04-26T14:35:41.000Z</time>
      </trkpt>
      <trkpt lat="47.2129" lon="-1.53432">
        <ele>51</ele>
        <time>2021-04-26T14:35:43.000Z</time>
      </trkpt>
      <trkpt lat="47.21289" lon="-1.53452">
        <ele>52</ele>
        <time>2021-04-26T14:35:45.000Z</time>
      </trkpt>
      <trkpt lat="47.21295" lon="-1.5347">
        <ele>52</ele>
        <time>2021-04-26T14:35:47.000Z</time>
      </trkpt>
      <trkpt lat="47.21298" lon="-1.53488">
        <ele>52</ele>
        <time>2021-04-26T14:35:49.000Z</time>
      </trkpt>
      <trkpt lat="47.21299" lon="-1.53509">
        <ele>52</ele>
        <time>2021-04-26T14:35:51.000Z</time>
      </trkpt>
      <trkpt lat="47.213" lon="-1.53529">
        <ele>52</ele>
        <time>2021-04-26T14:35:53.000Z</time>
      </trkpt>
      <trkpt lat="47.213" lon="-1.53548">
        <ele>52</ele>
        <time>2021-04-26T14:35:55.000Z</time>
      </trkpt>
      <trkpt lat="47.21301" lon="-1.53567">
        <ele>52</ele>
        <time>2021-04-26T14:35:57.000Z</time>
      </trkpt>
      <trkpt lat="47.21302" lon="-1.53585">
        <ele>52</ele>
        <time>2021-04-26T14:35:59.000Z</time>
      </trkpt>
      <trkpt lat="47.21303" lon="-1.53602">
        <ele>53</ele>
        <time>2021-04-26T14:36:01.000Z</time>
      </trkpt>
      <trkpt lat="47.21302" lon="-1.53619">
        <ele>53</ele>
        <time>2021-04-26T14:36:03.000Z</time>
      </trkpt>
      <trkpt lat="47.21295" lon="-1.53629">
        <ele>53</ele>
        <time>2021-04-26T14:36:05.000Z</time>
      </trkpt>
      <trkpt lat="47.21293" lon="-1.53645">
        <ele>54</ele>
        <time>2021-04-26T14:36:08.000Z</time>
      </trkpt>
      <trkpt lat="47.21291" lon="-1.53659">
        <ele>54</ele>
        <time>2021-04-26T14:36:10.000Z</time>
      </trkpt>
      <trkpt lat="47.21293" lon="-1.53677">
        <ele>53</ele>
        <time>2021-04-26T14:36:13.000Z</time>
      </trkpt>
      <trkpt lat="47.21301" lon="-1.53693">
        <ele>54</ele>
        <time>2021-04-26T14:36:15.000Z</time>
      </trkpt>
      <trkpt lat="47.21306" lon="-1.53712">
        <ele>54</ele>
        <time>2021-04-26T14:36:17.000Z</time>
      </trkpt>
      <trkpt lat="47.2131" lon="-1.53732">
        <ele>53</ele>
        <time>2021-04-26T14:36:19.000Z</time>
      </trkpt>
      <trkpt lat="47.21314" lon="-1.53752">
        <ele>52</ele>
        <time>2021-04-26T14:36:21.000Z</time>
      </trkpt>
      <trkpt lat="47.21317" lon="-1.53772">
        <ele>52</ele>
        <time>2021-04-26T14:36:23.000Z</time>
      </trkpt>
      <trkpt lat="47.2132" lon="-1.53791">
        <ele>52</ele>
        <time>2021-04-26T14:36:25.000Z</time>
      </trkpt>
      <trkpt lat="47.21322" lon="-1.5381">
        <ele>52</ele>
        <time>2021-04-26T14:36:27.000Z</time>
      </trkpt>
      <trkpt lat="47.21325" lon="-1.53829">
        <ele>52</ele>
        <time>2021-04-26T14:36:29.000Z</time>
      </trkpt>
      <trkpt lat="47.21328" lon="-1.53846">
        <ele>52</ele>
        <time>2021-04-26T14:36:31.000Z</time>
      </trkpt>
      <trkpt lat="47.2133" lon="-1.53864">
        <ele>52</ele>
        <time>2021-04-26T14:36:33.000Z</time>
      </trkpt>
      <trkpt lat="47.21333" lon="-1.53881">
        <ele>53</ele>
        <time>2021-04-26T14:36:35.000Z</time>
      </trkpt>
      <trkpt lat="47.21335" lon="-1.53897">
        <ele>53</ele>
        <time>2021-04-26T14:36:37.000Z</time>
      </trkpt>
      <trkpt lat="47.21337" lon="-1.5391">
        <ele>53</ele>
        <time>2021-04-26T14:36:39.000Z</time>
      </trkpt>
      <trkpt lat="47.21343" lon="-1.53924">
        <ele>54</ele>
        <time>2021-04-26T14:36:44.000Z</time>
      </trkpt>
      <trkpt lat="47.21353" lon="-1.53923">
        <ele>54</ele>
        <time>2021-04-26T14:36:47.000Z</time>
      </trkpt>
      <trkpt lat="47.21362" lon="-1.53929">
        <ele>54</ele>
        <time>2021-04-26T14:36:49.000Z</time>
      </trkpt>
      <trkpt lat="47.21374" lon="-1.53932">
        <ele>54</ele>
        <time>2021-04-26T14:36:51.000Z</time>
      </trkpt>
      <trkpt lat="47.21384" lon="-1.53941">
        <ele>55</ele>
        <time>2021-04-26T14:36:53.000Z</time>
      </trkpt>
      <trkpt lat="47.21389" lon="-1.53957">
        <ele>55</ele>
        <time>2021-04-26T14:36:55.000Z</time>
      </trkpt>
      <trkpt lat="47.21386" lon="-1.53975">
        <ele>55</ele>
        <time>2021-04-26T14:36:57.000Z</time>
      </trkpt>
      <trkpt lat="47.21382" lon="-1.53992">
        <ele>54</ele>
        <time>2021-04-26T14:36:59.000Z</time>
      </trkpt>
      <trkpt lat="47.21386" lon="-1.54008">
        <ele>54</ele>
        <time>2021-04-26T14:37:01.000Z</time>
      </trkpt>
      <trkpt lat="47.21397" lon="-1.54024">
        <ele>54</ele>
        <time>2021-04-26T14:37:03.000Z</time>
      </trkpt>
      <trkpt lat="47.2141" lon="-1.54042">
        <ele>54</ele>
        <time>2021-04-26T14:37:05.000Z</time>
      </trkpt>
      <trkpt lat="47.21422" lon="-1.54059">
        <ele>54</ele>
        <time>2021-04-26T14:37:07.000Z</time>
      </trkpt>
      <trkpt lat="47.21429" lon="-1.54068">
        <ele>54</ele>
        <time>2021-04-26T14:37:08.000Z</time>
      </trkpt>
      <trkpt lat="47.21441" lon="-1.54087">
        <ele>53</ele>
        <time>2021-04-26T14:37:10.000Z</time>
      </trkpt>
      <trkpt lat="47.2146" lon="-1.54114">
        <ele>53</ele>
        <time>2021-04-26T14:37:13.000Z</time>
      </trkpt>
      <trkpt lat="47.21472" lon="-1.54131">
        <ele>53</ele>
        <time>2021-04-26T14:37:15.000Z</time>
      </trkpt>
      <trkpt lat="47.21484" lon="-1.54148">
        <ele>53</ele>
        <time>2021-04-26T14:37:17.000Z</time>
      </trkpt>
      <trkpt lat="47.21496" lon="-1.54164">
        <ele>52</ele>
        <time>2021-04-26T14:37:19.000Z</time>
      </trkpt>
      <trkpt lat="47.21507" lon="-1.54181">
        <ele>53</ele>
        <time>2021-04-26T14:37:21.000Z</time>
      </trkpt>
      <trkpt lat="47.21517" lon="-1.54199">
        <ele>53</ele>
        <time>2021-04-26T14:37:23.000Z</time>
      </trkpt>
      <trkpt lat="47.21528" lon="-1.54217">
        <ele>53</ele>
        <time>2021-04-26T14:37:25.000Z</time>
      </trkpt>
      <trkpt lat="47.21537" lon="-1.54232">
        <ele>53</ele>
        <time>2021-04-26T14:37:27.000Z</time>
      </trkpt>
      <trkpt lat="47.21547" lon="-1.54243">
        <ele>53</ele>
        <time>2021-04-26T14:37:29.000Z</time>
      </trkpt>
      <trkpt lat="47.21566" lon="-1.54249">
        <ele>52</ele>
        <time>2021-04-26T14:37:32.000Z</time>
      </trkpt>
      <trkpt lat="47.21574" lon="-1.54263">
        <ele>53</ele>
        <time>2021-04-26T14:37:34.000Z</time>
      </trkpt>
      <trkpt lat="47.21578" lon="-1.54291">
        <ele>53</ele>
        <time>2021-04-26T14:37:37.000Z</time>
      </trkpt>
      <trkpt lat="47.21583" lon="-1.54308">
        <ele>54</ele>
        <time>2021-04-26T14:37:39.000Z</time>
      </trkpt>
      <trkpt lat="47.21591" lon="-1.54324">
        <ele>54</ele>
        <time>2021-04-26T14:37:41.000Z</time>
      </trkpt>
      <trkpt lat="47.216" lon="-1.54339">
        <ele>54</ele>
        <time>2021-04-26T14:37:43.000Z</time>
      </trkpt>
      <trkpt lat="47.21608" lon="-1.54354">
        <ele>55</ele>
        <time>2021-04-26T14:37:45.000Z</time>
      </trkpt>
      <trkpt lat="47.21614" lon="-1.54372">
        <ele>55</ele>
        <time>2021-04-26T14:37:47.000Z</time>
      </trkpt>
      <trkpt lat="47.21618" lon="-1.54391">
        <ele>55</ele>
        <time>2021-04-26T14:37:49.000Z</time>
      </trkpt>
      <trkpt lat="47.21614" lon="-1.54422">
        <ele>54</ele>
        <time>2021-04-26T14:37:52.000Z</time>
      </trkpt>
      <trkpt lat="47.21611" lon="-1.54442">
        <ele>54</ele>
        <time>2021-04-26T14:37:54.000Z</time>
      </trkpt>
      <trkpt lat="47.21609" lon="-1.54462">
        <ele>54</ele>
        <time>2021-04-26T14:37:56.000Z</time>
      </trkpt>
      <trkpt lat="47.21606" lon="-1.54482">
        <ele>54</ele>
        <time>2021-04-26T14:37:58.000Z</time>
      </trkpt>
      <trkpt lat="47.21602" lon="-1.54502">
        <ele>55</ele>
        <time>2021-04-26T14:38:00.000Z</time>
      </trkpt>
      <trkpt lat="47.21596" lon="-1.54521">
        <ele>55</ele>
        <time>2021-04-26T14:38:02.000Z</time>
      </trkpt>
      <trkpt lat="47.21586" lon="-1.54548">
        <ele>55</ele>
        <time>2021-04-26T14:38:05.000Z</time>
      </trkpt>
      <trkpt lat="47.21579" lon="-1.54565">
        <ele>55</ele>
        <time>2021-04-26T14:38:07.000Z</time>
      </trkpt>
      <trkpt lat="47.21573" lon="-1.54585">
        <ele>55</ele>
        <time>2021-04-26T14:38:09.000Z</time>
      </trkpt>
      <trkpt lat="47.21566" lon="-1.54604">
        <ele>54</ele>
        <time>2021-04-26T14:38:11.000Z</time>
      </trkpt>
      <trkpt lat="47.21554" lon="-1.54635">
        <ele>54</ele>
        <time>2021-04-26T14:38:14.000Z</time>
      </trkpt>
      <trkpt lat="47.21547" lon="-1.54655">
        <ele>54</ele>
        <time>2021-04-26T14:38:16.000Z</time>
      </trkpt>
      <trkpt lat="47.21539" lon="-1.54671">
        <ele>53</ele>
        <time>2021-04-26T14:38:18.000Z</time>
      </trkpt>
      <trkpt lat="47.21533" lon="-1.54692">
        <ele>53</ele>
        <time>2021-04-26T14:38:20.000Z</time>
      </trkpt>
      <trkpt lat="47.21524" lon="-1.54722">
        <ele>53</ele>
        <time>2021-04-26T14:38:23.000Z</time>
      </trkpt>
      <trkpt lat="47.21516" lon="-1.54741">
        <ele>53</ele>
        <time>2021-04-26T14:38:25.000Z</time>
      </trkpt>
      <trkpt lat="47.21509" lon="-1.54761">
        <ele>53</ele>
        <time>2021-04-26T14:38:27.000Z</time>
      </trkpt>
      <trkpt lat="47.21501" lon="-1.5478">
        <ele>54</ele>
        <time>2021-04-26T14:38:29.000Z</time>
      </trkpt>
      <trkpt lat="47.21494" lon="-1.548">
        <ele>54</ele>
        <time>2021-04-26T14:38:31.000Z</time>
      </trkpt>
      <trkpt lat="47.21485" lon="-1.54818">
        <ele>54</ele>
        <time>2021-04-26T14:38:33.000Z</time>
      </trkpt>
      <trkpt lat="47.21476" lon="-1.54835">
        <ele>54</ele>
        <time>2021-04-26T14:38:35.000Z</time>
      </trkpt>
      <trkpt lat="47.21468" lon="-1.54853">
        <ele>55</ele>
        <time>2021-04-26T14:38:37.000Z</time>
      </trkpt>
      <trkpt lat="47.21458" lon="-1.54871">
        <ele>55</ele>
        <time>2021-04-26T14:38:39.000Z</time>
      </trkpt>
      <trkpt lat="47.2145" lon="-1.54889">
        <ele>55</ele>
        <time>2021-04-26T14:38:41.000Z</time>
      </trkpt>
      <trkpt lat="47.21441" lon="-1.54908">
        <ele>56</ele>
        <time>2021-04-26T14:38:43.000Z</time>
      </trkpt>
      <trkpt lat="47.21431" lon="-1.54926">
        <ele>55</ele>
        <time>2021-04-26T14:38:45.000Z</time>
      </trkpt>
      <trkpt lat="47.21422" lon="-1.54945">
        <ele>55</ele>
        <time>2021-04-26T14:38:47.000Z</time>
      </trkpt>
      <trkpt lat="47.21414" lon="-1.54965">
        <ele>54</ele>
        <time>2021-04-26T14:38:49.000Z</time>
      </trkpt>
      <trkpt lat="47.21405" lon="-1.54984">
        <ele>54</ele>
        <time>2021-04-26T14:38:51.000Z</time>
      </trkpt>
      <trkpt lat="47.21397" lon="-1.55003">
        <ele>54</ele>
        <time>2021-04-26T14:38:53.000Z</time>
      </trkpt>
      <trkpt lat="47.21389" lon="-1.55022">
        <ele>55</ele>
        <time>2021-04-26T14:38:55.000Z</time>
      </trkpt>
      <trkpt lat="47.21382" lon="-1.5504">
        <ele>55</ele>
        <time>2021-04-26T14:38:57.000Z</time>
      </trkpt>
      <trkpt lat="47.21374" lon="-1.5506">
        <ele>54</ele>
        <time>2021-04-26T14:38:59.000Z</time>
      </trkpt>
      <trkpt lat="47.21366" lon="-1.55079">
        <ele>54</ele>
        <time>2021-04-26T14:39:01.000Z</time>
      </trkpt>
      <trkpt lat="47.21358" lon="-1.55097">
        <ele>53</ele>
        <time>2021-04-26T14:39:03.000Z</time>
      </trkpt>
      <trkpt lat="47.21351" lon="-1.55116">
        <ele>53</ele>
        <time>2021-04-26T14:39:05.000Z</time>
      </trkpt>
      <trkpt lat="47.21344" lon="-1.55134">
        <ele>53</ele>
        <time>2021-04-26T14:39:07.000Z</time>
      </trkpt>
      <trkpt lat="47.21337" lon="-1.55152">
        <ele>53</ele>
        <time>2021-04-26T14:39:09.000Z</time>
      </trkpt>
      <trkpt lat="47.2133" lon="-1.5517">
        <ele>53</ele>
        <time>2021-04-26T14:39:11.000Z</time>
      </trkpt>
      <trkpt lat="47.21322" lon="-1.55188">
        <ele>53</ele>
        <time>2021-04-26T14:39:13.000Z</time>
      </trkpt>
      <trkpt lat="47.21314" lon="-1.55205">
        <ele>53</ele>
        <time>2021-04-26T14:39:15.000Z</time>
      </trkpt>
      <trkpt lat="47.21308" lon="-1.55222">
        <ele>53</ele>
        <time>2021-04-26T14:39:17.000Z</time>
      </trkpt>
      <trkpt lat="47.213" lon="-1.55239">
        <ele>53</ele>
        <time>2021-04-26T14:39:19.000Z</time>
      </trkpt>
      <trkpt lat="47.2129" lon="-1.55264">
        <ele>53</ele>
        <time>2021-04-26T14:39:22.000Z</time>
      </trkpt>
      <trkpt lat="47.21283" lon="-1.55281">
        <ele>54</ele>
        <time>2021-04-26T14:39:24.000Z</time>
      </trkpt>
      <trkpt lat="47.21275" lon="-1.55293">
        <ele>54</ele>
        <time>2021-04-26T14:39:26.000Z</time>
      </trkpt>
      <trkpt lat="47.21263" lon="-1.55297">
        <ele>55</ele>
        <time>2021-04-26T14:39:28.000Z</time>
      </trkpt>
      <trkpt lat="47.21254" lon="-1.55305">
        <ele>55</ele>
        <time>2021-04-26T14:39:30.000Z</time>
      </trkpt>
      <trkpt lat="47.21254" lon="-1.5532">
        <ele>55</ele>
        <time>2021-04-26T14:39:32.000Z</time>
      </trkpt>
      <trkpt lat="47.2126" lon="-1.55333">
        <ele>55</ele>
        <time>2021-04-26T14:39:34.000Z</time>
      </trkpt>
      <trkpt lat="47.21268" lon="-1.55345">
        <ele>56</ele>
        <time>2021-04-26T14:39:37.000Z</time>
      </trkpt>
      <trkpt lat="47.21279" lon="-1.55355">
        <ele>55</ele>
        <time>2021-04-26T14:39:45.000Z</time>
      </trkpt>
      <trkpt lat="47.21282" lon="-1.55371">
        <ele>55</ele>
        <time>2021-04-26T14:39:47.000Z</time>
      </trkpt>
      <trkpt lat="47.21274" lon="-1.55388">
        <ele>56</ele>
        <time>2021-04-26T14:39:49.000Z</time>
      </trkpt>
      <trkpt lat="47.21264" lon="-1.55407">
        <ele>55</ele>
        <time>2021-04-26T14:39:51.000Z</time>
      </trkpt>
      <trkpt lat="47.21252" lon="-1.55427">
        <ele>56</ele>
        <time>2021-04-26T14:39:53.000Z</time>
      </trkpt>
      <trkpt lat="47.21239" lon="-1.55448">
        <ele>56</ele>
        <time>2021-04-26T14:39:55.000Z</time>
      </trkpt>
      <trkpt lat="47.21233" lon="-1.55459">
        <ele>56</ele>
        <time>2021-04-26T14:39:56.000Z</time>
      </trkpt>
      <trkpt lat="47.21227" lon="-1.55471">
        <ele>56</ele>
        <time>2021-04-26T14:39:57.000Z</time>
      </trkpt>
      <trkpt lat="47.21221" lon="-1.55483">
        <ele>56</ele>
        <time>2021-04-26T14:39:58.000Z</time>
      </trkpt>
      <trkpt lat="47.21217" lon="-1.55496">
        <ele>55</ele>
        <time>2021-04-26T14:39:59.000Z</time>
      </trkpt>
      <trkpt lat="47.21213" lon="-1.55509">
        <ele>55</ele>
        <time>2021-04-26T14:40:00.000Z</time>
      </trkpt>
      <trkpt lat="47.2121" lon="-1.55521">
        <ele>55</ele>
        <time>2021-04-26T14:40:01.000Z</time>
      </trkpt>
      <trkpt lat="47.21206" lon="-1.55534">
        <ele>54</ele>
        <time>2021-04-26T14:40:02.000Z</time>
      </trkpt>
      <trkpt lat="47.21202" lon="-1.55547">
        <ele>54</ele>
        <time>2021-04-26T14:40:03.000Z</time>
      </trkpt>
      <trkpt lat="47.21198" lon="-1.55559">
        <ele>54</ele>
        <time>2021-04-26T14:40:04.000Z</time>
      </trkpt>
      <trkpt lat="47.21194" lon="-1.55572">
        <ele>54</ele>
        <time>2021-04-26T14:40:05.000Z</time>
      </trkpt>
      <trkpt lat="47.2119" lon="-1.55584">
        <ele>54</ele>
        <time>2021-04-26T14:40:06.000Z</time>
      </trkpt>
      <trkpt lat="47.21186" lon="-1.55596">
        <ele>54</ele>
        <time>2021-04-26T14:40:07.000Z</time>
      </trkpt>
      <trkpt lat="47.21178" lon="-1.55619">
        <ele>54</ele>
        <time>2021-04-26T14:40:09.000Z</time>
      </trkpt>
      <trkpt lat="47.21172" lon="-1.55638">
        <ele>54</ele>
        <time>2021-04-26T14:40:11.000Z</time>
      </trkpt>
      <trkpt lat="47.21167" lon="-1.55653">
        <ele>54</ele>
        <time>2021-04-26T14:40:13.000Z</time>
      </trkpt>
      <trkpt lat="47.21162" lon="-1.55669">
        <ele>55</ele>
        <time>2021-04-26T14:40:15.000Z</time>
      </trkpt>
      <trkpt lat="47.21151" lon="-1.55674">
        <ele>55</ele>
        <time>2021-04-26T14:40:17.000Z</time>
      </trkpt>
      <trkpt lat="47.21139" lon="-1.55663">
        <ele>55</ele>
        <time>2021-04-26T14:40:19.000Z</time>
      </trkpt>
      <trkpt lat="47.21127" lon="-1.55652">
        <ele>55</ele>
        <time>2021-04-26T14:40:21.000Z</time>
      </trkpt>
      <trkpt lat="47.21114" lon="-1.5564">
        <ele>54</ele>
        <time>2021-04-26T14:40:23.000Z</time>
      </trkpt>
      <trkpt lat="47.211" lon="-1.55628">
        <ele>54</ele>
        <time>2021-04-26T14:40:25.000Z</time>
      </trkpt>
      <trkpt lat="47.21086" lon="-1.5562">
        <ele>53</ele>
        <time>2021-04-26T14:40:27.000Z</time>
      </trkpt>
      <trkpt lat="47.21072" lon="-1.55612">
        <ele>52</ele>
        <time>2021-04-26T14:40:29.000Z</time>
      </trkpt>
      <trkpt lat="47.21058" lon="-1.55603">
        <ele>53</ele>
        <time>2021-04-26T14:40:31.000Z</time>
      </trkpt>
      <trkpt lat="47.21044" lon="-1.55592">
        <ele>53</ele>
        <time>2021-04-26T14:40:33.000Z</time>
      </trkpt>
      <trkpt lat="47.21031" lon="-1.55584">
        <ele>53</ele>
        <time>2021-04-26T14:40:35.000Z</time>
      </trkpt>
      <trkpt lat="47.21016" lon="-1.55582">
        <ele>53</ele>
        <time>2021-04-26T14:40:37.000Z</time>
      </trkpt>
      <trkpt lat="47.21" lon="-1.55579">
        <ele>53</ele>
        <time>2021-04-26T14:40:39.000Z</time>
      </trkpt>
      <trkpt lat="47.20985" lon="-1.55575">
        <ele>53</ele>
        <time>2021-04-26T14:40:41.000Z</time>
      </trkpt>
      <trkpt lat="47.20969" lon="-1.55572">
        <ele>52</ele>
        <time>2021-04-26T14:40:43.000Z</time>
      </trkpt>
      <trkpt lat="47.20951" lon="-1.5557">
        <ele>52</ele>
        <time>2021-04-26T14:40:45.000Z</time>
      </trkpt>
      <trkpt lat="47.20942" lon="-1.55568">
        <ele>52</ele>
        <time>2021-04-26T14:40:46.000Z</time>
      </trkpt>
      <trkpt lat="47.20933" lon="-1.55566">
        <ele>52</ele>
        <time>2021-04-26T14:40:47.000Z</time>
      </trkpt>
      <trkpt lat="47.20915" lon="-1.55561">
        <ele>53</ele>
        <time>2021-04-26T14:40:49.000Z</time>
      </trkpt>
      <trkpt lat="47.20906" lon="-1.55558">
        <ele>54</ele>
        <time>2021-04-26T14:40:50.000Z</time>
      </trkpt>
      <trkpt lat="47.20889" lon="-1.55553">
        <ele>55</ele>
        <time>2021-04-26T14:40:52.000Z</time>
      </trkpt>
      <trkpt lat="47.20872" lon="-1.55548">
        <ele>55</ele>
        <time>2021-04-26T14:40:54.000Z</time>
      </trkpt>
      <trkpt lat="47.20863" lon="-1.55546">
        <ele>56</ele>
        <time>2021-04-26T14:40:55.000Z</time>
      </trkpt>
      <trkpt lat="47.20846" lon="-1.55541">
        <ele>56</ele>
        <time>2021-04-26T14:40:57.000Z</time>
      </trkpt>
      <trkpt lat="47.20829" lon="-1.55538">
        <ele>56</ele>
        <time>2021-04-26T14:40:59.000Z</time>
      </trkpt>
      <trkpt lat="47.20813" lon="-1.55534">
        <ele>56</ele>
        <time>2021-04-26T14:41:01.000Z</time>
      </trkpt>
      <trkpt lat="47.20797" lon="-1.5553">
        <ele>55</ele>
        <time>2021-04-26T14:41:03.000Z</time>
      </trkpt>
      <trkpt lat="47.2078" lon="-1.55526">
        <ele>55</ele>
        <time>2021-04-26T14:41:05.000Z</time>
      </trkpt>
      <trkpt lat="47.20763" lon="-1.55522">
        <ele>54</ele>
        <time>2021-04-26T14:41:07.000Z</time>
      </trkpt>
      <trkpt lat="47.20753" lon="-1.5552">
        <ele>54</ele>
        <time>2021-04-26T14:41:08.000Z</time>
      </trkpt>
      <trkpt lat="47.20744" lon="-1.55518">
        <ele>53</ele>
        <time>2021-04-26T14:41:09.000Z</time>
      </trkpt>
      <trkpt lat="47.20734" lon="-1.55515">
        <ele>53</ele>
        <time>2021-04-26T14:41:10.000Z</time>
      </trkpt>
      <trkpt lat="47.20724" lon="-1.55512">
        <ele>53</ele>
        <time>2021-04-26T14:41:11.000Z</time>
      </trkpt>
      <trkpt lat="47.20715" lon="-1.55508">
        <ele>53</ele>
        <time>2021-04-26T14:41:12.000Z</time>
      </trkpt>
      <trkpt lat="47.20705" lon="-1.55506">
        <ele>53</ele>
        <time>2021-04-26T14:41:13.000Z</time>
      </trkpt>
      <trkpt lat="47.20695" lon="-1.55503">
        <ele>53</ele>
        <time>2021-04-26T14:41:14.000Z</time>
      </trkpt>
      <trkpt lat="47.20686" lon="-1.55501">
        <ele>53</ele>
        <time>2021-04-26T14:41:15.000Z</time>
      </trkpt>
      <trkpt lat="47.20676" lon="-1.55499">
        <ele>53</ele>
        <time>2021-04-26T14:41:16.000Z</time>
      </trkpt>
      <trkpt lat="47.20666" lon="-1.55497">
        <ele>53</ele>
        <time>2021-04-26T14:41:17.000Z</time>
      </trkpt>
      <trkpt lat="47.20656" lon="-1.55496">
        <ele>53</ele>
        <time>2021-04-26T14:41:18.000Z</time>
      </trkpt>
      <trkpt lat="47.20646" lon="-1.55494">
        <ele>53</ele>
        <time>2021-04-26T14:41:19.000Z</time>
      </trkpt>
      <trkpt lat="47.20637" lon="-1.55492">
        <ele>53</ele>
        <time>2021-04-26T14:41:20.000Z</time>
      </trkpt>
      <trkpt lat="47.20628" lon="-1.5549">
        <ele>53</ele>
        <time>2021-04-26T14:41:21.000Z</time>
      </trkpt>
      <trkpt lat="47.20612" lon="-1.55488">
        <ele>53</ele>
        <time>2021-04-26T14:41:23.000Z</time>
      </trkpt>
      <trkpt lat="47.20597" lon="-1.55485">
        <ele>54</ele>
        <time>2021-04-26T14:41:25.000Z</time>
      </trkpt>
      <trkpt lat="47.20582" lon="-1.55482">
        <ele>55</ele>
        <time>2021-04-26T14:41:27.000Z</time>
      </trkpt>
      <trkpt lat="47.20569" lon="-1.5548">
        <ele>56</ele>
        <time>2021-04-26T14:41:29.000Z</time>
      </trkpt>
      <trkpt lat="47.20556" lon="-1.55482">
        <ele>57</ele>
        <time>2021-04-26T14:41:31.000Z</time>
      </trkpt>
      <trkpt lat="47.20541" lon="-1.55492">
        <ele>59</ele>
        <time>2021-04-26T14:41:33.000Z</time>
      </trkpt>
      <trkpt lat="47.20524" lon="-1.55499">
        <ele>60</ele>
        <time>2021-04-26T14:41:35.000Z</time>
      </trkpt>
      <trkpt lat="47.20509" lon="-1.55493">
        <ele>57</ele>
        <time>2021-04-26T14:41:37.000Z</time>
      </trkpt>
      <trkpt lat="47.20505" lon="-1.55481">
        <ele>57</ele>
        <time>2021-04-26T14:41:38.000Z</time>
      </trkpt>
      <trkpt lat="47.20501" lon="-1.55468">
        <ele>56</ele>
        <time>2021-04-26T14:41:39.000Z</time>
      </trkpt>
      <trkpt lat="47.20503" lon="-1.55443">
        <ele>54</ele>
        <time>2021-04-26T14:41:41.000Z</time>
      </trkpt>
      <trkpt lat="47.20507" lon="-1.5542">
        <ele>54</ele>
        <time>2021-04-26T14:41:43.000Z</time>
      </trkpt>
      <trkpt lat="47.20501" lon="-1.554">
        <ele>54</ele>
        <time>2021-04-26T14:41:45.000Z</time>
      </trkpt>
      <trkpt lat="47.20491" lon="-1.5538">
        <ele>54</ele>
        <time>2021-04-26T14:41:47.000Z</time>
      </trkpt>
      <trkpt lat="47.2048" lon="-1.55361">
        <ele>55</ele>
        <time>2021-04-26T14:41:49.000Z</time>
      </trkpt>
      <trkpt lat="47.20474" lon="-1.55351">
        <ele>54</ele>
        <time>2021-04-26T14:41:50.000Z</time>
      </trkpt>
      <trkpt lat="47.20468" lon="-1.55341">
        <ele>54</ele>
        <time>2021-04-26T14:41:51.000Z</time>
      </trkpt>
      <trkpt lat="47.20462" lon="-1.5533">
        <ele>54</ele>
        <time>2021-04-26T14:41:52.000Z</time>
      </trkpt>
      <trkpt lat="47.20452" lon="-1.55311">
        <ele>54</ele>
        <time>2021-04-26T14:41:54.000Z</time>
      </trkpt>
      <trkpt lat="47.20442" lon="-1.55292">
        <ele>54</ele>
        <time>2021-04-26T14:41:56.000Z</time>
      </trkpt>
      <trkpt lat="47.20434" lon="-1.55274">
        <ele>54</ele>
        <time>2021-04-26T14:41:58.000Z</time>
      </trkpt>
      <trkpt lat="47.20424" lon="-1.55255">
        <ele>54</ele>
        <time>2021-04-26T14:42:00.000Z</time>
      </trkpt>
      <trkpt lat="47.20416" lon="-1.55239">
        <ele>54</ele>
        <time>2021-04-26T14:42:02.000Z</time>
      </trkpt>
      <trkpt lat="47.20408" lon="-1.55224">
        <ele>54</ele>
        <time>2021-04-26T14:42:04.000Z</time>
      </trkpt>
      <trkpt lat="47.20402" lon="-1.55212">
        <ele>53</ele>
        <time>2021-04-26T14:42:06.000Z</time>
      </trkpt>
      <trkpt lat="47.20395" lon="-1.55201">
        <ele>54</ele>
        <time>2021-04-26T14:42:08.000Z</time>
      </trkpt>
      <trkpt lat="47.20384" lon="-1.55188">
        <ele>56</ele>
        <time>2021-04-26T14:42:11.000Z</time>
      </trkpt>
      <trkpt lat="47.20373" lon="-1.55186">
        <ele>57</ele>
        <time>2021-04-26T14:42:13.000Z</time>
      </trkpt>
      <trkpt lat="47.20364" lon="-1.55194">
        <ele>58</ele>
        <time>2021-04-26T14:42:15.000Z</time>
      </trkpt>
      <trkpt lat="47.20352" lon="-1.55207">
        <ele>58</ele>
        <time>2021-04-26T14:42:17.000Z</time>
      </trkpt>
      <trkpt lat="47.20341" lon="-1.55222">
        <ele>56</ele>
        <time>2021-04-26T14:42:19.000Z</time>
      </trkpt>
      <trkpt lat="47.20329" lon="-1.55237">
        <ele>55</ele>
        <time>2021-04-26T14:42:21.000Z</time>
      </trkpt>
      <trkpt lat="47.20318" lon="-1.55252">
        <ele>55</ele>
        <time>2021-04-26T14:42:23.000Z</time>
      </trkpt>
      <trkpt lat="47.20306" lon="-1.55267">
        <ele>55</ele>
        <time>2021-04-26T14:42:25.000Z</time>
      </trkpt>
      <trkpt lat="47.20297" lon="-1.5528">
        <ele>55</ele>
        <time>2021-04-26T14:42:27.000Z</time>
      </trkpt>
      <trkpt lat="47.20286" lon="-1.55295">
        <ele>55</ele>
        <time>2021-04-26T14:42:29.000Z</time>
      </trkpt>
      <trkpt lat="47.20276" lon="-1.55308">
        <ele>55</ele>
        <time>2021-04-26T14:42:31.000Z</time>
      </trkpt>
      <trkpt lat="47.20266" lon="-1.55323">
        <ele>55</ele>
        <time>2021-04-26T14:42:33.000Z</time>
      </trkpt>
      <trkpt lat="47.20257" lon="-1.55339">
        <ele>54</ele>
        <time>2021-04-26T14:42:35.000Z</time>
      </trkpt>
      <trkpt lat="47.20246" lon="-1.55353">
        <ele>54</ele>
        <time>2021-04-26T14:42:37.000Z</time>
      </trkpt>
      <trkpt lat="47.20236" lon="-1.55367">
        <ele>53</ele>
        <time>2021-04-26T14:42:39.000Z</time>
      </trkpt>
      <trkpt lat="47.20225" lon="-1.55381">
        <ele>53</ele>
        <time>2021-04-26T14:42:41.000Z</time>
      </trkpt>
      <trkpt lat="47.20215" lon="-1.55392">
        <ele>54</ele>
        <time>2021-04-26T14:42:43.000Z</time>
      </trkpt>
      <trkpt lat="47.20203" lon="-1.55404">
        <ele>53</ele>
        <time>2021-04-26T14:42:45.000Z</time>
      </trkpt>
      <trkpt lat="47.20194" lon="-1.55416">
        <ele>53</ele>
        <time>2021-04-26T14:42:47.000Z</time>
      </trkpt>
      <trkpt lat="47.20185" lon="-1.5543">
        <ele>52</ele>
        <time>2021-04-26T14:42:49.000Z</time>
      </trkpt>
      <trkpt lat="47.20177" lon="-1.55444">
        <ele>53</ele>
        <time>2021-04-26T14:42:51.000Z</time>
      </trkpt>
      <trkpt lat="47.20168" lon="-1.55458">
        <ele>53</ele>
        <time>2021-04-26T14:42:53.000Z</time>
      </trkpt>
      <trkpt lat="47.20157" lon="-1.55467">
        <ele>53</ele>
        <time>2021-04-26T14:42:55.000Z</time>
      </trkpt>
      <trkpt lat="47.20147" lon="-1.55477">
        <ele>54</ele>
        <time>2021-04-26T14:42:57.000Z</time>
      </trkpt>
      <trkpt lat="47.20134" lon="-1.55486">
        <ele>55</ele>
        <time>2021-04-26T14:42:59.000Z</time>
      </trkpt>
      <trkpt lat="47.20121" lon="-1.55496">
        <ele>55</ele>
        <time>2021-04-26T14:43:01.000Z</time>
      </trkpt>
      <trkpt lat="47.2011" lon="-1.55509">
        <ele>55</ele>
        <time>2021-04-26T14:43:03.000Z</time>
      </trkpt>
      <trkpt lat="47.20099" lon="-1.55524">
        <ele>54</ele>
        <time>2021-04-26T14:43:05.000Z</time>
      </trkpt>
      <trkpt lat="47.20087" lon="-1.55538">
        <ele>54</ele>
        <time>2021-04-26T14:43:07.000Z</time>
      </trkpt>
      <trkpt lat="47.20075" lon="-1.55552">
        <ele>54</ele>
        <time>2021-04-26T14:43:09.000Z</time>
      </trkpt>
      <trkpt lat="47.20064" lon="-1.55567">
        <ele>54</ele>
        <time>2021-04-26T14:43:11.000Z</time>
      </trkpt>
      <trkpt lat="47.20052" lon="-1.55582">
        <ele>54</ele>
        <time>2021-04-26T14:43:13.000Z</time>
      </trkpt>
      <trkpt lat="47.20041" lon="-1.55598">
        <ele>54</ele>
        <time>2021-04-26T14:43:15.000Z</time>
      </trkpt>
      <trkpt lat="47.20031" lon="-1.55612">
        <ele>54</ele>
        <time>2021-04-26T14:43:17.000Z</time>
      </trkpt>
      <trkpt lat="47.2002" lon="-1.55627">
        <ele>55</ele>
        <time>2021-04-26T14:43:19.000Z</time>
      </trkpt>
      <trkpt lat="47.20009" lon="-1.55634">
        <ele>55</ele>
        <time>2021-04-26T14:43:21.000Z</time>
      </trkpt>
      <trkpt lat="47.19999" lon="-1.55635">
        <ele>56</ele>
        <time>2021-04-26T14:43:22.000Z</time>
      </trkpt>
      <trkpt lat="47.19991" lon="-1.55639">
        <ele>56</ele>
        <time>2021-04-26T14:43:23.000Z</time>
      </trkpt>
      <trkpt lat="47.19975" lon="-1.55649">
        <ele>55</ele>
        <time>2021-04-26T14:43:25.000Z</time>
      </trkpt>
      <trkpt lat="47.19962" lon="-1.5566">
        <ele>55</ele>
        <time>2021-04-26T14:43:27.000Z</time>
      </trkpt>
      <trkpt lat="47.19949" lon="-1.55673">
        <ele>55</ele>
        <time>2021-04-26T14:43:29.000Z</time>
      </trkpt>
      <trkpt lat="47.19938" lon="-1.5569">
        <ele>54</ele>
        <time>2021-04-26T14:43:31.000Z</time>
      </trkpt>
      <trkpt lat="47.19933" lon="-1.55712">
        <ele>54</ele>
        <time>2021-04-26T14:43:33.000Z</time>
      </trkpt>
      <trkpt lat="47.19931" lon="-1.55735">
        <ele>53</ele>
        <time>2021-04-26T14:43:35.000Z</time>
      </trkpt>
      <trkpt lat="47.1993" lon="-1.55758">
        <ele>53</ele>
        <time>2021-04-26T14:43:37.000Z</time>
      </trkpt>
      <trkpt lat="47.1993" lon="-1.55781">
        <ele>53</ele>
        <time>2021-04-26T14:43:39.000Z</time>
      </trkpt>
      <trkpt lat="47.19931" lon="-1.55804">
        <ele>53</ele>
        <time>2021-04-26T14:43:41.000Z</time>
      </trkpt>
      <trkpt lat="47.19931" lon="-1.55827">
        <ele>53</ele>
        <time>2021-04-26T14:43:43.000Z</time>
      </trkpt>
      <trkpt lat="47.19931" lon="-1.5585">
        <ele>53</ele>
        <time>2021-04-26T14:43:45.000Z</time>
      </trkpt>
      <trkpt lat="47.19931" lon="-1.55874">
        <ele>53</ele>
        <time>2021-04-26T14:43:47.000Z</time>
      </trkpt>
      <trkpt lat="47.19932" lon="-1.55896">
        <ele>53</ele>
        <time>2021-04-26T14:43:49.000Z</time>
      </trkpt>
      <trkpt lat="47.19931" lon="-1.55919">
        <ele>53</ele>
        <time>2021-04-26T14:43:51.000Z</time>
      </trkpt>
      <trkpt lat="47.19931" lon="-1.55941">
        <ele>52</ele>
        <time>2021-04-26T14:43:53.000Z</time>
      </trkpt>
      <trkpt lat="47.1993" lon="-1.55964">
        <ele>52</ele>
        <time>2021-04-26T14:43:55.000Z</time>
      </trkpt>
      <trkpt lat="47.19931" lon="-1.55987">
        <ele>52</ele>
        <time>2021-04-26T14:43:57.000Z</time>
      </trkpt>
      <trkpt lat="47.19931" lon="-1.5601">
        <ele>52</ele>
        <time>2021-04-26T14:43:59.000Z</time>
      </trkpt>
      <trkpt lat="47.19931" lon="-1.56031">
        <ele>52</ele>
        <time>2021-04-26T14:44:01.000Z</time>
      </trkpt>
      <trkpt lat="47.19931" lon="-1.56052">
        <ele>52</ele>
        <time>2021-04-26T14:44:03.000Z</time>
      </trkpt>
      <trkpt lat="47.19935" lon="-1.56073">
        <ele>51</ele>
        <time>2021-04-26T14:44:05.000Z</time>
      </trkpt>
      <trkpt lat="47.19942" lon="-1.56092">
        <ele>51</ele>
        <time>2021-04-26T14:44:07.000Z</time>
      </trkpt>
      <trkpt lat="47.19951" lon="-1.56109">
        <ele>51</ele>
        <time>2021-04-26T14:44:09.000Z</time>
      </trkpt>
      <trkpt lat="47.19955" lon="-1.56126">
        <ele>51</ele>
        <time>2021-04-26T14:44:11.000Z</time>
      </trkpt>
      <trkpt lat="47.19963" lon="-1.56139">
        <ele>51</ele>
        <time>2021-04-26T14:44:14.000Z</time>
      </trkpt>
      <trkpt lat="47.19967" lon="-1.56152">
        <ele>52</ele>
        <time>2021-04-26T14:44:17.000Z</time>
      </trkpt>
      <trkpt lat="47.19963" lon="-1.56165">
        <ele>52</ele>
        <time>2021-04-26T14:44:19.000Z</time>
      </trkpt>
      <trkpt lat="47.19951" lon="-1.56169">
        <ele>53</ele>
        <time>2021-04-26T14:44:21.000Z</time>
      </trkpt>
      <trkpt lat="47.19937" lon="-1.56172">
        <ele>55</ele>
        <time>2021-04-26T14:44:23.000Z</time>
      </trkpt>
      <trkpt lat="47.19923" lon="-1.56174">
        <ele>56</ele>
        <time>2021-04-26T14:44:25.000Z</time>
      </trkpt>
      <trkpt lat="47.19908" lon="-1.56177">
        <ele>57</ele>
        <time>2021-04-26T14:44:27.000Z</time>
      </trkpt>
      <trkpt lat="47.19893" lon="-1.56179">
        <ele>57</ele>
        <time>2021-04-26T14:44:29.000Z</time>
      </trkpt>
      <trkpt lat="47.1988" lon="-1.56182">
        <ele>57</ele>
        <time>2021-04-26T14:44:31.000Z</time>
      </trkpt>
      <trkpt lat="47.19866" lon="-1.56184">
        <ele>58</ele>
        <time>2021-04-26T14:44:33.000Z</time>
      </trkpt>
      <trkpt lat="47.19854" lon="-1.56187">
        <ele>58</ele>
        <time>2021-04-26T14:44:35.000Z</time>
      </trkpt>
      <trkpt lat="47.19841" lon="-1.56189">
        <ele>58</ele>
        <time>2021-04-26T14:44:37.000Z</time>
      </trkpt>
      <trkpt lat="47.19828" lon="-1.56191">
        <ele>58</ele>
        <time>2021-04-26T14:44:39.000Z</time>
      </trkpt>
      <trkpt lat="47.19815" lon="-1.56194">
        <ele>58</ele>
        <time>2021-04-26T14:44:41.000Z</time>
      </trkpt>
      <trkpt lat="47.19802" lon="-1.56196">
        <ele>58</ele>
        <time>2021-04-26T14:44:43.000Z</time>
      </trkpt>
      <trkpt lat="47.19788" lon="-1.56199">
        <ele>58</ele>
        <time>2021-04-26T14:44:45.000Z</time>
      </trkpt>
      <trkpt lat="47.19774" lon="-1.56202">
        <ele>58</ele>
        <time>2021-04-26T14:44:47.000Z</time>
      </trkpt>
      <trkpt lat="47.1976" lon="-1.56204">
        <ele>58</ele>
        <time>2021-04-26T14:44:49.000Z</time>
      </trkpt>
      <trkpt lat="47.19745" lon="-1.56206">
        <ele>57</ele>
        <time>2021-04-26T14:44:51.000Z</time>
      </trkpt>
      <trkpt lat="47.1973" lon="-1.56209">
        <ele>56</ele>
        <time>2021-04-26T14:44:53.000Z</time>
      </trkpt>
      <trkpt lat="47.19713" lon="-1.56212">
        <ele>56</ele>
        <time>2021-04-26T14:44:55.000Z</time>
      </trkpt>
      <trkpt lat="47.19695" lon="-1.56216">
        <ele>55</ele>
        <time>2021-04-26T14:44:57.000Z</time>
      </trkpt>
      <trkpt lat="47.19686" lon="-1.56217">
        <ele>54</ele>
        <time>2021-04-26T14:44:58.000Z</time>
      </trkpt>
      <trkpt lat="47.19677" lon="-1.5622">
        <ele>54</ele>
        <time>2021-04-26T14:44:59.000Z</time>
      </trkpt>
      <trkpt lat="47.19667" lon="-1.56223">
        <ele>53</ele>
        <time>2021-04-26T14:45:00.000Z</time>
      </trkpt>
      <trkpt lat="47.19657" lon="-1.56226">
        <ele>53</ele>
        <time>2021-04-26T14:45:01.000Z</time>
      </trkpt>
      <trkpt lat="47.19648" lon="-1.56229">
        <ele>52</ele>
        <time>2021-04-26T14:45:02.000Z</time>
      </trkpt>
      <trkpt lat="47.19639" lon="-1.56235">
        <ele>53</ele>
        <time>2021-04-26T14:45:03.000Z</time>
      </trkpt>
      <trkpt lat="47.19632" lon="-1.56258">
        <ele>53</ele>
        <time>2021-04-26T14:45:05.000Z</time>
      </trkpt>
      <trkpt lat="47.19631" lon="-1.56271">
        <ele>53</ele>
        <time>2021-04-26T14:45:06.000Z</time>
      </trkpt>
      <trkpt lat="47.19631" lon="-1.56296">
        <ele>53</ele>
        <time>2021-04-26T14:45:08.000Z</time>
      </trkpt>
      <trkpt lat="47.1963" lon="-1.56321">
        <ele>53</ele>
        <time>2021-04-26T14:45:10.000Z</time>
      </trkpt>
      <trkpt lat="47.19629" lon="-1.56345">
        <ele>52</ele>
        <time>2021-04-26T14:45:12.000Z</time>
      </trkpt>
      <trkpt lat="47.19628" lon="-1.56369">
        <ele>51</ele>
        <time>2021-04-26T14:45:14.000Z</time>
      </trkpt>
      <trkpt lat="47.19629" lon="-1.56394">
        <ele>51</ele>
        <time>2021-04-26T14:45:16.000Z</time>
      </trkpt>
      <trkpt lat="47.1963" lon="-1.56419">
        <ele>51</ele>
        <time>2021-04-26T14:45:18.000Z</time>
      </trkpt>
      <trkpt lat="47.19631" lon="-1.56444">
        <ele>51</ele>
        <time>2021-04-26T14:45:20.000Z</time>
      </trkpt>
      <trkpt lat="47.19632" lon="-1.56468">
        <ele>51</ele>
        <time>2021-04-26T14:45:22.000Z</time>
      </trkpt>
      <trkpt lat="47.19633" lon="-1.56492">
        <ele>51</ele>
        <time>2021-04-26T14:45:24.000Z</time>
      </trkpt>
      <trkpt lat="47.19633" lon="-1.56516">
        <ele>51</ele>
        <time>2021-04-26T14:45:26.000Z</time>
      </trkpt>
      <trkpt lat="47.19632" lon="-1.5654">
        <ele>51</ele>
        <time>2021-04-26T14:45:28.000Z</time>
      </trkpt>
      <trkpt lat="47.19631" lon="-1.56564">
        <ele>51</ele>
        <time>2021-04-26T14:45:30.000Z</time>
      </trkpt>
      <trkpt lat="47.19631" lon="-1.56589">
        <ele>51</ele>
        <time>2021-04-26T14:45:32.000Z</time>
      </trkpt>
      <trkpt lat="47.1963" lon="-1.56612">
        <ele>51</ele>
        <time>2021-04-26T14:45:34.000Z</time>
      </trkpt>
      <trkpt lat="47.19629" lon="-1.56636">
        <ele>51</ele>
        <time>2021-04-26T14:45:36.000Z</time>
      </trkpt>
      <trkpt lat="47.19628" lon="-1.56661">
        <ele>51</ele>
        <time>2021-04-26T14:45:38.000Z</time>
      </trkpt>
      <trkpt lat="47.19628" lon="-1.56685">
        <ele>52</ele>
        <time>2021-04-26T14:45:40.000Z</time>
      </trkpt>
      <trkpt lat="47.19627" lon="-1.56709">
        <ele>52</ele>
        <time>2021-04-26T14:45:42.000Z</time>
      </trkpt>
      <trkpt lat="47.19625" lon="-1.56733">
        <ele>52</ele>
        <time>2021-04-26T14:45:44.000Z</time>
      </trkpt>
      <trkpt lat="47.19623" lon="-1.56755">
        <ele>52</ele>
        <time>2021-04-26T14:45:46.000Z</time>
      </trkpt>
      <trkpt lat="47.19621" lon="-1.56779">
        <ele>52</ele>
        <time>2021-04-26T14:45:48.000Z</time>
      </trkpt>
      <trkpt lat="47.19619" lon="-1.56801">
        <ele>52</ele>
        <time>2021-04-26T14:45:50.000Z</time>
      </trkpt>
      <trkpt lat="47.19617" lon="-1.56824">
        <ele>51</ele>
        <time>2021-04-26T14:45:52.000Z</time>
      </trkpt>
      <trkpt lat="47.19616" lon="-1.56847">
        <ele>51</ele>
        <time>2021-04-26T14:45:54.000Z</time>
      </trkpt>
      <trkpt lat="47.19615" lon="-1.5687">
        <ele>51</ele>
        <time>2021-04-26T14:45:56.000Z</time>
      </trkpt>
      <trkpt lat="47.19613" lon="-1.56891">
        <ele>51</ele>
        <time>2021-04-26T14:45:58.000Z</time>
      </trkpt>
      <trkpt lat="47.19611" lon="-1.56913">
        <ele>51</ele>
        <time>2021-04-26T14:46:00.000Z</time>
      </trkpt>
      <trkpt lat="47.1961" lon="-1.56933">
        <ele>51</ele>
        <time>2021-04-26T14:46:02.000Z</time>
      </trkpt>
      <trkpt lat="47.19609" lon="-1.56955">
        <ele>51</ele>
        <time>2021-04-26T14:46:04.000Z</time>
      </trkpt>
      <trkpt lat="47.19608" lon="-1.56977">
        <ele>51</ele>
        <time>2021-04-26T14:46:06.000Z</time>
      </trkpt>
      <trkpt lat="47.19606" lon="-1.56998">
        <ele>51</ele>
        <time>2021-04-26T14:46:08.000Z</time>
      </trkpt>
      <trkpt lat="47.19604" lon="-1.5702">
        <ele>50</ele>
        <time>2021-04-26T14:46:10.000Z</time>
      </trkpt>
      <trkpt lat="47.19603" lon="-1.57042">
        <ele>50</ele>
        <time>2021-04-26T14:46:12.000Z</time>
      </trkpt>
      <trkpt lat="47.19602" lon="-1.57064">
        <ele>50</ele>
        <time>2021-04-26T14:46:14.000Z</time>
      </trkpt>
      <trkpt lat="47.19601" lon="-1.57083">
        <ele>50</ele>
        <time>2021-04-26T14:46:16.000Z</time>
      </trkpt>
      <trkpt lat="47.19599" lon="-1.57103">
        <ele>50</ele>
        <time>2021-04-26T14:46:18.000Z</time>
      </trkpt>
      <trkpt lat="47.19597" lon="-1.57121">
        <ele>50</ele>
        <time>2021-04-26T14:46:20.000Z</time>
      </trkpt>
      <trkpt lat="47.19586" lon="-1.57129">
        <ele>49</ele>
        <time>2021-04-26T14:46:22.000Z</time>
      </trkpt>
      <trkpt lat="47.19572" lon="-1.57123">
        <ele>50</ele>
        <time>2021-04-26T14:46:24.000Z</time>
      </trkpt>
      <trkpt lat="47.19558" lon="-1.57121">
        <ele>51</ele>
        <time>2021-04-26T14:46:26.000Z</time>
      </trkpt>
      <trkpt lat="47.19545" lon="-1.57123">
        <ele>55</ele>
        <time>2021-04-26T14:46:28.000Z</time>
      </trkpt>
      <trkpt lat="47.19532" lon="-1.57123">
        <ele>58</ele>
        <time>2021-04-26T14:46:30.000Z</time>
      </trkpt>
      <trkpt lat="47.1952" lon="-1.5712">
        <ele>59</ele>
        <time>2021-04-26T14:46:32.000Z</time>
      </trkpt>
      <trkpt lat="47.19507" lon="-1.57116">
        <ele>59</ele>
        <time>2021-04-26T14:46:34.000Z</time>
      </trkpt>
      <trkpt lat="47.19495" lon="-1.57112">
        <ele>58</ele>
        <time>2021-04-26T14:46:36.000Z</time>
      </trkpt>
      <trkpt lat="47.19484" lon="-1.57108">
        <ele>58</ele>
        <time>2021-04-26T14:46:38.000Z</time>
      </trkpt>
      <trkpt lat="47.19473" lon="-1.57108">
        <ele>57</ele>
        <time>2021-04-26T14:46:40.000Z</time>
      </trkpt>
      <trkpt lat="47.19461" lon="-1.57109">
        <ele>57</ele>
        <time>2021-04-26T14:46:42.000Z</time>
      </trkpt>
      <trkpt lat="47.19447" lon="-1.57104">
        <ele>56</ele>
        <time>2021-04-26T14:46:44.000Z</time>
      </trkpt>
      <trkpt lat="47.19435" lon="-1.57095">
        <ele>56</ele>
        <time>2021-04-26T14:46:46.000Z</time>
      </trkpt>
      <trkpt lat="47.19423" lon="-1.57092">
        <ele>55</ele>
        <time>2021-04-26T14:46:48.000Z</time>
      </trkpt>
      <trkpt lat="47.19409" lon="-1.57088">
        <ele>55</ele>
        <time>2021-04-26T14:46:50.000Z</time>
      </trkpt>
      <trkpt lat="47.19396" lon="-1.57085">
        <ele>55</ele>
        <time>2021-04-26T14:46:52.000Z</time>
      </trkpt>
      <trkpt lat="47.19382" lon="-1.57082">
        <ele>55</ele>
        <time>2021-04-26T14:46:54.000Z</time>
      </trkpt>
      <trkpt lat="47.19369" lon="-1.57079">
        <ele>55</ele>
        <time>2021-04-26T14:46:56.000Z</time>
      </trkpt>
      <trkpt lat="47.19355" lon="-1.57077">
        <ele>55</ele>
        <time>2021-04-26T14:46:58.000Z</time>
      </trkpt>
      <trkpt lat="47.19343" lon="-1.57078">
        <ele>54</ele>
        <time>2021-04-26T14:47:00.000Z</time>
      </trkpt>
      <trkpt lat="47.19329" lon="-1.57082">
        <ele>54</ele>
        <time>2021-04-26T14:47:02.000Z</time>
      </trkpt>
      <trkpt lat="47.19315" lon="-1.57077">
        <ele>54</ele>
        <time>2021-04-26T14:47:04.000Z</time>
      </trkpt>
      <trkpt lat="47.19304" lon="-1.57067">
        <ele>53</ele>
        <time>2021-04-26T14:47:06.000Z</time>
      </trkpt>
      <trkpt lat="47.19293" lon="-1.57061">
        <ele>53</ele>
        <time>2021-04-26T14:47:08.000Z</time>
      </trkpt>
      <trkpt lat="47.1928" lon="-1.5706">
        <ele>54</ele>
        <time>2021-04-26T14:47:10.000Z</time>
      </trkpt>
      <trkpt lat="47.19264" lon="-1.57065">
        <ele>53</ele>
        <time>2021-04-26T14:47:12.000Z</time>
      </trkpt>
      <trkpt lat="47.1925" lon="-1.57056">
        <ele>53</ele>
        <time>2021-04-26T14:47:14.000Z</time>
      </trkpt>
      <trkpt lat="47.19237" lon="-1.57047">
        <ele>52</ele>
        <time>2021-04-26T14:47:16.000Z</time>
      </trkpt>
      <trkpt lat="47.19223" lon="-1.57043">
        <ele>52</ele>
        <time>2021-04-26T14:47:18.000Z</time>
      </trkpt>
      <trkpt lat="47.19208" lon="-1.5704">
        <ele>52</ele>
        <time>2021-04-26T14:47:20.000Z</time>
      </trkpt>
      <trkpt lat="47.19195" lon="-1.57036">
        <ele>52</ele>
        <time>2021-04-26T14:47:22.000Z</time>
      </trkpt>
      <trkpt lat="47.19183" lon="-1.57033">
        <ele>53</ele>
        <time>2021-04-26T14:47:24.000Z</time>
      </trkpt>
      <trkpt lat="47.19171" lon="-1.57029">
        <ele>53</ele>
        <time>2021-04-26T14:47:26.000Z</time>
      </trkpt>
      <trkpt lat="47.19161" lon="-1.57026">
        <ele>54</ele>
        <time>2021-04-26T14:47:28.000Z</time>
      </trkpt>
      <trkpt lat="47.1915" lon="-1.57025">
        <ele>54</ele>
        <time>2021-04-26T14:47:30.000Z</time>
      </trkpt>
      <trkpt lat="47.19141" lon="-1.57023">
        <ele>54</ele>
        <time>2021-04-26T14:47:32.000Z</time>
      </trkpt>
      <trkpt lat="47.1913" lon="-1.57022">
        <ele>55</ele>
        <time>2021-04-26T14:47:35.000Z</time>
      </trkpt>
      <trkpt lat="47.19123" lon="-1.57036">
        <ele>56</ele>
        <time>2021-04-26T14:47:38.000Z</time>
      </trkpt>
      <trkpt lat="47.19118" lon="-1.57051">
        <ele>55</ele>
        <time>2021-04-26T14:47:40.000Z</time>
      </trkpt>
      <trkpt lat="47.19113" lon="-1.57068">
        <ele>55</ele>
        <time>2021-04-26T14:47:42.000Z</time>
      </trkpt>
      <trkpt lat="47.19109" lon="-1.57084">
        <ele>54</ele>
        <time>2021-04-26T14:47:44.000Z</time>
      </trkpt>
      <trkpt lat="47.19106" lon="-1.57097">
        <ele>54</ele>
        <time>2021-04-26T14:47:46.000Z</time>
      </trkpt>
      <trkpt lat="47.19104" lon="-1.5711">
        <ele>54</ele>
        <time>2021-04-26T14:47:48.000Z</time>
      </trkpt>
      <trkpt lat="47.19096" lon="-1.57122">
        <ele>54</ele>
        <time>2021-04-26T14:47:50.000Z</time>
      </trkpt>
      <trkpt lat="47.19088" lon="-1.57135">
        <ele>54</ele>
        <time>2021-04-26T14:47:52.000Z</time>
      </trkpt>
      <trkpt lat="47.19082" lon="-1.57152">
        <ele>54</ele>
        <time>2021-04-26T14:47:54.000Z</time>
      </trkpt>
      <trkpt lat="47.19076" lon="-1.57171">
        <ele>53</ele>
        <time>2021-04-26T14:47:56.000Z</time>
      </trkpt>
      <trkpt lat="47.1907" lon="-1.5719">
        <ele>54</ele>
        <time>2021-04-26T14:47:58.000Z</time>
      </trkpt>
      <trkpt lat="47.19061" lon="-1.57206">
        <ele>54</ele>
        <time>2021-04-26T14:48:00.000Z</time>
      </trkpt>
      <trkpt lat="47.19051" lon="-1.57218">
        <ele>54</ele>
        <time>2021-04-26T14:48:02.000Z</time>
      </trkpt>
      <trkpt lat="47.19039" lon="-1.57227">
        <ele>55</ele>
        <time>2021-04-26T14:48:04.000Z</time>
      </trkpt>
      <trkpt lat="47.19027" lon="-1.57235">
        <ele>56</ele>
        <time>2021-04-26T14:48:06.000Z</time>
      </trkpt>
      <trkpt lat="47.19015" lon="-1.57243">
        <ele>56</ele>
        <time>2021-04-26T14:48:08.000Z</time>
      </trkpt>
      <trkpt lat="47.19004" lon="-1.57251">
        <ele>57</ele>
        <time>2021-04-26T14:48:10.000Z</time>
      </trkpt>
      <trkpt lat="47.18992" lon="-1.57258">
        <ele>58</ele>
        <time>2021-04-26T14:48:12.000Z</time>
      </trkpt>
      <trkpt lat="47.1898" lon="-1.57261">
        <ele>59</ele>
        <time>2021-04-26T14:48:14.000Z</time>
      </trkpt>
      <trkpt lat="47.18967" lon="-1.57262">
        <ele>58</ele>
        <time>2021-04-26T14:48:16.000Z</time>
      </trkpt>
      <trkpt lat="47.18954" lon="-1.57263">
        <ele>59</ele>
        <time>2021-04-26T14:48:18.000Z</time>
      </trkpt>
      <trkpt lat="47.18941" lon="-1.57264">
        <ele>59</ele>
        <time>2021-04-26T14:48:20.000Z</time>
      </trkpt>
      <trkpt lat="47.18928" lon="-1.57266">
        <ele>59</ele>
        <time>2021-04-26T14:48:22.000Z</time>
      </trkpt>
      <trkpt lat="47.18916" lon="-1.57267">
        <ele>59</ele>
        <time>2021-04-26T14:48:24.000Z</time>
      </trkpt>
      <trkpt lat="47.18904" lon="-1.57269">
        <ele>59</ele>
        <time>2021-04-26T14:48:26.000Z</time>
      </trkpt>
      <trkpt lat="47.18892" lon="-1.5727">
        <ele>59</ele>
        <time>2021-04-26T14:48:28.000Z</time>
      </trkpt>
      <trkpt lat="47.1888" lon="-1.57271">
        <ele>59</ele>
        <time>2021-04-26T14:48:30.000Z</time>
      </trkpt>
      <trkpt lat="47.18869" lon="-1.57275">
        <ele>60</ele>
        <time>2021-04-26T14:48:32.000Z</time>
      </trkpt>
      <trkpt lat="47.18859" lon="-1.5728">
        <ele>60</ele>
        <time>2021-04-26T14:48:34.000Z</time>
      </trkpt>
      <trkpt lat="47.18849" lon="-1.57289">
        <ele>60</ele>
        <time>2021-04-26T14:48:36.000Z</time>
      </trkpt>
      <trkpt lat="47.1884" lon="-1.57301">
        <ele>59</ele>
        <time>2021-04-26T14:48:38.000Z</time>
      </trkpt>
      <trkpt lat="47.18833" lon="-1.57316">
        <ele>59</ele>
        <time>2021-04-26T14:48:40.000Z</time>
      </trkpt>
      <trkpt lat="47.18827" lon="-1.57335">
        <ele>59</ele>
        <time>2021-04-26T14:48:42.000Z</time>
      </trkpt>
      <trkpt lat="47.18821" lon="-1.57355">
        <ele>58</ele>
        <time>2021-04-26T14:48:44.000Z</time>
      </trkpt>
      <trkpt lat="47.18815" lon="-1.57375">
        <ele>57</ele>
        <time>2021-04-26T14:48:46.000Z</time>
      </trkpt>
      <trkpt lat="47.18806" lon="-1.57393">
        <ele>57</ele>
        <time>2021-04-26T14:48:48.000Z</time>
      </trkpt>
      <trkpt lat="47.18792" lon="-1.57408">
        <ele>56</ele>
        <time>2021-04-26T14:48:50.000Z</time>
      </trkpt>
      <trkpt lat="47.18783" lon="-1.57413">
        <ele>56</ele>
        <time>2021-04-26T14:48:51.000Z</time>
      </trkpt>
      <trkpt lat="47.18766" lon="-1.57422">
        <ele>55</ele>
        <time>2021-04-26T14:48:53.000Z</time>
      </trkpt>
      <trkpt lat="47.18758" lon="-1.57427">
        <ele>55</ele>
        <time>2021-04-26T14:48:54.000Z</time>
      </trkpt>
      <trkpt lat="47.18741" lon="-1.57435">
        <ele>54</ele>
        <time>2021-04-26T14:48:56.000Z</time>
      </trkpt>
      <trkpt lat="47.18725" lon="-1.57443">
        <ele>54</ele>
        <time>2021-04-26T14:48:58.000Z</time>
      </trkpt>
      <trkpt lat="47.18711" lon="-1.57451">
        <ele>55</ele>
        <time>2021-04-26T14:49:00.000Z</time>
      </trkpt>
      <trkpt lat="47.18696" lon="-1.57458">
        <ele>55</ele>
        <time>2021-04-26T14:49:02.000Z</time>
      </trkpt>
      <trkpt lat="47.18683" lon="-1.57466">
        <ele>56</ele>
        <time>2021-04-26T14:49:04.000Z</time>
      </trkpt>
      <trkpt lat="47.1867" lon="-1.57477">
        <ele>56</ele>
        <time>2021-04-26T14:49:06.000Z</time>
      </trkpt>
      <trkpt lat="47.18659" lon="-1.57488">
        <ele>57</ele>
        <time>2021-04-26T14:49:08.000Z</time>
      </trkpt>
      <trkpt lat="47.18649" lon="-1.57502">
        <ele>57</ele>
        <time>2021-04-26T14:49:10.000Z</time>
      </trkpt>
      <trkpt lat="47.18641" lon="-1.57516">
        <ele>57</ele>
        <time>2021-04-26T14:49:12.000Z</time>
      </trkpt>
      <trkpt lat="47.18635" lon="-1.57533">
        <ele>58</ele>
        <time>2021-04-26T14:49:14.000Z</time>
      </trkpt>
      <trkpt lat="47.1863" lon="-1.57549">
        <ele>58</ele>
        <time>2021-04-26T14:49:16.000Z</time>
      </trkpt>
      <trkpt lat="47.18626" lon="-1.57566">
        <ele>59</ele>
        <time>2021-04-26T14:49:18.000Z</time>
      </trkpt>
      <trkpt lat="47.18622" lon="-1.57582">
        <ele>59</ele>
        <time>2021-04-26T14:49:20.000Z</time>
      </trkpt>
      <trkpt lat="47.18621" lon="-1.576">
        <ele>59</ele>
        <time>2021-04-26T14:49:22.000Z</time>
      </trkpt>
      <trkpt lat="47.18622" lon="-1.57618">
        <ele>60</ele>
        <time>2021-04-26T14:49:24.000Z</time>
      </trkpt>
      <trkpt lat="47.18623" lon="-1.57636">
        <ele>59</ele>
        <time>2021-04-26T14:49:26.000Z</time>
      </trkpt>
      <trkpt lat="47.18624" lon="-1.57655">
        <ele>60</ele>
        <time>2021-04-26T14:49:28.000Z</time>
      </trkpt>
      <trkpt lat="47.18626" lon="-1.57673">
        <ele>60</ele>
        <time>2021-04-26T14:49:30.000Z</time>
      </trkpt>
      <trkpt lat="47.18628" lon="-1.57691">
        <ele>60</ele>
        <time>2021-04-26T14:49:32.000Z</time>
      </trkpt>
      <trkpt lat="47.18629" lon="-1.5771">
        <ele>59</ele>
        <time>2021-04-26T14:49:34.000Z</time>
      </trkpt>
      <trkpt lat="47.18631" lon="-1.57728">
        <ele>59</ele>
        <time>2021-04-26T14:49:36.000Z</time>
      </trkpt>
      <trkpt lat="47.18632" lon="-1.57746">
        <ele>59</ele>
        <time>2021-04-26T14:49:38.000Z</time>
      </trkpt>
      <trkpt lat="47.18633" lon="-1.57763">
        <ele>59</ele>
        <time>2021-04-26T14:49:40.000Z</time>
      </trkpt>
      <trkpt lat="47.18634" lon="-1.57781">
        <ele>59</ele>
        <time>2021-04-26T14:49:42.000Z</time>
      </trkpt>
      <trkpt lat="47.18635" lon="-1.57798">
        <ele>59</ele>
        <time>2021-04-26T14:49:44.000Z</time>
      </trkpt>
      <trkpt lat="47.18637" lon="-1.57816">
        <ele>59</ele>
        <time>2021-04-26T14:49:46.000Z</time>
      </trkpt>
      <trkpt lat="47.18638" lon="-1.57834">
        <ele>59</ele>
        <time>2021-04-26T14:49:48.000Z</time>
      </trkpt>
      <trkpt lat="47.18638" lon="-1.57852">
        <ele>59</ele>
        <time>2021-04-26T14:49:50.000Z</time>
      </trkpt>
      <trkpt lat="47.18637" lon="-1.57871">
        <ele>59</ele>
        <time>2021-04-26T14:49:52.000Z</time>
      </trkpt>
      <trkpt lat="47.18634" lon="-1.57889">
        <ele>59</ele>
        <time>2021-04-26T14:49:54.000Z</time>
      </trkpt>
      <trkpt lat="47.18632" lon="-1.57907">
        <ele>60</ele>
        <time>2021-04-26T14:49:56.000Z</time>
      </trkpt>
      <trkpt lat="47.18629" lon="-1.57923">
        <ele>60</ele>
        <time>2021-04-26T14:49:58.000Z</time>
      </trkpt>
      <trkpt lat="47.18627" lon="-1.57939">
        <ele>60</ele>
        <time>2021-04-26T14:50:00.000Z</time>
      </trkpt>
      <trkpt lat="47.18625" lon="-1.57952">
        <ele>60</ele>
        <time>2021-04-26T14:50:02.000Z</time>
      </trkpt>
      <trkpt lat="47.18622" lon="-1.57971">
        <ele>60</ele>
        <time>2021-04-26T14:50:05.000Z</time>
      </trkpt>
      <trkpt lat="47.1862" lon="-1.57985">
        <ele>60</ele>
        <time>2021-04-26T14:50:07.000Z</time>
      </trkpt>
      <trkpt lat="47.18618" lon="-1.57999">
        <ele>60</ele>
        <time>2021-04-26T14:50:09.000Z</time>
      </trkpt>
      <trkpt lat="47.18616" lon="-1.58014">
        <ele>61</ele>
        <time>2021-04-26T14:50:11.000Z</time>
      </trkpt>
      <trkpt lat="47.18613" lon="-1.58031">
        <ele>61</ele>
        <time>2021-04-26T14:50:13.000Z</time>
      </trkpt>
      <trkpt lat="47.18609" lon="-1.58049">
        <ele>61</ele>
        <time>2021-04-26T14:50:15.000Z</time>
      </trkpt>
      <trkpt lat="47.18606" lon="-1.58068">
        <ele>61</ele>
        <time>2021-04-26T14:50:17.000Z</time>
      </trkpt>
      <trkpt lat="47.18604" lon="-1.58088">
        <ele>61</ele>
        <time>2021-04-26T14:50:19.000Z</time>
      </trkpt>
      <trkpt lat="47.186" lon="-1.58107">
        <ele>61</ele>
        <time>2021-04-26T14:50:21.000Z</time>
      </trkpt>
      <trkpt lat="47.18597" lon="-1.58127">
        <ele>62</ele>
        <time>2021-04-26T14:50:23.000Z</time>
      </trkpt>
      <trkpt lat="47.18594" lon="-1.58145">
        <ele>61</ele>
        <time>2021-04-26T14:50:25.000Z</time>
      </trkpt>
      <trkpt lat="47.18591" lon="-1.58165">
        <ele>62</ele>
        <time>2021-04-26T14:50:27.000Z</time>
      </trkpt>
      <trkpt lat="47.18588" lon="-1.58185">
        <ele>61</ele>
        <time>2021-04-26T14:50:29.000Z</time>
      </trkpt>
      <trkpt lat="47.18584" lon="-1.58206">
        <ele>61</ele>
        <time>2021-04-26T14:50:31.000Z</time>
      </trkpt>
      <trkpt lat="47.18581" lon="-1.58228">
        <ele>60</ele>
        <time>2021-04-26T14:50:33.000Z</time>
      </trkpt>
      <trkpt lat="47.18578" lon="-1.5825">
        <ele>60</ele>
        <time>2021-04-26T14:50:35.000Z</time>
      </trkpt>
      <trkpt lat="47.18574" lon="-1.58272">
        <ele>59</ele>
        <time>2021-04-26T14:50:37.000Z</time>
      </trkpt>
      <trkpt lat="47.1857" lon="-1.58296">
        <ele>58</ele>
        <time>2021-04-26T14:50:39.000Z</time>
      </trkpt>
      <trkpt lat="47.18566" lon="-1.5832">
        <ele>57</ele>
        <time>2021-04-26T14:50:41.000Z</time>
      </trkpt>
      <trkpt lat="47.18562" lon="-1.58345">
        <ele>56</ele>
        <time>2021-04-26T14:50:43.000Z</time>
      </trkpt>
      <trkpt lat="47.18558" lon="-1.58371">
        <ele>55</ele>
        <time>2021-04-26T14:50:45.000Z</time>
      </trkpt>
      <trkpt lat="47.18554" lon="-1.58395">
        <ele>55</ele>
        <time>2021-04-26T14:50:47.000Z</time>
      </trkpt>
      <trkpt lat="47.18551" lon="-1.58419">
        <ele>55</ele>
        <time>2021-04-26T14:50:49.000Z</time>
      </trkpt>
      <trkpt lat="47.18548" lon="-1.58441">
        <ele>55</ele>
        <time>2021-04-26T14:50:51.000Z</time>
      </trkpt>
      <trkpt lat="47.18545" lon="-1.58463">
        <ele>55</ele>
        <time>2021-04-26T14:50:53.000Z</time>
      </trkpt>
      <trkpt lat="47.18542" lon="-1.58484">
        <ele>56</ele>
        <time>2021-04-26T14:50:55.000Z</time>
      </trkpt>
      <trkpt lat="47.18537" lon="-1.58503">
        <ele>56</ele>
        <time>2021-04-26T14:50:57.000Z</time>
      </trkpt>
      <trkpt lat="47.18531" lon="-1.58521">
        <ele>57</ele>
        <time>2021-04-26T14:50:59.000Z</time>
      </trkpt>
      <trkpt lat="47.18525" lon="-1.58539">
        <ele>57</ele>
        <time>2021-04-26T14:51:01.000Z</time>
      </trkpt>
      <trkpt lat="47.18519" lon="-1.58557">
        <ele>58</ele>
        <time>2021-04-26T14:51:03.000Z</time>
      </trkpt>
      <trkpt lat="47.18512" lon="-1.58575">
        <ele>58</ele>
        <time>2021-04-26T14:51:05.000Z</time>
      </trkpt>
      <trkpt lat="47.18506" lon="-1.58592">
        <ele>59</ele>
        <time>2021-04-26T14:51:07.000Z</time>
      </trkpt>
      <trkpt lat="47.18504" lon="-1.58609">
        <ele>59</ele>
        <time>2021-04-26T14:51:09.000Z</time>
      </trkpt>
      <trkpt lat="47.18503" lon="-1.58624">
        <ele>59</ele>
        <time>2021-04-26T14:51:11.000Z</time>
      </trkpt>
      <trkpt lat="47.18502" lon="-1.58639">
        <ele>59</ele>
        <time>2021-04-26T14:51:13.000Z</time>
      </trkpt>
      <trkpt lat="47.18501" lon="-1.58656">
        <ele>59</ele>
        <time>2021-04-26T14:51:15.000Z</time>
      </trkpt>
      <trkpt lat="47.18502" lon="-1.58675">
        <ele>59</ele>
        <time>2021-04-26T14:51:17.000Z</time>
      </trkpt>
      <trkpt lat="47.18507" lon="-1.58694">
        <ele>59</ele>
        <time>2021-04-26T14:51:19.000Z</time>
      </trkpt>
      <trkpt lat="47.18508" lon="-1.58715">
        <ele>59</ele>
        <time>2021-04-26T14:51:21.000Z</time>
      </trkpt>
      <trkpt lat="47.18507" lon="-1.58736">
        <ele>59</ele>
        <time>2021-04-26T14:51:23.000Z</time>
      </trkpt>
      <trkpt lat="47.18508" lon="-1.58757">
        <ele>59</ele>
        <time>2021-04-26T14:51:25.000Z</time>
      </trkpt>
      <trkpt lat="47.18509" lon="-1.58778">
        <ele>58</ele>
        <time>2021-04-26T14:51:27.000Z</time>
      </trkpt>
      <trkpt lat="47.18508" lon="-1.58798">
        <ele>58</ele>
        <time>2021-04-26T14:51:29.000Z</time>
      </trkpt>
      <trkpt lat="47.18504" lon="-1.58818">
        <ele>58</ele>
        <time>2021-04-26T14:51:31.000Z</time>
      </trkpt>
      <trkpt lat="47.18501" lon="-1.58838">
        <ele>59</ele>
        <time>2021-04-26T14:51:33.000Z</time>
      </trkpt>
      <trkpt lat="47.18496" lon="-1.58858">
        <ele>59</ele>
        <time>2021-04-26T14:51:35.000Z</time>
      </trkpt>
      <trkpt lat="47.18491" lon="-1.58877">
        <ele>59</ele>
        <time>2021-04-26T14:51:37.000Z</time>
      </trkpt>
      <trkpt lat="47.18484" lon="-1.58895">
        <ele>59</ele>
        <time>2021-04-26T14:51:39.000Z</time>
      </trkpt>
      <trkpt lat="47.18475" lon="-1.5891">
        <ele>59</ele>
        <time>2021-04-26T14:51:41.000Z</time>
      </trkpt>
      <trkpt lat="47.18466" lon="-1.58924">
        <ele>60</ele>
        <time>2021-04-26T14:51:43.000Z</time>
      </trkpt>
      <trkpt lat="47.18454" lon="-1.58933">
        <ele>61</ele>
        <time>2021-04-26T14:51:45.000Z</time>
      </trkpt>
      <trkpt lat="47.18443" lon="-1.58942">
        <ele>61</ele>
        <time>2021-04-26T14:51:47.000Z</time>
      </trkpt>
      <trkpt lat="47.18433" lon="-1.5895">
        <ele>62</ele>
        <time>2021-04-26T14:51:49.000Z</time>
      </trkpt>
      <trkpt lat="47.1842" lon="-1.58957">
        <ele>63</ele>
        <time>2021-04-26T14:51:51.000Z</time>
      </trkpt>
      <trkpt lat="47.18407" lon="-1.58964">
        <ele>64</ele>
        <time>2021-04-26T14:51:53.000Z</time>
      </trkpt>
      <trkpt lat="47.18394" lon="-1.58972">
        <ele>65</ele>
        <time>2021-04-26T14:51:55.000Z</time>
      </trkpt>
      <trkpt lat="47.1838" lon="-1.5898">
        <ele>66</ele>
        <time>2021-04-26T14:51:57.000Z</time>
      </trkpt>
      <trkpt lat="47.18367" lon="-1.58989">
        <ele>67</ele>
        <time>2021-04-26T14:51:59.000Z</time>
      </trkpt>
      <trkpt lat="47.18356" lon="-1.58999">
        <ele>67</ele>
        <time>2021-04-26T14:52:01.000Z</time>
      </trkpt>
      <trkpt lat="47.18345" lon="-1.59011">
        <ele>67</ele>
        <time>2021-04-26T14:52:03.000Z</time>
      </trkpt>
      <trkpt lat="47.18336" lon="-1.59025">
        <ele>66</ele>
        <time>2021-04-26T14:52:05.000Z</time>
      </trkpt>
      <trkpt lat="47.18329" lon="-1.59042">
        <ele>66</ele>
        <time>2021-04-26T14:52:07.000Z</time>
      </trkpt>
      <trkpt lat="47.18323" lon="-1.59059">
        <ele>66</ele>
        <time>2021-04-26T14:52:09.000Z</time>
      </trkpt>
      <trkpt lat="47.18317" lon="-1.59076">
        <ele>65</ele>
        <time>2021-04-26T14:52:11.000Z</time>
      </trkpt>
      <trkpt lat="47.18311" lon="-1.59094">
        <ele>65</ele>
        <time>2021-04-26T14:52:13.000Z</time>
      </trkpt>
      <trkpt lat="47.18305" lon="-1.59112">
        <ele>66</ele>
        <time>2021-04-26T14:52:15.000Z</time>
      </trkpt>
      <trkpt lat="47.18298" lon="-1.59129">
        <ele>66</ele>
        <time>2021-04-26T14:52:17.000Z</time>
      </trkpt>
      <trkpt lat="47.18292" lon="-1.59146">
        <ele>66</ele>
        <time>2021-04-26T14:52:19.000Z</time>
      </trkpt>
      <trkpt lat="47.18286" lon="-1.59162">
        <ele>66</ele>
        <time>2021-04-26T14:52:21.000Z</time>
      </trkpt>
      <trkpt lat="47.18281" lon="-1.59179">
        <ele>66</ele>
        <time>2021-04-26T14:52:23.000Z</time>
      </trkpt>
      <trkpt lat="47.18277" lon="-1.59195">
        <ele>66</ele>
        <time>2021-04-26T14:52:25.000Z</time>
      </trkpt>
      <trkpt lat="47.18272" lon="-1.59212">
        <ele>66</ele>
        <time>2021-04-26T14:52:27.000Z</time>
      </trkpt>
      <trkpt lat="47.1826" lon="-1.59222">
        <ele>66</ele>
        <time>2021-04-26T14:52:29.000Z</time>
      </trkpt>
      <trkpt lat="47.18248" lon="-1.59232">
        <ele>65</ele>
        <time>2021-04-26T14:52:31.000Z</time>
      </trkpt>
      <trkpt lat="47.18238" lon="-1.59244">
        <ele>66</ele>
        <time>2021-04-26T14:52:33.000Z</time>
      </trkpt>
      <trkpt lat="47.18227" lon="-1.59256">
        <ele>66</ele>
        <time>2021-04-26T14:52:35.000Z</time>
      </trkpt>
      <trkpt lat="47.18216" lon="-1.59268">
        <ele>67</ele>
        <time>2021-04-26T14:52:37.000Z</time>
      </trkpt>
      <trkpt lat="47.18205" lon="-1.59279">
        <ele>67</ele>
        <time>2021-04-26T14:52:39.000Z</time>
      </trkpt>
      <trkpt lat="47.18194" lon="-1.5929">
        <ele>67</ele>
        <time>2021-04-26T14:52:41.000Z</time>
      </trkpt>
      <trkpt lat="47.18183" lon="-1.59301">
        <ele>67</ele>
        <time>2021-04-26T14:52:43.000Z</time>
      </trkpt>
      <trkpt lat="47.18172" lon="-1.59313">
        <ele>67</ele>
        <time>2021-04-26T14:52:45.000Z</time>
      </trkpt>
      <trkpt lat="47.18161" lon="-1.59324">
        <ele>67</ele>
        <time>2021-04-26T14:52:47.000Z</time>
      </trkpt>
      <trkpt lat="47.1815" lon="-1.59334">
        <ele>67</ele>
        <time>2021-04-26T14:52:49.000Z</time>
      </trkpt>
      <trkpt lat="47.18139" lon="-1.59346">
        <ele>66</ele>
        <time>2021-04-26T14:52:51.000Z</time>
      </trkpt>
      <trkpt lat="47.18127" lon="-1.59357">
        <ele>67</ele>
        <time>2021-04-26T14:52:53.000Z</time>
      </trkpt>
      <trkpt lat="47.18117" lon="-1.59368">
        <ele>67</ele>
        <time>2021-04-26T14:52:55.000Z</time>
      </trkpt>
      <trkpt lat="47.18106" lon="-1.59379">
        <ele>66</ele>
        <time>2021-04-26T14:52:57.000Z</time>
      </trkpt>
      <trkpt lat="47.18095" lon="-1.5939">
        <ele>67</ele>
        <time>2021-04-26T14:52:59.000Z</time>
      </trkpt>
      <trkpt lat="47.18083" lon="-1.594">
        <ele>67</ele>
        <time>2021-04-26T14:53:01.000Z</time>
      </trkpt>
      <trkpt lat="47.18072" lon="-1.59412">
        <ele>67</ele>
        <time>2021-04-26T14:53:03.000Z</time>
      </trkpt>
      <trkpt lat="47.18063" lon="-1.59426">
        <ele>67</ele>
        <time>2021-04-26T14:53:05.000Z</time>
      </trkpt>
      <trkpt lat="47.18053" lon="-1.59439">
        <ele>67</ele>
        <time>2021-04-26T14:53:07.000Z</time>
      </trkpt>
      <trkpt lat="47.18044" lon="-1.59454">
        <ele>67</ele>
        <time>2021-04-26T14:53:09.000Z</time>
      </trkpt>
      <trkpt lat="47.18037" lon="-1.59472">
        <ele>67</ele>
        <time>2021-04-26T14:53:11.000Z</time>
      </trkpt>
      <trkpt lat="47.18032" lon="-1.59491">
        <ele>66</ele>
        <time>2021-04-26T14:53:13.000Z</time>
      </trkpt>
      <trkpt lat="47.18027" lon="-1.5951">
        <ele>66</ele>
        <time>2021-04-26T14:53:15.000Z</time>
      </trkpt>
      <trkpt lat="47.18022" lon="-1.5953">
        <ele>66</ele>
        <time>2021-04-26T14:53:17.000Z</time>
      </trkpt>
      <trkpt lat="47.18018" lon="-1.59549">
        <ele>66</ele>
        <time>2021-04-26T14:53:19.000Z</time>
      </trkpt>
      <trkpt lat="47.18012" lon="-1.59568">
        <ele>66</ele>
        <time>2021-04-26T14:53:21.000Z</time>
      </trkpt>
      <trkpt lat="47.18007" lon="-1.59587">
        <ele>66</ele>
        <time>2021-04-26T14:53:23.000Z</time>
      </trkpt>
      <trkpt lat="47.18002" lon="-1.59606">
        <ele>66</ele>
        <time>2021-04-26T14:53:25.000Z</time>
      </trkpt>
      <trkpt lat="47.17997" lon="-1.59625">
        <ele>65</ele>
        <time>2021-04-26T14:53:27.000Z</time>
      </trkpt>
      <trkpt lat="47.17992" lon="-1.59644">
        <ele>65</ele>
        <time>2021-04-26T14:53:29.000Z</time>
      </trkpt>
      <trkpt lat="47.17987" lon="-1.59664">
        <ele>64</ele>
        <time>2021-04-26T14:53:31.000Z</time>
      </trkpt>
      <trkpt lat="47.17983" lon="-1.59685">
        <ele>64</ele>
        <time>2021-04-26T14:53:33.000Z</time>
      </trkpt>
      <trkpt lat="47.17978" lon="-1.59706">
        <ele>63</ele>
        <time>2021-04-26T14:53:35.000Z</time>
      </trkpt>
      <trkpt lat="47.17971" lon="-1.59727">
        <ele>62</ele>
        <time>2021-04-26T14:53:37.000Z</time>
      </trkpt>
      <trkpt lat="47.17965" lon="-1.5975">
        <ele>62</ele>
        <time>2021-04-26T14:53:39.000Z</time>
      </trkpt>
      <trkpt lat="47.17959" lon="-1.59773">
        <ele>61</ele>
        <time>2021-04-26T14:53:41.000Z</time>
      </trkpt>
      <trkpt lat="47.17952" lon="-1.59797">
        <ele>60</ele>
        <time>2021-04-26T14:53:43.000Z</time>
      </trkpt>
      <trkpt lat="47.1795" lon="-1.5981">
        <ele>60</ele>
        <time>2021-04-26T14:53:44.000Z</time>
      </trkpt>
      <trkpt lat="47.17948" lon="-1.59824">
        <ele>59</ele>
        <time>2021-04-26T14:53:45.000Z</time>
      </trkpt>
      <trkpt lat="47.17946" lon="-1.59838">
        <ele>58</ele>
        <time>2021-04-26T14:53:46.000Z</time>
      </trkpt>
      <trkpt lat="47.17944" lon="-1.59852">
        <ele>57</ele>
        <time>2021-04-26T14:53:47.000Z</time>
      </trkpt>
      <trkpt lat="47.17941" lon="-1.59867">
        <ele>57</ele>
        <time>2021-04-26T14:53:48.000Z</time>
      </trkpt>
      <trkpt lat="47.17938" lon="-1.59881">
        <ele>57</ele>
        <time>2021-04-26T14:53:49.000Z</time>
      </trkpt>
      <trkpt lat="47.17934" lon="-1.59895">
        <ele>56</ele>
        <time>2021-04-26T14:53:50.000Z</time>
      </trkpt>
      <trkpt lat="47.1793" lon="-1.59909">
        <ele>55</ele>
        <time>2021-04-26T14:53:51.000Z</time>
      </trkpt>
      <trkpt lat="47.17927" lon="-1.59924">
        <ele>55</ele>
        <time>2021-04-26T14:53:52.000Z</time>
      </trkpt>
      <trkpt lat="47.17921" lon="-1.59937">
        <ele>54</ele>
        <time>2021-04-26T14:53:53.000Z</time>
      </trkpt>
      <trkpt lat="47.17912" lon="-1.59944">
        <ele>54</ele>
        <time>2021-04-26T14:53:54.000Z</time>
      </trkpt>
      <trkpt lat="47.17901" lon="-1.59945">
        <ele>54</ele>
        <time>2021-04-26T14:53:55.000Z</time>
      </trkpt>
      <trkpt lat="47.17892" lon="-1.59947">
        <ele>54</ele>
        <time>2021-04-26T14:53:56.000Z</time>
      </trkpt>
      <trkpt lat="47.17884" lon="-1.59954">
        <ele>54</ele>
        <time>2021-04-26T14:53:57.000Z</time>
      </trkpt>
      <trkpt lat="47.17877" lon="-1.59963">
        <ele>54</ele>
        <time>2021-04-26T14:53:58.000Z</time>
      </trkpt>
      <trkpt lat="47.17871" lon="-1.59974">
        <ele>55</ele>
        <time>2021-04-26T14:53:59.000Z</time>
      </trkpt>
      <trkpt lat="47.17859" lon="-1.59995">
        <ele>55</ele>
        <time>2021-04-26T14:54:01.000Z</time>
      </trkpt>
      <trkpt lat="47.17853" lon="-1.60005">
        <ele>55</ele>
        <time>2021-04-26T14:54:02.000Z</time>
      </trkpt>
      <trkpt lat="47.17847" lon="-1.60016">
        <ele>55</ele>
        <time>2021-04-26T14:54:03.000Z</time>
      </trkpt>
      <trkpt lat="47.17841" lon="-1.60025">
        <ele>55</ele>
        <time>2021-04-26T14:54:04.000Z</time>
      </trkpt>
      <trkpt lat="47.1783" lon="-1.60046">
        <ele>56</ele>
        <time>2021-04-26T14:54:06.000Z</time>
      </trkpt>
      <trkpt lat="47.1782" lon="-1.60065">
        <ele>57</ele>
        <time>2021-04-26T14:54:08.000Z</time>
      </trkpt>
      <trkpt lat="47.17809" lon="-1.60083">
        <ele>58</ele>
        <time>2021-04-26T14:54:10.000Z</time>
      </trkpt>
      <trkpt lat="47.17799" lon="-1.60101">
        <ele>58</ele>
        <time>2021-04-26T14:54:12.000Z</time>
      </trkpt>
      <trkpt lat="47.17788" lon="-1.60119">
        <ele>59</ele>
        <time>2021-04-26T14:54:14.000Z</time>
      </trkpt>
      <trkpt lat="47.17778" lon="-1.60136">
        <ele>60</ele>
        <time>2021-04-26T14:54:16.000Z</time>
      </trkpt>
      <trkpt lat="47.17768" lon="-1.60153">
        <ele>60</ele>
        <time>2021-04-26T14:54:18.000Z</time>
      </trkpt>
      <trkpt lat="47.17759" lon="-1.60172">
        <ele>61</ele>
        <time>2021-04-26T14:54:20.000Z</time>
      </trkpt>
      <trkpt lat="47.17752" lon="-1.60191">
        <ele>62</ele>
        <time>2021-04-26T14:54:22.000Z</time>
      </trkpt>
      <trkpt lat="47.17747" lon="-1.60212">
        <ele>62</ele>
        <time>2021-04-26T14:54:24.000Z</time>
      </trkpt>
      <trkpt lat="47.17742" lon="-1.60233">
        <ele>63</ele>
        <time>2021-04-26T14:54:26.000Z</time>
      </trkpt>
      <trkpt lat="47.17735" lon="-1.60256">
        <ele>63</ele>
        <time>2021-04-26T14:54:28.000Z</time>
      </trkpt>
      <trkpt lat="47.17725" lon="-1.60277">
        <ele>64</ele>
        <time>2021-04-26T14:54:30.000Z</time>
      </trkpt>
      <trkpt lat="47.17711" lon="-1.60295">
        <ele>64</ele>
        <time>2021-04-26T14:54:32.000Z</time>
      </trkpt>
      <trkpt lat="47.17704" lon="-1.60304">
        <ele>64</ele>
        <time>2021-04-26T14:54:33.000Z</time>
      </trkpt>
      <trkpt lat="47.17698" lon="-1.60313">
        <ele>64</ele>
        <time>2021-04-26T14:54:34.000Z</time>
      </trkpt>
      <trkpt lat="47.17684" lon="-1.6033">
        <ele>65</ele>
        <time>2021-04-26T14:54:36.000Z</time>
      </trkpt>
      <trkpt lat="47.17671" lon="-1.60348">
        <ele>64</ele>
        <time>2021-04-26T14:54:38.000Z</time>
      </trkpt>
      <trkpt lat="47.1766" lon="-1.60368">
        <ele>64</ele>
        <time>2021-04-26T14:54:40.000Z</time>
      </trkpt>
      <trkpt lat="47.17649" lon="-1.60388">
        <ele>63</ele>
        <time>2021-04-26T14:54:42.000Z</time>
      </trkpt>
      <trkpt lat="47.17643" lon="-1.60398">
        <ele>63</ele>
        <time>2021-04-26T14:54:43.000Z</time>
      </trkpt>
      <trkpt lat="47.17637" lon="-1.60408">
        <ele>63</ele>
        <time>2021-04-26T14:54:44.000Z</time>
      </trkpt>
      <trkpt lat="47.1763" lon="-1.60418">
        <ele>63</ele>
        <time>2021-04-26T14:54:45.000Z</time>
      </trkpt>
      <trkpt lat="47.17624" lon="-1.60428">
        <ele>63</ele>
        <time>2021-04-26T14:54:46.000Z</time>
      </trkpt>
      <trkpt lat="47.17618" lon="-1.60438">
        <ele>63</ele>
        <time>2021-04-26T14:54:47.000Z</time>
      </trkpt>
      <trkpt lat="47.17612" lon="-1.60448">
        <ele>63</ele>
        <time>2021-04-26T14:54:48.000Z</time>
      </trkpt>
      <trkpt lat="47.17605" lon="-1.60458">
        <ele>62</ele>
        <time>2021-04-26T14:54:49.000Z</time>
      </trkpt>
      <trkpt lat="47.17599" lon="-1.60468">
        <ele>62</ele>
        <time>2021-04-26T14:54:50.000Z</time>
      </trkpt>
      <trkpt lat="47.17593" lon="-1.60478">
        <ele>62</ele>
        <time>2021-04-26T14:54:51.000Z</time>
      </trkpt>
      <trkpt lat="47.17587" lon="-1.60488">
        <ele>62</ele>
        <time>2021-04-26T14:54:52.000Z</time>
      </trkpt>
      <trkpt lat="47.17581" lon="-1.60499">
        <ele>62</ele>
        <time>2021-04-26T14:54:53.000Z</time>
      </trkpt>
      <trkpt lat="47.17575" lon="-1.60509">
        <ele>62</ele>
        <time>2021-04-26T14:54:54.000Z</time>
      </trkpt>
      <trkpt lat="47.17569" lon="-1.60519">
        <ele>62</ele>
        <time>2021-04-26T14:54:55.000Z</time>
      </trkpt>
      <trkpt lat="47.17563" lon="-1.60529">
        <ele>61</ele>
        <time>2021-04-26T14:54:56.000Z</time>
      </trkpt>
      <trkpt lat="47.17556" lon="-1.60539">
        <ele>61</ele>
        <time>2021-04-26T14:54:57.000Z</time>
      </trkpt>
      <trkpt lat="47.17544" lon="-1.60558">
        <ele>61</ele>
        <time>2021-04-26T14:54:59.000Z</time>
      </trkpt>
      <trkpt lat="47.17533" lon="-1.60577">
        <ele>61</ele>
        <time>2021-04-26T14:55:01.000Z</time>
      </trkpt>
      <trkpt lat="47.17521" lon="-1.60597">
        <ele>61</ele>
        <time>2021-04-26T14:55:03.000Z</time>
      </trkpt>
      <trkpt lat="47.17515" lon="-1.60607">
        <ele>60</ele>
        <time>2021-04-26T14:55:04.000Z</time>
      </trkpt>
      <trkpt lat="47.17509" lon="-1.60617">
        <ele>60</ele>
        <time>2021-04-26T14:55:05.000Z</time>
      </trkpt>
      <trkpt lat="47.17502" lon="-1.60627">
        <ele>60</ele>
        <time>2021-04-26T14:55:06.000Z</time>
      </trkpt>
      <trkpt lat="47.17496" lon="-1.60636">
        <ele>60</ele>
        <time>2021-04-26T14:55:07.000Z</time>
      </trkpt>
      <trkpt lat="47.1749" lon="-1.60646">
        <ele>60</ele>
        <time>2021-04-26T14:55:08.000Z</time>
      </trkpt>
      <trkpt lat="47.17484" lon="-1.60656">
        <ele>60</ele>
        <time>2021-04-26T14:55:09.000Z</time>
      </trkpt>
      <trkpt lat="47.17477" lon="-1.60667">
        <ele>60</ele>
        <time>2021-04-26T14:55:10.000Z</time>
      </trkpt>
      <trkpt lat="47.17471" lon="-1.60677">
        <ele>60</ele>
        <time>2021-04-26T14:55:11.000Z</time>
      </trkpt>
      <trkpt lat="47.17465" lon="-1.60688">
        <ele>60</ele>
        <time>2021-04-26T14:55:12.000Z</time>
      </trkpt>
      <trkpt lat="47.17458" lon="-1.60699">
        <ele>59</ele>
        <time>2021-04-26T14:55:13.000Z</time>
      </trkpt>
      <trkpt lat="47.17452" lon="-1.60709">
        <ele>59</ele>
        <time>2021-04-26T14:55:14.000Z</time>
      </trkpt>
      <trkpt lat="47.17445" lon="-1.60721">
        <ele>59</ele>
        <time>2021-04-26T14:55:15.000Z</time>
      </trkpt>
      <trkpt lat="47.17439" lon="-1.60732">
        <ele>58</ele>
        <time>2021-04-26T14:55:16.000Z</time>
      </trkpt>
      <trkpt lat="47.17432" lon="-1.60743">
        <ele>58</ele>
        <time>2021-04-26T14:55:17.000Z</time>
      </trkpt>
      <trkpt lat="47.17426" lon="-1.60756">
        <ele>58</ele>
        <time>2021-04-26T14:55:18.000Z</time>
      </trkpt>
      <trkpt lat="47.17421" lon="-1.60769">
        <ele>57</ele>
        <time>2021-04-26T14:55:19.000Z</time>
      </trkpt>
      <trkpt lat="47.17416" lon="-1.60784">
        <ele>57</ele>
        <time>2021-04-26T14:55:20.000Z</time>
      </trkpt>
      <trkpt lat="47.17411" lon="-1.60798">
        <ele>56</ele>
        <time>2021-04-26T14:55:21.000Z</time>
      </trkpt>
      <trkpt lat="47.17406" lon="-1.60813">
        <ele>56</ele>
        <time>2021-04-26T14:55:22.000Z</time>
      </trkpt>
      <trkpt lat="47.17402" lon="-1.60827">
        <ele>55</ele>
        <time>2021-04-26T14:55:23.000Z</time>
      </trkpt>
      <trkpt lat="47.17399" lon="-1.60843">
        <ele>55</ele>
        <time>2021-04-26T14:55:24.000Z</time>
      </trkpt>
      <trkpt lat="47.17397" lon="-1.60859">
        <ele>55</ele>
        <time>2021-04-26T14:55:25.000Z</time>
      </trkpt>
      <trkpt lat="47.17396" lon="-1.60875">
        <ele>55</ele>
        <time>2021-04-26T14:55:26.000Z</time>
      </trkpt>
      <trkpt lat="47.17395" lon="-1.60891">
        <ele>55</ele>
        <time>2021-04-26T14:55:27.000Z</time>
      </trkpt>
      <trkpt lat="47.17395" lon="-1.60907">
        <ele>54</ele>
        <time>2021-04-26T14:55:28.000Z</time>
      </trkpt>
      <trkpt lat="47.17396" lon="-1.60922">
        <ele>53</ele>
        <time>2021-04-26T14:55:29.000Z</time>
      </trkpt>
      <trkpt lat="47.17397" lon="-1.60937">
        <ele>53</ele>
        <time>2021-04-26T14:55:30.000Z</time>
      </trkpt>
      <trkpt lat="47.174" lon="-1.60951">
        <ele>52</ele>
        <time>2021-04-26T14:55:31.000Z</time>
      </trkpt>
      <trkpt lat="47.17403" lon="-1.60967">
        <ele>51</ele>
        <time>2021-04-26T14:55:33.000Z</time>
      </trkpt>
      <trkpt lat="47.1741" lon="-1.6098">
        <ele>51</ele>
        <time>2021-04-26T14:55:36.000Z</time>
      </trkpt>
      <trkpt lat="47.17416" lon="-1.60992">
        <ele>51</ele>
        <time>2021-04-26T14:55:38.000Z</time>
      </trkpt>
      <trkpt lat="47.1742" lon="-1.61011">
        <ele>51</ele>
        <time>2021-04-26T14:55:40.000Z</time>
      </trkpt>
      <trkpt lat="47.17421" lon="-1.61032">
        <ele>51</ele>
        <time>2021-04-26T14:55:42.000Z</time>
      </trkpt>
      <trkpt lat="47.17424" lon="-1.61052">
        <ele>51</ele>
        <time>2021-04-26T14:55:44.000Z</time>
      </trkpt>
      <trkpt lat="47.17431" lon="-1.61069">
        <ele>51</ele>
        <time>2021-04-26T14:55:46.000Z</time>
      </trkpt>
      <trkpt lat="47.17439" lon="-1.61088">
        <ele>52</ele>
        <time>2021-04-26T14:55:48.000Z</time>
      </trkpt>
      <trkpt lat="47.17447" lon="-1.61107">
        <ele>52</ele>
        <time>2021-04-26T14:55:50.000Z</time>
      </trkpt>
      <trkpt lat="47.17454" lon="-1.61125">
        <ele>53</ele>
        <time>2021-04-26T14:55:52.000Z</time>
      </trkpt>
      <trkpt lat="47.17461" lon="-1.61143">
        <ele>54</ele>
        <time>2021-04-26T14:55:54.000Z</time>
      </trkpt>
      <trkpt lat="47.17468" lon="-1.6116">
        <ele>54</ele>
        <time>2021-04-26T14:55:56.000Z</time>
      </trkpt>
      <trkpt lat="47.17475" lon="-1.61176">
        <ele>55</ele>
        <time>2021-04-26T14:55:58.000Z</time>
      </trkpt>
      <trkpt lat="47.17482" lon="-1.61193">
        <ele>55</ele>
        <time>2021-04-26T14:56:00.000Z</time>
      </trkpt>
      <trkpt lat="47.17489" lon="-1.6121">
        <ele>55</ele>
        <time>2021-04-26T14:56:02.000Z</time>
      </trkpt>
      <trkpt lat="47.17495" lon="-1.61226">
        <ele>56</ele>
        <time>2021-04-26T14:56:04.000Z</time>
      </trkpt>
      <trkpt lat="47.17503" lon="-1.61242">
        <ele>55</ele>
        <time>2021-04-26T14:56:06.000Z</time>
      </trkpt>
      <trkpt lat="47.17511" lon="-1.61257">
        <ele>55</ele>
        <time>2021-04-26T14:56:08.000Z</time>
      </trkpt>
      <trkpt lat="47.17519" lon="-1.61271">
        <ele>55</ele>
        <time>2021-04-26T14:56:10.000Z</time>
      </trkpt>
      <trkpt lat="47.17529" lon="-1.61283">
        <ele>55</ele>
        <time>2021-04-26T14:56:12.000Z</time>
      </trkpt>
      <trkpt lat="47.1754" lon="-1.61291">
        <ele>55</ele>
        <time>2021-04-26T14:56:14.000Z</time>
      </trkpt>
      <trkpt lat="47.17552" lon="-1.61298">
        <ele>55</ele>
        <time>2021-04-26T14:56:16.000Z</time>
      </trkpt>
      <trkpt lat="47.17559" lon="-1.61313">
        <ele>55</ele>
        <time>2021-04-26T14:56:18.000Z</time>
      </trkpt>
      <trkpt lat="47.17559" lon="-1.61332">
        <ele>54</ele>
        <time>2021-04-26T14:56:20.000Z</time>
      </trkpt>
      <trkpt lat="47.17551" lon="-1.61349">
        <ele>54</ele>
        <time>2021-04-26T14:56:22.000Z</time>
      </trkpt>
      <trkpt lat="47.17539" lon="-1.61362">
        <ele>54</ele>
        <time>2021-04-26T14:56:24.000Z</time>
      </trkpt>
      <trkpt lat="47.17529" lon="-1.61377">
        <ele>55</ele>
        <time>2021-04-26T14:56:26.000Z</time>
      </trkpt>
      <trkpt lat="47.17523" lon="-1.61396">
        <ele>56</ele>
        <time>2021-04-26T14:56:28.000Z</time>
      </trkpt>
      <trkpt lat="47.17519" lon="-1.61414">
        <ele>57</ele>
        <time>2021-04-26T14:56:30.000Z</time>
      </trkpt>
      <trkpt lat="47.17515" lon="-1.61431">
        <ele>58</ele>
        <time>2021-04-26T14:56:32.000Z</time>
      </trkpt>
      <trkpt lat="47.17512" lon="-1.6145">
        <ele>59</ele>
        <time>2021-04-26T14:56:34.000Z</time>
      </trkpt>
      <trkpt lat="47.17504" lon="-1.61462">
        <ele>60</ele>
        <time>2021-04-26T14:56:36.000Z</time>
      </trkpt>
      <trkpt lat="47.1749" lon="-1.61469">
        <ele>60</ele>
        <time>2021-04-26T14:56:38.000Z</time>
      </trkpt>
      <trkpt lat="47.17476" lon="-1.61473">
        <ele>60</ele>
        <time>2021-04-26T14:56:40.000Z</time>
      </trkpt>
      <trkpt lat="47.17463" lon="-1.61479">
        <ele>61</ele>
        <time>2021-04-26T14:56:42.000Z</time>
      </trkpt>
      <trkpt lat="47.17451" lon="-1.61485">
        <ele>63</ele>
        <time>2021-04-26T14:56:44.000Z</time>
      </trkpt>
      <trkpt lat="47.17439" lon="-1.61492">
        <ele>64</ele>
        <time>2021-04-26T14:56:46.000Z</time>
      </trkpt>
      <trkpt lat="47.17428" lon="-1.61499">
        <ele>64</ele>
        <time>2021-04-26T14:56:48.000Z</time>
      </trkpt>
      <trkpt lat="47.17417" lon="-1.61506">
        <ele>65</ele>
        <time>2021-04-26T14:56:50.000Z</time>
      </trkpt>
      <trkpt lat="47.17406" lon="-1.61515">
        <ele>66</ele>
        <time>2021-04-26T14:56:52.000Z</time>
      </trkpt>
      <trkpt lat="47.17396" lon="-1.61523">
        <ele>66</ele>
        <time>2021-04-26T14:56:54.000Z</time>
      </trkpt>
      <trkpt lat="47.17386" lon="-1.61531">
        <ele>67</ele>
        <time>2021-04-26T14:56:56.000Z</time>
      </trkpt>
      <trkpt lat="47.17377" lon="-1.6154">
        <ele>67</ele>
        <time>2021-04-26T14:56:58.000Z</time>
      </trkpt>
      <trkpt lat="47.17367" lon="-1.61549">
        <ele>68</ele>
        <time>2021-04-26T14:57:00.000Z</time>
      </trkpt>
      <trkpt lat="47.17359" lon="-1.61559">
        <ele>68</ele>
        <time>2021-04-26T14:57:02.000Z</time>
      </trkpt>
      <trkpt lat="47.17349" lon="-1.61569">
        <ele>68</ele>
        <time>2021-04-26T14:57:04.000Z</time>
      </trkpt>
      <trkpt lat="47.17341" lon="-1.61579">
        <ele>68</ele>
        <time>2021-04-26T14:57:06.000Z</time>
      </trkpt>
      <trkpt lat="47.17332" lon="-1.61589">
        <ele>68</ele>
        <time>2021-04-26T14:57:08.000Z</time>
      </trkpt>
      <trkpt lat="47.17321" lon="-1.61598">
        <ele>68</ele>
        <time>2021-04-26T14:57:10.000Z</time>
      </trkpt>
      <trkpt lat="47.17314" lon="-1.61612">
        <ele>68</ele>
        <time>2021-04-26T14:57:12.000Z</time>
      </trkpt>
      <trkpt lat="47.17306" lon="-1.61626">
        <ele>68</ele>
        <time>2021-04-26T14:57:14.000Z</time>
      </trkpt>
      <trkpt lat="47.17298" lon="-1.6164">
        <ele>68</ele>
        <time>2021-04-26T14:57:16.000Z</time>
      </trkpt>
      <trkpt lat="47.17289" lon="-1.61654">
        <ele>68</ele>
        <time>2021-04-26T14:57:18.000Z</time>
      </trkpt>
      <trkpt lat="47.17282" lon="-1.61669">
        <ele>68</ele>
        <time>2021-04-26T14:57:20.000Z</time>
      </trkpt>
      <trkpt lat="47.17275" lon="-1.61684">
        <ele>68</ele>
        <time>2021-04-26T14:57:22.000Z</time>
      </trkpt>
      <trkpt lat="47.17267" lon="-1.61699">
        <ele>68</ele>
        <time>2021-04-26T14:57:24.000Z</time>
      </trkpt>
      <trkpt lat="47.1726" lon="-1.61713">
        <ele>68</ele>
        <time>2021-04-26T14:57:26.000Z</time>
      </trkpt>
      <trkpt lat="47.17253" lon="-1.61728">
        <ele>68</ele>
        <time>2021-04-26T14:57:28.000Z</time>
      </trkpt>
      <trkpt lat="47.17247" lon="-1.61744">
        <ele>67</ele>
        <time>2021-04-26T14:57:30.000Z</time>
      </trkpt>
      <trkpt lat="47.17245" lon="-1.61764">
        <ele>67</ele>
        <time>2021-04-26T14:57:32.000Z</time>
      </trkpt>
      <trkpt lat="47.1724" lon="-1.6178">
        <ele>66</ele>
        <time>2021-04-26T14:57:34.000Z</time>
      </trkpt>
      <trkpt lat="47.17227" lon="-1.61791">
        <ele>66</ele>
        <time>2021-04-26T14:57:36.000Z</time>
      </trkpt>
      <trkpt lat="47.17216" lon="-1.61801">
        <ele>66</ele>
        <time>2021-04-26T14:57:38.000Z</time>
      </trkpt>
      <trkpt lat="47.17204" lon="-1.61811">
        <ele>66</ele>
        <time>2021-04-26T14:57:40.000Z</time>
      </trkpt>
      <trkpt lat="47.17192" lon="-1.61821">
        <ele>66</ele>
        <time>2021-04-26T14:57:42.000Z</time>
      </trkpt>
      <trkpt lat="47.17181" lon="-1.61832">
        <ele>66</ele>
        <time>2021-04-26T14:57:44.000Z</time>
      </trkpt>
      <trkpt lat="47.17169" lon="-1.61844">
        <ele>66</ele>
        <time>2021-04-26T14:57:46.000Z</time>
      </trkpt>
      <trkpt lat="47.17158" lon="-1.61854">
        <ele>66</ele>
        <time>2021-04-26T14:57:48.000Z</time>
      </trkpt>
      <trkpt lat="47.17146" lon="-1.61865">
        <ele>66</ele>
        <time>2021-04-26T14:57:50.000Z</time>
      </trkpt>
      <trkpt lat="47.17135" lon="-1.61876">
        <ele>66</ele>
        <time>2021-04-26T14:57:52.000Z</time>
      </trkpt>
      <trkpt lat="47.17123" lon="-1.61887">
        <ele>66</ele>
        <time>2021-04-26T14:57:54.000Z</time>
      </trkpt>
      <trkpt lat="47.17111" lon="-1.61899">
        <ele>66</ele>
        <time>2021-04-26T14:57:56.000Z</time>
      </trkpt>
      <trkpt lat="47.17099" lon="-1.6191">
        <ele>65</ele>
        <time>2021-04-26T14:57:58.000Z</time>
      </trkpt>
      <trkpt lat="47.17088" lon="-1.61922">
        <ele>66</ele>
        <time>2021-04-26T14:58:00.000Z</time>
      </trkpt>
      <trkpt lat="47.17076" lon="-1.61933">
        <ele>66</ele>
        <time>2021-04-26T14:58:02.000Z</time>
      </trkpt>
      <trkpt lat="47.17066" lon="-1.61944">
        <ele>66</ele>
        <time>2021-04-26T14:58:04.000Z</time>
      </trkpt>
      <trkpt lat="47.17055" lon="-1.61958">
        <ele>66</ele>
        <time>2021-04-26T14:58:06.000Z</time>
      </trkpt>
      <trkpt lat="47.17044" lon="-1.61973">
        <ele>66</ele>
        <time>2021-04-26T14:58:08.000Z</time>
      </trkpt>
      <trkpt lat="47.17034" lon="-1.61988">
        <ele>66</ele>
        <time>2021-04-26T14:58:10.000Z</time>
      </trkpt>
      <trkpt lat="47.17023" lon="-1.62003">
        <ele>66</ele>
        <time>2021-04-26T14:58:12.000Z</time>
      </trkpt>
      <trkpt lat="47.17013" lon="-1.62019">
        <ele>66</ele>
        <time>2021-04-26T14:58:14.000Z</time>
      </trkpt>
      <trkpt lat="47.17003" lon="-1.62034">
        <ele>66</ele>
        <time>2021-04-26T14:58:16.000Z</time>
      </trkpt>
      <trkpt lat="47.16993" lon="-1.62051">
        <ele>66</ele>
        <time>2021-04-26T14:58:18.000Z</time>
      </trkpt>
      <trkpt lat="47.16985" lon="-1.62068">
        <ele>66</ele>
        <time>2021-04-26T14:58:20.000Z</time>
      </trkpt>
      <trkpt lat="47.16976" lon="-1.62084">
        <ele>66</ele>
        <time>2021-04-26T14:58:22.000Z</time>
      </trkpt>
      <trkpt lat="47.16967" lon="-1.621">
        <ele>66</ele>
        <time>2021-04-26T14:58:24.000Z</time>
      </trkpt>
      <trkpt lat="47.16958" lon="-1.62117">
        <ele>66</ele>
        <time>2021-04-26T14:58:26.000Z</time>
      </trkpt>
      <trkpt lat="47.16949" lon="-1.62134">
        <ele>66</ele>
        <time>2021-04-26T14:58:28.000Z</time>
      </trkpt>
      <trkpt lat="47.16941" lon="-1.62149">
        <ele>66</ele>
        <time>2021-04-26T14:58:30.000Z</time>
      </trkpt>
      <trkpt lat="47.16932" lon="-1.62166">
        <ele>66</ele>
        <time>2021-04-26T14:58:32.000Z</time>
      </trkpt>
      <trkpt lat="47.16925" lon="-1.62184">
        <ele>67</ele>
        <time>2021-04-26T14:58:34.000Z</time>
      </trkpt>
      <trkpt lat="47.16916" lon="-1.62199">
        <ele>66</ele>
        <time>2021-04-26T14:58:36.000Z</time>
      </trkpt>
      <trkpt lat="47.16906" lon="-1.62215">
        <ele>66</ele>
        <time>2021-04-26T14:58:38.000Z</time>
      </trkpt>
      <trkpt lat="47.16895" lon="-1.62229">
        <ele>66</ele>
        <time>2021-04-26T14:58:40.000Z</time>
      </trkpt>
      <trkpt lat="47.16884" lon="-1.62243">
        <ele>67</ele>
        <time>2021-04-26T14:58:42.000Z</time>
      </trkpt>
      <trkpt lat="47.16873" lon="-1.62257">
        <ele>67</ele>
        <time>2021-04-26T14:58:44.000Z</time>
      </trkpt>
      <trkpt lat="47.16862" lon="-1.6227">
        <ele>67</ele>
        <time>2021-04-26T14:58:46.000Z</time>
      </trkpt>
      <trkpt lat="47.16851" lon="-1.62284">
        <ele>67</ele>
        <time>2021-04-26T14:58:48.000Z</time>
      </trkpt>
      <trkpt lat="47.1684" lon="-1.62297">
        <ele>66</ele>
        <time>2021-04-26T14:58:50.000Z</time>
      </trkpt>
      <trkpt lat="47.16828" lon="-1.6231">
        <ele>67</ele>
        <time>2021-04-26T14:58:52.000Z</time>
      </trkpt>
      <trkpt lat="47.16816" lon="-1.62319">
        <ele>67</ele>
        <time>2021-04-26T14:58:54.000Z</time>
      </trkpt>
      <trkpt lat="47.16803" lon="-1.62328">
        <ele>66</ele>
        <time>2021-04-26T14:58:56.000Z</time>
      </trkpt>
      <trkpt lat="47.1679" lon="-1.62335">
        <ele>66</ele>
        <time>2021-04-26T14:58:58.000Z</time>
      </trkpt>
      <trkpt lat="47.16776" lon="-1.62343">
        <ele>66</ele>
        <time>2021-04-26T14:59:00.000Z</time>
      </trkpt>
      <trkpt lat="47.16764" lon="-1.62351">
        <ele>66</ele>
        <time>2021-04-26T14:59:02.000Z</time>
      </trkpt>
      <trkpt lat="47.16751" lon="-1.62361">
        <ele>65</ele>
        <time>2021-04-26T14:59:04.000Z</time>
      </trkpt>
      <trkpt lat="47.1674" lon="-1.62374">
        <ele>65</ele>
        <time>2021-04-26T14:59:06.000Z</time>
      </trkpt>
      <trkpt lat="47.16733" lon="-1.62393">
        <ele>65</ele>
        <time>2021-04-26T14:59:08.000Z</time>
      </trkpt>
      <trkpt lat="47.16729" lon="-1.62412">
        <ele>65</ele>
        <time>2021-04-26T14:59:10.000Z</time>
      </trkpt>
      <trkpt lat="47.16727" lon="-1.62431">
        <ele>65</ele>
        <time>2021-04-26T14:59:12.000Z</time>
      </trkpt>
      <trkpt lat="47.16722" lon="-1.62449">
        <ele>65</ele>
        <time>2021-04-26T14:59:14.000Z</time>
      </trkpt>
      <trkpt lat="47.16717" lon="-1.62467">
        <ele>65</ele>
        <time>2021-04-26T14:59:16.000Z</time>
      </trkpt>
      <trkpt lat="47.16714" lon="-1.62485">
        <ele>65</ele>
        <time>2021-04-26T14:59:18.000Z</time>
      </trkpt>
      <trkpt lat="47.16722" lon="-1.62498">
        <ele>65</ele>
        <time>2021-04-26T14:59:20.000Z</time>
      </trkpt>
      <trkpt lat="47.16736" lon="-1.62503">
        <ele>64</ele>
        <time>2021-04-26T14:59:22.000Z</time>
      </trkpt>
      <trkpt lat="47.16749" lon="-1.62509">
        <ele>64</ele>
        <time>2021-04-26T14:59:24.000Z</time>
      </trkpt>
      <trkpt lat="47.16761" lon="-1.62515">
        <ele>64</ele>
        <time>2021-04-26T14:59:26.000Z</time>
      </trkpt>
      <trkpt lat="47.16773" lon="-1.62523">
        <ele>64</ele>
        <time>2021-04-26T14:59:28.000Z</time>
      </trkpt>
      <trkpt lat="47.16784" lon="-1.62531">
        <ele>64</ele>
        <time>2021-04-26T14:59:30.000Z</time>
      </trkpt>
      <trkpt lat="47.16795" lon="-1.62538">
        <ele>64</ele>
        <time>2021-04-26T14:59:32.000Z</time>
      </trkpt>
      <trkpt lat="47.16806" lon="-1.62546">
        <ele>64</ele>
        <time>2021-04-26T14:59:34.000Z</time>
      </trkpt>
      <trkpt lat="47.16817" lon="-1.62555">
        <ele>63</ele>
        <time>2021-04-26T14:59:36.000Z</time>
      </trkpt>
      <trkpt lat="47.16825" lon="-1.62566">
        <ele>63</ele>
        <time>2021-04-26T14:59:38.000Z</time>
      </trkpt>
      <trkpt lat="47.1683" lon="-1.6258">
        <ele>63</ele>
        <time>2021-04-26T14:59:40.000Z</time>
      </trkpt>
      <trkpt lat="47.16825" lon="-1.62595">
        <ele>64</ele>
        <time>2021-04-26T14:59:42.000Z</time>
      </trkpt>
      <trkpt lat="47.1682" lon="-1.62606">
        <ele>64</ele>
        <time>2021-04-26T14:59:46.000Z</time>
      </trkpt>
      <trkpt lat="47.16812" lon="-1.62616">
        <ele>65</ele>
        <time>2021-04-26T15:02:00.000Z</time>
      </trkpt>
      <trkpt lat="47.16806" lon="-1.62626">
        <ele>66</ele>
        <time>2021-04-26T15:02:02.000Z</time>
      </trkpt>
      <trkpt lat="47.16799" lon="-1.62637">
        <ele>67</ele>
        <time>2021-04-26T15:02:04.000Z</time>
      </trkpt>
      <trkpt lat="47.16792" lon="-1.62646">
        <ele>68</ele>
        <time>2021-04-26T15:02:06.000Z</time>
      </trkpt>
      <trkpt lat="47.16785" lon="-1.6266">
        <ele>68</ele>
        <time>2021-04-26T15:02:09.000Z</time>
      </trkpt>
      <trkpt lat="47.16777" lon="-1.62655">
        <ele>68</ele>
        <time>2021-04-26T15:02:13.000Z</time>
      </trkpt>
    </trkseg>
  </trk>
</gpx>